<?xml version="1.0" encoding="UTF-8" standalone="no" ?>
<gpx xmlns="http://www.topografix.com/GPX/1/1" xmlns:xsi="http://www.w3.org/2001/XMLSchema-instance" xsi:schemaLocation="http://www.topografix.com/GPX/1/1 http://www.topografix.com/GPX/1/1/gpx.xsd" version="1.1" creator="VisuGPX - https://www.visugpx.com">
  <metadata>
    <name>Tour d'Europe étape 004 partA</name>
  </metadata>
  <trk>
    <name><![CDATA[Tour d'Europe étape 004 partA_1]]></name>
    <trkseg>
      <trkpt lat="51.44155" lon="3.57982">
        <ele>57.02</ele>
        <time>2020-07-02T06:34:45Z</time>
      </trkpt>
      <trkpt lat="51.44156" lon="3.57981">
        <ele>57.939</ele>
        <time>2020-07-02T06:34:51Z</time>
      </trkpt>
      <trkpt lat="51.44156" lon="3.57981">
        <ele>57.939</ele>
        <time>2020-07-02T06:34:56Z</time>
      </trkpt>
      <trkpt lat="51.44156" lon="3.57981">
        <ele>57.939</ele>
        <time>2020-07-02T06:35:02Z</time>
      </trkpt>
      <trkpt lat="51.44156" lon="3.57981">
        <ele>57.939</ele>
        <time>2020-07-02T06:35:08Z</time>
      </trkpt>
      <trkpt lat="51.44156" lon="3.57981">
        <ele>57.939</ele>
        <time>2020-07-02T06:35:13Z</time>
      </trkpt>
      <trkpt lat="51.44156" lon="3.57981">
        <ele>57.939</ele>
        <time>2020-07-02T06:35:19Z</time>
      </trkpt>
      <trkpt lat="51.44156" lon="3.57981">
        <ele>57.939</ele>
        <time>2020-07-02T06:35:24Z</time>
      </trkpt>
      <trkpt lat="51.44156" lon="3.57981">
        <ele>57.6</ele>
        <time>2020-07-02T06:35:29Z</time>
      </trkpt>
      <trkpt lat="51.44156" lon="3.57981">
        <ele>54.942</ele>
        <time>2020-07-02T06:35:35Z</time>
      </trkpt>
      <trkpt lat="51.44156" lon="3.57981">
        <ele>52.514</ele>
        <time>2020-07-02T06:35:41Z</time>
      </trkpt>
      <trkpt lat="51.44174" lon="3.57982">
        <ele>50.848</ele>
        <time>2020-07-02T06:35:47Z</time>
      </trkpt>
      <trkpt lat="51.44175" lon="3.58005">
        <ele>49.813</ele>
        <time>2020-07-02T06:35:52Z</time>
      </trkpt>
      <trkpt lat="51.44166" lon="3.58035">
        <ele>47.769</ele>
        <time>2020-07-02T06:35:58Z</time>
      </trkpt>
      <trkpt lat="51.44159" lon="3.58061">
        <ele>46.401</ele>
        <time>2020-07-02T06:36:03Z</time>
      </trkpt>
      <trkpt lat="51.44154" lon="3.58087">
        <ele>46.636</ele>
        <time>2020-07-02T06:36:09Z</time>
      </trkpt>
      <trkpt lat="51.44151" lon="3.58109">
        <ele>47.144</ele>
        <time>2020-07-02T06:36:14Z</time>
      </trkpt>
      <trkpt lat="51.4415" lon="3.58136">
        <ele>46.369</ele>
        <time>2020-07-02T06:36:20Z</time>
      </trkpt>
      <trkpt lat="51.44158" lon="3.58159">
        <ele>47.484</ele>
        <time>2020-07-02T06:36:26Z</time>
      </trkpt>
      <trkpt lat="51.44163" lon="3.58172">
        <ele>49.256</ele>
        <time>2020-07-02T06:36:31Z</time>
      </trkpt>
      <trkpt lat="51.44167" lon="3.58198">
        <ele>49.431</ele>
        <time>2020-07-02T06:36:37Z</time>
      </trkpt>
      <trkpt lat="51.4417" lon="3.58227">
        <ele>49.443</ele>
        <time>2020-07-02T06:36:43Z</time>
      </trkpt>
      <trkpt lat="51.44172" lon="3.58251">
        <ele>48.543</ele>
        <time>2020-07-02T06:36:48Z</time>
      </trkpt>
      <trkpt lat="51.44188" lon="3.58264">
        <ele>49.172</ele>
        <time>2020-07-02T06:36:53Z</time>
      </trkpt>
      <trkpt lat="51.44208" lon="3.5826">
        <ele>49.367</ele>
        <time>2020-07-02T06:36:59Z</time>
      </trkpt>
      <trkpt lat="51.44224" lon="3.58252">
        <ele>49.364</ele>
        <time>2020-07-02T06:37:04Z</time>
      </trkpt>
      <trkpt lat="51.44244" lon="3.58242">
        <ele>49.845</ele>
        <time>2020-07-02T06:37:09Z</time>
      </trkpt>
      <trkpt lat="51.4427" lon="3.58229">
        <ele>50.153</ele>
        <time>2020-07-02T06:37:15Z</time>
      </trkpt>
      <trkpt lat="51.44296" lon="3.58215">
        <ele>49.883</ele>
        <time>2020-07-02T06:37:20Z</time>
      </trkpt>
      <trkpt lat="51.44324" lon="3.58206">
        <ele>49.146</ele>
        <time>2020-07-02T06:37:26Z</time>
      </trkpt>
      <trkpt lat="51.4435" lon="3.58192">
        <ele>49.01</ele>
        <time>2020-07-02T06:37:32Z</time>
      </trkpt>
      <trkpt lat="51.44369" lon="3.5817">
        <ele>49.406</ele>
        <time>2020-07-02T06:37:38Z</time>
      </trkpt>
      <trkpt lat="51.44388" lon="3.58143">
        <ele>50.375</ele>
        <time>2020-07-02T06:37:44Z</time>
      </trkpt>
      <trkpt lat="51.44403" lon="3.58124">
        <ele>49.981</ele>
        <time>2020-07-02T06:37:49Z</time>
      </trkpt>
      <trkpt lat="51.44431" lon="3.58139">
        <ele>48.493</ele>
        <time>2020-07-02T06:37:55Z</time>
      </trkpt>
      <trkpt lat="51.44453" lon="3.58152">
        <ele>47.799</ele>
        <time>2020-07-02T06:38:01Z</time>
      </trkpt>
      <trkpt lat="51.44472" lon="3.58163">
        <ele>46.876</ele>
        <time>2020-07-02T06:38:07Z</time>
      </trkpt>
      <trkpt lat="51.44489" lon="3.58172">
        <ele>46.097</ele>
        <time>2020-07-02T06:38:12Z</time>
      </trkpt>
      <trkpt lat="51.44515" lon="3.58184">
        <ele>45.246</ele>
        <time>2020-07-02T06:38:18Z</time>
      </trkpt>
      <trkpt lat="51.44534" lon="3.58171">
        <ele>45.23</ele>
        <time>2020-07-02T06:38:23Z</time>
      </trkpt>
      <trkpt lat="51.44543" lon="3.5814">
        <ele>45.36</ele>
        <time>2020-07-02T06:38:28Z</time>
      </trkpt>
      <trkpt lat="51.44553" lon="3.58115">
        <ele>45.852</ele>
        <time>2020-07-02T06:38:34Z</time>
      </trkpt>
      <trkpt lat="51.44571" lon="3.58115">
        <ele>45.995</ele>
        <time>2020-07-02T06:38:39Z</time>
      </trkpt>
      <trkpt lat="51.44597" lon="3.58126">
        <ele>45.794</ele>
        <time>2020-07-02T06:38:45Z</time>
      </trkpt>
      <trkpt lat="51.44618" lon="3.58134">
        <ele>45.891</ele>
        <time>2020-07-02T06:38:50Z</time>
      </trkpt>
      <trkpt lat="51.44644" lon="3.58144">
        <ele>45.921</ele>
        <time>2020-07-02T06:38:56Z</time>
      </trkpt>
      <trkpt lat="51.44645" lon="3.58182">
        <ele>45.561</ele>
        <time>2020-07-02T06:39:02Z</time>
      </trkpt>
      <trkpt lat="51.44648" lon="3.58222">
        <ele>45.602</ele>
        <time>2020-07-02T06:39:08Z</time>
      </trkpt>
      <trkpt lat="51.44648" lon="3.58263">
        <ele>45.876</ele>
        <time>2020-07-02T06:39:14Z</time>
      </trkpt>
      <trkpt lat="51.44649" lon="3.58299">
        <ele>47.443</ele>
        <time>2020-07-02T06:39:19Z</time>
      </trkpt>
      <trkpt lat="51.44651" lon="3.58337">
        <ele>49.708</ele>
        <time>2020-07-02T06:39:25Z</time>
      </trkpt>
      <trkpt lat="51.44666" lon="3.58363">
        <ele>49.257</ele>
        <time>2020-07-02T06:39:30Z</time>
      </trkpt>
      <trkpt lat="51.44694" lon="3.58378">
        <ele>47.731</ele>
        <time>2020-07-02T06:39:36Z</time>
      </trkpt>
      <trkpt lat="51.4472" lon="3.58391">
        <ele>46.692</ele>
        <time>2020-07-02T06:39:42Z</time>
      </trkpt>
      <trkpt lat="51.44743" lon="3.58403">
        <ele>45.505</ele>
        <time>2020-07-02T06:39:47Z</time>
      </trkpt>
      <trkpt lat="51.44771" lon="3.58418">
        <ele>44.678</ele>
        <time>2020-07-02T06:39:53Z</time>
      </trkpt>
      <trkpt lat="51.44794" lon="3.58431">
        <ele>44.046</ele>
        <time>2020-07-02T06:39:58Z</time>
      </trkpt>
      <trkpt lat="51.44822" lon="3.58452">
        <ele>43.589</ele>
        <time>2020-07-02T06:40:04Z</time>
      </trkpt>
      <trkpt lat="51.4485" lon="3.58471">
        <ele>43.817</ele>
        <time>2020-07-02T06:40:10Z</time>
      </trkpt>
      <trkpt lat="51.44875" lon="3.58484">
        <ele>43.689</ele>
        <time>2020-07-02T06:40:15Z</time>
      </trkpt>
      <trkpt lat="51.44896" lon="3.58498">
        <ele>43.189</ele>
        <time>2020-07-02T06:40:20Z</time>
      </trkpt>
      <trkpt lat="51.4492" lon="3.58517">
        <ele>42.056</ele>
        <time>2020-07-02T06:40:26Z</time>
      </trkpt>
      <trkpt lat="51.44943" lon="3.58529">
        <ele>41.798</ele>
        <time>2020-07-02T06:40:32Z</time>
      </trkpt>
      <trkpt lat="51.44953" lon="3.58539">
        <ele>42.26</ele>
        <time>2020-07-02T06:40:37Z</time>
      </trkpt>
      <trkpt lat="51.4495" lon="3.58545">
        <ele>42.89</ele>
        <time>2020-07-02T06:40:43Z</time>
      </trkpt>
      <trkpt lat="51.4495" lon="3.58545">
        <ele>42.89</ele>
        <time>2020-07-02T06:40:48Z</time>
      </trkpt>
      <trkpt lat="51.4495" lon="3.58545">
        <ele>42.89</ele>
        <time>2020-07-02T06:40:54Z</time>
      </trkpt>
      <trkpt lat="51.4495" lon="3.58545">
        <ele>42.89</ele>
        <time>2020-07-02T06:41:00Z</time>
      </trkpt>
      <trkpt lat="51.4495" lon="3.58545">
        <ele>42.89</ele>
        <time>2020-07-02T06:41:06Z</time>
      </trkpt>
      <trkpt lat="51.4495" lon="3.58545">
        <ele>42.89</ele>
        <time>2020-07-02T06:41:12Z</time>
      </trkpt>
      <trkpt lat="51.4495" lon="3.58545">
        <ele>42.89</ele>
        <time>2020-07-02T06:41:17Z</time>
      </trkpt>
      <trkpt lat="51.4495" lon="3.58545">
        <ele>42.89</ele>
        <time>2020-07-02T06:41:22Z</time>
      </trkpt>
      <trkpt lat="51.4495" lon="3.58545">
        <ele>42.89</ele>
        <time>2020-07-02T06:41:28Z</time>
      </trkpt>
      <trkpt lat="51.44954" lon="3.58549">
        <ele>43.837</ele>
        <time>2020-07-02T06:41:33Z</time>
      </trkpt>
      <trkpt lat="51.44966" lon="3.58551">
        <ele>45.171</ele>
        <time>2020-07-02T06:41:39Z</time>
      </trkpt>
      <trkpt lat="51.44986" lon="3.58549">
        <ele>46.22</ele>
        <time>2020-07-02T06:41:45Z</time>
      </trkpt>
      <trkpt lat="51.45013" lon="3.58564">
        <ele>46.845</ele>
        <time>2020-07-02T06:41:51Z</time>
      </trkpt>
      <trkpt lat="51.45034" lon="3.5858">
        <ele>46.997</ele>
        <time>2020-07-02T06:41:56Z</time>
      </trkpt>
      <trkpt lat="51.45059" lon="3.58606">
        <ele>46.257</ele>
        <time>2020-07-02T06:42:02Z</time>
      </trkpt>
      <trkpt lat="51.4508" lon="3.58628">
        <ele>45.192</ele>
        <time>2020-07-02T06:42:07Z</time>
      </trkpt>
      <trkpt lat="51.45111" lon="3.58645">
        <ele>44.007</ele>
        <time>2020-07-02T06:42:13Z</time>
      </trkpt>
      <trkpt lat="51.45137" lon="3.5866">
        <ele>43.09</ele>
        <time>2020-07-02T06:42:18Z</time>
      </trkpt>
      <trkpt lat="51.45172" lon="3.58677">
        <ele>41.592</ele>
        <time>2020-07-02T06:42:25Z</time>
      </trkpt>
      <trkpt lat="51.45203" lon="3.58693">
        <ele>40.553</ele>
        <time>2020-07-02T06:42:31Z</time>
      </trkpt>
      <trkpt lat="51.45233" lon="3.58706">
        <ele>40.962</ele>
        <time>2020-07-02T06:42:37Z</time>
      </trkpt>
      <trkpt lat="51.45258" lon="3.58709">
        <ele>41.08</ele>
        <time>2020-07-02T06:42:42Z</time>
      </trkpt>
      <trkpt lat="51.45289" lon="3.58726">
        <ele>41.164</ele>
        <time>2020-07-02T06:42:48Z</time>
      </trkpt>
      <trkpt lat="51.45317" lon="3.5875">
        <ele>40.937</ele>
        <time>2020-07-02T06:42:54Z</time>
      </trkpt>
      <trkpt lat="51.45347" lon="3.58767">
        <ele>40.639</ele>
        <time>2020-07-02T06:43:00Z</time>
      </trkpt>
      <trkpt lat="51.45374" lon="3.58782">
        <ele>40.21</ele>
        <time>2020-07-02T06:43:06Z</time>
      </trkpt>
      <trkpt lat="51.45401" lon="3.58798">
        <ele>39.991</ele>
        <time>2020-07-02T06:43:12Z</time>
      </trkpt>
      <trkpt lat="51.4543" lon="3.58812">
        <ele>39.71</ele>
        <time>2020-07-02T06:43:18Z</time>
      </trkpt>
      <trkpt lat="51.45458" lon="3.58828">
        <ele>39.168</ele>
        <time>2020-07-02T06:43:24Z</time>
      </trkpt>
      <trkpt lat="51.45487" lon="3.58843">
        <ele>38.765</ele>
        <time>2020-07-02T06:43:30Z</time>
      </trkpt>
      <trkpt lat="51.45516" lon="3.58858">
        <ele>38.744</ele>
        <time>2020-07-02T06:43:36Z</time>
      </trkpt>
      <trkpt lat="51.45545" lon="3.58873">
        <ele>38.242</ele>
        <time>2020-07-02T06:43:42Z</time>
      </trkpt>
      <trkpt lat="51.45576" lon="3.58888">
        <ele>38.517</ele>
        <time>2020-07-02T06:43:48Z</time>
      </trkpt>
      <trkpt lat="51.45605" lon="3.58903">
        <ele>38.558</ele>
        <time>2020-07-02T06:43:54Z</time>
      </trkpt>
      <trkpt lat="51.45634" lon="3.58918">
        <ele>38.516</ele>
        <time>2020-07-02T06:44:00Z</time>
      </trkpt>
      <trkpt lat="51.45663" lon="3.58935">
        <ele>39.529</ele>
        <time>2020-07-02T06:44:06Z</time>
      </trkpt>
      <trkpt lat="51.45692" lon="3.5895">
        <ele>41.608</ele>
        <time>2020-07-02T06:44:12Z</time>
      </trkpt>
      <trkpt lat="51.45721" lon="3.58965">
        <ele>42.59</ele>
        <time>2020-07-02T06:44:18Z</time>
      </trkpt>
      <trkpt lat="51.4575" lon="3.5898">
        <ele>42.277</ele>
        <time>2020-07-02T06:44:24Z</time>
      </trkpt>
      <trkpt lat="51.45778" lon="3.58995">
        <ele>43.02</ele>
        <time>2020-07-02T06:44:30Z</time>
      </trkpt>
      <trkpt lat="51.45801" lon="3.59008">
        <ele>43.868</ele>
        <time>2020-07-02T06:44:35Z</time>
      </trkpt>
      <trkpt lat="51.45828" lon="3.59024">
        <ele>45.812</ele>
        <time>2020-07-02T06:44:40Z</time>
      </trkpt>
      <trkpt lat="51.45859" lon="3.59039">
        <ele>47.36</ele>
        <time>2020-07-02T06:44:46Z</time>
      </trkpt>
      <trkpt lat="51.45886" lon="3.59054">
        <ele>46.077</ele>
        <time>2020-07-02T06:44:52Z</time>
      </trkpt>
      <trkpt lat="51.45915" lon="3.59067">
        <ele>44.23</ele>
        <time>2020-07-02T06:44:58Z</time>
      </trkpt>
      <trkpt lat="51.45939" lon="3.5908">
        <ele>41.828</ele>
        <time>2020-07-02T06:45:03Z</time>
      </trkpt>
      <trkpt lat="51.45963" lon="3.59093">
        <ele>39.242</ele>
        <time>2020-07-02T06:45:08Z</time>
      </trkpt>
      <trkpt lat="51.45991" lon="3.59108">
        <ele>37.093</ele>
        <time>2020-07-02T06:45:14Z</time>
      </trkpt>
      <trkpt lat="51.46015" lon="3.5912">
        <ele>35.468</ele>
        <time>2020-07-02T06:45:19Z</time>
      </trkpt>
      <trkpt lat="51.46043" lon="3.59132">
        <ele>34.72</ele>
        <time>2020-07-02T06:45:25Z</time>
      </trkpt>
      <trkpt lat="51.46066" lon="3.59146">
        <ele>33.215</ele>
        <time>2020-07-02T06:45:30Z</time>
      </trkpt>
      <trkpt lat="51.46097" lon="3.59162">
        <ele>32.704</ele>
        <time>2020-07-02T06:45:36Z</time>
      </trkpt>
      <trkpt lat="51.46127" lon="3.59176">
        <ele>32.504</ele>
        <time>2020-07-02T06:45:42Z</time>
      </trkpt>
      <trkpt lat="51.4615" lon="3.59188">
        <ele>32.967</ele>
        <time>2020-07-02T06:45:47Z</time>
      </trkpt>
      <trkpt lat="51.46178" lon="3.59203">
        <ele>34.212</ele>
        <time>2020-07-02T06:45:53Z</time>
      </trkpt>
      <trkpt lat="51.46208" lon="3.59218">
        <ele>35.118</ele>
        <time>2020-07-02T06:45:59Z</time>
      </trkpt>
      <trkpt lat="51.46237" lon="3.59235">
        <ele>35.798</ele>
        <time>2020-07-02T06:46:05Z</time>
      </trkpt>
      <trkpt lat="51.46266" lon="3.59249">
        <ele>36.39</ele>
        <time>2020-07-02T06:46:11Z</time>
      </trkpt>
      <trkpt lat="51.46289" lon="3.5926">
        <ele>36.988</ele>
        <time>2020-07-02T06:46:16Z</time>
      </trkpt>
      <trkpt lat="51.46322" lon="3.59278">
        <ele>37.515</ele>
        <time>2020-07-02T06:46:23Z</time>
      </trkpt>
      <trkpt lat="51.46345" lon="3.5929">
        <ele>37.738</ele>
        <time>2020-07-02T06:46:28Z</time>
      </trkpt>
      <trkpt lat="51.46368" lon="3.59303">
        <ele>38.923</ele>
        <time>2020-07-02T06:46:33Z</time>
      </trkpt>
      <trkpt lat="51.46395" lon="3.59317">
        <ele>41.344</ele>
        <time>2020-07-02T06:46:39Z</time>
      </trkpt>
      <trkpt lat="51.46418" lon="3.59332">
        <ele>42.719</ele>
        <time>2020-07-02T06:46:44Z</time>
      </trkpt>
      <trkpt lat="51.46444" lon="3.59346">
        <ele>43.568</ele>
        <time>2020-07-02T06:46:50Z</time>
      </trkpt>
      <trkpt lat="51.46463" lon="3.59353">
        <ele>44.699</ele>
        <time>2020-07-02T06:46:55Z</time>
      </trkpt>
      <trkpt lat="51.4648" lon="3.59358">
        <ele>46.843</ele>
        <time>2020-07-02T06:47:00Z</time>
      </trkpt>
      <trkpt lat="51.46498" lon="3.59365">
        <ele>46.939</ele>
        <time>2020-07-02T06:47:05Z</time>
      </trkpt>
      <trkpt lat="51.46523" lon="3.59381">
        <ele>46.116</ele>
        <time>2020-07-02T06:47:11Z</time>
      </trkpt>
      <trkpt lat="51.46551" lon="3.59398">
        <ele>45.523</ele>
        <time>2020-07-02T06:47:16Z</time>
      </trkpt>
      <trkpt lat="51.46586" lon="3.59417">
        <ele>45.148</ele>
        <time>2020-07-02T06:47:22Z</time>
      </trkpt>
      <trkpt lat="51.4662" lon="3.59435">
        <ele>45.108</ele>
        <time>2020-07-02T06:47:28Z</time>
      </trkpt>
      <trkpt lat="51.46652" lon="3.59451">
        <ele>44.807</ele>
        <time>2020-07-02T06:47:34Z</time>
      </trkpt>
      <trkpt lat="51.46683" lon="3.59468">
        <ele>44.581</ele>
        <time>2020-07-02T06:47:40Z</time>
      </trkpt>
      <trkpt lat="51.46714" lon="3.59484">
        <ele>44.08</ele>
        <time>2020-07-02T06:47:46Z</time>
      </trkpt>
      <trkpt lat="51.46738" lon="3.59495">
        <ele>43.541</ele>
        <time>2020-07-02T06:47:51Z</time>
      </trkpt>
      <trkpt lat="51.46766" lon="3.5951">
        <ele>43.114</ele>
        <time>2020-07-02T06:47:57Z</time>
      </trkpt>
      <trkpt lat="51.46795" lon="3.59527">
        <ele>42.814</ele>
        <time>2020-07-02T06:48:03Z</time>
      </trkpt>
      <trkpt lat="51.46825" lon="3.59545">
        <ele>42.447</ele>
        <time>2020-07-02T06:48:09Z</time>
      </trkpt>
      <trkpt lat="51.46858" lon="3.59559">
        <ele>42.376</ele>
        <time>2020-07-02T06:48:15Z</time>
      </trkpt>
      <trkpt lat="51.46883" lon="3.59571">
        <ele>41.792</ele>
        <time>2020-07-02T06:48:20Z</time>
      </trkpt>
      <trkpt lat="51.46912" lon="3.59587">
        <ele>41.319</ele>
        <time>2020-07-02T06:48:26Z</time>
      </trkpt>
      <trkpt lat="51.46943" lon="3.59603">
        <ele>40.375</ele>
        <time>2020-07-02T06:48:32Z</time>
      </trkpt>
      <trkpt lat="51.46968" lon="3.59617">
        <ele>39.245</ele>
        <time>2020-07-02T06:48:37Z</time>
      </trkpt>
      <trkpt lat="51.46997" lon="3.59633">
        <ele>38.273</ele>
        <time>2020-07-02T06:48:43Z</time>
      </trkpt>
      <trkpt lat="51.47022" lon="3.59646">
        <ele>37.271</ele>
        <time>2020-07-02T06:48:48Z</time>
      </trkpt>
      <trkpt lat="51.47047" lon="3.59658">
        <ele>35.723</ele>
        <time>2020-07-02T06:48:53Z</time>
      </trkpt>
      <trkpt lat="51.47077" lon="3.59673">
        <ele>35.888</ele>
        <time>2020-07-02T06:48:59Z</time>
      </trkpt>
      <trkpt lat="51.47106" lon="3.59689">
        <ele>36.113</ele>
        <time>2020-07-02T06:49:05Z</time>
      </trkpt>
      <trkpt lat="51.4713" lon="3.59702">
        <ele>36.469</ele>
        <time>2020-07-02T06:49:10Z</time>
      </trkpt>
      <trkpt lat="51.47159" lon="3.59717">
        <ele>36.776</ele>
        <time>2020-07-02T06:49:16Z</time>
      </trkpt>
      <trkpt lat="51.47189" lon="3.59733">
        <ele>37.982</ele>
        <time>2020-07-02T06:49:22Z</time>
      </trkpt>
      <trkpt lat="51.47217" lon="3.59748">
        <ele>38.537</ele>
        <time>2020-07-02T06:49:28Z</time>
      </trkpt>
      <trkpt lat="51.47247" lon="3.59763">
        <ele>38.25</ele>
        <time>2020-07-02T06:49:34Z</time>
      </trkpt>
      <trkpt lat="51.47277" lon="3.59777">
        <ele>37.578</ele>
        <time>2020-07-02T06:49:40Z</time>
      </trkpt>
      <trkpt lat="51.47306" lon="3.59792">
        <ele>36.471</ele>
        <time>2020-07-02T06:49:46Z</time>
      </trkpt>
      <trkpt lat="51.47336" lon="3.59807">
        <ele>35.939</ele>
        <time>2020-07-02T06:49:52Z</time>
      </trkpt>
      <trkpt lat="51.4736" lon="3.59821">
        <ele>35.937</ele>
        <time>2020-07-02T06:49:57Z</time>
      </trkpt>
      <trkpt lat="51.47385" lon="3.59835">
        <ele>37.075</ele>
        <time>2020-07-02T06:50:02Z</time>
      </trkpt>
      <trkpt lat="51.47417" lon="3.59848">
        <ele>37.23</ele>
        <time>2020-07-02T06:50:08Z</time>
      </trkpt>
      <trkpt lat="51.47446" lon="3.59865">
        <ele>36.852</ele>
        <time>2020-07-02T06:50:14Z</time>
      </trkpt>
      <trkpt lat="51.47471" lon="3.59878">
        <ele>35.862</ele>
        <time>2020-07-02T06:50:19Z</time>
      </trkpt>
      <trkpt lat="51.47501" lon="3.59893">
        <ele>35.975</ele>
        <time>2020-07-02T06:50:25Z</time>
      </trkpt>
      <trkpt lat="51.47527" lon="3.59906">
        <ele>36.153</ele>
        <time>2020-07-02T06:50:30Z</time>
      </trkpt>
      <trkpt lat="51.47555" lon="3.59923">
        <ele>36.308</ele>
        <time>2020-07-02T06:50:36Z</time>
      </trkpt>
      <trkpt lat="51.47582" lon="3.59937">
        <ele>35.937</ele>
        <time>2020-07-02T06:50:41Z</time>
      </trkpt>
      <trkpt lat="51.47608" lon="3.5995">
        <ele>35.535</ele>
        <time>2020-07-02T06:50:46Z</time>
      </trkpt>
      <trkpt lat="51.47637" lon="3.59966">
        <ele>35.176</ele>
        <time>2020-07-02T06:50:52Z</time>
      </trkpt>
      <trkpt lat="51.47665" lon="3.59979">
        <ele>36.116</ele>
        <time>2020-07-02T06:50:58Z</time>
      </trkpt>
      <trkpt lat="51.47692" lon="3.59989">
        <ele>37.033</ele>
        <time>2020-07-02T06:51:03Z</time>
      </trkpt>
      <trkpt lat="51.47719" lon="3.60002">
        <ele>38.138</ele>
        <time>2020-07-02T06:51:08Z</time>
      </trkpt>
      <trkpt lat="51.4775" lon="3.6002">
        <ele>38.811</ele>
        <time>2020-07-02T06:51:14Z</time>
      </trkpt>
      <trkpt lat="51.4778" lon="3.60039">
        <ele>40.071</ele>
        <time>2020-07-02T06:51:20Z</time>
      </trkpt>
      <trkpt lat="51.47809" lon="3.60056">
        <ele>40.365</ele>
        <time>2020-07-02T06:51:26Z</time>
      </trkpt>
      <trkpt lat="51.47836" lon="3.60071">
        <ele>40.952</ele>
        <time>2020-07-02T06:51:31Z</time>
      </trkpt>
      <trkpt lat="51.47868" lon="3.60088">
        <ele>41.853</ele>
        <time>2020-07-02T06:51:37Z</time>
      </trkpt>
      <trkpt lat="51.47894" lon="3.601">
        <ele>42.77</ele>
        <time>2020-07-02T06:51:42Z</time>
      </trkpt>
      <trkpt lat="51.47917" lon="3.60113">
        <ele>42.763</ele>
        <time>2020-07-02T06:51:47Z</time>
      </trkpt>
      <trkpt lat="51.47947" lon="3.60128">
        <ele>41.682</ele>
        <time>2020-07-02T06:51:53Z</time>
      </trkpt>
      <trkpt lat="51.47978" lon="3.60145">
        <ele>40.878</ele>
        <time>2020-07-02T06:51:59Z</time>
      </trkpt>
      <trkpt lat="51.48008" lon="3.6016">
        <ele>40.729</ele>
        <time>2020-07-02T06:52:05Z</time>
      </trkpt>
      <trkpt lat="51.48038" lon="3.60175">
        <ele>40.764</ele>
        <time>2020-07-02T06:52:11Z</time>
      </trkpt>
      <trkpt lat="51.48063" lon="3.60187">
        <ele>41.073</ele>
        <time>2020-07-02T06:52:16Z</time>
      </trkpt>
      <trkpt lat="51.48093" lon="3.60203">
        <ele>41.972</ele>
        <time>2020-07-02T06:52:22Z</time>
      </trkpt>
      <trkpt lat="51.48121" lon="3.60217">
        <ele>43.017</ele>
        <time>2020-07-02T06:52:27Z</time>
      </trkpt>
      <trkpt lat="51.48147" lon="3.60233">
        <ele>43.526</ele>
        <time>2020-07-02T06:52:33Z</time>
      </trkpt>
      <trkpt lat="51.4817" lon="3.60246">
        <ele>42.839</ele>
        <time>2020-07-02T06:52:38Z</time>
      </trkpt>
      <trkpt lat="51.482" lon="3.60261">
        <ele>41.766</ele>
        <time>2020-07-02T06:52:44Z</time>
      </trkpt>
      <trkpt lat="51.48224" lon="3.60273">
        <ele>40.85</ele>
        <time>2020-07-02T06:52:49Z</time>
      </trkpt>
      <trkpt lat="51.48263" lon="3.60294">
        <ele>39.803</ele>
        <time>2020-07-02T06:52:57Z</time>
      </trkpt>
      <trkpt lat="51.48287" lon="3.60306">
        <ele>39.253</ele>
        <time>2020-07-02T06:53:02Z</time>
      </trkpt>
      <trkpt lat="51.48323" lon="3.60324">
        <ele>40.385</ele>
        <time>2020-07-02T06:53:09Z</time>
      </trkpt>
      <trkpt lat="51.48347" lon="3.60338">
        <ele>40.785</ele>
        <time>2020-07-02T06:53:14Z</time>
      </trkpt>
      <trkpt lat="51.48376" lon="3.60353">
        <ele>41.878</ele>
        <time>2020-07-02T06:53:20Z</time>
      </trkpt>
      <trkpt lat="51.48404" lon="3.60369">
        <ele>41.964</ele>
        <time>2020-07-02T06:53:26Z</time>
      </trkpt>
      <trkpt lat="51.48433" lon="3.60383">
        <ele>41.798</ele>
        <time>2020-07-02T06:53:32Z</time>
      </trkpt>
      <trkpt lat="51.48464" lon="3.60398">
        <ele>41.129</ele>
        <time>2020-07-02T06:53:38Z</time>
      </trkpt>
      <trkpt lat="51.48485" lon="3.60411">
        <ele>41.021</ele>
        <time>2020-07-02T06:53:43Z</time>
      </trkpt>
      <trkpt lat="51.48514" lon="3.60427">
        <ele>42.034</ele>
        <time>2020-07-02T06:53:49Z</time>
      </trkpt>
      <trkpt lat="51.48547" lon="3.60446">
        <ele>40.398</ele>
        <time>2020-07-02T06:53:56Z</time>
      </trkpt>
      <trkpt lat="51.48578" lon="3.6046">
        <ele>40.915</ele>
        <time>2020-07-02T06:54:02Z</time>
      </trkpt>
      <trkpt lat="51.48605" lon="3.60473">
        <ele>40.454</ele>
        <time>2020-07-02T06:54:08Z</time>
      </trkpt>
      <trkpt lat="51.48634" lon="3.60487">
        <ele>39.121</ele>
        <time>2020-07-02T06:54:14Z</time>
      </trkpt>
      <trkpt lat="51.48657" lon="3.60499">
        <ele>38.16</ele>
        <time>2020-07-02T06:54:19Z</time>
      </trkpt>
      <trkpt lat="51.48686" lon="3.60514">
        <ele>37.281</ele>
        <time>2020-07-02T06:54:25Z</time>
      </trkpt>
      <trkpt lat="51.48711" lon="3.60527">
        <ele>36.417</ele>
        <time>2020-07-02T06:54:30Z</time>
      </trkpt>
      <trkpt lat="51.48736" lon="3.6054">
        <ele>37.346</ele>
        <time>2020-07-02T06:54:35Z</time>
      </trkpt>
      <trkpt lat="51.48762" lon="3.60554">
        <ele>37.58</ele>
        <time>2020-07-02T06:54:41Z</time>
      </trkpt>
      <trkpt lat="51.4879" lon="3.60569">
        <ele>37.584</ele>
        <time>2020-07-02T06:54:47Z</time>
      </trkpt>
      <trkpt lat="51.48816" lon="3.60581">
        <ele>36.401</ele>
        <time>2020-07-02T06:54:52Z</time>
      </trkpt>
      <trkpt lat="51.48844" lon="3.60597">
        <ele>36.877</ele>
        <time>2020-07-02T06:54:58Z</time>
      </trkpt>
      <trkpt lat="51.48872" lon="3.60612">
        <ele>37.336</ele>
        <time>2020-07-02T06:55:04Z</time>
      </trkpt>
      <trkpt lat="51.48897" lon="3.60625">
        <ele>37.098</ele>
        <time>2020-07-02T06:55:09Z</time>
      </trkpt>
      <trkpt lat="51.48921" lon="3.60638">
        <ele>37.085</ele>
        <time>2020-07-02T06:55:14Z</time>
      </trkpt>
      <trkpt lat="51.48948" lon="3.60653">
        <ele>36.601</ele>
        <time>2020-07-02T06:55:20Z</time>
      </trkpt>
      <trkpt lat="51.48972" lon="3.60668">
        <ele>37.351</ele>
        <time>2020-07-02T06:55:25Z</time>
      </trkpt>
      <trkpt lat="51.49" lon="3.60687">
        <ele>37.505</ele>
        <time>2020-07-02T06:55:31Z</time>
      </trkpt>
      <trkpt lat="51.49027" lon="3.60707">
        <ele>37.785</ele>
        <time>2020-07-02T06:55:37Z</time>
      </trkpt>
      <trkpt lat="51.49054" lon="3.60728">
        <ele>37.37</ele>
        <time>2020-07-02T06:55:43Z</time>
      </trkpt>
      <trkpt lat="51.49076" lon="3.60747">
        <ele>37.029</ele>
        <time>2020-07-02T06:55:48Z</time>
      </trkpt>
      <trkpt lat="51.49098" lon="3.60766">
        <ele>36.892</ele>
        <time>2020-07-02T06:55:53Z</time>
      </trkpt>
      <trkpt lat="51.49125" lon="3.60791">
        <ele>35.876</ele>
        <time>2020-07-02T06:55:59Z</time>
      </trkpt>
      <trkpt lat="51.49147" lon="3.60815">
        <ele>35.661</ele>
        <time>2020-07-02T06:56:04Z</time>
      </trkpt>
      <trkpt lat="51.49174" lon="3.60844">
        <ele>35.004</ele>
        <time>2020-07-02T06:56:10Z</time>
      </trkpt>
      <trkpt lat="51.49191" lon="3.60865">
        <ele>34.742</ele>
        <time>2020-07-02T06:56:15Z</time>
      </trkpt>
      <trkpt lat="51.49214" lon="3.60893">
        <ele>34.745</ele>
        <time>2020-07-02T06:56:21Z</time>
      </trkpt>
      <trkpt lat="51.49234" lon="3.60919">
        <ele>34.443</ele>
        <time>2020-07-02T06:56:26Z</time>
      </trkpt>
      <trkpt lat="51.49254" lon="3.60947">
        <ele>35.137</ele>
        <time>2020-07-02T06:56:31Z</time>
      </trkpt>
      <trkpt lat="51.49272" lon="3.60974">
        <ele>35.734</ele>
        <time>2020-07-02T06:56:36Z</time>
      </trkpt>
      <trkpt lat="51.49292" lon="3.61006">
        <ele>35.429</ele>
        <time>2020-07-02T06:56:42Z</time>
      </trkpt>
      <trkpt lat="51.49313" lon="3.61035">
        <ele>35.664</ele>
        <time>2020-07-02T06:56:48Z</time>
      </trkpt>
      <trkpt lat="51.49331" lon="3.61058">
        <ele>36.621</ele>
        <time>2020-07-02T06:56:53Z</time>
      </trkpt>
      <trkpt lat="51.49348" lon="3.61094">
        <ele>37.904</ele>
        <time>2020-07-02T06:56:59Z</time>
      </trkpt>
      <trkpt lat="51.49369" lon="3.61132">
        <ele>39.416</ele>
        <time>2020-07-02T06:57:05Z</time>
      </trkpt>
      <trkpt lat="51.49389" lon="3.61172">
        <ele>40.733</ele>
        <time>2020-07-02T06:57:11Z</time>
      </trkpt>
      <trkpt lat="51.49406" lon="3.61214">
        <ele>42.999</ele>
        <time>2020-07-02T06:57:17Z</time>
      </trkpt>
      <trkpt lat="51.49422" lon="3.61243">
        <ele>45.992</ele>
        <time>2020-07-02T06:57:22Z</time>
      </trkpt>
      <trkpt lat="51.49436" lon="3.61261">
        <ele>48.208</ele>
        <time>2020-07-02T06:57:27Z</time>
      </trkpt>
      <trkpt lat="51.49441" lon="3.61289">
        <ele>50.669</ele>
        <time>2020-07-02T06:57:33Z</time>
      </trkpt>
      <trkpt lat="51.49432" lon="3.61313">
        <ele>52.685</ele>
        <time>2020-07-02T06:57:38Z</time>
      </trkpt>
      <trkpt lat="51.4942" lon="3.61336">
        <ele>53.573</ele>
        <time>2020-07-02T06:57:44Z</time>
      </trkpt>
      <trkpt lat="51.494" lon="3.61348">
        <ele>50.976</ele>
        <time>2020-07-02T06:57:50Z</time>
      </trkpt>
      <trkpt lat="51.4939" lon="3.61359">
        <ele>50.596</ele>
        <time>2020-07-02T06:57:56Z</time>
      </trkpt>
      <trkpt lat="51.4939" lon="3.61359">
        <ele>50.596</ele>
        <time>2020-07-02T06:58:01Z</time>
      </trkpt>
      <trkpt lat="51.4939" lon="3.61359">
        <ele>50.596</ele>
        <time>2020-07-02T06:58:06Z</time>
      </trkpt>
      <trkpt lat="51.4939" lon="3.61359">
        <ele>50.596</ele>
        <time>2020-07-02T06:58:12Z</time>
      </trkpt>
      <trkpt lat="51.4939" lon="3.61359">
        <ele>50.596</ele>
        <time>2020-07-02T06:58:18Z</time>
      </trkpt>
      <trkpt lat="51.4939" lon="3.61359">
        <ele>50.596</ele>
        <time>2020-07-02T06:58:24Z</time>
      </trkpt>
      <trkpt lat="51.4939" lon="3.61359">
        <ele>50.596</ele>
        <time>2020-07-02T06:58:29Z</time>
      </trkpt>
      <trkpt lat="51.4939" lon="3.61359">
        <ele>50.596</ele>
        <time>2020-07-02T06:58:34Z</time>
      </trkpt>
      <trkpt lat="51.4939" lon="3.61359">
        <ele>50.596</ele>
        <time>2020-07-02T06:58:40Z</time>
      </trkpt>
      <trkpt lat="51.4939" lon="3.61359">
        <ele>50.596</ele>
        <time>2020-07-02T06:58:46Z</time>
      </trkpt>
      <trkpt lat="51.4939" lon="3.61359">
        <ele>50.596</ele>
        <time>2020-07-02T06:58:52Z</time>
      </trkpt>
      <trkpt lat="51.4939" lon="3.61359">
        <ele>47.406</ele>
        <time>2020-07-02T06:58:58Z</time>
      </trkpt>
      <trkpt lat="51.494" lon="3.61385">
        <ele>44.139</ele>
        <time>2020-07-02T06:59:03Z</time>
      </trkpt>
      <trkpt lat="51.49407" lon="3.61401">
        <ele>41.474</ele>
        <time>2020-07-02T06:59:08Z</time>
      </trkpt>
      <trkpt lat="51.49418" lon="3.6142">
        <ele>39.372</ele>
        <time>2020-07-02T06:59:13Z</time>
      </trkpt>
      <trkpt lat="51.49431" lon="3.61452">
        <ele>39.271</ele>
        <time>2020-07-02T06:59:19Z</time>
      </trkpt>
      <trkpt lat="51.49437" lon="3.61477">
        <ele>39.91</ele>
        <time>2020-07-02T06:59:24Z</time>
      </trkpt>
      <trkpt lat="51.49447" lon="3.6151">
        <ele>40.925</ele>
        <time>2020-07-02T06:59:30Z</time>
      </trkpt>
      <trkpt lat="51.4946" lon="3.61546">
        <ele>42.273</ele>
        <time>2020-07-02T06:59:36Z</time>
      </trkpt>
      <trkpt lat="51.49473" lon="3.61582">
        <ele>43.456</ele>
        <time>2020-07-02T06:59:42Z</time>
      </trkpt>
      <trkpt lat="51.49969" lon="3.63814">
        <ele>45.8</ele>
        <time>2020-07-02T07:05:06Z</time>
      </trkpt>
      <trkpt lat="51.4999" lon="3.63974">
        <ele>32.258</ele>
        <time>2020-07-02T07:05:12Z</time>
      </trkpt>
      <trkpt lat="51.49967" lon="3.63996">
        <ele>51.931</ele>
        <time>2020-07-02T07:05:17Z</time>
      </trkpt>
      <trkpt lat="51.49954" lon="3.64025">
        <ele>54.89</ele>
        <time>2020-07-02T07:05:22Z</time>
      </trkpt>
      <trkpt lat="51.49943" lon="3.64064">
        <ele>57.702</ele>
        <time>2020-07-02T07:05:28Z</time>
      </trkpt>
      <trkpt lat="51.49937" lon="3.64104">
        <ele>58.103</ele>
        <time>2020-07-02T07:05:34Z</time>
      </trkpt>
      <trkpt lat="51.49936" lon="3.64153">
        <ele>56.281</ele>
        <time>2020-07-02T07:05:40Z</time>
      </trkpt>
      <trkpt lat="51.4994" lon="3.64182">
        <ele>54.39</ele>
        <time>2020-07-02T07:05:45Z</time>
      </trkpt>
      <trkpt lat="51.49943" lon="3.64212">
        <ele>54.018</ele>
        <time>2020-07-02T07:05:51Z</time>
      </trkpt>
      <trkpt lat="51.49949" lon="3.64237">
        <ele>51.003</ele>
        <time>2020-07-02T07:05:58Z</time>
      </trkpt>
      <trkpt lat="51.49948" lon="3.6426">
        <ele>50.718</ele>
        <time>2020-07-02T07:06:04Z</time>
      </trkpt>
      <trkpt lat="51.49949" lon="3.64269">
        <ele>51.974</ele>
        <time>2020-07-02T07:06:10Z</time>
      </trkpt>
      <trkpt lat="51.4995" lon="3.64269">
        <ele>51.722</ele>
        <time>2020-07-02T07:06:16Z</time>
      </trkpt>
      <trkpt lat="51.4995" lon="3.64269">
        <ele>51.419</ele>
        <time>2020-07-02T07:06:21Z</time>
      </trkpt>
      <trkpt lat="51.4995" lon="3.64269">
        <ele>51.485</ele>
        <time>2020-07-02T07:06:27Z</time>
      </trkpt>
      <trkpt lat="51.4995" lon="3.64264">
        <ele>51.047</ele>
        <time>2020-07-02T07:06:32Z</time>
      </trkpt>
      <trkpt lat="51.49949" lon="3.64244">
        <ele>49.956</ele>
        <time>2020-07-02T07:06:38Z</time>
      </trkpt>
      <trkpt lat="51.49947" lon="3.64215">
        <ele>49.894</ele>
        <time>2020-07-02T07:06:45Z</time>
      </trkpt>
      <trkpt lat="51.49944" lon="3.64187">
        <ele>49.839</ele>
        <time>2020-07-02T07:06:51Z</time>
      </trkpt>
      <trkpt lat="51.49943" lon="3.64159">
        <ele>49.655</ele>
        <time>2020-07-02T07:06:57Z</time>
      </trkpt>
      <trkpt lat="51.49941" lon="3.6413">
        <ele>48.956</ele>
        <time>2020-07-02T07:07:03Z</time>
      </trkpt>
      <trkpt lat="51.49941" lon="3.64097">
        <ele>48.213</ele>
        <time>2020-07-02T07:07:10Z</time>
      </trkpt>
      <trkpt lat="51.49941" lon="3.64076">
        <ele>48.092</ele>
        <time>2020-07-02T07:07:16Z</time>
      </trkpt>
      <trkpt lat="51.49946" lon="3.64049">
        <ele>49.513</ele>
        <time>2020-07-02T07:07:22Z</time>
      </trkpt>
      <trkpt lat="51.49953" lon="3.64029">
        <ele>51.004</ele>
        <time>2020-07-02T07:07:27Z</time>
      </trkpt>
      <trkpt lat="51.49963" lon="3.64003">
        <ele>52.001</ele>
        <time>2020-07-02T07:07:33Z</time>
      </trkpt>
      <trkpt lat="51.49974" lon="3.63981">
        <ele>52.901</ele>
        <time>2020-07-02T07:07:41Z</time>
      </trkpt>
      <trkpt lat="51.49974" lon="3.63981">
        <ele>52.901</ele>
        <time>2020-07-02T07:07:46Z</time>
      </trkpt>
      <trkpt lat="51.49974" lon="3.63981">
        <ele>52.901</ele>
        <time>2020-07-02T07:07:51Z</time>
      </trkpt>
      <trkpt lat="51.49974" lon="3.63981">
        <ele>52.901</ele>
        <time>2020-07-02T07:07:57Z</time>
      </trkpt>
      <trkpt lat="51.49974" lon="3.63981">
        <ele>52.901</ele>
        <time>2020-07-02T07:08:02Z</time>
      </trkpt>
      <trkpt lat="51.49974" lon="3.63981">
        <ele>52.901</ele>
        <time>2020-07-02T07:08:07Z</time>
      </trkpt>
      <trkpt lat="51.49974" lon="3.63981">
        <ele>52.901</ele>
        <time>2020-07-02T07:08:13Z</time>
      </trkpt>
      <trkpt lat="51.49974" lon="3.63981">
        <ele>52.901</ele>
        <time>2020-07-02T07:08:19Z</time>
      </trkpt>
      <trkpt lat="51.49974" lon="3.63981">
        <ele>52.901</ele>
        <time>2020-07-02T07:08:24Z</time>
      </trkpt>
      <trkpt lat="51.49974" lon="3.63981">
        <ele>52.901</ele>
        <time>2020-07-02T07:08:29Z</time>
      </trkpt>
      <trkpt lat="51.49974" lon="3.63981">
        <ele>52.901</ele>
        <time>2020-07-02T07:08:34Z</time>
      </trkpt>
      <trkpt lat="51.49974" lon="3.63981">
        <ele>52.901</ele>
        <time>2020-07-02T07:08:40Z</time>
      </trkpt>
      <trkpt lat="51.49974" lon="3.63981">
        <ele>52.901</ele>
        <time>2020-07-02T07:08:46Z</time>
      </trkpt>
      <trkpt lat="51.49974" lon="3.63981">
        <ele>52.901</ele>
        <time>2020-07-02T07:08:51Z</time>
      </trkpt>
      <trkpt lat="51.49974" lon="3.63981">
        <ele>52.901</ele>
        <time>2020-07-02T07:08:56Z</time>
      </trkpt>
      <trkpt lat="51.49974" lon="3.63981">
        <ele>52.901</ele>
        <time>2020-07-02T07:09:02Z</time>
      </trkpt>
      <trkpt lat="51.49974" lon="3.63981">
        <ele>52.901</ele>
        <time>2020-07-02T07:09:07Z</time>
      </trkpt>
      <trkpt lat="51.49974" lon="3.63981">
        <ele>52.901</ele>
        <time>2020-07-02T07:09:12Z</time>
      </trkpt>
      <trkpt lat="51.49974" lon="3.63981">
        <ele>52.901</ele>
        <time>2020-07-02T07:09:17Z</time>
      </trkpt>
      <trkpt lat="51.49974" lon="3.63981">
        <ele>52.901</ele>
        <time>2020-07-02T07:09:23Z</time>
      </trkpt>
      <trkpt lat="51.49975" lon="3.63979">
        <ele>52.991</ele>
        <time>2020-07-02T07:09:28Z</time>
      </trkpt>
      <trkpt lat="51.4998" lon="3.63964">
        <ele>53.084</ele>
        <time>2020-07-02T07:09:34Z</time>
      </trkpt>
      <trkpt lat="51.4999" lon="3.63942">
        <ele>53.382</ele>
        <time>2020-07-02T07:09:40Z</time>
      </trkpt>
      <trkpt lat="51.5" lon="3.63919">
        <ele>53.57</ele>
        <time>2020-07-02T07:09:46Z</time>
      </trkpt>
      <trkpt lat="51.5001" lon="3.63899">
        <ele>55.267</ele>
        <time>2020-07-02T07:09:51Z</time>
      </trkpt>
      <trkpt lat="51.50021" lon="3.63885">
        <ele>56.233</ele>
        <time>2020-07-02T07:09:56Z</time>
      </trkpt>
      <trkpt lat="51.50033" lon="3.63862">
        <ele>59.255</ele>
        <time>2020-07-02T07:10:02Z</time>
      </trkpt>
      <trkpt lat="51.50027" lon="3.63828">
        <ele>58.9</ele>
        <time>2020-07-02T07:10:08Z</time>
      </trkpt>
      <trkpt lat="51.50015" lon="3.63808">
        <ele>57.97</ele>
        <time>2020-07-02T07:10:13Z</time>
      </trkpt>
      <trkpt lat="51.49999" lon="3.63784">
        <ele>57.098</ele>
        <time>2020-07-02T07:10:19Z</time>
      </trkpt>
      <trkpt lat="51.49981" lon="3.63759">
        <ele>56.106</ele>
        <time>2020-07-02T07:10:25Z</time>
      </trkpt>
      <trkpt lat="51.49967" lon="3.63736">
        <ele>54.626</ele>
        <time>2020-07-02T07:10:30Z</time>
      </trkpt>
      <trkpt lat="51.49951" lon="3.63709">
        <ele>54.211</ele>
        <time>2020-07-02T07:10:36Z</time>
      </trkpt>
      <trkpt lat="51.4994" lon="3.63684">
        <ele>54.388</ele>
        <time>2020-07-02T07:10:41Z</time>
      </trkpt>
      <trkpt lat="51.49928" lon="3.63653">
        <ele>54.162</ele>
        <time>2020-07-02T07:10:47Z</time>
      </trkpt>
      <trkpt lat="51.4992" lon="3.63624">
        <ele>51.316</ele>
        <time>2020-07-02T07:10:52Z</time>
      </trkpt>
      <trkpt lat="51.49912" lon="3.63587">
        <ele>48.716</ele>
        <time>2020-07-02T07:10:58Z</time>
      </trkpt>
      <trkpt lat="51.49904" lon="3.63551">
        <ele>47.323</ele>
        <time>2020-07-02T07:11:04Z</time>
      </trkpt>
      <trkpt lat="51.49899" lon="3.63513">
        <ele>46.242</ele>
        <time>2020-07-02T07:11:10Z</time>
      </trkpt>
      <trkpt lat="51.49896" lon="3.63481">
        <ele>44.345</ele>
        <time>2020-07-02T07:11:15Z</time>
      </trkpt>
      <trkpt lat="51.49893" lon="3.63446">
        <ele>43.732</ele>
        <time>2020-07-02T07:11:21Z</time>
      </trkpt>
      <trkpt lat="51.49891" lon="3.63412">
        <ele>44.03</ele>
        <time>2020-07-02T07:11:27Z</time>
      </trkpt>
      <trkpt lat="51.49887" lon="3.63373">
        <ele>44.047</ele>
        <time>2020-07-02T07:11:33Z</time>
      </trkpt>
      <trkpt lat="51.49885" lon="3.63337">
        <ele>43.662</ele>
        <time>2020-07-02T07:11:39Z</time>
      </trkpt>
      <trkpt lat="51.49882" lon="3.63308">
        <ele>43.885</ele>
        <time>2020-07-02T07:11:44Z</time>
      </trkpt>
      <trkpt lat="51.49877" lon="3.63271">
        <ele>44.133</ele>
        <time>2020-07-02T07:11:50Z</time>
      </trkpt>
      <trkpt lat="51.49874" lon="3.6324">
        <ele>45.462</ele>
        <time>2020-07-02T07:11:55Z</time>
      </trkpt>
      <trkpt lat="51.49871" lon="3.63205">
        <ele>47.242</ele>
        <time>2020-07-02T07:12:01Z</time>
      </trkpt>
      <trkpt lat="51.49868" lon="3.63172">
        <ele>47.319</ele>
        <time>2020-07-02T07:12:06Z</time>
      </trkpt>
      <trkpt lat="51.49866" lon="3.63133">
        <ele>46.942</ele>
        <time>2020-07-02T07:12:12Z</time>
      </trkpt>
      <trkpt lat="51.49863" lon="3.63105">
        <ele>47.203</ele>
        <time>2020-07-02T07:12:17Z</time>
      </trkpt>
      <trkpt lat="51.4986" lon="3.63076">
        <ele>47.965</ele>
        <time>2020-07-02T07:12:22Z</time>
      </trkpt>
      <trkpt lat="51.49856" lon="3.63045">
        <ele>50.762</ele>
        <time>2020-07-02T07:12:28Z</time>
      </trkpt>
      <trkpt lat="51.49854" lon="3.63016">
        <ele>52.051</ele>
        <time>2020-07-02T07:12:33Z</time>
      </trkpt>
      <trkpt lat="51.4985" lon="3.62981">
        <ele>53.204</ele>
        <time>2020-07-02T07:12:39Z</time>
      </trkpt>
      <trkpt lat="51.49845" lon="3.62947">
        <ele>54.267</ele>
        <time>2020-07-02T07:12:45Z</time>
      </trkpt>
      <trkpt lat="51.49841" lon="3.62925">
        <ele>55.843</ele>
        <time>2020-07-02T07:12:50Z</time>
      </trkpt>
      <trkpt lat="51.49837" lon="3.62892">
        <ele>59.752</ele>
        <time>2020-07-02T07:12:55Z</time>
      </trkpt>
      <trkpt lat="51.49834" lon="3.62855">
        <ele>60.403</ele>
        <time>2020-07-02T07:13:01Z</time>
      </trkpt>
      <trkpt lat="51.49829" lon="3.62815">
        <ele>61.837</ele>
        <time>2020-07-02T07:13:07Z</time>
      </trkpt>
      <trkpt lat="51.49825" lon="3.62786">
        <ele>62.084</ele>
        <time>2020-07-02T07:13:12Z</time>
      </trkpt>
      <trkpt lat="51.49819" lon="3.62748">
        <ele>60.943</ele>
        <time>2020-07-02T07:13:18Z</time>
      </trkpt>
      <trkpt lat="51.49812" lon="3.62714">
        <ele>59.717</ele>
        <time>2020-07-02T07:13:24Z</time>
      </trkpt>
      <trkpt lat="51.49807" lon="3.62679">
        <ele>60.038</ele>
        <time>2020-07-02T07:13:30Z</time>
      </trkpt>
      <trkpt lat="51.49801" lon="3.62644">
        <ele>61.889</ele>
        <time>2020-07-02T07:13:36Z</time>
      </trkpt>
      <trkpt lat="51.49792" lon="3.62611">
        <ele>62.441</ele>
        <time>2020-07-02T07:13:42Z</time>
      </trkpt>
      <trkpt lat="51.49783" lon="3.62586">
        <ele>62.337</ele>
        <time>2020-07-02T07:13:47Z</time>
      </trkpt>
      <trkpt lat="51.49773" lon="3.62552">
        <ele>59.934</ele>
        <time>2020-07-02T07:13:53Z</time>
      </trkpt>
      <trkpt lat="51.49765" lon="3.62528">
        <ele>61.502</ele>
        <time>2020-07-02T07:13:58Z</time>
      </trkpt>
      <trkpt lat="51.49756" lon="3.62495">
        <ele>61.006</ele>
        <time>2020-07-02T07:14:04Z</time>
      </trkpt>
      <trkpt lat="51.49748" lon="3.62466">
        <ele>60.307</ele>
        <time>2020-07-02T07:14:09Z</time>
      </trkpt>
      <trkpt lat="51.49735" lon="3.62435">
        <ele>59.859</ele>
        <time>2020-07-02T07:14:15Z</time>
      </trkpt>
      <trkpt lat="51.49721" lon="3.62413">
        <ele>59.26</ele>
        <time>2020-07-02T07:14:20Z</time>
      </trkpt>
      <trkpt lat="51.4971" lon="3.62382">
        <ele>59.978</ele>
        <time>2020-07-02T07:14:26Z</time>
      </trkpt>
      <trkpt lat="51.4978" lon="3.62115">
        <ele>47.1</ele>
        <time>2020-07-02T07:15:06Z</time>
      </trkpt>
      <trkpt lat="51.49653" lon="3.62113">
        <ele>50.516</ele>
        <time>2020-07-02T07:15:11Z</time>
      </trkpt>
      <trkpt lat="51.49634" lon="3.62091">
        <ele>58.973</ele>
        <time>2020-07-02T07:15:16Z</time>
      </trkpt>
      <trkpt lat="51.49619" lon="3.62076">
        <ele>61.572</ele>
        <time>2020-07-02T07:15:21Z</time>
      </trkpt>
      <trkpt lat="51.49613" lon="3.62035">
        <ele>55.411</ele>
        <time>2020-07-02T07:15:27Z</time>
      </trkpt>
      <trkpt lat="51.49609" lon="3.62006">
        <ele>55.843</ele>
        <time>2020-07-02T07:15:33Z</time>
      </trkpt>
      <trkpt lat="51.4961" lon="3.61981">
        <ele>57.278</ele>
        <time>2020-07-02T07:15:38Z</time>
      </trkpt>
      <trkpt lat="51.4961" lon="3.6195">
        <ele>57.703</ele>
        <time>2020-07-02T07:15:44Z</time>
      </trkpt>
      <trkpt lat="51.49609" lon="3.61939">
        <ele>53.873</ele>
        <time>2020-07-02T07:15:49Z</time>
      </trkpt>
      <trkpt lat="51.49603" lon="3.61922">
        <ele>50.513</ele>
        <time>2020-07-02T07:15:55Z</time>
      </trkpt>
      <trkpt lat="51.49594" lon="3.61899">
        <ele>47.85</ele>
        <time>2020-07-02T07:16:00Z</time>
      </trkpt>
      <trkpt lat="51.49585" lon="3.61873">
        <ele>46.41</ele>
        <time>2020-07-02T07:16:05Z</time>
      </trkpt>
      <trkpt lat="51.49574" lon="3.61848">
        <ele>44.854</ele>
        <time>2020-07-02T07:16:10Z</time>
      </trkpt>
      <trkpt lat="51.49564" lon="3.61826">
        <ele>43.422</ele>
        <time>2020-07-02T07:16:15Z</time>
      </trkpt>
      <trkpt lat="51.49556" lon="3.618">
        <ele>42.527</ele>
        <time>2020-07-02T07:16:21Z</time>
      </trkpt>
      <trkpt lat="51.49562" lon="3.61789">
        <ele>41.573</ele>
        <time>2020-07-02T07:16:27Z</time>
      </trkpt>
      <trkpt lat="51.49577" lon="3.61777">
        <ele>42.595</ele>
        <time>2020-07-02T07:16:33Z</time>
      </trkpt>
      <trkpt lat="51.49589" lon="3.61764">
        <ele>43.33</ele>
        <time>2020-07-02T07:16:38Z</time>
      </trkpt>
      <trkpt lat="51.49609" lon="3.61749">
        <ele>42.856</ele>
        <time>2020-07-02T07:16:44Z</time>
      </trkpt>
      <trkpt lat="51.49627" lon="3.6174">
        <ele>43.104</ele>
        <time>2020-07-02T07:16:49Z</time>
      </trkpt>
      <trkpt lat="51.49638" lon="3.61766">
        <ele>44.268</ele>
        <time>2020-07-02T07:16:55Z</time>
      </trkpt>
      <trkpt lat="51.49649" lon="3.61794">
        <ele>44.985</ele>
        <time>2020-07-02T07:17:01Z</time>
      </trkpt>
      <trkpt lat="51.49661" lon="3.61825">
        <ele>46.505</ele>
        <time>2020-07-02T07:17:07Z</time>
      </trkpt>
      <trkpt lat="51.4968" lon="3.61827">
        <ele>47.388</ele>
        <time>2020-07-02T07:17:13Z</time>
      </trkpt>
      <trkpt lat="51.49691" lon="3.61802">
        <ele>48.625</ele>
        <time>2020-07-02T07:17:18Z</time>
      </trkpt>
      <trkpt lat="51.49705" lon="3.61775">
        <ele>50.33</ele>
        <time>2020-07-02T07:17:24Z</time>
      </trkpt>
      <trkpt lat="51.49714" lon="3.61756">
        <ele>50.65</ele>
        <time>2020-07-02T07:17:29Z</time>
      </trkpt>
      <trkpt lat="51.49728" lon="3.61733">
        <ele>53.075</ele>
        <time>2020-07-02T07:17:36Z</time>
      </trkpt>
      <trkpt lat="51.49735" lon="3.61721">
        <ele>51.108</ele>
        <time>2020-07-02T07:17:41Z</time>
      </trkpt>
      <trkpt lat="51.49751" lon="3.6174">
        <ele>50.493</ele>
        <time>2020-07-02T07:17:47Z</time>
      </trkpt>
      <trkpt lat="51.49763" lon="3.61758">
        <ele>51.911</ele>
        <time>2020-07-02T07:17:52Z</time>
      </trkpt>
      <trkpt lat="51.49777" lon="3.61781">
        <ele>51.955</ele>
        <time>2020-07-02T07:17:58Z</time>
      </trkpt>
      <trkpt lat="51.49792" lon="3.6181">
        <ele>50.762</ele>
        <time>2020-07-02T07:18:04Z</time>
      </trkpt>
      <trkpt lat="51.49809" lon="3.61835">
        <ele>49.257</ele>
        <time>2020-07-02T07:18:10Z</time>
      </trkpt>
      <trkpt lat="51.49825" lon="3.61859">
        <ele>48.723</ele>
        <time>2020-07-02T07:18:16Z</time>
      </trkpt>
      <trkpt lat="51.49843" lon="3.61883">
        <ele>47.927</ele>
        <time>2020-07-02T07:18:22Z</time>
      </trkpt>
      <trkpt lat="51.49855" lon="3.61906">
        <ele>47.337</ele>
        <time>2020-07-02T07:18:27Z</time>
      </trkpt>
      <trkpt lat="51.49872" lon="3.61942">
        <ele>46.175</ele>
        <time>2020-07-02T07:18:34Z</time>
      </trkpt>
      <trkpt lat="51.49885" lon="3.61966">
        <ele>46.619</ele>
        <time>2020-07-02T07:18:39Z</time>
      </trkpt>
      <trkpt lat="51.499" lon="3.61999">
        <ele>47.409</ele>
        <time>2020-07-02T07:18:45Z</time>
      </trkpt>
      <trkpt lat="51.49916" lon="3.62024">
        <ele>48.713</ele>
        <time>2020-07-02T07:18:50Z</time>
      </trkpt>
      <trkpt lat="51.49931" lon="3.62052">
        <ele>49.114</ele>
        <time>2020-07-02T07:18:55Z</time>
      </trkpt>
      <trkpt lat="51.49948" lon="3.62086">
        <ele>49.365</ele>
        <time>2020-07-02T07:19:01Z</time>
      </trkpt>
      <trkpt lat="51.49966" lon="3.62126">
        <ele>49.527</ele>
        <time>2020-07-02T07:19:08Z</time>
      </trkpt>
      <trkpt lat="51.49982" lon="3.62159">
        <ele>49.241</ele>
        <time>2020-07-02T07:19:14Z</time>
      </trkpt>
      <trkpt lat="51.49995" lon="3.62184">
        <ele>49.965</ele>
        <time>2020-07-02T07:19:19Z</time>
      </trkpt>
      <trkpt lat="51.50011" lon="3.62204">
        <ele>49.999</ele>
        <time>2020-07-02T07:19:25Z</time>
      </trkpt>
      <trkpt lat="51.50015" lon="3.62205">
        <ele>47.93</ele>
        <time>2020-07-02T07:19:31Z</time>
      </trkpt>
      <trkpt lat="51.50018" lon="3.62202">
        <ele>47.198</ele>
        <time>2020-07-02T07:19:36Z</time>
      </trkpt>
      <trkpt lat="51.50025" lon="3.62195">
        <ele>47.114</ele>
        <time>2020-07-02T07:19:41Z</time>
      </trkpt>
      <trkpt lat="51.50036" lon="3.62182">
        <ele>47.778</ele>
        <time>2020-07-02T07:19:47Z</time>
      </trkpt>
      <trkpt lat="51.50056" lon="3.62165">
        <ele>47.535</ele>
        <time>2020-07-02T07:19:54Z</time>
      </trkpt>
      <trkpt lat="51.50071" lon="3.62178">
        <ele>48.038</ele>
        <time>2020-07-02T07:19:59Z</time>
      </trkpt>
      <trkpt lat="51.50082" lon="3.62192">
        <ele>49.127</ele>
        <time>2020-07-02T07:20:04Z</time>
      </trkpt>
      <trkpt lat="51.501" lon="3.62207">
        <ele>48.752</ele>
        <time>2020-07-02T07:20:10Z</time>
      </trkpt>
      <trkpt lat="51.50116" lon="3.6222">
        <ele>46.644</ele>
        <time>2020-07-02T07:20:15Z</time>
      </trkpt>
      <trkpt lat="51.50109" lon="3.62257">
        <ele>44.722</ele>
        <time>2020-07-02T07:20:21Z</time>
      </trkpt>
      <trkpt lat="51.501" lon="3.62299">
        <ele>44.456</ele>
        <time>2020-07-02T07:20:28Z</time>
      </trkpt>
      <trkpt lat="51.50115" lon="3.62321">
        <ele>45.08</ele>
        <time>2020-07-02T07:20:34Z</time>
      </trkpt>
      <trkpt lat="51.50142" lon="3.6233">
        <ele>46.388</ele>
        <time>2020-07-02T07:20:40Z</time>
      </trkpt>
      <trkpt lat="51.50161" lon="3.62341">
        <ele>48.769</ele>
        <time>2020-07-02T07:20:45Z</time>
      </trkpt>
      <trkpt lat="51.50194" lon="3.62354">
        <ele>51.799</ele>
        <time>2020-07-02T07:20:51Z</time>
      </trkpt>
      <trkpt lat="51.50231" lon="3.62367">
        <ele>51.584</ele>
        <time>2020-07-02T07:20:58Z</time>
      </trkpt>
      <trkpt lat="51.50262" lon="3.62388">
        <ele>51.132</ele>
        <time>2020-07-02T07:21:03Z</time>
      </trkpt>
      <trkpt lat="51.50295" lon="3.62417">
        <ele>48.395</ele>
        <time>2020-07-02T07:21:09Z</time>
      </trkpt>
      <trkpt lat="51.50328" lon="3.62437">
        <ele>43.895</ele>
        <time>2020-07-02T07:21:14Z</time>
      </trkpt>
      <trkpt lat="51.50354" lon="3.62463">
        <ele>42.098</ele>
        <time>2020-07-02T07:21:19Z</time>
      </trkpt>
      <trkpt lat="51.50384" lon="3.62497">
        <ele>41.761</ele>
        <time>2020-07-02T07:21:25Z</time>
      </trkpt>
      <trkpt lat="51.50415" lon="3.62528">
        <ele>42.375</ele>
        <time>2020-07-02T07:21:31Z</time>
      </trkpt>
      <trkpt lat="51.50439" lon="3.62549">
        <ele>43.91</ele>
        <time>2020-07-02T07:21:36Z</time>
      </trkpt>
      <trkpt lat="51.50471" lon="3.62575">
        <ele>43.909</ele>
        <time>2020-07-02T07:21:42Z</time>
      </trkpt>
      <trkpt lat="51.50502" lon="3.626">
        <ele>43.477</ele>
        <time>2020-07-02T07:21:48Z</time>
      </trkpt>
      <trkpt lat="51.50532" lon="3.62627">
        <ele>44.506</ele>
        <time>2020-07-02T07:21:54Z</time>
      </trkpt>
      <trkpt lat="51.50557" lon="3.62651">
        <ele>45.154</ele>
        <time>2020-07-02T07:21:59Z</time>
      </trkpt>
      <trkpt lat="51.50586" lon="3.62677">
        <ele>45.321</ele>
        <time>2020-07-02T07:22:05Z</time>
      </trkpt>
      <trkpt lat="51.50609" lon="3.6271">
        <ele>44.232</ele>
        <time>2020-07-02T07:22:11Z</time>
      </trkpt>
      <trkpt lat="51.50619" lon="3.62755">
        <ele>43.685</ele>
        <time>2020-07-02T07:22:17Z</time>
      </trkpt>
      <trkpt lat="51.50645" lon="3.62769">
        <ele>42.487</ele>
        <time>2020-07-02T07:22:23Z</time>
      </trkpt>
      <trkpt lat="51.50662" lon="3.62758">
        <ele>42.036</ele>
        <time>2020-07-02T07:22:28Z</time>
      </trkpt>
      <trkpt lat="51.50679" lon="3.62762">
        <ele>40.873</ele>
        <time>2020-07-02T07:22:33Z</time>
      </trkpt>
      <trkpt lat="51.50696" lon="3.62776">
        <ele>41.952</ele>
        <time>2020-07-02T07:22:38Z</time>
      </trkpt>
      <trkpt lat="51.50717" lon="3.62795">
        <ele>42.774</ele>
        <time>2020-07-02T07:22:44Z</time>
      </trkpt>
      <trkpt lat="51.50739" lon="3.62813">
        <ele>42.51</ele>
        <time>2020-07-02T07:22:50Z</time>
      </trkpt>
      <trkpt lat="51.50758" lon="3.62829">
        <ele>41.582</ele>
        <time>2020-07-02T07:22:55Z</time>
      </trkpt>
      <trkpt lat="51.50779" lon="3.62847">
        <ele>40.862</ele>
        <time>2020-07-02T07:23:00Z</time>
      </trkpt>
      <trkpt lat="51.50803" lon="3.62867">
        <ele>40.852</ele>
        <time>2020-07-02T07:23:06Z</time>
      </trkpt>
      <trkpt lat="51.50826" lon="3.62892">
        <ele>41.473</ele>
        <time>2020-07-02T07:23:12Z</time>
      </trkpt>
      <trkpt lat="51.50852" lon="3.62911">
        <ele>42.748</ele>
        <time>2020-07-02T07:23:18Z</time>
      </trkpt>
      <trkpt lat="51.50879" lon="3.62933">
        <ele>44.396</ele>
        <time>2020-07-02T07:23:24Z</time>
      </trkpt>
      <trkpt lat="51.50909" lon="3.62959">
        <ele>44.033</ele>
        <time>2020-07-02T07:23:31Z</time>
      </trkpt>
      <trkpt lat="51.5093" lon="3.62976">
        <ele>43.655</ele>
        <time>2020-07-02T07:23:36Z</time>
      </trkpt>
      <trkpt lat="51.50954" lon="3.62999">
        <ele>43.246</ele>
        <time>2020-07-02T07:23:42Z</time>
      </trkpt>
      <trkpt lat="51.5098" lon="3.63019">
        <ele>44.147</ele>
        <time>2020-07-02T07:23:48Z</time>
      </trkpt>
      <trkpt lat="51.51003" lon="3.63042">
        <ele>44.429</ele>
        <time>2020-07-02T07:23:54Z</time>
      </trkpt>
      <trkpt lat="51.51028" lon="3.63064">
        <ele>45.067</ele>
        <time>2020-07-02T07:24:00Z</time>
      </trkpt>
      <trkpt lat="51.51049" lon="3.63082">
        <ele>44.904</ele>
        <time>2020-07-02T07:24:05Z</time>
      </trkpt>
      <trkpt lat="51.51074" lon="3.63113">
        <ele>44.893</ele>
        <time>2020-07-02T07:24:12Z</time>
      </trkpt>
      <trkpt lat="51.51101" lon="3.63128">
        <ele>44.386</ele>
        <time>2020-07-02T07:24:18Z</time>
      </trkpt>
      <trkpt lat="51.51129" lon="3.63149">
        <ele>42.127</ele>
        <time>2020-07-02T07:24:23Z</time>
      </trkpt>
      <trkpt lat="51.51172" lon="3.63178">
        <ele>40.694</ele>
        <time>2020-07-02T07:24:29Z</time>
      </trkpt>
      <trkpt lat="51.51201" lon="3.63196">
        <ele>43.141</ele>
        <time>2020-07-02T07:24:35Z</time>
      </trkpt>
      <trkpt lat="51.51222" lon="3.63219">
        <ele>45.257</ele>
        <time>2020-07-02T07:24:42Z</time>
      </trkpt>
      <trkpt lat="51.51236" lon="3.63239">
        <ele>44.767</ele>
        <time>2020-07-02T07:24:48Z</time>
      </trkpt>
      <trkpt lat="51.51243" lon="3.63287">
        <ele>43.396</ele>
        <time>2020-07-02T07:24:56Z</time>
      </trkpt>
      <trkpt lat="51.51249" lon="3.63327">
        <ele>43.621</ele>
        <time>2020-07-02T07:25:02Z</time>
      </trkpt>
      <trkpt lat="51.51247" lon="3.63359">
        <ele>44.374</ele>
        <time>2020-07-02T07:25:07Z</time>
      </trkpt>
      <trkpt lat="51.51238" lon="3.63393">
        <ele>43.948</ele>
        <time>2020-07-02T07:25:13Z</time>
      </trkpt>
      <trkpt lat="51.51247" lon="3.63424">
        <ele>42.725</ele>
        <time>2020-07-02T07:25:18Z</time>
      </trkpt>
      <trkpt lat="51.51254" lon="3.63464">
        <ele>42.864</ele>
        <time>2020-07-02T07:25:24Z</time>
      </trkpt>
      <trkpt lat="51.51239" lon="3.63486">
        <ele>42.765</ele>
        <time>2020-07-02T07:25:29Z</time>
      </trkpt>
      <trkpt lat="51.51217" lon="3.63512">
        <ele>42.324</ele>
        <time>2020-07-02T07:25:35Z</time>
      </trkpt>
      <trkpt lat="51.51199" lon="3.63528">
        <ele>42.127</ele>
        <time>2020-07-02T07:25:40Z</time>
      </trkpt>
      <trkpt lat="51.51177" lon="3.63553">
        <ele>42.234</ele>
        <time>2020-07-02T07:25:47Z</time>
      </trkpt>
      <trkpt lat="51.51167" lon="3.6358">
        <ele>42.049</ele>
        <time>2020-07-02T07:25:52Z</time>
      </trkpt>
      <trkpt lat="51.51162" lon="3.63616">
        <ele>42.725</ele>
        <time>2020-07-02T07:25:58Z</time>
      </trkpt>
      <trkpt lat="51.51164" lon="3.63669">
        <ele>42.84</ele>
        <time>2020-07-02T07:26:05Z</time>
      </trkpt>
      <trkpt lat="51.51169" lon="3.63717">
        <ele>42.479</ele>
        <time>2020-07-02T07:26:11Z</time>
      </trkpt>
      <trkpt lat="51.51175" lon="3.63764">
        <ele>42.442</ele>
        <time>2020-07-02T07:26:17Z</time>
      </trkpt>
      <trkpt lat="51.5118" lon="3.63814">
        <ele>42.35</ele>
        <time>2020-07-02T07:26:23Z</time>
      </trkpt>
      <trkpt lat="51.51185" lon="3.63863">
        <ele>42.089</ele>
        <time>2020-07-02T07:26:29Z</time>
      </trkpt>
      <trkpt lat="51.5119" lon="3.63906">
        <ele>41.979</ele>
        <time>2020-07-02T07:26:34Z</time>
      </trkpt>
      <trkpt lat="51.51194" lon="3.63948">
        <ele>42.589</ele>
        <time>2020-07-02T07:26:39Z</time>
      </trkpt>
      <trkpt lat="51.512" lon="3.64011">
        <ele>41.95</ele>
        <time>2020-07-02T07:26:46Z</time>
      </trkpt>
      <trkpt lat="51.5121" lon="3.64098">
        <ele>41.845</ele>
        <time>2020-07-02T07:26:56Z</time>
      </trkpt>
      <trkpt lat="51.51217" lon="3.64146">
        <ele>42.018</ele>
        <time>2020-07-02T07:27:02Z</time>
      </trkpt>
      <trkpt lat="51.51224" lon="3.64198">
        <ele>42.008</ele>
        <time>2020-07-02T07:27:08Z</time>
      </trkpt>
      <trkpt lat="51.51228" lon="3.64248">
        <ele>42.104</ele>
        <time>2020-07-02T07:27:14Z</time>
      </trkpt>
      <trkpt lat="51.51231" lon="3.64298">
        <ele>42.228</ele>
        <time>2020-07-02T07:27:20Z</time>
      </trkpt>
      <trkpt lat="51.51234" lon="3.64348">
        <ele>43.035</ele>
        <time>2020-07-02T07:27:26Z</time>
      </trkpt>
      <trkpt lat="51.51236" lon="3.64391">
        <ele>42.566</ele>
        <time>2020-07-02T07:27:31Z</time>
      </trkpt>
      <trkpt lat="51.51239" lon="3.64441">
        <ele>42.837</ele>
        <time>2020-07-02T07:27:37Z</time>
      </trkpt>
      <trkpt lat="51.51243" lon="3.64499">
        <ele>43.033</ele>
        <time>2020-07-02T07:27:44Z</time>
      </trkpt>
      <trkpt lat="51.51245" lon="3.6454">
        <ele>43.052</ele>
        <time>2020-07-02T07:27:49Z</time>
      </trkpt>
      <trkpt lat="51.51248" lon="3.64591">
        <ele>42.636</ele>
        <time>2020-07-02T07:27:55Z</time>
      </trkpt>
      <trkpt lat="51.5125" lon="3.64633">
        <ele>42.165</ele>
        <time>2020-07-02T07:28:00Z</time>
      </trkpt>
      <trkpt lat="51.51252" lon="3.64682">
        <ele>42.136</ele>
        <time>2020-07-02T07:28:06Z</time>
      </trkpt>
      <trkpt lat="51.51254" lon="3.6473">
        <ele>42.174</ele>
        <time>2020-07-02T07:28:12Z</time>
      </trkpt>
      <trkpt lat="51.51258" lon="3.64769">
        <ele>42.607</ele>
        <time>2020-07-02T07:28:17Z</time>
      </trkpt>
      <trkpt lat="51.51272" lon="3.64808">
        <ele>42.608</ele>
        <time>2020-07-02T07:28:23Z</time>
      </trkpt>
      <trkpt lat="51.51293" lon="3.64824">
        <ele>41.656</ele>
        <time>2020-07-02T07:28:28Z</time>
      </trkpt>
      <trkpt lat="51.51319" lon="3.64823">
        <ele>40.497</ele>
        <time>2020-07-02T07:28:33Z</time>
      </trkpt>
      <trkpt lat="51.51358" lon="3.64819">
        <ele>40.339</ele>
        <time>2020-07-02T07:28:41Z</time>
      </trkpt>
      <trkpt lat="51.51382" lon="3.64816">
        <ele>40.581</ele>
        <time>2020-07-02T07:28:46Z</time>
      </trkpt>
      <trkpt lat="51.51406" lon="3.64813">
        <ele>40.673</ele>
        <time>2020-07-02T07:28:51Z</time>
      </trkpt>
      <trkpt lat="51.51434" lon="3.64809">
        <ele>41.116</ele>
        <time>2020-07-02T07:28:57Z</time>
      </trkpt>
      <trkpt lat="51.51463" lon="3.64804">
        <ele>41.622</ele>
        <time>2020-07-02T07:29:03Z</time>
      </trkpt>
      <trkpt lat="51.5149" lon="3.64801">
        <ele>41.892</ele>
        <time>2020-07-02T07:29:09Z</time>
      </trkpt>
      <trkpt lat="51.51516" lon="3.64791">
        <ele>42.03</ele>
        <time>2020-07-02T07:29:15Z</time>
      </trkpt>
      <trkpt lat="51.51536" lon="3.64778">
        <ele>42.296</ele>
        <time>2020-07-02T07:29:20Z</time>
      </trkpt>
      <trkpt lat="51.5156" lon="3.64758">
        <ele>42.545</ele>
        <time>2020-07-02T07:29:26Z</time>
      </trkpt>
      <trkpt lat="51.51586" lon="3.64744">
        <ele>42.277</ele>
        <time>2020-07-02T07:29:32Z</time>
      </trkpt>
      <trkpt lat="51.51613" lon="3.64733">
        <ele>43.062</ele>
        <time>2020-07-02T07:29:38Z</time>
      </trkpt>
      <trkpt lat="51.51636" lon="3.6473">
        <ele>43.51</ele>
        <time>2020-07-02T07:29:43Z</time>
      </trkpt>
      <trkpt lat="51.51662" lon="3.64725">
        <ele>44.794</ele>
        <time>2020-07-02T07:29:49Z</time>
      </trkpt>
      <trkpt lat="51.51696" lon="3.64718">
        <ele>44.229</ele>
        <time>2020-07-02T07:29:56Z</time>
      </trkpt>
      <trkpt lat="51.51726" lon="3.64711">
        <ele>43.546</ele>
        <time>2020-07-02T07:30:02Z</time>
      </trkpt>
      <trkpt lat="51.51749" lon="3.64705">
        <ele>42.697</ele>
        <time>2020-07-02T07:30:07Z</time>
      </trkpt>
      <trkpt lat="51.51797" lon="3.64696">
        <ele>42.127</ele>
        <time>2020-07-02T07:30:17Z</time>
      </trkpt>
      <trkpt lat="51.51825" lon="3.64691">
        <ele>41.779</ele>
        <time>2020-07-02T07:30:23Z</time>
      </trkpt>
      <trkpt lat="51.51852" lon="3.64685">
        <ele>41.26</ele>
        <time>2020-07-02T07:30:29Z</time>
      </trkpt>
      <trkpt lat="51.51879" lon="3.6468">
        <ele>41.221</ele>
        <time>2020-07-02T07:30:35Z</time>
      </trkpt>
      <trkpt lat="51.51901" lon="3.64678">
        <ele>41.174</ele>
        <time>2020-07-02T07:30:40Z</time>
      </trkpt>
      <trkpt lat="51.51922" lon="3.64715">
        <ele>42.098</ele>
        <time>2020-07-02T07:30:47Z</time>
      </trkpt>
      <trkpt lat="51.51931" lon="3.64751">
        <ele>42.389</ele>
        <time>2020-07-02T07:30:52Z</time>
      </trkpt>
      <trkpt lat="51.5194" lon="3.64787">
        <ele>42.2</ele>
        <time>2020-07-02T07:30:57Z</time>
      </trkpt>
      <trkpt lat="51.51952" lon="3.6483">
        <ele>42.166</ele>
        <time>2020-07-02T07:31:03Z</time>
      </trkpt>
      <trkpt lat="51.51963" lon="3.64874">
        <ele>42.251</ele>
        <time>2020-07-02T07:31:09Z</time>
      </trkpt>
      <trkpt lat="51.51977" lon="3.64928">
        <ele>42.884</ele>
        <time>2020-07-02T07:31:16Z</time>
      </trkpt>
      <trkpt lat="51.51989" lon="3.64975">
        <ele>43.174</ele>
        <time>2020-07-02T07:31:22Z</time>
      </trkpt>
      <trkpt lat="51.51998" lon="3.65014">
        <ele>43.223</ele>
        <time>2020-07-02T07:31:27Z</time>
      </trkpt>
      <trkpt lat="51.52008" lon="3.65053">
        <ele>42.99</ele>
        <time>2020-07-02T07:31:32Z</time>
      </trkpt>
      <trkpt lat="51.52021" lon="3.65109">
        <ele>43.412</ele>
        <time>2020-07-02T07:31:39Z</time>
      </trkpt>
      <trkpt lat="51.52035" lon="3.65164">
        <ele>43.283</ele>
        <time>2020-07-02T07:31:46Z</time>
      </trkpt>
      <trkpt lat="51.52055" lon="3.65187">
        <ele>43.163</ele>
        <time>2020-07-02T07:31:51Z</time>
      </trkpt>
      <trkpt lat="51.52079" lon="3.65174">
        <ele>43.292</ele>
        <time>2020-07-02T07:31:56Z</time>
      </trkpt>
      <trkpt lat="51.52105" lon="3.65153">
        <ele>42.976</ele>
        <time>2020-07-02T07:32:02Z</time>
      </trkpt>
      <trkpt lat="51.52128" lon="3.65136">
        <ele>42.447</ele>
        <time>2020-07-02T07:32:07Z</time>
      </trkpt>
      <trkpt lat="51.52154" lon="3.65115">
        <ele>41.572</ele>
        <time>2020-07-02T07:32:13Z</time>
      </trkpt>
      <trkpt lat="51.52179" lon="3.65094">
        <ele>41.056</ele>
        <time>2020-07-02T07:32:19Z</time>
      </trkpt>
      <trkpt lat="51.52199" lon="3.65078">
        <ele>41.03</ele>
        <time>2020-07-02T07:32:24Z</time>
      </trkpt>
      <trkpt lat="51.52224" lon="3.65059">
        <ele>41.001</ele>
        <time>2020-07-02T07:32:30Z</time>
      </trkpt>
      <trkpt lat="51.52244" lon="3.65041">
        <ele>41.035</ele>
        <time>2020-07-02T07:32:35Z</time>
      </trkpt>
      <trkpt lat="51.52263" lon="3.65023">
        <ele>40.766</ele>
        <time>2020-07-02T07:32:40Z</time>
      </trkpt>
      <trkpt lat="51.52289" lon="3.65">
        <ele>39.743</ele>
        <time>2020-07-02T07:32:47Z</time>
      </trkpt>
      <trkpt lat="51.52307" lon="3.64983">
        <ele>39.912</ele>
        <time>2020-07-02T07:32:52Z</time>
      </trkpt>
      <trkpt lat="51.52328" lon="3.64964">
        <ele>39.57</ele>
        <time>2020-07-02T07:32:58Z</time>
      </trkpt>
      <trkpt lat="51.52346" lon="3.64948">
        <ele>39.619</ele>
        <time>2020-07-02T07:33:03Z</time>
      </trkpt>
      <trkpt lat="51.52361" lon="3.64936">
        <ele>39.902</ele>
        <time>2020-07-02T07:33:08Z</time>
      </trkpt>
      <trkpt lat="51.52381" lon="3.64947">
        <ele>40.494</ele>
        <time>2020-07-02T07:33:14Z</time>
      </trkpt>
      <trkpt lat="51.52394" lon="3.64985">
        <ele>41.272</ele>
        <time>2020-07-02T07:33:20Z</time>
      </trkpt>
      <trkpt lat="51.52403" lon="3.65018">
        <ele>41.796</ele>
        <time>2020-07-02T07:33:25Z</time>
      </trkpt>
      <trkpt lat="51.52413" lon="3.65052">
        <ele>42.573</ele>
        <time>2020-07-02T07:33:30Z</time>
      </trkpt>
      <trkpt lat="51.52428" lon="3.65098">
        <ele>43.341</ele>
        <time>2020-07-02T07:33:37Z</time>
      </trkpt>
      <trkpt lat="51.52445" lon="3.65156">
        <ele>43.904</ele>
        <time>2020-07-02T07:33:45Z</time>
      </trkpt>
      <trkpt lat="51.52459" lon="3.65201">
        <ele>44.108</ele>
        <time>2020-07-02T07:33:51Z</time>
      </trkpt>
      <trkpt lat="51.5247" lon="3.6524">
        <ele>44.118</ele>
        <time>2020-07-02T07:33:56Z</time>
      </trkpt>
      <trkpt lat="51.52483" lon="3.65278">
        <ele>44.211</ele>
        <time>2020-07-02T07:34:01Z</time>
      </trkpt>
      <trkpt lat="51.52496" lon="3.65327">
        <ele>44.033</ele>
        <time>2020-07-02T07:34:07Z</time>
      </trkpt>
      <trkpt lat="51.52509" lon="3.65367">
        <ele>44.034</ele>
        <time>2020-07-02T07:34:12Z</time>
      </trkpt>
      <trkpt lat="51.52525" lon="3.65413">
        <ele>44.285</ele>
        <time>2020-07-02T07:34:18Z</time>
      </trkpt>
      <trkpt lat="51.52543" lon="3.65447">
        <ele>43.759</ele>
        <time>2020-07-02T07:34:23Z</time>
      </trkpt>
      <trkpt lat="51.52565" lon="3.65487">
        <ele>43.4</ele>
        <time>2020-07-02T07:34:29Z</time>
      </trkpt>
      <trkpt lat="51.52583" lon="3.65521">
        <ele>43.302</ele>
        <time>2020-07-02T07:34:34Z</time>
      </trkpt>
      <trkpt lat="51.52605" lon="3.65562">
        <ele>42.808</ele>
        <time>2020-07-02T07:34:40Z</time>
      </trkpt>
      <trkpt lat="51.52623" lon="3.65593">
        <ele>43.001</ele>
        <time>2020-07-02T07:34:45Z</time>
      </trkpt>
      <trkpt lat="51.52647" lon="3.65622">
        <ele>43.172</ele>
        <time>2020-07-02T07:34:51Z</time>
      </trkpt>
      <trkpt lat="51.52669" lon="3.65637">
        <ele>43.443</ele>
        <time>2020-07-02T07:34:56Z</time>
      </trkpt>
      <trkpt lat="51.52697" lon="3.65648">
        <ele>43.316</ele>
        <time>2020-07-02T07:35:02Z</time>
      </trkpt>
      <trkpt lat="51.52722" lon="3.65652">
        <ele>42.949</ele>
        <time>2020-07-02T07:35:07Z</time>
      </trkpt>
      <trkpt lat="51.52752" lon="3.65654">
        <ele>41.809</ele>
        <time>2020-07-02T07:35:13Z</time>
      </trkpt>
      <trkpt lat="51.52777" lon="3.65657">
        <ele>41.643</ele>
        <time>2020-07-02T07:35:18Z</time>
      </trkpt>
      <trkpt lat="51.528" lon="3.65658">
        <ele>42.127</ele>
        <time>2020-07-02T07:35:23Z</time>
      </trkpt>
      <trkpt lat="51.52833" lon="3.65661">
        <ele>42.434</ele>
        <time>2020-07-02T07:35:30Z</time>
      </trkpt>
      <trkpt lat="51.52856" lon="3.65662">
        <ele>42.552</ele>
        <time>2020-07-02T07:35:35Z</time>
      </trkpt>
      <trkpt lat="51.52884" lon="3.65663">
        <ele>43.637</ele>
        <time>2020-07-02T07:35:41Z</time>
      </trkpt>
      <trkpt lat="51.52909" lon="3.65665">
        <ele>44.126</ele>
        <time>2020-07-02T07:35:46Z</time>
      </trkpt>
      <trkpt lat="51.52941" lon="3.65669">
        <ele>44.603</ele>
        <time>2020-07-02T07:35:52Z</time>
      </trkpt>
      <trkpt lat="51.52966" lon="3.65671">
        <ele>44.507</ele>
        <time>2020-07-02T07:35:57Z</time>
      </trkpt>
      <trkpt lat="51.52995" lon="3.65673">
        <ele>44.394</ele>
        <time>2020-07-02T07:36:03Z</time>
      </trkpt>
      <trkpt lat="51.53019" lon="3.65673">
        <ele>43.982</ele>
        <time>2020-07-02T07:36:08Z</time>
      </trkpt>
      <trkpt lat="51.53037" lon="3.65673">
        <ele>43.595</ele>
        <time>2020-07-02T07:36:13Z</time>
      </trkpt>
      <trkpt lat="51.53044" lon="3.65675">
        <ele>43.221</ele>
        <time>2020-07-02T07:36:18Z</time>
      </trkpt>
      <trkpt lat="51.53044" lon="3.65675">
        <ele>43.221</ele>
        <time>2020-07-02T07:36:23Z</time>
      </trkpt>
      <trkpt lat="51.53044" lon="3.65675">
        <ele>43.221</ele>
        <time>2020-07-02T07:36:29Z</time>
      </trkpt>
      <trkpt lat="51.53044" lon="3.65675">
        <ele>43.221</ele>
        <time>2020-07-02T07:36:35Z</time>
      </trkpt>
      <trkpt lat="51.53044" lon="3.65675">
        <ele>43.221</ele>
        <time>2020-07-02T07:36:40Z</time>
      </trkpt>
      <trkpt lat="51.53044" lon="3.65675">
        <ele>43.221</ele>
        <time>2020-07-02T07:36:46Z</time>
      </trkpt>
      <trkpt lat="51.53044" lon="3.65675">
        <ele>43.221</ele>
        <time>2020-07-02T07:36:51Z</time>
      </trkpt>
      <trkpt lat="51.53044" lon="3.65675">
        <ele>43.221</ele>
        <time>2020-07-02T07:36:56Z</time>
      </trkpt>
      <trkpt lat="51.53044" lon="3.65675">
        <ele>43.221</ele>
        <time>2020-07-02T07:37:02Z</time>
      </trkpt>
      <trkpt lat="51.53044" lon="3.65675">
        <ele>43.221</ele>
        <time>2020-07-02T07:37:07Z</time>
      </trkpt>
      <trkpt lat="51.53044" lon="3.65675">
        <ele>43.221</ele>
        <time>2020-07-02T07:37:13Z</time>
      </trkpt>
      <trkpt lat="51.53044" lon="3.65675">
        <ele>43.221</ele>
        <time>2020-07-02T07:37:19Z</time>
      </trkpt>
      <trkpt lat="51.53044" lon="3.65675">
        <ele>43.221</ele>
        <time>2020-07-02T07:37:25Z</time>
      </trkpt>
      <trkpt lat="51.53044" lon="3.65675">
        <ele>43.221</ele>
        <time>2020-07-02T07:37:31Z</time>
      </trkpt>
      <trkpt lat="51.53044" lon="3.65675">
        <ele>43.221</ele>
        <time>2020-07-02T07:37:36Z</time>
      </trkpt>
      <trkpt lat="51.53044" lon="3.65675">
        <ele>43.221</ele>
        <time>2020-07-02T07:37:42Z</time>
      </trkpt>
      <trkpt lat="51.53044" lon="3.65675">
        <ele>43.221</ele>
        <time>2020-07-02T07:37:48Z</time>
      </trkpt>
      <trkpt lat="51.53044" lon="3.65675">
        <ele>43.221</ele>
        <time>2020-07-02T07:37:53Z</time>
      </trkpt>
      <trkpt lat="51.53044" lon="3.65675">
        <ele>43.221</ele>
        <time>2020-07-02T07:37:59Z</time>
      </trkpt>
      <trkpt lat="51.53044" lon="3.65675">
        <ele>43.221</ele>
        <time>2020-07-02T07:38:04Z</time>
      </trkpt>
      <trkpt lat="51.53044" lon="3.65675">
        <ele>43.221</ele>
        <time>2020-07-02T07:38:10Z</time>
      </trkpt>
      <trkpt lat="51.53044" lon="3.65675">
        <ele>43.221</ele>
        <time>2020-07-02T07:38:16Z</time>
      </trkpt>
      <trkpt lat="51.53044" lon="3.65675">
        <ele>43.221</ele>
        <time>2020-07-02T07:38:22Z</time>
      </trkpt>
      <trkpt lat="51.53044" lon="3.65675">
        <ele>43.221</ele>
        <time>2020-07-02T07:38:27Z</time>
      </trkpt>
      <trkpt lat="51.53044" lon="3.65675">
        <ele>43.221</ele>
        <time>2020-07-02T07:38:33Z</time>
      </trkpt>
      <trkpt lat="51.53044" lon="3.65675">
        <ele>43.221</ele>
        <time>2020-07-02T07:38:39Z</time>
      </trkpt>
      <trkpt lat="51.53044" lon="3.65675">
        <ele>43.221</ele>
        <time>2020-07-02T07:38:45Z</time>
      </trkpt>
      <trkpt lat="51.53044" lon="3.65675">
        <ele>43.221</ele>
        <time>2020-07-02T07:38:51Z</time>
      </trkpt>
      <trkpt lat="51.53044" lon="3.65675">
        <ele>43.221</ele>
        <time>2020-07-02T07:38:56Z</time>
      </trkpt>
      <trkpt lat="51.53044" lon="3.65675">
        <ele>43.221</ele>
        <time>2020-07-02T07:39:02Z</time>
      </trkpt>
      <trkpt lat="51.53044" lon="3.65675">
        <ele>43.221</ele>
        <time>2020-07-02T07:39:08Z</time>
      </trkpt>
      <trkpt lat="51.53044" lon="3.65675">
        <ele>43.221</ele>
        <time>2020-07-02T07:39:13Z</time>
      </trkpt>
      <trkpt lat="51.53044" lon="3.65675">
        <ele>43.221</ele>
        <time>2020-07-02T07:39:19Z</time>
      </trkpt>
      <trkpt lat="51.53044" lon="3.65675">
        <ele>43.221</ele>
        <time>2020-07-02T07:39:25Z</time>
      </trkpt>
      <trkpt lat="51.53044" lon="3.65675">
        <ele>43.221</ele>
        <time>2020-07-02T07:39:30Z</time>
      </trkpt>
      <trkpt lat="51.53044" lon="3.65675">
        <ele>43.221</ele>
        <time>2020-07-02T07:39:36Z</time>
      </trkpt>
      <trkpt lat="51.53044" lon="3.65675">
        <ele>43.221</ele>
        <time>2020-07-02T07:39:42Z</time>
      </trkpt>
      <trkpt lat="51.53044" lon="3.65675">
        <ele>43.221</ele>
        <time>2020-07-02T07:39:47Z</time>
      </trkpt>
      <trkpt lat="51.53044" lon="3.65675">
        <ele>43.221</ele>
        <time>2020-07-02T07:39:53Z</time>
      </trkpt>
      <trkpt lat="51.53044" lon="3.65675">
        <ele>43.221</ele>
        <time>2020-07-02T07:39:58Z</time>
      </trkpt>
      <trkpt lat="51.53044" lon="3.65675">
        <ele>43.221</ele>
        <time>2020-07-02T07:40:03Z</time>
      </trkpt>
      <trkpt lat="51.53044" lon="3.65675">
        <ele>43.221</ele>
        <time>2020-07-02T07:40:09Z</time>
      </trkpt>
      <trkpt lat="51.53044" lon="3.65675">
        <ele>43.221</ele>
        <time>2020-07-02T07:40:15Z</time>
      </trkpt>
      <trkpt lat="51.53044" lon="3.65675">
        <ele>43.221</ele>
        <time>2020-07-02T07:40:20Z</time>
      </trkpt>
      <trkpt lat="51.53044" lon="3.65675">
        <ele>43.221</ele>
        <time>2020-07-02T07:40:25Z</time>
      </trkpt>
      <trkpt lat="51.53044" lon="3.65675">
        <ele>43.221</ele>
        <time>2020-07-02T07:40:30Z</time>
      </trkpt>
      <trkpt lat="51.53044" lon="3.65675">
        <ele>43.221</ele>
        <time>2020-07-02T07:40:36Z</time>
      </trkpt>
      <trkpt lat="51.53044" lon="3.65675">
        <ele>43.221</ele>
        <time>2020-07-02T07:40:42Z</time>
      </trkpt>
      <trkpt lat="51.53044" lon="3.65675">
        <ele>43.221</ele>
        <time>2020-07-02T07:40:47Z</time>
      </trkpt>
      <trkpt lat="51.53044" lon="3.65675">
        <ele>43.221</ele>
        <time>2020-07-02T07:40:53Z</time>
      </trkpt>
      <trkpt lat="51.53044" lon="3.65675">
        <ele>43.221</ele>
        <time>2020-07-02T07:40:59Z</time>
      </trkpt>
      <trkpt lat="51.53044" lon="3.65675">
        <ele>43.221</ele>
        <time>2020-07-02T07:41:04Z</time>
      </trkpt>
      <trkpt lat="51.53044" lon="3.65675">
        <ele>43.221</ele>
        <time>2020-07-02T07:41:10Z</time>
      </trkpt>
      <trkpt lat="51.53044" lon="3.65675">
        <ele>43.221</ele>
        <time>2020-07-02T07:41:15Z</time>
      </trkpt>
      <trkpt lat="51.53044" lon="3.65675">
        <ele>43.221</ele>
        <time>2020-07-02T07:41:21Z</time>
      </trkpt>
      <trkpt lat="51.53044" lon="3.65675">
        <ele>43.221</ele>
        <time>2020-07-02T07:41:27Z</time>
      </trkpt>
      <trkpt lat="51.53044" lon="3.65675">
        <ele>43.221</ele>
        <time>2020-07-02T07:41:33Z</time>
      </trkpt>
      <trkpt lat="51.53044" lon="3.65675">
        <ele>43.221</ele>
        <time>2020-07-02T07:41:39Z</time>
      </trkpt>
      <trkpt lat="51.53044" lon="3.65675">
        <ele>43.221</ele>
        <time>2020-07-02T07:41:44Z</time>
      </trkpt>
      <trkpt lat="51.53044" lon="3.65675">
        <ele>43.221</ele>
        <time>2020-07-02T07:41:50Z</time>
      </trkpt>
      <trkpt lat="51.53044" lon="3.65675">
        <ele>43.221</ele>
        <time>2020-07-02T07:41:55Z</time>
      </trkpt>
      <trkpt lat="51.53044" lon="3.65675">
        <ele>43.221</ele>
        <time>2020-07-02T07:42:01Z</time>
      </trkpt>
      <trkpt lat="51.53044" lon="3.65675">
        <ele>43.221</ele>
        <time>2020-07-02T07:42:07Z</time>
      </trkpt>
      <trkpt lat="51.53044" lon="3.65675">
        <ele>43.221</ele>
        <time>2020-07-02T07:42:12Z</time>
      </trkpt>
      <trkpt lat="51.53044" lon="3.65675">
        <ele>43.221</ele>
        <time>2020-07-02T07:42:17Z</time>
      </trkpt>
      <trkpt lat="51.53044" lon="3.65675">
        <ele>43.221</ele>
        <time>2020-07-02T07:42:23Z</time>
      </trkpt>
      <trkpt lat="51.53044" lon="3.65675">
        <ele>43.221</ele>
        <time>2020-07-02T07:42:28Z</time>
      </trkpt>
      <trkpt lat="51.53044" lon="3.65675">
        <ele>43.221</ele>
        <time>2020-07-02T07:42:34Z</time>
      </trkpt>
      <trkpt lat="51.53044" lon="3.65675">
        <ele>43.221</ele>
        <time>2020-07-02T07:42:40Z</time>
      </trkpt>
      <trkpt lat="51.53044" lon="3.65675">
        <ele>43.221</ele>
        <time>2020-07-02T07:42:46Z</time>
      </trkpt>
      <trkpt lat="51.53044" lon="3.65675">
        <ele>43.221</ele>
        <time>2020-07-02T07:42:52Z</time>
      </trkpt>
      <trkpt lat="51.53044" lon="3.65675">
        <ele>43.221</ele>
        <time>2020-07-02T07:42:58Z</time>
      </trkpt>
      <trkpt lat="51.53044" lon="3.65675">
        <ele>43.221</ele>
        <time>2020-07-02T07:43:04Z</time>
      </trkpt>
      <trkpt lat="51.53044" lon="3.65675">
        <ele>43.221</ele>
        <time>2020-07-02T07:43:10Z</time>
      </trkpt>
      <trkpt lat="51.53044" lon="3.65675">
        <ele>43.221</ele>
        <time>2020-07-02T07:43:15Z</time>
      </trkpt>
      <trkpt lat="51.53047" lon="3.65676">
        <ele>42.999</ele>
        <time>2020-07-02T07:43:20Z</time>
      </trkpt>
      <trkpt lat="51.53056" lon="3.65677">
        <ele>43.679</ele>
        <time>2020-07-02T07:43:26Z</time>
      </trkpt>
      <trkpt lat="51.53069" lon="3.65678">
        <ele>43.746</ele>
        <time>2020-07-02T07:43:32Z</time>
      </trkpt>
      <trkpt lat="51.53084" lon="3.65681">
        <ele>43.593</ele>
        <time>2020-07-02T07:43:37Z</time>
      </trkpt>
      <trkpt lat="51.53099" lon="3.65684">
        <ele>43.948</ele>
        <time>2020-07-02T07:43:43Z</time>
      </trkpt>
      <trkpt lat="51.53117" lon="3.6569">
        <ele>44.021</ele>
        <time>2020-07-02T07:43:49Z</time>
      </trkpt>
      <trkpt lat="51.53139" lon="3.65704">
        <ele>44.221</ele>
        <time>2020-07-02T07:43:55Z</time>
      </trkpt>
      <trkpt lat="51.53154" lon="3.65714">
        <ele>44.409</ele>
        <time>2020-07-02T07:44:01Z</time>
      </trkpt>
      <trkpt lat="51.53166" lon="3.6573">
        <ele>44.08</ele>
        <time>2020-07-02T07:44:06Z</time>
      </trkpt>
      <trkpt lat="51.53181" lon="3.65755">
        <ele>43.449</ele>
        <time>2020-07-02T07:44:12Z</time>
      </trkpt>
      <trkpt lat="51.53195" lon="3.65781">
        <ele>42.705</ele>
        <time>2020-07-02T07:44:18Z</time>
      </trkpt>
      <trkpt lat="51.5321" lon="3.65805">
        <ele>42.652</ele>
        <time>2020-07-02T07:44:24Z</time>
      </trkpt>
      <trkpt lat="51.53224" lon="3.65826">
        <ele>42.287</ele>
        <time>2020-07-02T07:44:29Z</time>
      </trkpt>
      <trkpt lat="51.53243" lon="3.65855">
        <ele>41.522</ele>
        <time>2020-07-02T07:44:35Z</time>
      </trkpt>
      <trkpt lat="51.53259" lon="3.65882">
        <ele>40.771</ele>
        <time>2020-07-02T07:44:41Z</time>
      </trkpt>
      <trkpt lat="51.53274" lon="3.65907">
        <ele>41.664</ele>
        <time>2020-07-02T07:44:46Z</time>
      </trkpt>
      <trkpt lat="51.53286" lon="3.65929">
        <ele>41.858</ele>
        <time>2020-07-02T07:44:51Z</time>
      </trkpt>
      <trkpt lat="51.53303" lon="3.65958">
        <ele>42.137</ele>
        <time>2020-07-02T07:44:57Z</time>
      </trkpt>
      <trkpt lat="51.53321" lon="3.65984">
        <ele>41.491</ele>
        <time>2020-07-02T07:45:02Z</time>
      </trkpt>
      <trkpt lat="51.53337" lon="3.66015">
        <ele>41.577</ele>
        <time>2020-07-02T07:45:08Z</time>
      </trkpt>
      <trkpt lat="51.53349" lon="3.66044">
        <ele>41.611</ele>
        <time>2020-07-02T07:45:13Z</time>
      </trkpt>
      <trkpt lat="51.53363" lon="3.66079">
        <ele>42.039</ele>
        <time>2020-07-02T07:45:19Z</time>
      </trkpt>
      <trkpt lat="51.53375" lon="3.66106">
        <ele>42.444</ele>
        <time>2020-07-02T07:45:24Z</time>
      </trkpt>
      <trkpt lat="51.53393" lon="3.66139">
        <ele>41.847</ele>
        <time>2020-07-02T07:45:30Z</time>
      </trkpt>
      <trkpt lat="51.53408" lon="3.66168">
        <ele>41.623</ele>
        <time>2020-07-02T07:45:35Z</time>
      </trkpt>
      <trkpt lat="51.53422" lon="3.66201">
        <ele>41.482</ele>
        <time>2020-07-02T07:45:41Z</time>
      </trkpt>
      <trkpt lat="51.53437" lon="3.66231">
        <ele>41.479</ele>
        <time>2020-07-02T07:45:47Z</time>
      </trkpt>
      <trkpt lat="51.53452" lon="3.66257">
        <ele>40.944</ele>
        <time>2020-07-02T07:45:52Z</time>
      </trkpt>
      <trkpt lat="51.53464" lon="3.66283">
        <ele>41.216</ele>
        <time>2020-07-02T07:45:57Z</time>
      </trkpt>
      <trkpt lat="51.53476" lon="3.66311">
        <ele>41.757</ele>
        <time>2020-07-02T07:46:03Z</time>
      </trkpt>
      <trkpt lat="51.53487" lon="3.66334">
        <ele>41.965</ele>
        <time>2020-07-02T07:46:08Z</time>
      </trkpt>
      <trkpt lat="51.53503" lon="3.66366">
        <ele>42.86</ele>
        <time>2020-07-02T07:46:14Z</time>
      </trkpt>
      <trkpt lat="51.53514" lon="3.66388">
        <ele>42.773</ele>
        <time>2020-07-02T07:46:19Z</time>
      </trkpt>
      <trkpt lat="51.53531" lon="3.66418">
        <ele>41.825</ele>
        <time>2020-07-02T07:46:25Z</time>
      </trkpt>
      <trkpt lat="51.53547" lon="3.6645">
        <ele>41.721</ele>
        <time>2020-07-02T07:46:31Z</time>
      </trkpt>
      <trkpt lat="51.5356" lon="3.66473">
        <ele>42.914</ele>
        <time>2020-07-02T07:46:36Z</time>
      </trkpt>
      <trkpt lat="51.53584" lon="3.66485">
        <ele>45.697</ele>
        <time>2020-07-02T07:46:42Z</time>
      </trkpt>
      <trkpt lat="51.53944" lon="3.66021">
        <ele>46.1</ele>
        <time>2020-07-02T07:49:03Z</time>
      </trkpt>
      <trkpt lat="51.53968" lon="3.65976">
        <ele>46.22</ele>
        <time>2020-07-02T07:49:09Z</time>
      </trkpt>
      <trkpt lat="51.53976" lon="3.65963">
        <ele>41.3</ele>
        <time>2020-07-02T07:49:15Z</time>
      </trkpt>
      <trkpt lat="51.53983" lon="3.65948">
        <ele>42.735</ele>
        <time>2020-07-02T07:49:20Z</time>
      </trkpt>
      <trkpt lat="51.5399" lon="3.65929">
        <ele>44.139</ele>
        <time>2020-07-02T07:49:25Z</time>
      </trkpt>
      <trkpt lat="51.53999" lon="3.65907">
        <ele>44.768</ele>
        <time>2020-07-02T07:49:31Z</time>
      </trkpt>
      <trkpt lat="51.54012" lon="3.65889">
        <ele>46.738</ele>
        <time>2020-07-02T07:49:37Z</time>
      </trkpt>
      <trkpt lat="51.54024" lon="3.65871">
        <ele>48.593</ele>
        <time>2020-07-02T07:49:43Z</time>
      </trkpt>
      <trkpt lat="51.54037" lon="3.65857">
        <ele>48.474</ele>
        <time>2020-07-02T07:49:49Z</time>
      </trkpt>
      <trkpt lat="51.54053" lon="3.65873">
        <ele>47.946</ele>
        <time>2020-07-02T07:49:56Z</time>
      </trkpt>
      <trkpt lat="51.54065" lon="3.65898">
        <ele>48.852</ele>
        <time>2020-07-02T07:50:02Z</time>
      </trkpt>
      <trkpt lat="51.54075" lon="3.65919">
        <ele>49.445</ele>
        <time>2020-07-02T07:50:07Z</time>
      </trkpt>
      <trkpt lat="51.54088" lon="3.65952">
        <ele>49.214</ele>
        <time>2020-07-02T07:50:13Z</time>
      </trkpt>
      <trkpt lat="51.54101" lon="3.65976">
        <ele>49.036</ele>
        <time>2020-07-02T07:50:18Z</time>
      </trkpt>
      <trkpt lat="51.54115" lon="3.66008">
        <ele>47.94</ele>
        <time>2020-07-02T07:50:24Z</time>
      </trkpt>
      <trkpt lat="51.54129" lon="3.66033">
        <ele>47.556</ele>
        <time>2020-07-02T07:50:30Z</time>
      </trkpt>
      <trkpt lat="51.54143" lon="3.66057">
        <ele>46.277</ele>
        <time>2020-07-02T07:50:36Z</time>
      </trkpt>
      <trkpt lat="51.54161" lon="3.66077">
        <ele>46.503</ele>
        <time>2020-07-02T07:50:42Z</time>
      </trkpt>
      <trkpt lat="51.54177" lon="3.66093">
        <ele>46.394</ele>
        <time>2020-07-02T07:50:47Z</time>
      </trkpt>
      <trkpt lat="51.54187" lon="3.66109">
        <ele>46.325</ele>
        <time>2020-07-02T07:50:52Z</time>
      </trkpt>
      <trkpt lat="51.54205" lon="3.66125">
        <ele>49.29</ele>
        <time>2020-07-02T07:50:57Z</time>
      </trkpt>
      <trkpt lat="51.54225" lon="3.66144">
        <ele>50.75</ele>
        <time>2020-07-02T07:51:03Z</time>
      </trkpt>
      <trkpt lat="51.54244" lon="3.66162">
        <ele>50.815</ele>
        <time>2020-07-02T07:51:09Z</time>
      </trkpt>
      <trkpt lat="51.5426" lon="3.66177">
        <ele>49.863</ele>
        <time>2020-07-02T07:51:14Z</time>
      </trkpt>
      <trkpt lat="51.54278" lon="3.66191">
        <ele>51.177</ele>
        <time>2020-07-02T07:51:20Z</time>
      </trkpt>
      <trkpt lat="51.54295" lon="3.66204">
        <ele>50.201</ele>
        <time>2020-07-02T07:51:26Z</time>
      </trkpt>
      <trkpt lat="51.54311" lon="3.66212">
        <ele>49.344</ele>
        <time>2020-07-02T07:51:31Z</time>
      </trkpt>
      <trkpt lat="51.54328" lon="3.66226">
        <ele>48.879</ele>
        <time>2020-07-02T07:51:36Z</time>
      </trkpt>
      <trkpt lat="51.54347" lon="3.66242">
        <ele>49.231</ele>
        <time>2020-07-02T07:51:42Z</time>
      </trkpt>
      <trkpt lat="51.54362" lon="3.66255">
        <ele>49.149</ele>
        <time>2020-07-02T07:51:47Z</time>
      </trkpt>
      <trkpt lat="51.5438" lon="3.66273">
        <ele>48.403</ele>
        <time>2020-07-02T07:51:53Z</time>
      </trkpt>
      <trkpt lat="51.54396" lon="3.66292">
        <ele>47.968</ele>
        <time>2020-07-02T07:51:59Z</time>
      </trkpt>
      <trkpt lat="51.5441" lon="3.66308">
        <ele>47.669</ele>
        <time>2020-07-02T07:52:04Z</time>
      </trkpt>
      <trkpt lat="51.54426" lon="3.66329">
        <ele>47.242</ele>
        <time>2020-07-02T07:52:10Z</time>
      </trkpt>
      <trkpt lat="51.5444" lon="3.66347">
        <ele>46.411</ele>
        <time>2020-07-02T07:52:15Z</time>
      </trkpt>
      <trkpt lat="51.54456" lon="3.66371">
        <ele>45.869</ele>
        <time>2020-07-02T07:52:21Z</time>
      </trkpt>
      <trkpt lat="51.54468" lon="3.66389">
        <ele>44.971</ele>
        <time>2020-07-02T07:52:26Z</time>
      </trkpt>
      <trkpt lat="51.54482" lon="3.66411">
        <ele>44.525</ele>
        <time>2020-07-02T07:52:32Z</time>
      </trkpt>
      <trkpt lat="51.54494" lon="3.66429">
        <ele>44.604</ele>
        <time>2020-07-02T07:52:37Z</time>
      </trkpt>
      <trkpt lat="51.54508" lon="3.66448">
        <ele>44.686</ele>
        <time>2020-07-02T07:52:43Z</time>
      </trkpt>
      <trkpt lat="51.5452" lon="3.66469">
        <ele>44.801</ele>
        <time>2020-07-02T07:52:48Z</time>
      </trkpt>
      <trkpt lat="51.54535" lon="3.66492">
        <ele>44.743</ele>
        <time>2020-07-02T07:52:54Z</time>
      </trkpt>
      <trkpt lat="51.54548" lon="3.66512">
        <ele>45.431</ele>
        <time>2020-07-02T07:52:59Z</time>
      </trkpt>
      <trkpt lat="51.54563" lon="3.66536">
        <ele>45.655</ele>
        <time>2020-07-02T07:53:05Z</time>
      </trkpt>
      <trkpt lat="51.54575" lon="3.66556">
        <ele>45.778</ele>
        <time>2020-07-02T07:53:10Z</time>
      </trkpt>
      <trkpt lat="51.5459" lon="3.66584">
        <ele>46.43</ele>
        <time>2020-07-02T07:53:17Z</time>
      </trkpt>
      <trkpt lat="51.546" lon="3.666">
        <ele>47.573</ele>
        <time>2020-07-02T07:53:22Z</time>
      </trkpt>
      <trkpt lat="51.54614" lon="3.6662">
        <ele>47.627</ele>
        <time>2020-07-02T07:53:28Z</time>
      </trkpt>
      <trkpt lat="51.54627" lon="3.66634">
        <ele>47.389</ele>
        <time>2020-07-02T07:53:33Z</time>
      </trkpt>
      <trkpt lat="51.54644" lon="3.66651">
        <ele>46.922</ele>
        <time>2020-07-02T07:53:39Z</time>
      </trkpt>
      <trkpt lat="51.54657" lon="3.66667">
        <ele>47.66</ele>
        <time>2020-07-02T07:53:45Z</time>
      </trkpt>
      <trkpt lat="51.54665" lon="3.66692">
        <ele>48.313</ele>
        <time>2020-07-02T07:53:51Z</time>
      </trkpt>
      <trkpt lat="51.54675" lon="3.66719">
        <ele>47.603</ele>
        <time>2020-07-02T07:53:57Z</time>
      </trkpt>
      <trkpt lat="51.5468" lon="3.66743">
        <ele>49.531</ele>
        <time>2020-07-02T07:54:03Z</time>
      </trkpt>
      <trkpt lat="51.54689" lon="3.66766">
        <ele>49.669</ele>
        <time>2020-07-02T07:54:08Z</time>
      </trkpt>
      <trkpt lat="51.54701" lon="3.6679">
        <ele>51.019</ele>
        <time>2020-07-02T07:54:14Z</time>
      </trkpt>
      <trkpt lat="51.54713" lon="3.66812">
        <ele>53.111</ele>
        <time>2020-07-02T07:54:20Z</time>
      </trkpt>
      <trkpt lat="51.54726" lon="3.66827">
        <ele>54.287</ele>
        <time>2020-07-02T07:54:25Z</time>
      </trkpt>
      <trkpt lat="51.54742" lon="3.66854">
        <ele>54.606</ele>
        <time>2020-07-02T07:54:31Z</time>
      </trkpt>
      <trkpt lat="51.54756" lon="3.66874">
        <ele>53.665</ele>
        <time>2020-07-02T07:54:36Z</time>
      </trkpt>
      <trkpt lat="51.54772" lon="3.66894">
        <ele>51.901</ele>
        <time>2020-07-02T07:54:42Z</time>
      </trkpt>
      <trkpt lat="51.54787" lon="3.66916">
        <ele>50.842</ele>
        <time>2020-07-02T07:54:48Z</time>
      </trkpt>
      <trkpt lat="51.54801" lon="3.6694">
        <ele>49.782</ele>
        <time>2020-07-02T07:54:54Z</time>
      </trkpt>
      <trkpt lat="51.54816" lon="3.66963">
        <ele>49.358</ele>
        <time>2020-07-02T07:55:00Z</time>
      </trkpt>
      <trkpt lat="51.5483" lon="3.66984">
        <ele>50.081</ele>
        <time>2020-07-02T07:55:06Z</time>
      </trkpt>
      <trkpt lat="51.54841" lon="3.66999">
        <ele>50.062</ele>
        <time>2020-07-02T07:55:11Z</time>
      </trkpt>
      <trkpt lat="51.54856" lon="3.67013">
        <ele>49.956</ele>
        <time>2020-07-02T07:55:17Z</time>
      </trkpt>
      <trkpt lat="51.54869" lon="3.67017">
        <ele>50.554</ele>
        <time>2020-07-02T07:55:23Z</time>
      </trkpt>
      <trkpt lat="51.54874" lon="3.67015">
        <ele>51.187</ele>
        <time>2020-07-02T07:55:29Z</time>
      </trkpt>
      <trkpt lat="51.54874" lon="3.67015">
        <ele>51.187</ele>
        <time>2020-07-02T07:55:34Z</time>
      </trkpt>
      <trkpt lat="51.54874" lon="3.67015">
        <ele>51.187</ele>
        <time>2020-07-02T07:55:40Z</time>
      </trkpt>
      <trkpt lat="51.54874" lon="3.67015">
        <ele>51.187</ele>
        <time>2020-07-02T07:55:46Z</time>
      </trkpt>
      <trkpt lat="51.54874" lon="3.67015">
        <ele>51.187</ele>
        <time>2020-07-02T07:55:52Z</time>
      </trkpt>
      <trkpt lat="51.54874" lon="3.67015">
        <ele>51.187</ele>
        <time>2020-07-02T07:55:57Z</time>
      </trkpt>
      <trkpt lat="51.54874" lon="3.67015">
        <ele>51.187</ele>
        <time>2020-07-02T07:56:03Z</time>
      </trkpt>
      <trkpt lat="51.54874" lon="3.67015">
        <ele>51.187</ele>
        <time>2020-07-02T07:56:08Z</time>
      </trkpt>
      <trkpt lat="51.54874" lon="3.67015">
        <ele>51.187</ele>
        <time>2020-07-02T07:56:14Z</time>
      </trkpt>
      <trkpt lat="51.54874" lon="3.67015">
        <ele>51.187</ele>
        <time>2020-07-02T07:56:20Z</time>
      </trkpt>
      <trkpt lat="51.54874" lon="3.67015">
        <ele>51.187</ele>
        <time>2020-07-02T07:56:26Z</time>
      </trkpt>
      <trkpt lat="51.54874" lon="3.67015">
        <ele>51.187</ele>
        <time>2020-07-02T07:56:32Z</time>
      </trkpt>
      <trkpt lat="51.54874" lon="3.67015">
        <ele>51.187</ele>
        <time>2020-07-02T07:56:37Z</time>
      </trkpt>
      <trkpt lat="51.54874" lon="3.67015">
        <ele>51.187</ele>
        <time>2020-07-02T07:56:43Z</time>
      </trkpt>
      <trkpt lat="51.54874" lon="3.67015">
        <ele>51.187</ele>
        <time>2020-07-02T07:56:49Z</time>
      </trkpt>
      <trkpt lat="51.54874" lon="3.67015">
        <ele>51.187</ele>
        <time>2020-07-02T07:56:54Z</time>
      </trkpt>
      <trkpt lat="51.54874" lon="3.67015">
        <ele>51.187</ele>
        <time>2020-07-02T07:56:59Z</time>
      </trkpt>
      <trkpt lat="51.54874" lon="3.67015">
        <ele>51.187</ele>
        <time>2020-07-02T07:57:05Z</time>
      </trkpt>
      <trkpt lat="51.54874" lon="3.67015">
        <ele>51.187</ele>
        <time>2020-07-02T07:57:11Z</time>
      </trkpt>
      <trkpt lat="51.54874" lon="3.67015">
        <ele>51.187</ele>
        <time>2020-07-02T07:57:16Z</time>
      </trkpt>
      <trkpt lat="51.54878" lon="3.67011">
        <ele>51.698</ele>
        <time>2020-07-02T07:57:22Z</time>
      </trkpt>
      <trkpt lat="51.54886" lon="3.67005">
        <ele>50.922</ele>
        <time>2020-07-02T07:57:27Z</time>
      </trkpt>
      <trkpt lat="51.54895" lon="3.66998">
        <ele>50.692</ele>
        <time>2020-07-02T07:57:33Z</time>
      </trkpt>
      <trkpt lat="51.54908" lon="3.66985">
        <ele>50.648</ele>
        <time>2020-07-02T07:57:40Z</time>
      </trkpt>
      <trkpt lat="51.54925" lon="3.66968">
        <ele>51.526</ele>
        <time>2020-07-02T07:57:47Z</time>
      </trkpt>
      <trkpt lat="51.54937" lon="3.66963">
        <ele>52.22</ele>
        <time>2020-07-02T07:57:52Z</time>
      </trkpt>
      <trkpt lat="51.54953" lon="3.66959">
        <ele>52.326</ele>
        <time>2020-07-02T07:57:58Z</time>
      </trkpt>
      <trkpt lat="51.54968" lon="3.66954">
        <ele>52.504</ele>
        <time>2020-07-02T07:58:03Z</time>
      </trkpt>
      <trkpt lat="51.5498" lon="3.66944">
        <ele>53.013</ele>
        <time>2020-07-02T07:58:08Z</time>
      </trkpt>
      <trkpt lat="51.54983" lon="3.66939">
        <ele>53.506</ele>
        <time>2020-07-02T07:58:14Z</time>
      </trkpt>
      <trkpt lat="51.54983" lon="3.66939">
        <ele>53.506</ele>
        <time>2020-07-02T07:58:20Z</time>
      </trkpt>
      <trkpt lat="51.54983" lon="3.66939">
        <ele>53.506</ele>
        <time>2020-07-02T07:58:25Z</time>
      </trkpt>
      <trkpt lat="51.54987" lon="3.66935">
        <ele>53.967</ele>
        <time>2020-07-02T07:58:31Z</time>
      </trkpt>
      <trkpt lat="51.54992" lon="3.6693">
        <ele>54.571</ele>
        <time>2020-07-02T07:58:36Z</time>
      </trkpt>
      <trkpt lat="51.54994" lon="3.66926">
        <ele>56.262</ele>
        <time>2020-07-02T07:58:41Z</time>
      </trkpt>
      <trkpt lat="51.5499" lon="3.66933">
        <ele>58.911</ele>
        <time>2020-07-02T07:58:49Z</time>
      </trkpt>
      <trkpt lat="51.54997" lon="3.66939">
        <ele>59.476</ele>
        <time>2020-07-02T07:58:55Z</time>
      </trkpt>
      <trkpt lat="51.55002" lon="3.66943">
        <ele>59.915</ele>
        <time>2020-07-02T07:59:00Z</time>
      </trkpt>
      <trkpt lat="51.55011" lon="3.66944">
        <ele>57.831</ele>
        <time>2020-07-02T07:59:06Z</time>
      </trkpt>
      <trkpt lat="51.55015" lon="3.66955">
        <ele>55.854</ele>
        <time>2020-07-02T07:59:11Z</time>
      </trkpt>
      <trkpt lat="51.55011" lon="3.66971">
        <ele>55.335</ele>
        <time>2020-07-02T07:59:16Z</time>
      </trkpt>
      <trkpt lat="51.55015" lon="3.66982">
        <ele>52.917</ele>
        <time>2020-07-02T07:59:22Z</time>
      </trkpt>
      <trkpt lat="51.55016" lon="3.6698">
        <ele>51.692</ele>
        <time>2020-07-02T07:59:27Z</time>
      </trkpt>
      <trkpt lat="51.55016" lon="3.6698">
        <ele>51.692</ele>
        <time>2020-07-02T07:59:33Z</time>
      </trkpt>
      <trkpt lat="51.55016" lon="3.6698">
        <ele>51.692</ele>
        <time>2020-07-02T07:59:39Z</time>
      </trkpt>
      <trkpt lat="51.55016" lon="3.6698">
        <ele>51.692</ele>
        <time>2020-07-02T07:59:45Z</time>
      </trkpt>
      <trkpt lat="51.55016" lon="3.6698">
        <ele>51.692</ele>
        <time>2020-07-02T07:59:50Z</time>
      </trkpt>
      <trkpt lat="51.55016" lon="3.6698">
        <ele>51.692</ele>
        <time>2020-07-02T07:59:55Z</time>
      </trkpt>
      <trkpt lat="51.55016" lon="3.6698">
        <ele>51.692</ele>
        <time>2020-07-02T08:00:01Z</time>
      </trkpt>
      <trkpt lat="51.55016" lon="3.6698">
        <ele>51.692</ele>
        <time>2020-07-02T08:00:06Z</time>
      </trkpt>
      <trkpt lat="51.55016" lon="3.6698">
        <ele>51.692</ele>
        <time>2020-07-02T08:00:11Z</time>
      </trkpt>
      <trkpt lat="51.55016" lon="3.6698">
        <ele>51.692</ele>
        <time>2020-07-02T08:00:17Z</time>
      </trkpt>
      <trkpt lat="51.55013" lon="3.66982">
        <ele>51.216</ele>
        <time>2020-07-02T08:00:22Z</time>
      </trkpt>
      <trkpt lat="51.55012" lon="3.66985">
        <ele>50.826</ele>
        <time>2020-07-02T08:00:27Z</time>
      </trkpt>
      <trkpt lat="51.55012" lon="3.66985">
        <ele>50.826</ele>
        <time>2020-07-02T08:00:33Z</time>
      </trkpt>
      <trkpt lat="51.55012" lon="3.66985">
        <ele>50.826</ele>
        <time>2020-07-02T08:00:38Z</time>
      </trkpt>
      <trkpt lat="51.55012" lon="3.66985">
        <ele>50.826</ele>
        <time>2020-07-02T08:00:44Z</time>
      </trkpt>
      <trkpt lat="51.5501" lon="3.66986">
        <ele>50.801</ele>
        <time>2020-07-02T08:00:50Z</time>
      </trkpt>
      <trkpt lat="51.55007" lon="3.66987">
        <ele>50.852</ele>
        <time>2020-07-02T08:00:55Z</time>
      </trkpt>
      <trkpt lat="51.55007" lon="3.66987">
        <ele>50.852</ele>
        <time>2020-07-02T08:01:01Z</time>
      </trkpt>
      <trkpt lat="51.55007" lon="3.66987">
        <ele>50.852</ele>
        <time>2020-07-02T08:01:07Z</time>
      </trkpt>
      <trkpt lat="51.55007" lon="3.66987">
        <ele>50.852</ele>
        <time>2020-07-02T08:01:12Z</time>
      </trkpt>
      <trkpt lat="51.55007" lon="3.66987">
        <ele>50.852</ele>
        <time>2020-07-02T08:01:17Z</time>
      </trkpt>
      <trkpt lat="51.55007" lon="3.66987">
        <ele>50.852</ele>
        <time>2020-07-02T08:01:23Z</time>
      </trkpt>
      <trkpt lat="51.55007" lon="3.66987">
        <ele>50.852</ele>
        <time>2020-07-02T08:01:29Z</time>
      </trkpt>
      <trkpt lat="51.55007" lon="3.66987">
        <ele>50.852</ele>
        <time>2020-07-02T08:01:34Z</time>
      </trkpt>
      <trkpt lat="51.55007" lon="3.66987">
        <ele>50.852</ele>
        <time>2020-07-02T08:01:39Z</time>
      </trkpt>
      <trkpt lat="51.55007" lon="3.66987">
        <ele>50.852</ele>
        <time>2020-07-02T08:01:45Z</time>
      </trkpt>
      <trkpt lat="51.55007" lon="3.66987">
        <ele>50.852</ele>
        <time>2020-07-02T08:01:51Z</time>
      </trkpt>
      <trkpt lat="51.55007" lon="3.66987">
        <ele>50.852</ele>
        <time>2020-07-02T08:01:57Z</time>
      </trkpt>
      <trkpt lat="51.55007" lon="3.66987">
        <ele>50.852</ele>
        <time>2020-07-02T08:02:03Z</time>
      </trkpt>
      <trkpt lat="51.55007" lon="3.66987">
        <ele>50.852</ele>
        <time>2020-07-02T08:02:08Z</time>
      </trkpt>
      <trkpt lat="51.55007" lon="3.66987">
        <ele>50.852</ele>
        <time>2020-07-02T08:02:14Z</time>
      </trkpt>
      <trkpt lat="51.55007" lon="3.66987">
        <ele>50.852</ele>
        <time>2020-07-02T08:02:19Z</time>
      </trkpt>
      <trkpt lat="51.55007" lon="3.66987">
        <ele>50.852</ele>
        <time>2020-07-02T08:02:25Z</time>
      </trkpt>
      <trkpt lat="51.55007" lon="3.66987">
        <ele>50.852</ele>
        <time>2020-07-02T08:02:30Z</time>
      </trkpt>
      <trkpt lat="51.55007" lon="3.66987">
        <ele>50.852</ele>
        <time>2020-07-02T08:02:36Z</time>
      </trkpt>
      <trkpt lat="51.55007" lon="3.66987">
        <ele>50.852</ele>
        <time>2020-07-02T08:02:41Z</time>
      </trkpt>
      <trkpt lat="51.55007" lon="3.66987">
        <ele>50.852</ele>
        <time>2020-07-02T08:02:47Z</time>
      </trkpt>
      <trkpt lat="51.55007" lon="3.66987">
        <ele>50.852</ele>
        <time>2020-07-02T08:02:53Z</time>
      </trkpt>
      <trkpt lat="51.55007" lon="3.66987">
        <ele>50.852</ele>
        <time>2020-07-02T08:02:59Z</time>
      </trkpt>
      <trkpt lat="51.55007" lon="3.66987">
        <ele>50.852</ele>
        <time>2020-07-02T08:03:05Z</time>
      </trkpt>
      <trkpt lat="51.55007" lon="3.66987">
        <ele>50.852</ele>
        <time>2020-07-02T08:03:10Z</time>
      </trkpt>
      <trkpt lat="51.55007" lon="3.66987">
        <ele>50.852</ele>
        <time>2020-07-02T08:03:16Z</time>
      </trkpt>
      <trkpt lat="51.55007" lon="3.66987">
        <ele>50.852</ele>
        <time>2020-07-02T08:03:22Z</time>
      </trkpt>
      <trkpt lat="51.55007" lon="3.66987">
        <ele>50.852</ele>
        <time>2020-07-02T08:03:28Z</time>
      </trkpt>
      <trkpt lat="51.55007" lon="3.66987">
        <ele>50.852</ele>
        <time>2020-07-02T08:03:34Z</time>
      </trkpt>
      <trkpt lat="51.55007" lon="3.66987">
        <ele>50.852</ele>
        <time>2020-07-02T08:03:39Z</time>
      </trkpt>
      <trkpt lat="51.55007" lon="3.66987">
        <ele>50.852</ele>
        <time>2020-07-02T08:03:44Z</time>
      </trkpt>
      <trkpt lat="51.55007" lon="3.66987">
        <ele>50.852</ele>
        <time>2020-07-02T08:03:50Z</time>
      </trkpt>
      <trkpt lat="51.55007" lon="3.66987">
        <ele>50.852</ele>
        <time>2020-07-02T08:03:56Z</time>
      </trkpt>
      <trkpt lat="51.55007" lon="3.66987">
        <ele>50.852</ele>
        <time>2020-07-02T08:04:02Z</time>
      </trkpt>
      <trkpt lat="51.55007" lon="3.66987">
        <ele>50.852</ele>
        <time>2020-07-02T08:04:08Z</time>
      </trkpt>
      <trkpt lat="51.55007" lon="3.66987">
        <ele>50.852</ele>
        <time>2020-07-02T08:04:13Z</time>
      </trkpt>
      <trkpt lat="51.55008" lon="3.66987">
        <ele>50.852</ele>
        <time>2020-07-02T08:04:19Z</time>
      </trkpt>
      <trkpt lat="51.55008" lon="3.66987">
        <ele>50.852</ele>
        <time>2020-07-02T08:04:24Z</time>
      </trkpt>
      <trkpt lat="51.55008" lon="3.66987">
        <ele>50.852</ele>
        <time>2020-07-02T08:04:30Z</time>
      </trkpt>
      <trkpt lat="51.55008" lon="3.66987">
        <ele>50.852</ele>
        <time>2020-07-02T08:04:35Z</time>
      </trkpt>
      <trkpt lat="51.55008" lon="3.66987">
        <ele>50.852</ele>
        <time>2020-07-02T08:04:41Z</time>
      </trkpt>
      <trkpt lat="51.55008" lon="3.66987">
        <ele>50.852</ele>
        <time>2020-07-02T08:04:46Z</time>
      </trkpt>
      <trkpt lat="51.55008" lon="3.66987">
        <ele>50.852</ele>
        <time>2020-07-02T08:04:52Z</time>
      </trkpt>
      <trkpt lat="51.55008" lon="3.66987">
        <ele>50.852</ele>
        <time>2020-07-02T08:04:57Z</time>
      </trkpt>
      <trkpt lat="51.55008" lon="3.66987">
        <ele>50.852</ele>
        <time>2020-07-02T08:05:03Z</time>
      </trkpt>
      <trkpt lat="51.55007" lon="3.66987">
        <ele>50.302</ele>
        <time>2020-07-02T08:05:09Z</time>
      </trkpt>
      <trkpt lat="51.55003" lon="3.66984">
        <ele>49.336</ele>
        <time>2020-07-02T08:05:14Z</time>
      </trkpt>
      <trkpt lat="51.55001" lon="3.66983">
        <ele>50.335</ele>
        <time>2020-07-02T08:05:19Z</time>
      </trkpt>
      <trkpt lat="51.55003" lon="3.66984">
        <ele>49.609</ele>
        <time>2020-07-02T08:05:25Z</time>
      </trkpt>
      <trkpt lat="51.55006" lon="3.66984">
        <ele>50.082</ele>
        <time>2020-07-02T08:05:30Z</time>
      </trkpt>
      <trkpt lat="51.55007" lon="3.66984">
        <ele>50.082</ele>
        <time>2020-07-02T08:05:36Z</time>
      </trkpt>
      <trkpt lat="51.55007" lon="3.66984">
        <ele>50.082</ele>
        <time>2020-07-02T08:05:41Z</time>
      </trkpt>
      <trkpt lat="51.55007" lon="3.66984">
        <ele>50.082</ele>
        <time>2020-07-02T08:05:47Z</time>
      </trkpt>
      <trkpt lat="51.55007" lon="3.66984">
        <ele>50.082</ele>
        <time>2020-07-02T08:05:52Z</time>
      </trkpt>
      <trkpt lat="51.55007" lon="3.66984">
        <ele>50.082</ele>
        <time>2020-07-02T08:05:58Z</time>
      </trkpt>
      <trkpt lat="51.55007" lon="3.66984">
        <ele>50.082</ele>
        <time>2020-07-02T08:06:03Z</time>
      </trkpt>
      <trkpt lat="51.55008" lon="3.66984">
        <ele>50.082</ele>
        <time>2020-07-02T08:06:09Z</time>
      </trkpt>
      <trkpt lat="51.55008" lon="3.66984">
        <ele>50.552</ele>
        <time>2020-07-02T08:06:14Z</time>
      </trkpt>
      <trkpt lat="51.55008" lon="3.66985">
        <ele>50.873</ele>
        <time>2020-07-02T08:06:20Z</time>
      </trkpt>
      <trkpt lat="51.55008" lon="3.66985">
        <ele>50.873</ele>
        <time>2020-07-02T08:06:25Z</time>
      </trkpt>
      <trkpt lat="51.55008" lon="3.66985">
        <ele>50.873</ele>
        <time>2020-07-02T08:06:31Z</time>
      </trkpt>
      <trkpt lat="51.55008" lon="3.66985">
        <ele>50.873</ele>
        <time>2020-07-02T08:06:36Z</time>
      </trkpt>
      <trkpt lat="51.55008" lon="3.66985">
        <ele>50.873</ele>
        <time>2020-07-02T08:06:42Z</time>
      </trkpt>
      <trkpt lat="51.55008" lon="3.66985">
        <ele>50.873</ele>
        <time>2020-07-02T08:06:47Z</time>
      </trkpt>
      <trkpt lat="51.55008" lon="3.66985">
        <ele>50.873</ele>
        <time>2020-07-02T08:06:53Z</time>
      </trkpt>
      <trkpt lat="51.55008" lon="3.66985">
        <ele>50.873</ele>
        <time>2020-07-02T08:06:58Z</time>
      </trkpt>
      <trkpt lat="51.55008" lon="3.66985">
        <ele>50.873</ele>
        <time>2020-07-02T08:07:04Z</time>
      </trkpt>
      <trkpt lat="51.55008" lon="3.66985">
        <ele>50.873</ele>
        <time>2020-07-02T08:07:09Z</time>
      </trkpt>
      <trkpt lat="51.55008" lon="3.66985">
        <ele>50.873</ele>
        <time>2020-07-02T08:07:15Z</time>
      </trkpt>
      <trkpt lat="51.55008" lon="3.66985">
        <ele>50.873</ele>
        <time>2020-07-02T08:07:20Z</time>
      </trkpt>
      <trkpt lat="51.55008" lon="3.66985">
        <ele>50.873</ele>
        <time>2020-07-02T08:07:26Z</time>
      </trkpt>
      <trkpt lat="51.55008" lon="3.66985">
        <ele>50.873</ele>
        <time>2020-07-02T08:07:31Z</time>
      </trkpt>
      <trkpt lat="51.55008" lon="3.66985">
        <ele>50.873</ele>
        <time>2020-07-02T08:07:37Z</time>
      </trkpt>
      <trkpt lat="51.55008" lon="3.66985">
        <ele>50.873</ele>
        <time>2020-07-02T08:07:42Z</time>
      </trkpt>
      <trkpt lat="51.55008" lon="3.66985">
        <ele>50.873</ele>
        <time>2020-07-02T08:07:48Z</time>
      </trkpt>
      <trkpt lat="51.55007" lon="3.66985">
        <ele>51.087</ele>
        <time>2020-07-02T08:07:53Z</time>
      </trkpt>
      <trkpt lat="51.55007" lon="3.66985">
        <ele>51.087</ele>
        <time>2020-07-02T08:07:59Z</time>
      </trkpt>
      <trkpt lat="51.55007" lon="3.66985">
        <ele>51.087</ele>
        <time>2020-07-02T08:08:04Z</time>
      </trkpt>
      <trkpt lat="51.55006" lon="3.66985">
        <ele>51.087</ele>
        <time>2020-07-02T08:08:10Z</time>
      </trkpt>
      <trkpt lat="51.55006" lon="3.66984">
        <ele>51.087</ele>
        <time>2020-07-02T08:08:15Z</time>
      </trkpt>
      <trkpt lat="51.55006" lon="3.66984">
        <ele>51.087</ele>
        <time>2020-07-02T08:08:21Z</time>
      </trkpt>
      <trkpt lat="51.55006" lon="3.66984">
        <ele>51.087</ele>
        <time>2020-07-02T08:08:26Z</time>
      </trkpt>
      <trkpt lat="51.55006" lon="3.66984">
        <ele>51.087</ele>
        <time>2020-07-02T08:08:32Z</time>
      </trkpt>
      <trkpt lat="51.55006" lon="3.66984">
        <ele>51.087</ele>
        <time>2020-07-02T08:08:38Z</time>
      </trkpt>
      <trkpt lat="51.55006" lon="3.66984">
        <ele>51.087</ele>
        <time>2020-07-02T08:08:43Z</time>
      </trkpt>
      <trkpt lat="51.54989" lon="3.66935">
        <ele>59.5</ele>
        <time>2020-07-02T08:28:17Z</time>
      </trkpt>
      <trkpt lat="51.55075" lon="3.6701">
        <ele>48.621</ele>
        <time>2020-07-02T08:28:27Z</time>
      </trkpt>
      <trkpt lat="51.55069" lon="3.67009">
        <ele>37.104</ele>
        <time>2020-07-02T08:28:32Z</time>
      </trkpt>
      <trkpt lat="51.55082" lon="3.67017">
        <ele>41.143</ele>
        <time>2020-07-02T08:28:38Z</time>
      </trkpt>
      <trkpt lat="51.55088" lon="3.67021">
        <ele>45.526</ele>
        <time>2020-07-02T08:28:44Z</time>
      </trkpt>
      <trkpt lat="51.55088" lon="3.67021">
        <ele>46.196</ele>
        <time>2020-07-02T08:28:50Z</time>
      </trkpt>
      <trkpt lat="51.55106" lon="3.6704">
        <ele>55.615</ele>
        <time>2020-07-02T08:28:56Z</time>
      </trkpt>
      <trkpt lat="51.55114" lon="3.67049">
        <ele>58.554</ele>
        <time>2020-07-02T08:29:02Z</time>
      </trkpt>
      <trkpt lat="51.55114" lon="3.67049">
        <ele>55.715</ele>
        <time>2020-07-02T08:29:08Z</time>
      </trkpt>
      <trkpt lat="51.55114" lon="3.67049">
        <ele>55.29</ele>
        <time>2020-07-02T08:29:14Z</time>
      </trkpt>
      <trkpt lat="51.55132" lon="3.67086">
        <ele>53.413</ele>
        <time>2020-07-02T08:29:20Z</time>
      </trkpt>
      <trkpt lat="51.55132" lon="3.67086">
        <ele>49.828</ele>
        <time>2020-07-02T08:29:25Z</time>
      </trkpt>
      <trkpt lat="51.55132" lon="3.67086">
        <ele>46.72</ele>
        <time>2020-07-02T08:29:30Z</time>
      </trkpt>
      <trkpt lat="51.55139" lon="3.67114">
        <ele>45.134</ele>
        <time>2020-07-02T08:29:35Z</time>
      </trkpt>
      <trkpt lat="51.55139" lon="3.67114">
        <ele>43.063</ele>
        <time>2020-07-02T08:29:41Z</time>
      </trkpt>
      <trkpt lat="51.55141" lon="3.67149">
        <ele>42.906</ele>
        <time>2020-07-02T08:29:46Z</time>
      </trkpt>
      <trkpt lat="51.55141" lon="3.67165">
        <ele>41.695</ele>
        <time>2020-07-02T08:29:52Z</time>
      </trkpt>
      <trkpt lat="51.55142" lon="3.67176">
        <ele>39.861</ele>
        <time>2020-07-02T08:29:58Z</time>
      </trkpt>
      <trkpt lat="51.55144" lon="3.67196">
        <ele>39.168</ele>
        <time>2020-07-02T08:30:03Z</time>
      </trkpt>
      <trkpt lat="51.55144" lon="3.67213">
        <ele>36.817</ele>
        <time>2020-07-02T08:30:10Z</time>
      </trkpt>
      <trkpt lat="51.55144" lon="3.67213">
        <ele>34.35</ele>
        <time>2020-07-02T08:30:15Z</time>
      </trkpt>
      <trkpt lat="51.55143" lon="3.67243">
        <ele>33.192</ele>
        <time>2020-07-02T08:30:20Z</time>
      </trkpt>
      <trkpt lat="51.55143" lon="3.67243">
        <ele>35.42</ele>
        <time>2020-07-02T08:30:26Z</time>
      </trkpt>
      <trkpt lat="51.55143" lon="3.67272">
        <ele>36.123</ele>
        <time>2020-07-02T08:30:31Z</time>
      </trkpt>
      <trkpt lat="51.55143" lon="3.67301">
        <ele>36.414</ele>
        <time>2020-07-02T08:30:37Z</time>
      </trkpt>
      <trkpt lat="51.55143" lon="3.67317">
        <ele>36.069</ele>
        <time>2020-07-02T08:30:42Z</time>
      </trkpt>
      <trkpt lat="51.55143" lon="3.67339">
        <ele>35.998</ele>
        <time>2020-07-02T08:30:49Z</time>
      </trkpt>
      <trkpt lat="51.55143" lon="3.67358">
        <ele>36.188</ele>
        <time>2020-07-02T08:30:55Z</time>
      </trkpt>
      <trkpt lat="51.55143" lon="3.67383">
        <ele>36.663</ele>
        <time>2020-07-02T08:31:03Z</time>
      </trkpt>
      <trkpt lat="51.55142" lon="3.67408">
        <ele>36.936</ele>
        <time>2020-07-02T08:31:10Z</time>
      </trkpt>
      <trkpt lat="51.55141" lon="3.67426">
        <ele>37.129</ele>
        <time>2020-07-02T08:31:16Z</time>
      </trkpt>
      <trkpt lat="51.55141" lon="3.67442">
        <ele>37.02</ele>
        <time>2020-07-02T08:31:21Z</time>
      </trkpt>
      <trkpt lat="51.5514" lon="3.67458">
        <ele>36.868</ele>
        <time>2020-07-02T08:31:26Z</time>
      </trkpt>
      <trkpt lat="51.55141" lon="3.6748">
        <ele>37.971</ele>
        <time>2020-07-02T08:31:32Z</time>
      </trkpt>
      <trkpt lat="51.55141" lon="3.67502">
        <ele>39.002</ele>
        <time>2020-07-02T08:31:38Z</time>
      </trkpt>
      <trkpt lat="51.55145" lon="3.6752">
        <ele>40.144</ele>
        <time>2020-07-02T08:31:43Z</time>
      </trkpt>
      <trkpt lat="51.55151" lon="3.67541">
        <ele>43.915</ele>
        <time>2020-07-02T08:31:49Z</time>
      </trkpt>
      <trkpt lat="51.55157" lon="3.67558">
        <ele>45.232</ele>
        <time>2020-07-02T08:31:55Z</time>
      </trkpt>
      <trkpt lat="51.55162" lon="3.67569">
        <ele>43.772</ele>
        <time>2020-07-02T08:32:00Z</time>
      </trkpt>
      <trkpt lat="51.55171" lon="3.67584">
        <ele>43.393</ele>
        <time>2020-07-02T08:32:05Z</time>
      </trkpt>
      <trkpt lat="51.55171" lon="3.67589">
        <ele>44.157</ele>
        <time>2020-07-02T08:32:11Z</time>
      </trkpt>
      <trkpt lat="51.55174" lon="3.67597">
        <ele>43.791</ele>
        <time>2020-07-02T08:32:16Z</time>
      </trkpt>
      <trkpt lat="51.55181" lon="3.67613">
        <ele>42.771</ele>
        <time>2020-07-02T08:32:21Z</time>
      </trkpt>
      <trkpt lat="51.55192" lon="3.67627">
        <ele>43.758</ele>
        <time>2020-07-02T08:32:27Z</time>
      </trkpt>
      <trkpt lat="51.55202" lon="3.67644">
        <ele>45.6</ele>
        <time>2020-07-02T08:32:33Z</time>
      </trkpt>
      <trkpt lat="51.55209" lon="3.67655">
        <ele>45.651</ele>
        <time>2020-07-02T08:32:38Z</time>
      </trkpt>
      <trkpt lat="51.55213" lon="3.67663">
        <ele>44.189</ele>
        <time>2020-07-02T08:32:43Z</time>
      </trkpt>
      <trkpt lat="51.5522" lon="3.67672">
        <ele>43.747</ele>
        <time>2020-07-02T08:32:48Z</time>
      </trkpt>
      <trkpt lat="51.5523" lon="3.67682">
        <ele>43.686</ele>
        <time>2020-07-02T08:32:54Z</time>
      </trkpt>
      <trkpt lat="51.55241" lon="3.67692">
        <ele>44.899</ele>
        <time>2020-07-02T08:32:59Z</time>
      </trkpt>
      <trkpt lat="51.55251" lon="3.67702">
        <ele>45.467</ele>
        <time>2020-07-02T08:33:04Z</time>
      </trkpt>
      <trkpt lat="51.55261" lon="3.67711">
        <ele>45.857</ele>
        <time>2020-07-02T08:33:10Z</time>
      </trkpt>
      <trkpt lat="51.55269" lon="3.67718">
        <ele>46.218</ele>
        <time>2020-07-02T08:33:15Z</time>
      </trkpt>
      <trkpt lat="51.5528" lon="3.67725">
        <ele>46.513</ele>
        <time>2020-07-02T08:33:21Z</time>
      </trkpt>
      <trkpt lat="51.5529" lon="3.67731">
        <ele>47.373</ele>
        <time>2020-07-02T08:33:26Z</time>
      </trkpt>
      <trkpt lat="51.55302" lon="3.67738">
        <ele>48.492</ele>
        <time>2020-07-02T08:33:32Z</time>
      </trkpt>
      <trkpt lat="51.5531" lon="3.67743">
        <ele>45.273</ele>
        <time>2020-07-02T08:33:38Z</time>
      </trkpt>
      <trkpt lat="51.55322" lon="3.6775">
        <ele>41.49</ele>
        <time>2020-07-02T08:33:44Z</time>
      </trkpt>
      <trkpt lat="51.55334" lon="3.67758">
        <ele>38.8</ele>
        <time>2020-07-02T08:33:50Z</time>
      </trkpt>
      <trkpt lat="51.55343" lon="3.67761">
        <ele>39.33</ele>
        <time>2020-07-02T08:33:55Z</time>
      </trkpt>
      <trkpt lat="51.55355" lon="3.67765">
        <ele>40.886</ele>
        <time>2020-07-02T08:34:01Z</time>
      </trkpt>
      <trkpt lat="51.55366" lon="3.67767">
        <ele>41.865</ele>
        <time>2020-07-02T08:34:07Z</time>
      </trkpt>
      <trkpt lat="51.55377" lon="3.67768">
        <ele>42.315</ele>
        <time>2020-07-02T08:34:13Z</time>
      </trkpt>
      <trkpt lat="51.55394" lon="3.6777">
        <ele>44.296</ele>
        <time>2020-07-02T08:34:23Z</time>
      </trkpt>
      <trkpt lat="51.55403" lon="3.67772">
        <ele>46.436</ele>
        <time>2020-07-02T08:34:28Z</time>
      </trkpt>
      <trkpt lat="51.55414" lon="3.67776">
        <ele>47.98</ele>
        <time>2020-07-02T08:34:34Z</time>
      </trkpt>
      <trkpt lat="51.55426" lon="3.67778">
        <ele>48.918</ele>
        <time>2020-07-02T08:34:40Z</time>
      </trkpt>
      <trkpt lat="51.55438" lon="3.6778">
        <ele>51.103</ele>
        <time>2020-07-02T08:34:46Z</time>
      </trkpt>
      <trkpt lat="51.55449" lon="3.67784">
        <ele>50.367</ele>
        <time>2020-07-02T08:34:51Z</time>
      </trkpt>
      <trkpt lat="51.55461" lon="3.67787">
        <ele>50.742</ele>
        <time>2020-07-02T08:34:57Z</time>
      </trkpt>
      <trkpt lat="51.55472" lon="3.6779">
        <ele>49.722</ele>
        <time>2020-07-02T08:35:02Z</time>
      </trkpt>
      <trkpt lat="51.55482" lon="3.6779">
        <ele>48.605</ele>
        <time>2020-07-02T08:35:08Z</time>
      </trkpt>
      <trkpt lat="51.55492" lon="3.67792">
        <ele>48.284</ele>
        <time>2020-07-02T08:35:13Z</time>
      </trkpt>
      <trkpt lat="51.55503" lon="3.67793">
        <ele>47.529</ele>
        <time>2020-07-02T08:35:19Z</time>
      </trkpt>
      <trkpt lat="51.55513" lon="3.67794">
        <ele>48.612</ele>
        <time>2020-07-02T08:35:25Z</time>
      </trkpt>
      <trkpt lat="51.55522" lon="3.67796">
        <ele>49.455</ele>
        <time>2020-07-02T08:35:30Z</time>
      </trkpt>
      <trkpt lat="51.55531" lon="3.67799">
        <ele>48.895</ele>
        <time>2020-07-02T08:35:35Z</time>
      </trkpt>
      <trkpt lat="51.55541" lon="3.67803">
        <ele>47.996</ele>
        <time>2020-07-02T08:35:41Z</time>
      </trkpt>
      <trkpt lat="51.55553" lon="3.67808">
        <ele>47.575</ele>
        <time>2020-07-02T08:35:48Z</time>
      </trkpt>
      <trkpt lat="51.55563" lon="3.67812">
        <ele>47.741</ele>
        <time>2020-07-02T08:35:53Z</time>
      </trkpt>
      <trkpt lat="51.55574" lon="3.67819">
        <ele>47.987</ele>
        <time>2020-07-02T08:35:59Z</time>
      </trkpt>
      <trkpt lat="51.55582" lon="3.67825">
        <ele>47.684</ele>
        <time>2020-07-02T08:36:04Z</time>
      </trkpt>
      <trkpt lat="51.55592" lon="3.67834">
        <ele>47.708</ele>
        <time>2020-07-02T08:36:10Z</time>
      </trkpt>
      <trkpt lat="51.55601" lon="3.67839">
        <ele>48.638</ele>
        <time>2020-07-02T08:36:15Z</time>
      </trkpt>
      <trkpt lat="51.55611" lon="3.67848">
        <ele>50.091</ele>
        <time>2020-07-02T08:36:21Z</time>
      </trkpt>
      <trkpt lat="51.55622" lon="3.67859">
        <ele>50.725</ele>
        <time>2020-07-02T08:36:27Z</time>
      </trkpt>
      <trkpt lat="51.55631" lon="3.67871">
        <ele>51.883</ele>
        <time>2020-07-02T08:36:33Z</time>
      </trkpt>
      <trkpt lat="51.55642" lon="3.67888">
        <ele>49.545</ele>
        <time>2020-07-02T08:36:41Z</time>
      </trkpt>
      <trkpt lat="51.5565" lon="3.679">
        <ele>47.593</ele>
        <time>2020-07-02T08:36:46Z</time>
      </trkpt>
      <trkpt lat="51.55659" lon="3.67915">
        <ele>46.285</ele>
        <time>2020-07-02T08:36:52Z</time>
      </trkpt>
      <trkpt lat="51.55668" lon="3.67928">
        <ele>45.428</ele>
        <time>2020-07-02T08:36:58Z</time>
      </trkpt>
      <trkpt lat="51.55674" lon="3.67939">
        <ele>46.305</ele>
        <time>2020-07-02T08:37:03Z</time>
      </trkpt>
      <trkpt lat="51.55682" lon="3.67952">
        <ele>47.712</ele>
        <time>2020-07-02T08:37:09Z</time>
      </trkpt>
      <trkpt lat="51.55689" lon="3.67966">
        <ele>48.111</ele>
        <time>2020-07-02T08:37:14Z</time>
      </trkpt>
      <trkpt lat="51.55697" lon="3.67983">
        <ele>48.529</ele>
        <time>2020-07-02T08:37:20Z</time>
      </trkpt>
      <trkpt lat="51.55703" lon="3.68">
        <ele>47.727</ele>
        <time>2020-07-02T08:37:26Z</time>
      </trkpt>
      <trkpt lat="51.55708" lon="3.68014">
        <ele>47.979</ele>
        <time>2020-07-02T08:37:31Z</time>
      </trkpt>
      <trkpt lat="51.55715" lon="3.68033">
        <ele>48.077</ele>
        <time>2020-07-02T08:37:38Z</time>
      </trkpt>
      <trkpt lat="51.5572" lon="3.6805">
        <ele>48.159</ele>
        <time>2020-07-02T08:37:44Z</time>
      </trkpt>
      <trkpt lat="51.55723" lon="3.68063">
        <ele>47.567</ele>
        <time>2020-07-02T08:37:49Z</time>
      </trkpt>
      <trkpt lat="51.55725" lon="3.68081">
        <ele>47.634</ele>
        <time>2020-07-02T08:37:55Z</time>
      </trkpt>
      <trkpt lat="51.55725" lon="3.68097">
        <ele>46.76</ele>
        <time>2020-07-02T08:38:00Z</time>
      </trkpt>
      <trkpt lat="51.55722" lon="3.68112">
        <ele>45.139</ele>
        <time>2020-07-02T08:38:05Z</time>
      </trkpt>
      <trkpt lat="51.55718" lon="3.68127">
        <ele>43.348</ele>
        <time>2020-07-02T08:38:11Z</time>
      </trkpt>
      <trkpt lat="51.55714" lon="3.6814">
        <ele>41.686</ele>
        <time>2020-07-02T08:38:17Z</time>
      </trkpt>
      <trkpt lat="51.5571" lon="3.68147">
        <ele>41.995</ele>
        <time>2020-07-02T08:38:22Z</time>
      </trkpt>
      <trkpt lat="51.55705" lon="3.68158">
        <ele>42.309</ele>
        <time>2020-07-02T08:38:28Z</time>
      </trkpt>
      <trkpt lat="51.55697" lon="3.68167">
        <ele>42.691</ele>
        <time>2020-07-02T08:38:34Z</time>
      </trkpt>
      <trkpt lat="51.55688" lon="3.6818">
        <ele>43.789</ele>
        <time>2020-07-02T08:38:40Z</time>
      </trkpt>
      <trkpt lat="51.55678" lon="3.68194">
        <ele>43.564</ele>
        <time>2020-07-02T08:38:46Z</time>
      </trkpt>
      <trkpt lat="51.55671" lon="3.68209">
        <ele>42.762</ele>
        <time>2020-07-02T08:38:52Z</time>
      </trkpt>
      <trkpt lat="51.55667" lon="3.68223">
        <ele>42.378</ele>
        <time>2020-07-02T08:38:57Z</time>
      </trkpt>
      <trkpt lat="51.55664" lon="3.68239">
        <ele>42.545</ele>
        <time>2020-07-02T08:39:03Z</time>
      </trkpt>
      <trkpt lat="51.55663" lon="3.68254">
        <ele>42.065</ele>
        <time>2020-07-02T08:39:08Z</time>
      </trkpt>
      <trkpt lat="51.55663" lon="3.68269">
        <ele>42.16</ele>
        <time>2020-07-02T08:39:13Z</time>
      </trkpt>
      <trkpt lat="51.55667" lon="3.68282">
        <ele>41.95</ele>
        <time>2020-07-02T08:39:19Z</time>
      </trkpt>
      <trkpt lat="51.55671" lon="3.6829">
        <ele>42.024</ele>
        <time>2020-07-02T08:39:24Z</time>
      </trkpt>
      <trkpt lat="51.55676" lon="3.68296">
        <ele>42.64</ele>
        <time>2020-07-02T08:39:29Z</time>
      </trkpt>
      <trkpt lat="51.55682" lon="3.68302">
        <ele>42.659</ele>
        <time>2020-07-02T08:39:35Z</time>
      </trkpt>
      <trkpt lat="51.55689" lon="3.68307">
        <ele>42.859</ele>
        <time>2020-07-02T08:39:40Z</time>
      </trkpt>
      <trkpt lat="51.55696" lon="3.68312">
        <ele>43.281</ele>
        <time>2020-07-02T08:39:45Z</time>
      </trkpt>
      <trkpt lat="51.55702" lon="3.68316">
        <ele>44.609</ele>
        <time>2020-07-02T08:39:51Z</time>
      </trkpt>
      <trkpt lat="51.55707" lon="3.68318">
        <ele>44.529</ele>
        <time>2020-07-02T08:39:56Z</time>
      </trkpt>
      <trkpt lat="51.55713" lon="3.68319">
        <ele>44.533</ele>
        <time>2020-07-02T08:40:02Z</time>
      </trkpt>
      <trkpt lat="51.55717" lon="3.68322">
        <ele>44.885</ele>
        <time>2020-07-02T08:40:08Z</time>
      </trkpt>
      <trkpt lat="51.5572" lon="3.68322">
        <ele>45.306</ele>
        <time>2020-07-02T08:40:13Z</time>
      </trkpt>
      <trkpt lat="51.55724" lon="3.68323">
        <ele>46.19</ele>
        <time>2020-07-02T08:40:18Z</time>
      </trkpt>
      <trkpt lat="51.55727" lon="3.68324">
        <ele>47.462</ele>
        <time>2020-07-02T08:40:24Z</time>
      </trkpt>
      <trkpt lat="51.55728" lon="3.68324">
        <ele>47.932</ele>
        <time>2020-07-02T08:40:30Z</time>
      </trkpt>
      <trkpt lat="51.55728" lon="3.68324">
        <ele>47.932</ele>
        <time>2020-07-02T08:40:36Z</time>
      </trkpt>
      <trkpt lat="51.55728" lon="3.68324">
        <ele>47.932</ele>
        <time>2020-07-02T08:40:41Z</time>
      </trkpt>
      <trkpt lat="51.55728" lon="3.68324">
        <ele>47.932</ele>
        <time>2020-07-02T08:40:47Z</time>
      </trkpt>
      <trkpt lat="51.55728" lon="3.68324">
        <ele>47.932</ele>
        <time>2020-07-02T08:40:53Z</time>
      </trkpt>
      <trkpt lat="51.55728" lon="3.68324">
        <ele>47.932</ele>
        <time>2020-07-02T08:40:58Z</time>
      </trkpt>
      <trkpt lat="51.55728" lon="3.68324">
        <ele>47.932</ele>
        <time>2020-07-02T08:41:04Z</time>
      </trkpt>
      <trkpt lat="51.55728" lon="3.68324">
        <ele>47.932</ele>
        <time>2020-07-02T08:41:10Z</time>
      </trkpt>
      <trkpt lat="51.55728" lon="3.68324">
        <ele>47.932</ele>
        <time>2020-07-02T08:41:16Z</time>
      </trkpt>
      <trkpt lat="51.55728" lon="3.68324">
        <ele>47.932</ele>
        <time>2020-07-02T08:41:21Z</time>
      </trkpt>
      <trkpt lat="51.55728" lon="3.68324">
        <ele>47.932</ele>
        <time>2020-07-02T08:41:27Z</time>
      </trkpt>
      <trkpt lat="51.55728" lon="3.68324">
        <ele>47.932</ele>
        <time>2020-07-02T08:41:33Z</time>
      </trkpt>
      <trkpt lat="51.55728" lon="3.68324">
        <ele>47.932</ele>
        <time>2020-07-02T08:41:39Z</time>
      </trkpt>
      <trkpt lat="51.55728" lon="3.68324">
        <ele>47.932</ele>
        <time>2020-07-02T08:41:45Z</time>
      </trkpt>
      <trkpt lat="51.55728" lon="3.68324">
        <ele>47.932</ele>
        <time>2020-07-02T08:41:51Z</time>
      </trkpt>
      <trkpt lat="51.55728" lon="3.68324">
        <ele>47.932</ele>
        <time>2020-07-02T08:41:56Z</time>
      </trkpt>
      <trkpt lat="51.55728" lon="3.68324">
        <ele>47.932</ele>
        <time>2020-07-02T08:42:02Z</time>
      </trkpt>
      <trkpt lat="51.55728" lon="3.68324">
        <ele>47.932</ele>
        <time>2020-07-02T08:42:08Z</time>
      </trkpt>
      <trkpt lat="51.55728" lon="3.68324">
        <ele>47.932</ele>
        <time>2020-07-02T08:42:13Z</time>
      </trkpt>
      <trkpt lat="51.55728" lon="3.68324">
        <ele>47.932</ele>
        <time>2020-07-02T08:42:18Z</time>
      </trkpt>
      <trkpt lat="51.55728" lon="3.68324">
        <ele>47.932</ele>
        <time>2020-07-02T08:42:24Z</time>
      </trkpt>
      <trkpt lat="51.55728" lon="3.68324">
        <ele>47.932</ele>
        <time>2020-07-02T08:42:30Z</time>
      </trkpt>
      <trkpt lat="51.55728" lon="3.68324">
        <ele>47.932</ele>
        <time>2020-07-02T08:42:35Z</time>
      </trkpt>
      <trkpt lat="51.55729" lon="3.68324">
        <ele>47.932</ele>
        <time>2020-07-02T08:42:41Z</time>
      </trkpt>
      <trkpt lat="51.55728" lon="3.68324">
        <ele>47.932</ele>
        <time>2020-07-02T08:42:46Z</time>
      </trkpt>
      <trkpt lat="51.55728" lon="3.68324">
        <ele>47.77</ele>
        <time>2020-07-02T08:42:52Z</time>
      </trkpt>
      <trkpt lat="51.55728" lon="3.68326">
        <ele>48.692</ele>
        <time>2020-07-02T08:42:57Z</time>
      </trkpt>
      <trkpt lat="51.5573" lon="3.68333">
        <ele>49.427</ele>
        <time>2020-07-02T08:43:03Z</time>
      </trkpt>
      <trkpt lat="51.55733" lon="3.68339">
        <ele>49.773</ele>
        <time>2020-07-02T08:43:08Z</time>
      </trkpt>
      <trkpt lat="51.55739" lon="3.68346">
        <ele>50.557</ele>
        <time>2020-07-02T08:43:14Z</time>
      </trkpt>
      <trkpt lat="51.55743" lon="3.68352">
        <ele>50.529</ele>
        <time>2020-07-02T08:43:19Z</time>
      </trkpt>
      <trkpt lat="51.55744" lon="3.68353">
        <ele>50.617</ele>
        <time>2020-07-02T08:43:24Z</time>
      </trkpt>
      <trkpt lat="51.55752" lon="3.68364">
        <ele>51.332</ele>
        <time>2020-07-02T08:43:30Z</time>
      </trkpt>
      <trkpt lat="51.55755" lon="3.68369">
        <ele>51.912</ele>
        <time>2020-07-02T08:43:35Z</time>
      </trkpt>
      <trkpt lat="51.5576" lon="3.68377">
        <ele>51.24</ele>
        <time>2020-07-02T08:43:41Z</time>
      </trkpt>
      <trkpt lat="51.55763" lon="3.68388">
        <ele>51.036</ele>
        <time>2020-07-02T08:43:46Z</time>
      </trkpt>
      <trkpt lat="51.55763" lon="3.68394">
        <ele>51.036</ele>
        <time>2020-07-02T08:43:52Z</time>
      </trkpt>
      <trkpt lat="51.55765" lon="3.68394">
        <ele>51.036</ele>
        <time>2020-07-02T08:43:58Z</time>
      </trkpt>
      <trkpt lat="51.55765" lon="3.68391">
        <ele>49.871</ele>
        <time>2020-07-02T08:44:03Z</time>
      </trkpt>
      <trkpt lat="51.55764" lon="3.68388">
        <ele>49.871</ele>
        <time>2020-07-02T08:44:08Z</time>
      </trkpt>
      <trkpt lat="51.55763" lon="3.68387">
        <ele>49.871</ele>
        <time>2020-07-02T08:44:14Z</time>
      </trkpt>
      <trkpt lat="51.55763" lon="3.68387">
        <ele>49.871</ele>
        <time>2020-07-02T08:44:20Z</time>
      </trkpt>
      <trkpt lat="51.55763" lon="3.68387">
        <ele>49.871</ele>
        <time>2020-07-02T08:44:25Z</time>
      </trkpt>
      <trkpt lat="51.55763" lon="3.68387">
        <ele>49.871</ele>
        <time>2020-07-02T08:44:31Z</time>
      </trkpt>
      <trkpt lat="51.55763" lon="3.68387">
        <ele>49.871</ele>
        <time>2020-07-02T08:44:37Z</time>
      </trkpt>
      <trkpt lat="51.55763" lon="3.68387">
        <ele>49.871</ele>
        <time>2020-07-02T08:44:43Z</time>
      </trkpt>
      <trkpt lat="51.55763" lon="3.68387">
        <ele>49.871</ele>
        <time>2020-07-02T08:44:48Z</time>
      </trkpt>
      <trkpt lat="51.55763" lon="3.68387">
        <ele>49.871</ele>
        <time>2020-07-02T08:44:54Z</time>
      </trkpt>
      <trkpt lat="51.55763" lon="3.68387">
        <ele>49.871</ele>
        <time>2020-07-02T08:44:59Z</time>
      </trkpt>
      <trkpt lat="51.55763" lon="3.68387">
        <ele>49.871</ele>
        <time>2020-07-02T08:45:05Z</time>
      </trkpt>
      <trkpt lat="51.55763" lon="3.68387">
        <ele>49.583</ele>
        <time>2020-07-02T08:45:10Z</time>
      </trkpt>
      <trkpt lat="51.55765" lon="3.68389">
        <ele>50.19</ele>
        <time>2020-07-02T08:45:15Z</time>
      </trkpt>
      <trkpt lat="51.55765" lon="3.68389">
        <ele>50.19</ele>
        <time>2020-07-02T08:45:21Z</time>
      </trkpt>
      <trkpt lat="51.55765" lon="3.68389">
        <ele>50.309</ele>
        <time>2020-07-02T08:45:27Z</time>
      </trkpt>
      <trkpt lat="51.55765" lon="3.68389">
        <ele>50.824</ele>
        <time>2020-07-02T08:45:32Z</time>
      </trkpt>
      <trkpt lat="51.55765" lon="3.68389">
        <ele>50.776</ele>
        <time>2020-07-02T08:45:38Z</time>
      </trkpt>
      <trkpt lat="51.55765" lon="3.68389">
        <ele>50.776</ele>
        <time>2020-07-02T08:45:43Z</time>
      </trkpt>
      <trkpt lat="51.55765" lon="3.68389">
        <ele>50.877</ele>
        <time>2020-07-02T08:45:48Z</time>
      </trkpt>
      <trkpt lat="51.55765" lon="3.68389">
        <ele>52.065</ele>
        <time>2020-07-02T08:45:53Z</time>
      </trkpt>
      <trkpt lat="51.55777" lon="3.68413">
        <ele>53.982</ele>
        <time>2020-07-02T08:45:58Z</time>
      </trkpt>
      <trkpt lat="51.55783" lon="3.68426">
        <ele>55.41</ele>
        <time>2020-07-02T08:46:04Z</time>
      </trkpt>
      <trkpt lat="51.55793" lon="3.68446">
        <ele>56.997</ele>
        <time>2020-07-02T08:46:09Z</time>
      </trkpt>
      <trkpt lat="51.55803" lon="3.68466">
        <ele>58.143</ele>
        <time>2020-07-02T08:46:15Z</time>
      </trkpt>
      <trkpt lat="51.55814" lon="3.68487">
        <ele>59.106</ele>
        <time>2020-07-02T08:46:20Z</time>
      </trkpt>
      <trkpt lat="51.55827" lon="3.68508">
        <ele>60.947</ele>
        <time>2020-07-02T08:46:26Z</time>
      </trkpt>
      <trkpt lat="51.55837" lon="3.68527">
        <ele>62.907</ele>
        <time>2020-07-02T08:46:31Z</time>
      </trkpt>
      <trkpt lat="51.55847" lon="3.68549">
        <ele>64.965</ele>
        <time>2020-07-02T08:46:37Z</time>
      </trkpt>
      <trkpt lat="51.55854" lon="3.68564">
        <ele>66.303</ele>
        <time>2020-07-02T08:46:42Z</time>
      </trkpt>
      <trkpt lat="51.5586" lon="3.68581">
        <ele>65.009</ele>
        <time>2020-07-02T08:46:48Z</time>
      </trkpt>
      <trkpt lat="51.55861" lon="3.68597">
        <ele>62.525</ele>
        <time>2020-07-02T08:46:54Z</time>
      </trkpt>
      <trkpt lat="51.55851" lon="3.68614">
        <ele>59.092</ele>
        <time>2020-07-02T08:47:00Z</time>
      </trkpt>
      <trkpt lat="51.55851" lon="3.68635">
        <ele>56.816</ele>
        <time>2020-07-02T08:47:06Z</time>
      </trkpt>
      <trkpt lat="51.55851" lon="3.68635">
        <ele>56.816</ele>
        <time>2020-07-02T08:47:12Z</time>
      </trkpt>
      <trkpt lat="51.55851" lon="3.68635">
        <ele>56.816</ele>
        <time>2020-07-02T08:47:18Z</time>
      </trkpt>
      <trkpt lat="51.55851" lon="3.68635">
        <ele>56.816</ele>
        <time>2020-07-02T08:47:24Z</time>
      </trkpt>
      <trkpt lat="51.55851" lon="3.68635">
        <ele>56.816</ele>
        <time>2020-07-02T08:47:30Z</time>
      </trkpt>
      <trkpt lat="51.55851" lon="3.68635">
        <ele>56.816</ele>
        <time>2020-07-02T08:47:35Z</time>
      </trkpt>
      <trkpt lat="51.55848" lon="3.68648">
        <ele>55.381</ele>
        <time>2020-07-02T08:47:41Z</time>
      </trkpt>
      <trkpt lat="51.5584" lon="3.68663">
        <ele>54.826</ele>
        <time>2020-07-02T08:47:46Z</time>
      </trkpt>
      <trkpt lat="51.55829" lon="3.68702">
        <ele>53.744</ele>
        <time>2020-07-02T08:47:53Z</time>
      </trkpt>
      <trkpt lat="51.55822" lon="3.68748">
        <ele>53.054</ele>
        <time>2020-07-02T08:47:59Z</time>
      </trkpt>
      <trkpt lat="51.55808" lon="3.6881">
        <ele>53.725</ele>
        <time>2020-07-02T08:48:08Z</time>
      </trkpt>
      <trkpt lat="51.55794" lon="3.68836">
        <ele>53.724</ele>
        <time>2020-07-02T08:48:14Z</time>
      </trkpt>
      <trkpt lat="51.55795" lon="3.6886">
        <ele>52.556</ele>
        <time>2020-07-02T08:48:20Z</time>
      </trkpt>
      <trkpt lat="51.55798" lon="3.68882">
        <ele>52.487</ele>
        <time>2020-07-02T08:48:25Z</time>
      </trkpt>
      <trkpt lat="51.55804" lon="3.68906">
        <ele>52.276</ele>
        <time>2020-07-02T08:48:30Z</time>
      </trkpt>
      <trkpt lat="51.55814" lon="3.68932">
        <ele>52.474</ele>
        <time>2020-07-02T08:48:35Z</time>
      </trkpt>
      <trkpt lat="51.55823" lon="3.68964">
        <ele>53.155</ele>
        <time>2020-07-02T08:48:41Z</time>
      </trkpt>
      <trkpt lat="51.55837" lon="3.68999">
        <ele>52.827</ele>
        <time>2020-07-02T08:48:48Z</time>
      </trkpt>
      <trkpt lat="51.55851" lon="3.6903">
        <ele>54.256</ele>
        <time>2020-07-02T08:48:54Z</time>
      </trkpt>
      <trkpt lat="51.55866" lon="3.69062">
        <ele>54.746</ele>
        <time>2020-07-02T08:49:00Z</time>
      </trkpt>
      <trkpt lat="51.55881" lon="3.69093">
        <ele>56.186</ele>
        <time>2020-07-02T08:49:06Z</time>
      </trkpt>
      <trkpt lat="51.55898" lon="3.69123">
        <ele>57.765</ele>
        <time>2020-07-02T08:49:12Z</time>
      </trkpt>
      <trkpt lat="51.55915" lon="3.69144">
        <ele>59.238</ele>
        <time>2020-07-02T08:49:18Z</time>
      </trkpt>
      <trkpt lat="51.55935" lon="3.69166">
        <ele>61.714</ele>
        <time>2020-07-02T08:49:24Z</time>
      </trkpt>
      <trkpt lat="51.55958" lon="3.69192">
        <ele>63.472</ele>
        <time>2020-07-02T08:49:31Z</time>
      </trkpt>
      <trkpt lat="51.55984" lon="3.69224">
        <ele>66.62</ele>
        <time>2020-07-02T08:49:39Z</time>
      </trkpt>
      <trkpt lat="51.56004" lon="3.69248">
        <ele>66.804</ele>
        <time>2020-07-02T08:49:45Z</time>
      </trkpt>
      <trkpt lat="51.56027" lon="3.69273">
        <ele>66.216</ele>
        <time>2020-07-02T08:49:51Z</time>
      </trkpt>
      <trkpt lat="51.5605" lon="3.69298">
        <ele>65.174</ele>
        <time>2020-07-02T08:49:57Z</time>
      </trkpt>
      <trkpt lat="51.56071" lon="3.69322">
        <ele>62.961</ele>
        <time>2020-07-02T08:50:03Z</time>
      </trkpt>
      <trkpt lat="51.56089" lon="3.69341">
        <ele>60.631</ele>
        <time>2020-07-02T08:50:08Z</time>
      </trkpt>
      <trkpt lat="51.56113" lon="3.69368">
        <ele>58.934</ele>
        <time>2020-07-02T08:50:15Z</time>
      </trkpt>
      <trkpt lat="51.56136" lon="3.69393">
        <ele>59.335</ele>
        <time>2020-07-02T08:50:21Z</time>
      </trkpt>
      <trkpt lat="51.56158" lon="3.69417">
        <ele>59.355</ele>
        <time>2020-07-02T08:50:27Z</time>
      </trkpt>
      <trkpt lat="51.56176" lon="3.69436">
        <ele>59.422</ele>
        <time>2020-07-02T08:50:32Z</time>
      </trkpt>
      <trkpt lat="51.56196" lon="3.69456">
        <ele>60.334</ele>
        <time>2020-07-02T08:50:38Z</time>
      </trkpt>
      <trkpt lat="51.56224" lon="3.69485">
        <ele>61.74</ele>
        <time>2020-07-02T08:50:45Z</time>
      </trkpt>
      <trkpt lat="51.56249" lon="3.69508">
        <ele>62.089</ele>
        <time>2020-07-02T08:50:52Z</time>
      </trkpt>
      <trkpt lat="51.56264" lon="3.69524">
        <ele>61.59</ele>
        <time>2020-07-02T08:50:57Z</time>
      </trkpt>
      <trkpt lat="51.56282" lon="3.69539">
        <ele>61.366</ele>
        <time>2020-07-02T08:51:03Z</time>
      </trkpt>
      <trkpt lat="51.56297" lon="3.69543">
        <ele>61.462</ele>
        <time>2020-07-02T08:51:08Z</time>
      </trkpt>
      <trkpt lat="51.56317" lon="3.69542">
        <ele>61.385</ele>
        <time>2020-07-02T08:51:14Z</time>
      </trkpt>
      <trkpt lat="51.56337" lon="3.69543">
        <ele>60.977</ele>
        <time>2020-07-02T08:51:20Z</time>
      </trkpt>
      <trkpt lat="51.56356" lon="3.69544">
        <ele>59.981</ele>
        <time>2020-07-02T08:51:25Z</time>
      </trkpt>
      <trkpt lat="51.56379" lon="3.69544">
        <ele>59.46</ele>
        <time>2020-07-02T08:51:31Z</time>
      </trkpt>
      <trkpt lat="51.56398" lon="3.69547">
        <ele>59.709</ele>
        <time>2020-07-02T08:51:36Z</time>
      </trkpt>
      <trkpt lat="51.56421" lon="3.69549">
        <ele>61.297</ele>
        <time>2020-07-02T08:51:42Z</time>
      </trkpt>
      <trkpt lat="51.56438" lon="3.69554">
        <ele>63.512</ele>
        <time>2020-07-02T08:51:47Z</time>
      </trkpt>
      <trkpt lat="51.56455" lon="3.69565">
        <ele>66.724</ele>
        <time>2020-07-02T08:51:53Z</time>
      </trkpt>
      <trkpt lat="51.56467" lon="3.69582">
        <ele>67.348</ele>
        <time>2020-07-02T08:51:58Z</time>
      </trkpt>
      <trkpt lat="51.56483" lon="3.69609">
        <ele>68.485</ele>
        <time>2020-07-02T08:52:04Z</time>
      </trkpt>
      <trkpt lat="51.56498" lon="3.69632">
        <ele>69.285</ele>
        <time>2020-07-02T08:52:09Z</time>
      </trkpt>
      <trkpt lat="51.56515" lon="3.6966">
        <ele>70.149</ele>
        <time>2020-07-02T08:52:15Z</time>
      </trkpt>
      <trkpt lat="51.56536" lon="3.6969">
        <ele>70.404</ele>
        <time>2020-07-02T08:52:21Z</time>
      </trkpt>
      <trkpt lat="51.56552" lon="3.69714">
        <ele>70.619</ele>
        <time>2020-07-02T08:52:26Z</time>
      </trkpt>
      <trkpt lat="51.56568" lon="3.69738">
        <ele>69.815</ele>
        <time>2020-07-02T08:52:31Z</time>
      </trkpt>
      <trkpt lat="51.56587" lon="3.69768">
        <ele>69.217</ele>
        <time>2020-07-02T08:52:37Z</time>
      </trkpt>
      <trkpt lat="51.56608" lon="3.69796">
        <ele>65.696</ele>
        <time>2020-07-02T08:52:43Z</time>
      </trkpt>
      <trkpt lat="51.56628" lon="3.69823">
        <ele>60.715</ele>
        <time>2020-07-02T08:52:49Z</time>
      </trkpt>
      <trkpt lat="51.56648" lon="3.69849">
        <ele>57.249</ele>
        <time>2020-07-02T08:52:55Z</time>
      </trkpt>
      <trkpt lat="51.56668" lon="3.69879">
        <ele>53.675</ele>
        <time>2020-07-02T08:53:01Z</time>
      </trkpt>
      <trkpt lat="51.56688" lon="3.69909">
        <ele>52.289</ele>
        <time>2020-07-02T08:53:07Z</time>
      </trkpt>
      <trkpt lat="51.56704" lon="3.69934">
        <ele>51.726</ele>
        <time>2020-07-02T08:53:12Z</time>
      </trkpt>
      <trkpt lat="51.56714" lon="3.69963">
        <ele>51.321</ele>
        <time>2020-07-02T08:53:18Z</time>
      </trkpt>
      <trkpt lat="51.56699" lon="3.69996">
        <ele>50.364</ele>
        <time>2020-07-02T08:53:24Z</time>
      </trkpt>
      <trkpt lat="51.56709" lon="3.70029">
        <ele>52.211</ele>
        <time>2020-07-02T08:53:30Z</time>
      </trkpt>
      <trkpt lat="51.56742" lon="3.70052">
        <ele>52.892</ele>
        <time>2020-07-02T08:53:36Z</time>
      </trkpt>
      <trkpt lat="51.56774" lon="3.70076">
        <ele>52.863</ele>
        <time>2020-07-02T08:53:42Z</time>
      </trkpt>
      <trkpt lat="51.56799" lon="3.701">
        <ele>53.598</ele>
        <time>2020-07-02T08:53:48Z</time>
      </trkpt>
      <trkpt lat="51.5682" lon="3.7012">
        <ele>54.45</ele>
        <time>2020-07-02T08:53:53Z</time>
      </trkpt>
      <trkpt lat="51.56845" lon="3.70144">
        <ele>54.204</ele>
        <time>2020-07-02T08:53:59Z</time>
      </trkpt>
      <trkpt lat="51.56867" lon="3.7016">
        <ele>55.141</ele>
        <time>2020-07-02T08:54:04Z</time>
      </trkpt>
      <trkpt lat="51.56893" lon="3.7018">
        <ele>56.011</ele>
        <time>2020-07-02T08:54:10Z</time>
      </trkpt>
      <trkpt lat="51.5692" lon="3.70202">
        <ele>56.556</ele>
        <time>2020-07-02T08:54:16Z</time>
      </trkpt>
      <trkpt lat="51.56945" lon="3.70221">
        <ele>56.734</ele>
        <time>2020-07-02T08:54:22Z</time>
      </trkpt>
      <trkpt lat="51.5697" lon="3.70241">
        <ele>57.633</ele>
        <time>2020-07-02T08:54:28Z</time>
      </trkpt>
      <trkpt lat="51.56998" lon="3.70263">
        <ele>57.735</ele>
        <time>2020-07-02T08:54:35Z</time>
      </trkpt>
      <trkpt lat="51.5702" lon="3.70281">
        <ele>57.873</ele>
        <time>2020-07-02T08:54:41Z</time>
      </trkpt>
      <trkpt lat="51.57046" lon="3.70301">
        <ele>58.834</ele>
        <time>2020-07-02T08:54:47Z</time>
      </trkpt>
      <trkpt lat="51.57072" lon="3.70321">
        <ele>57.169</ele>
        <time>2020-07-02T08:54:53Z</time>
      </trkpt>
      <trkpt lat="51.57094" lon="3.70341">
        <ele>55.74</ele>
        <time>2020-07-02T08:54:59Z</time>
      </trkpt>
      <trkpt lat="51.57113" lon="3.70357">
        <ele>55.316</ele>
        <time>2020-07-02T08:55:04Z</time>
      </trkpt>
      <trkpt lat="51.57135" lon="3.70375">
        <ele>55.833</ele>
        <time>2020-07-02T08:55:10Z</time>
      </trkpt>
      <trkpt lat="51.57171" lon="3.70398">
        <ele>56.142</ele>
        <time>2020-07-02T08:55:18Z</time>
      </trkpt>
      <trkpt lat="51.57191" lon="3.70416">
        <ele>56.583</ele>
        <time>2020-07-02T08:55:23Z</time>
      </trkpt>
      <trkpt lat="51.57217" lon="3.70441">
        <ele>58.89</ele>
        <time>2020-07-02T08:55:30Z</time>
      </trkpt>
      <trkpt lat="51.57243" lon="3.70459">
        <ele>60.79</ele>
        <time>2020-07-02T08:55:36Z</time>
      </trkpt>
      <trkpt lat="51.57269" lon="3.7048">
        <ele>61.813</ele>
        <time>2020-07-02T08:55:42Z</time>
      </trkpt>
      <trkpt lat="51.5729" lon="3.70499">
        <ele>62.153</ele>
        <time>2020-07-02T08:55:47Z</time>
      </trkpt>
      <trkpt lat="51.57311" lon="3.70518">
        <ele>61.677</ele>
        <time>2020-07-02T08:55:52Z</time>
      </trkpt>
      <trkpt lat="51.57332" lon="3.70534">
        <ele>60.624</ele>
        <time>2020-07-02T08:55:57Z</time>
      </trkpt>
      <trkpt lat="51.57356" lon="3.70552">
        <ele>61.09</ele>
        <time>2020-07-02T08:56:03Z</time>
      </trkpt>
      <trkpt lat="51.57377" lon="3.70567">
        <ele>60.902</ele>
        <time>2020-07-02T08:56:09Z</time>
      </trkpt>
      <trkpt lat="51.57391" lon="3.70549">
        <ele>60.549</ele>
        <time>2020-07-02T08:56:15Z</time>
      </trkpt>
      <trkpt lat="51.57391" lon="3.70505">
        <ele>58.309</ele>
        <time>2020-07-02T08:56:22Z</time>
      </trkpt>
      <trkpt lat="51.5739" lon="3.7047">
        <ele>56.639</ele>
        <time>2020-07-02T08:56:28Z</time>
      </trkpt>
      <trkpt lat="51.57389" lon="3.70434">
        <ele>56.136</ele>
        <time>2020-07-02T08:56:34Z</time>
      </trkpt>
      <trkpt lat="51.57391" lon="3.70394">
        <ele>56.624</ele>
        <time>2020-07-02T08:56:41Z</time>
      </trkpt>
      <trkpt lat="51.574" lon="3.70377">
        <ele>56.473</ele>
        <time>2020-07-02T08:56:46Z</time>
      </trkpt>
      <trkpt lat="51.57413" lon="3.70359">
        <ele>55.61</ele>
        <time>2020-07-02T08:56:51Z</time>
      </trkpt>
      <trkpt lat="51.57432" lon="3.70335">
        <ele>54.388</ele>
        <time>2020-07-02T08:56:57Z</time>
      </trkpt>
      <trkpt lat="51.57449" lon="3.70318">
        <ele>54.628</ele>
        <time>2020-07-02T08:57:02Z</time>
      </trkpt>
      <trkpt lat="51.5747" lon="3.70296">
        <ele>54.821</ele>
        <time>2020-07-02T08:57:08Z</time>
      </trkpt>
      <trkpt lat="51.5749" lon="3.70273">
        <ele>55.467</ele>
        <time>2020-07-02T08:57:14Z</time>
      </trkpt>
      <trkpt lat="51.57508" lon="3.70252">
        <ele>57.269</ele>
        <time>2020-07-02T08:57:20Z</time>
      </trkpt>
      <trkpt lat="51.57526" lon="3.7023">
        <ele>57.968</ele>
        <time>2020-07-02T08:57:26Z</time>
      </trkpt>
      <trkpt lat="51.57544" lon="3.70209">
        <ele>59.725</ele>
        <time>2020-07-02T08:57:32Z</time>
      </trkpt>
      <trkpt lat="51.5756" lon="3.70187">
        <ele>59.601</ele>
        <time>2020-07-02T08:57:38Z</time>
      </trkpt>
      <trkpt lat="51.57577" lon="3.70169">
        <ele>58.746</ele>
        <time>2020-07-02T08:57:43Z</time>
      </trkpt>
      <trkpt lat="51.57593" lon="3.7015">
        <ele>58.153</ele>
        <time>2020-07-02T08:57:48Z</time>
      </trkpt>
      <trkpt lat="51.57613" lon="3.70127">
        <ele>57.769</ele>
        <time>2020-07-02T08:57:54Z</time>
      </trkpt>
      <trkpt lat="51.57629" lon="3.7011">
        <ele>57.194</ele>
        <time>2020-07-02T08:57:59Z</time>
      </trkpt>
      <trkpt lat="51.57646" lon="3.70101">
        <ele>58.562</ele>
        <time>2020-07-02T08:58:04Z</time>
      </trkpt>
      <trkpt lat="51.57662" lon="3.70134">
        <ele>58.236</ele>
        <time>2020-07-02T08:58:10Z</time>
      </trkpt>
      <trkpt lat="51.57672" lon="3.70167">
        <ele>56.549</ele>
        <time>2020-07-02T08:58:16Z</time>
      </trkpt>
      <trkpt lat="51.57682" lon="3.70196">
        <ele>54.269</ele>
        <time>2020-07-02T08:58:21Z</time>
      </trkpt>
      <trkpt lat="51.57699" lon="3.70228">
        <ele>51.394</ele>
        <time>2020-07-02T08:58:27Z</time>
      </trkpt>
      <trkpt lat="51.57719" lon="3.70254">
        <ele>49.934</ele>
        <time>2020-07-02T08:58:33Z</time>
      </trkpt>
      <trkpt lat="51.57736" lon="3.70273">
        <ele>48.574</ele>
        <time>2020-07-02T08:58:38Z</time>
      </trkpt>
      <trkpt lat="51.5776" lon="3.70289">
        <ele>48.417</ele>
        <time>2020-07-02T08:58:44Z</time>
      </trkpt>
      <trkpt lat="51.57784" lon="3.70297">
        <ele>47.752</ele>
        <time>2020-07-02T08:58:50Z</time>
      </trkpt>
      <trkpt lat="51.57809" lon="3.70302">
        <ele>47.451</ele>
        <time>2020-07-02T08:58:56Z</time>
      </trkpt>
      <trkpt lat="51.57834" lon="3.70307">
        <ele>47.898</ele>
        <time>2020-07-02T08:59:02Z</time>
      </trkpt>
      <trkpt lat="51.5786" lon="3.70313">
        <ele>48.054</ele>
        <time>2020-07-02T08:59:08Z</time>
      </trkpt>
      <trkpt lat="51.57881" lon="3.70318">
        <ele>48.008</ele>
        <time>2020-07-02T08:59:13Z</time>
      </trkpt>
      <trkpt lat="51.57908" lon="3.70323">
        <ele>48.01</ele>
        <time>2020-07-02T08:59:19Z</time>
      </trkpt>
      <trkpt lat="51.57932" lon="3.70328">
        <ele>47.75</ele>
        <time>2020-07-02T08:59:24Z</time>
      </trkpt>
      <trkpt lat="51.57957" lon="3.70328">
        <ele>48.683</ele>
        <time>2020-07-02T08:59:30Z</time>
      </trkpt>
      <trkpt lat="51.57978" lon="3.70329">
        <ele>48.884</ele>
        <time>2020-07-02T08:59:35Z</time>
      </trkpt>
      <trkpt lat="51.58004" lon="3.70335">
        <ele>49.952</ele>
        <time>2020-07-02T08:59:41Z</time>
      </trkpt>
      <trkpt lat="51.58028" lon="3.70342">
        <ele>51.646</ele>
        <time>2020-07-02T08:59:47Z</time>
      </trkpt>
      <trkpt lat="51.58046" lon="3.70347">
        <ele>52.059</ele>
        <time>2020-07-02T08:59:52Z</time>
      </trkpt>
      <trkpt lat="51.58066" lon="3.70354">
        <ele>51.887</ele>
        <time>2020-07-02T08:59:58Z</time>
      </trkpt>
      <trkpt lat="51.58088" lon="3.70361">
        <ele>51.764</ele>
        <time>2020-07-02T09:00:04Z</time>
      </trkpt>
      <trkpt lat="51.5811" lon="3.70367">
        <ele>50.511</ele>
        <time>2020-07-02T09:00:10Z</time>
      </trkpt>
      <trkpt lat="51.58133" lon="3.7037">
        <ele>51.061</ele>
        <time>2020-07-02T09:00:16Z</time>
      </trkpt>
      <trkpt lat="51.58155" lon="3.70371">
        <ele>51.114</ele>
        <time>2020-07-02T09:00:22Z</time>
      </trkpt>
      <trkpt lat="51.58173" lon="3.70367">
        <ele>51.314</ele>
        <time>2020-07-02T09:00:27Z</time>
      </trkpt>
      <trkpt lat="51.58191" lon="3.70362">
        <ele>51.806</ele>
        <time>2020-07-02T09:00:32Z</time>
      </trkpt>
      <trkpt lat="51.5821" lon="3.70353">
        <ele>52.333</ele>
        <time>2020-07-02T09:00:38Z</time>
      </trkpt>
      <trkpt lat="51.58224" lon="3.70342">
        <ele>52.554</ele>
        <time>2020-07-02T09:00:43Z</time>
      </trkpt>
      <trkpt lat="51.58239" lon="3.7033">
        <ele>52.984</ele>
        <time>2020-07-02T09:00:49Z</time>
      </trkpt>
      <trkpt lat="51.5825" lon="3.70318">
        <ele>53.404</ele>
        <time>2020-07-02T09:00:54Z</time>
      </trkpt>
      <trkpt lat="51.58263" lon="3.70304">
        <ele>53.277</ele>
        <time>2020-07-02T09:01:00Z</time>
      </trkpt>
      <trkpt lat="51.58273" lon="3.7029">
        <ele>52.645</ele>
        <time>2020-07-02T09:01:05Z</time>
      </trkpt>
      <trkpt lat="51.58285" lon="3.70273">
        <ele>52.024</ele>
        <time>2020-07-02T09:01:11Z</time>
      </trkpt>
      <trkpt lat="51.58296" lon="3.70253">
        <ele>52.345</ele>
        <time>2020-07-02T09:01:17Z</time>
      </trkpt>
      <trkpt lat="51.58307" lon="3.70236">
        <ele>51.553</ele>
        <time>2020-07-02T09:01:22Z</time>
      </trkpt>
      <trkpt lat="51.58319" lon="3.70215">
        <ele>51.464</ele>
        <time>2020-07-02T09:01:28Z</time>
      </trkpt>
      <trkpt lat="51.58332" lon="3.70192">
        <ele>51.166</ele>
        <time>2020-07-02T09:01:35Z</time>
      </trkpt>
      <trkpt lat="51.58344" lon="3.70172">
        <ele>50.313</ele>
        <time>2020-07-02T09:01:41Z</time>
      </trkpt>
      <trkpt lat="51.58358" lon="3.70148">
        <ele>50.092</ele>
        <time>2020-07-02T09:01:47Z</time>
      </trkpt>
      <trkpt lat="51.58372" lon="3.70123">
        <ele>50.097</ele>
        <time>2020-07-02T09:01:53Z</time>
      </trkpt>
      <trkpt lat="51.58387" lon="3.70098">
        <ele>50.092</ele>
        <time>2020-07-02T09:01:59Z</time>
      </trkpt>
      <trkpt lat="51.58399" lon="3.70077">
        <ele>50.383</ele>
        <time>2020-07-02T09:02:04Z</time>
      </trkpt>
      <trkpt lat="51.58412" lon="3.70054">
        <ele>50.533</ele>
        <time>2020-07-02T09:02:10Z</time>
      </trkpt>
      <trkpt lat="51.58425" lon="3.70032">
        <ele>49.598</ele>
        <time>2020-07-02T09:02:16Z</time>
      </trkpt>
      <trkpt lat="51.58438" lon="3.70008">
        <ele>48.85</ele>
        <time>2020-07-02T09:02:22Z</time>
      </trkpt>
      <trkpt lat="51.5845" lon="3.69988">
        <ele>48.674</ele>
        <time>2020-07-02T09:02:27Z</time>
      </trkpt>
      <trkpt lat="51.58466" lon="3.69965">
        <ele>49.332</ele>
        <time>2020-07-02T09:02:33Z</time>
      </trkpt>
      <trkpt lat="51.58479" lon="3.69946">
        <ele>50.082</ele>
        <time>2020-07-02T09:02:38Z</time>
      </trkpt>
      <trkpt lat="51.58498" lon="3.69929">
        <ele>52.471</ele>
        <time>2020-07-02T09:02:44Z</time>
      </trkpt>
      <trkpt lat="51.58515" lon="3.69921">
        <ele>54.271</ele>
        <time>2020-07-02T09:02:49Z</time>
      </trkpt>
      <trkpt lat="51.58537" lon="3.69919">
        <ele>55.309</ele>
        <time>2020-07-02T09:02:55Z</time>
      </trkpt>
      <trkpt lat="51.5856" lon="3.69924">
        <ele>55.218</ele>
        <time>2020-07-02T09:03:01Z</time>
      </trkpt>
      <trkpt lat="51.5858" lon="3.69932">
        <ele>54.517</ele>
        <time>2020-07-02T09:03:07Z</time>
      </trkpt>
      <trkpt lat="51.58598" lon="3.69937">
        <ele>53.892</ele>
        <time>2020-07-02T09:03:12Z</time>
      </trkpt>
      <trkpt lat="51.58618" lon="3.69946">
        <ele>53.512</ele>
        <time>2020-07-02T09:03:18Z</time>
      </trkpt>
      <trkpt lat="51.58636" lon="3.69954">
        <ele>53.579</ele>
        <time>2020-07-02T09:03:23Z</time>
      </trkpt>
      <trkpt lat="51.58655" lon="3.69964">
        <ele>53.25</ele>
        <time>2020-07-02T09:03:28Z</time>
      </trkpt>
      <trkpt lat="51.58676" lon="3.69976">
        <ele>53.437</ele>
        <time>2020-07-02T09:03:34Z</time>
      </trkpt>
      <trkpt lat="51.58695" lon="3.69985">
        <ele>52.923</ele>
        <time>2020-07-02T09:03:39Z</time>
      </trkpt>
      <trkpt lat="51.58714" lon="3.69992">
        <ele>52.165</ele>
        <time>2020-07-02T09:03:44Z</time>
      </trkpt>
      <trkpt lat="51.58731" lon="3.69997">
        <ele>51.262</ele>
        <time>2020-07-02T09:03:49Z</time>
      </trkpt>
      <trkpt lat="51.58754" lon="3.69999">
        <ele>50.78</ele>
        <time>2020-07-02T09:03:55Z</time>
      </trkpt>
      <trkpt lat="51.58778" lon="3.70001">
        <ele>50.869</ele>
        <time>2020-07-02T09:04:01Z</time>
      </trkpt>
      <trkpt lat="51.58798" lon="3.70004">
        <ele>50.932</ele>
        <time>2020-07-02T09:04:06Z</time>
      </trkpt>
      <trkpt lat="51.58818" lon="3.70007">
        <ele>50.733</ele>
        <time>2020-07-02T09:04:11Z</time>
      </trkpt>
      <trkpt lat="51.58843" lon="3.70011">
        <ele>50.08</ele>
        <time>2020-07-02T09:04:17Z</time>
      </trkpt>
      <trkpt lat="51.58867" lon="3.70015">
        <ele>49.312</ele>
        <time>2020-07-02T09:04:23Z</time>
      </trkpt>
      <trkpt lat="51.58885" lon="3.70017">
        <ele>49.374</ele>
        <time>2020-07-02T09:04:28Z</time>
      </trkpt>
      <trkpt lat="51.58908" lon="3.7002">
        <ele>49.49</ele>
        <time>2020-07-02T09:04:34Z</time>
      </trkpt>
      <trkpt lat="51.58926" lon="3.70023">
        <ele>49.406</ele>
        <time>2020-07-02T09:04:39Z</time>
      </trkpt>
      <trkpt lat="51.58948" lon="3.70025">
        <ele>49.162</ele>
        <time>2020-07-02T09:04:45Z</time>
      </trkpt>
      <trkpt lat="51.58967" lon="3.70027">
        <ele>49.397</ele>
        <time>2020-07-02T09:04:50Z</time>
      </trkpt>
      <trkpt lat="51.5899" lon="3.7003">
        <ele>50.347</ele>
        <time>2020-07-02T09:04:56Z</time>
      </trkpt>
      <trkpt lat="51.59009" lon="3.70032">
        <ele>51.177</ele>
        <time>2020-07-02T09:05:01Z</time>
      </trkpt>
      <trkpt lat="51.59032" lon="3.70034">
        <ele>51.761</ele>
        <time>2020-07-02T09:05:07Z</time>
      </trkpt>
      <trkpt lat="51.59051" lon="3.70037">
        <ele>51.635</ele>
        <time>2020-07-02T09:05:12Z</time>
      </trkpt>
      <trkpt lat="51.59075" lon="3.70039">
        <ele>52.04</ele>
        <time>2020-07-02T09:05:18Z</time>
      </trkpt>
      <trkpt lat="51.59094" lon="3.7004">
        <ele>51.784</ele>
        <time>2020-07-02T09:05:23Z</time>
      </trkpt>
      <trkpt lat="51.59116" lon="3.7004">
        <ele>51.547</ele>
        <time>2020-07-02T09:05:29Z</time>
      </trkpt>
      <trkpt lat="51.59135" lon="3.70041">
        <ele>51.977</ele>
        <time>2020-07-02T09:05:34Z</time>
      </trkpt>
      <trkpt lat="51.59156" lon="3.70043">
        <ele>52.475</ele>
        <time>2020-07-02T09:05:40Z</time>
      </trkpt>
      <trkpt lat="51.59174" lon="3.70043">
        <ele>52.516</ele>
        <time>2020-07-02T09:05:45Z</time>
      </trkpt>
      <trkpt lat="51.59196" lon="3.70043">
        <ele>53.016</ele>
        <time>2020-07-02T09:05:51Z</time>
      </trkpt>
      <trkpt lat="51.59214" lon="3.70045">
        <ele>52.445</ele>
        <time>2020-07-02T09:05:56Z</time>
      </trkpt>
      <trkpt lat="51.59236" lon="3.70046">
        <ele>51.684</ele>
        <time>2020-07-02T09:06:02Z</time>
      </trkpt>
      <trkpt lat="51.59254" lon="3.70047">
        <ele>50.913</ele>
        <time>2020-07-02T09:06:07Z</time>
      </trkpt>
      <trkpt lat="51.59278" lon="3.70048">
        <ele>50.363</ele>
        <time>2020-07-02T09:06:13Z</time>
      </trkpt>
      <trkpt lat="51.59295" lon="3.70039">
        <ele>50.394</ele>
        <time>2020-07-02T09:06:18Z</time>
      </trkpt>
      <trkpt lat="51.59305" lon="3.70007">
        <ele>50.687</ele>
        <time>2020-07-02T09:06:24Z</time>
      </trkpt>
      <trkpt lat="51.59309" lon="3.69979">
        <ele>50.816</ele>
        <time>2020-07-02T09:06:29Z</time>
      </trkpt>
      <trkpt lat="51.59314" lon="3.69952">
        <ele>50.244</ele>
        <time>2020-07-02T09:06:35Z</time>
      </trkpt>
      <trkpt lat="51.59319" lon="3.69927">
        <ele>49.36</ele>
        <time>2020-07-02T09:06:40Z</time>
      </trkpt>
      <trkpt lat="51.59325" lon="3.69896">
        <ele>49.28</ele>
        <time>2020-07-02T09:06:46Z</time>
      </trkpt>
      <trkpt lat="51.5933" lon="3.69868">
        <ele>48.951</ele>
        <time>2020-07-02T09:06:51Z</time>
      </trkpt>
      <trkpt lat="51.59336" lon="3.69836">
        <ele>49.206</ele>
        <time>2020-07-02T09:06:57Z</time>
      </trkpt>
      <trkpt lat="51.59341" lon="3.6981">
        <ele>49.373</ele>
        <time>2020-07-02T09:07:02Z</time>
      </trkpt>
      <trkpt lat="51.59347" lon="3.69778">
        <ele>49.708</ele>
        <time>2020-07-02T09:07:08Z</time>
      </trkpt>
      <trkpt lat="51.59351" lon="3.69751">
        <ele>49.174</ele>
        <time>2020-07-02T09:07:13Z</time>
      </trkpt>
      <trkpt lat="51.59356" lon="3.69718">
        <ele>48.945</ele>
        <time>2020-07-02T09:07:19Z</time>
      </trkpt>
      <trkpt lat="51.59362" lon="3.69685">
        <ele>48.722</ele>
        <time>2020-07-02T09:07:25Z</time>
      </trkpt>
      <trkpt lat="51.59369" lon="3.69651">
        <ele>48.749</ele>
        <time>2020-07-02T09:07:31Z</time>
      </trkpt>
      <trkpt lat="51.59374" lon="3.69623">
        <ele>48.708</ele>
        <time>2020-07-02T09:07:36Z</time>
      </trkpt>
      <trkpt lat="51.59377" lon="3.69595">
        <ele>49.138</ele>
        <time>2020-07-02T09:07:41Z</time>
      </trkpt>
      <trkpt lat="51.59379" lon="3.69565">
        <ele>49.487</ele>
        <time>2020-07-02T09:07:46Z</time>
      </trkpt>
      <trkpt lat="51.59384" lon="3.69523">
        <ele>49.596</ele>
        <time>2020-07-02T09:07:52Z</time>
      </trkpt>
      <trkpt lat="51.59391" lon="3.69481">
        <ele>48.878</ele>
        <time>2020-07-02T09:07:58Z</time>
      </trkpt>
      <trkpt lat="51.59398" lon="3.69451">
        <ele>48.526</ele>
        <time>2020-07-02T09:08:03Z</time>
      </trkpt>
      <trkpt lat="51.59403" lon="3.69433">
        <ele>48.895</ele>
        <time>2020-07-02T09:08:08Z</time>
      </trkpt>
      <trkpt lat="51.59408" lon="3.69411">
        <ele>49.236</ele>
        <time>2020-07-02T09:08:14Z</time>
      </trkpt>
      <trkpt lat="51.59412" lon="3.69394">
        <ele>49.446</ele>
        <time>2020-07-02T09:08:19Z</time>
      </trkpt>
      <trkpt lat="51.59416" lon="3.69379">
        <ele>49.682</ele>
        <time>2020-07-02T09:08:24Z</time>
      </trkpt>
      <trkpt lat="51.5942" lon="3.69356">
        <ele>49.416</ele>
        <time>2020-07-02T09:08:30Z</time>
      </trkpt>
      <trkpt lat="51.59424" lon="3.69332">
        <ele>49.478</ele>
        <time>2020-07-02T09:08:36Z</time>
      </trkpt>
      <trkpt lat="51.59428" lon="3.69312">
        <ele>50.016</ele>
        <time>2020-07-02T09:08:41Z</time>
      </trkpt>
      <trkpt lat="51.59433" lon="3.69286">
        <ele>50.431</ele>
        <time>2020-07-02T09:08:47Z</time>
      </trkpt>
      <trkpt lat="51.59438" lon="3.69259">
        <ele>51.064</ele>
        <time>2020-07-02T09:08:53Z</time>
      </trkpt>
      <trkpt lat="51.59443" lon="3.69229">
        <ele>50.224</ele>
        <time>2020-07-02T09:08:59Z</time>
      </trkpt>
      <trkpt lat="51.59448" lon="3.69199">
        <ele>49.418</ele>
        <time>2020-07-02T09:09:05Z</time>
      </trkpt>
      <trkpt lat="51.59453" lon="3.6917">
        <ele>48.778</ele>
        <time>2020-07-02T09:09:11Z</time>
      </trkpt>
      <trkpt lat="51.59461" lon="3.6915">
        <ele>48.914</ele>
        <time>2020-07-02T09:09:16Z</time>
      </trkpt>
      <trkpt lat="51.59474" lon="3.69139">
        <ele>49.222</ele>
        <time>2020-07-02T09:09:21Z</time>
      </trkpt>
      <trkpt lat="51.59492" lon="3.69128">
        <ele>50.037</ele>
        <time>2020-07-02T09:09:27Z</time>
      </trkpt>
      <trkpt lat="51.59507" lon="3.69119">
        <ele>50.366</ele>
        <time>2020-07-02T09:09:32Z</time>
      </trkpt>
      <trkpt lat="51.59525" lon="3.69107">
        <ele>51.602</ele>
        <time>2020-07-02T09:09:38Z</time>
      </trkpt>
      <trkpt lat="51.59543" lon="3.69094">
        <ele>52.211</ele>
        <time>2020-07-02T09:09:44Z</time>
      </trkpt>
      <trkpt lat="51.59561" lon="3.69081">
        <ele>53.347</ele>
        <time>2020-07-02T09:09:50Z</time>
      </trkpt>
      <trkpt lat="51.59576" lon="3.69072">
        <ele>53.923</ele>
        <time>2020-07-02T09:09:55Z</time>
      </trkpt>
      <trkpt lat="51.59595" lon="3.69058">
        <ele>54.109</ele>
        <time>2020-07-02T09:10:01Z</time>
      </trkpt>
      <trkpt lat="51.59612" lon="3.69047">
        <ele>54.294</ele>
        <time>2020-07-02T09:10:07Z</time>
      </trkpt>
      <trkpt lat="51.59629" lon="3.69037">
        <ele>54.496</ele>
        <time>2020-07-02T09:10:13Z</time>
      </trkpt>
      <trkpt lat="51.59645" lon="3.69016">
        <ele>54.814</ele>
        <time>2020-07-02T09:10:19Z</time>
      </trkpt>
      <trkpt lat="51.59659" lon="3.6899">
        <ele>54.417</ele>
        <time>2020-07-02T09:10:24Z</time>
      </trkpt>
      <trkpt lat="51.59678" lon="3.68956">
        <ele>53.749</ele>
        <time>2020-07-02T09:10:29Z</time>
      </trkpt>
      <trkpt lat="51.59699" lon="3.68916">
        <ele>52.838</ele>
        <time>2020-07-02T09:10:35Z</time>
      </trkpt>
      <trkpt lat="51.59712" lon="3.68891">
        <ele>52.437</ele>
        <time>2020-07-02T09:10:40Z</time>
      </trkpt>
      <trkpt lat="51.59728" lon="3.68862">
        <ele>51.241</ele>
        <time>2020-07-02T09:10:46Z</time>
      </trkpt>
      <trkpt lat="51.59743" lon="3.68831">
        <ele>48.719</ele>
        <time>2020-07-02T09:10:52Z</time>
      </trkpt>
      <trkpt lat="51.59751" lon="3.68803">
        <ele>46.317</ele>
        <time>2020-07-02T09:10:57Z</time>
      </trkpt>
      <trkpt lat="51.59744" lon="3.68768">
        <ele>45.52</ele>
        <time>2020-07-02T09:11:03Z</time>
      </trkpt>
      <trkpt lat="51.59737" lon="3.68734">
        <ele>45.095</ele>
        <time>2020-07-02T09:11:09Z</time>
      </trkpt>
      <trkpt lat="51.59731" lon="3.68701">
        <ele>44.564</ele>
        <time>2020-07-02T09:11:15Z</time>
      </trkpt>
      <trkpt lat="51.59723" lon="3.68667">
        <ele>43.712</ele>
        <time>2020-07-02T09:11:21Z</time>
      </trkpt>
      <trkpt lat="51.59717" lon="3.68633">
        <ele>43.042</ele>
        <time>2020-07-02T09:11:27Z</time>
      </trkpt>
      <trkpt lat="51.5971" lon="3.686">
        <ele>43.388</ele>
        <time>2020-07-02T09:11:33Z</time>
      </trkpt>
      <trkpt lat="51.59704" lon="3.68571">
        <ele>43.665</ele>
        <time>2020-07-02T09:11:38Z</time>
      </trkpt>
      <trkpt lat="51.59698" lon="3.68545">
        <ele>44.171</ele>
        <time>2020-07-02T09:11:43Z</time>
      </trkpt>
      <trkpt lat="51.5969" lon="3.68508">
        <ele>45.375</ele>
        <time>2020-07-02T09:11:50Z</time>
      </trkpt>
      <trkpt lat="51.59681" lon="3.6847">
        <ele>44.854</ele>
        <time>2020-07-02T09:11:57Z</time>
      </trkpt>
      <trkpt lat="51.59675" lon="3.68439">
        <ele>45.288</ele>
        <time>2020-07-02T09:12:03Z</time>
      </trkpt>
      <trkpt lat="51.59669" lon="3.68412">
        <ele>45.362</ele>
        <time>2020-07-02T09:12:08Z</time>
      </trkpt>
      <trkpt lat="51.59663" lon="3.68381">
        <ele>45.706</ele>
        <time>2020-07-02T09:12:14Z</time>
      </trkpt>
      <trkpt lat="51.59656" lon="3.68345">
        <ele>45.851</ele>
        <time>2020-07-02T09:12:21Z</time>
      </trkpt>
      <trkpt lat="51.5965" lon="3.68315">
        <ele>46.062</ele>
        <time>2020-07-02T09:12:27Z</time>
      </trkpt>
      <trkpt lat="51.59644" lon="3.68288">
        <ele>46.971</ele>
        <time>2020-07-02T09:12:32Z</time>
      </trkpt>
      <trkpt lat="51.59636" lon="3.68255">
        <ele>47.39</ele>
        <time>2020-07-02T09:12:38Z</time>
      </trkpt>
      <trkpt lat="51.5963" lon="3.68224">
        <ele>48.382</ele>
        <time>2020-07-02T09:12:44Z</time>
      </trkpt>
      <trkpt lat="51.59625" lon="3.68199">
        <ele>48.805</ele>
        <time>2020-07-02T09:12:49Z</time>
      </trkpt>
      <trkpt lat="51.59619" lon="3.6817">
        <ele>48.951</ele>
        <time>2020-07-02T09:12:55Z</time>
      </trkpt>
      <trkpt lat="51.59614" lon="3.68145">
        <ele>49.033</ele>
        <time>2020-07-02T09:13:00Z</time>
      </trkpt>
      <trkpt lat="51.59607" lon="3.68116">
        <ele>48.944</ele>
        <time>2020-07-02T09:13:06Z</time>
      </trkpt>
      <trkpt lat="51.59602" lon="3.68093">
        <ele>49.05</ele>
        <time>2020-07-02T09:13:11Z</time>
      </trkpt>
      <trkpt lat="51.59596" lon="3.68071">
        <ele>48.07</ele>
        <time>2020-07-02T09:13:16Z</time>
      </trkpt>
      <trkpt lat="51.59591" lon="3.68041">
        <ele>47.491</ele>
        <time>2020-07-02T09:13:22Z</time>
      </trkpt>
      <trkpt lat="51.59588" lon="3.68022">
        <ele>47.636</ele>
        <time>2020-07-02T09:13:27Z</time>
      </trkpt>
      <trkpt lat="51.59584" lon="3.68002">
        <ele>48.287</ele>
        <time>2020-07-02T09:13:33Z</time>
      </trkpt>
      <trkpt lat="51.59581" lon="3.67985">
        <ele>47.399</ele>
        <time>2020-07-02T09:13:38Z</time>
      </trkpt>
      <trkpt lat="51.59583" lon="3.67963">
        <ele>46.405</ele>
        <time>2020-07-02T09:13:44Z</time>
      </trkpt>
      <trkpt lat="51.596" lon="3.67968">
        <ele>47.967</ele>
        <time>2020-07-02T09:13:50Z</time>
      </trkpt>
      <trkpt lat="51.59613" lon="3.67976">
        <ele>49.284</ele>
        <time>2020-07-02T09:13:55Z</time>
      </trkpt>
      <trkpt lat="51.59629" lon="3.67984">
        <ele>50.434</ele>
        <time>2020-07-02T09:14:01Z</time>
      </trkpt>
      <trkpt lat="51.59645" lon="3.67993">
        <ele>51.535</ele>
        <time>2020-07-02T09:14:07Z</time>
      </trkpt>
      <trkpt lat="51.59657" lon="3.68001">
        <ele>51.338</ele>
        <time>2020-07-02T09:14:12Z</time>
      </trkpt>
      <trkpt lat="51.59672" lon="3.6801">
        <ele>51.332</ele>
        <time>2020-07-02T09:14:18Z</time>
      </trkpt>
      <trkpt lat="51.59685" lon="3.68017">
        <ele>52.059</ele>
        <time>2020-07-02T09:14:23Z</time>
      </trkpt>
      <trkpt lat="51.597" lon="3.68026">
        <ele>51.967</ele>
        <time>2020-07-02T09:14:29Z</time>
      </trkpt>
      <trkpt lat="51.59715" lon="3.68035">
        <ele>52.202</ele>
        <time>2020-07-02T09:14:35Z</time>
      </trkpt>
      <trkpt lat="51.59728" lon="3.68044">
        <ele>52.564</ele>
        <time>2020-07-02T09:14:40Z</time>
      </trkpt>
      <trkpt lat="51.59741" lon="3.68052">
        <ele>53.276</ele>
        <time>2020-07-02T09:14:45Z</time>
      </trkpt>
      <trkpt lat="51.59756" lon="3.68063">
        <ele>53.878</ele>
        <time>2020-07-02T09:14:51Z</time>
      </trkpt>
      <trkpt lat="51.59771" lon="3.68075">
        <ele>54.642</ele>
        <time>2020-07-02T09:14:57Z</time>
      </trkpt>
      <trkpt lat="51.59785" lon="3.68088">
        <ele>55.089</ele>
        <time>2020-07-02T09:15:03Z</time>
      </trkpt>
      <trkpt lat="51.598" lon="3.68101">
        <ele>55.614</ele>
        <time>2020-07-02T09:15:09Z</time>
      </trkpt>
      <trkpt lat="51.59814" lon="3.68116">
        <ele>55.43</ele>
        <time>2020-07-02T09:15:15Z</time>
      </trkpt>
      <trkpt lat="51.59826" lon="3.68128">
        <ele>56.035</ele>
        <time>2020-07-02T09:15:20Z</time>
      </trkpt>
      <trkpt lat="51.59838" lon="3.68139">
        <ele>56.706</ele>
        <time>2020-07-02T09:15:25Z</time>
      </trkpt>
      <trkpt lat="51.59852" lon="3.68151">
        <ele>57.897</ele>
        <time>2020-07-02T09:15:31Z</time>
      </trkpt>
      <trkpt lat="51.59864" lon="3.6816">
        <ele>57.841</ele>
        <time>2020-07-02T09:15:36Z</time>
      </trkpt>
      <trkpt lat="51.59876" lon="3.68168">
        <ele>58.239</ele>
        <time>2020-07-02T09:15:41Z</time>
      </trkpt>
      <trkpt lat="51.59888" lon="3.68175">
        <ele>59.243</ele>
        <time>2020-07-02T09:15:46Z</time>
      </trkpt>
      <trkpt lat="51.599" lon="3.68168">
        <ele>60.557</ele>
        <time>2020-07-02T09:15:53Z</time>
      </trkpt>
      <trkpt lat="51.59907" lon="3.6815">
        <ele>61.55</ele>
        <time>2020-07-02T09:15:59Z</time>
      </trkpt>
      <trkpt lat="51.59924" lon="3.68158">
        <ele>61.437</ele>
        <time>2020-07-02T09:16:05Z</time>
      </trkpt>
      <trkpt lat="51.59948" lon="3.68165">
        <ele>60.505</ele>
        <time>2020-07-02T09:16:12Z</time>
      </trkpt>
      <trkpt lat="51.59967" lon="3.68167">
        <ele>59.472</ele>
        <time>2020-07-02T09:16:17Z</time>
      </trkpt>
      <trkpt lat="51.59984" lon="3.68168">
        <ele>58.526</ele>
        <time>2020-07-02T09:16:22Z</time>
      </trkpt>
      <trkpt lat="51.60006" lon="3.68172">
        <ele>57.824</ele>
        <time>2020-07-02T09:16:28Z</time>
      </trkpt>
      <trkpt lat="51.60025" lon="3.68174">
        <ele>57.508</ele>
        <time>2020-07-02T09:16:33Z</time>
      </trkpt>
      <trkpt lat="51.60045" lon="3.68179">
        <ele>57.454</ele>
        <time>2020-07-02T09:16:39Z</time>
      </trkpt>
      <trkpt lat="51.6005" lon="3.68193">
        <ele>57.668</ele>
        <time>2020-07-02T09:16:45Z</time>
      </trkpt>
      <trkpt lat="51.60046" lon="3.68201">
        <ele>58.602</ele>
        <time>2020-07-02T09:16:51Z</time>
      </trkpt>
      <trkpt lat="51.60046" lon="3.68201">
        <ele>58.951</ele>
        <time>2020-07-02T09:16:57Z</time>
      </trkpt>
      <trkpt lat="51.60046" lon="3.68201">
        <ele>58.951</ele>
        <time>2020-07-02T09:17:03Z</time>
      </trkpt>
      <trkpt lat="51.60046" lon="3.68201">
        <ele>58.951</ele>
        <time>2020-07-02T09:17:09Z</time>
      </trkpt>
      <trkpt lat="51.60046" lon="3.68201">
        <ele>58.951</ele>
        <time>2020-07-02T09:17:15Z</time>
      </trkpt>
      <trkpt lat="51.60046" lon="3.68201">
        <ele>58.951</ele>
        <time>2020-07-02T09:17:21Z</time>
      </trkpt>
      <trkpt lat="51.60046" lon="3.68201">
        <ele>58.951</ele>
        <time>2020-07-02T09:17:26Z</time>
      </trkpt>
      <trkpt lat="51.60046" lon="3.68201">
        <ele>58.951</ele>
        <time>2020-07-02T09:17:32Z</time>
      </trkpt>
      <trkpt lat="51.60046" lon="3.68204">
        <ele>59.289</ele>
        <time>2020-07-02T09:17:37Z</time>
      </trkpt>
      <trkpt lat="51.60048" lon="3.68212">
        <ele>60.329</ele>
        <time>2020-07-02T09:17:42Z</time>
      </trkpt>
      <trkpt lat="51.60063" lon="3.68217">
        <ele>60.767</ele>
        <time>2020-07-02T09:17:48Z</time>
      </trkpt>
      <trkpt lat="51.60092" lon="3.68223">
        <ele>61.103</ele>
        <time>2020-07-02T09:17:57Z</time>
      </trkpt>
      <trkpt lat="51.60111" lon="3.68226">
        <ele>61.154</ele>
        <time>2020-07-02T09:18:02Z</time>
      </trkpt>
      <trkpt lat="51.60133" lon="3.6823">
        <ele>60.739</ele>
        <time>2020-07-02T09:18:08Z</time>
      </trkpt>
      <trkpt lat="51.60157" lon="3.68232">
        <ele>60.705</ele>
        <time>2020-07-02T09:18:14Z</time>
      </trkpt>
      <trkpt lat="51.60177" lon="3.68235">
        <ele>59.958</ele>
        <time>2020-07-02T09:18:19Z</time>
      </trkpt>
      <trkpt lat="51.60201" lon="3.68238">
        <ele>60.182</ele>
        <time>2020-07-02T09:18:25Z</time>
      </trkpt>
      <trkpt lat="51.60225" lon="3.68242">
        <ele>59.825</ele>
        <time>2020-07-02T09:18:31Z</time>
      </trkpt>
      <trkpt lat="51.60249" lon="3.68247">
        <ele>59.692</ele>
        <time>2020-07-02T09:18:37Z</time>
      </trkpt>
      <trkpt lat="51.60273" lon="3.6825">
        <ele>58.504</ele>
        <time>2020-07-02T09:18:43Z</time>
      </trkpt>
      <trkpt lat="51.60293" lon="3.68252">
        <ele>57.767</ele>
        <time>2020-07-02T09:18:48Z</time>
      </trkpt>
      <trkpt lat="51.60314" lon="3.68255">
        <ele>58.239</ele>
        <time>2020-07-02T09:18:53Z</time>
      </trkpt>
      <trkpt lat="51.60338" lon="3.68259">
        <ele>58.708</ele>
        <time>2020-07-02T09:18:59Z</time>
      </trkpt>
      <trkpt lat="51.60366" lon="3.68261">
        <ele>58.909</ele>
        <time>2020-07-02T09:19:06Z</time>
      </trkpt>
      <trkpt lat="51.60387" lon="3.68265">
        <ele>59.336</ele>
        <time>2020-07-02T09:19:11Z</time>
      </trkpt>
      <trkpt lat="51.60413" lon="3.68268">
        <ele>59.758</ele>
        <time>2020-07-02T09:19:17Z</time>
      </trkpt>
      <trkpt lat="51.60437" lon="3.68271">
        <ele>60.737</ele>
        <time>2020-07-02T09:19:23Z</time>
      </trkpt>
      <trkpt lat="51.60462" lon="3.68275">
        <ele>60.652</ele>
        <time>2020-07-02T09:19:29Z</time>
      </trkpt>
      <trkpt lat="51.60491" lon="3.68276">
        <ele>61.369</ele>
        <time>2020-07-02T09:19:36Z</time>
      </trkpt>
      <trkpt lat="51.60511" lon="3.68281">
        <ele>61.199</ele>
        <time>2020-07-02T09:19:41Z</time>
      </trkpt>
      <trkpt lat="51.60539" lon="3.68286">
        <ele>61.31</ele>
        <time>2020-07-02T09:19:48Z</time>
      </trkpt>
      <trkpt lat="51.60562" lon="3.6829">
        <ele>61.246</ele>
        <time>2020-07-02T09:19:54Z</time>
      </trkpt>
      <trkpt lat="51.60586" lon="3.68294">
        <ele>60.842</ele>
        <time>2020-07-02T09:20:00Z</time>
      </trkpt>
      <trkpt lat="51.60615" lon="3.68296">
        <ele>60.389</ele>
        <time>2020-07-02T09:20:07Z</time>
      </trkpt>
      <trkpt lat="51.60636" lon="3.683">
        <ele>60.155</ele>
        <time>2020-07-02T09:20:12Z</time>
      </trkpt>
      <trkpt lat="51.60662" lon="3.68305">
        <ele>59.923</ele>
        <time>2020-07-02T09:20:18Z</time>
      </trkpt>
      <trkpt lat="51.60689" lon="3.68307">
        <ele>59.318</ele>
        <time>2020-07-02T09:20:24Z</time>
      </trkpt>
      <trkpt lat="51.60716" lon="3.68311">
        <ele>59.905</ele>
        <time>2020-07-02T09:20:30Z</time>
      </trkpt>
      <trkpt lat="51.60738" lon="3.68313">
        <ele>59.87</ele>
        <time>2020-07-02T09:20:35Z</time>
      </trkpt>
      <trkpt lat="51.60765" lon="3.68317">
        <ele>59.925</ele>
        <time>2020-07-02T09:20:41Z</time>
      </trkpt>
      <trkpt lat="51.60793" lon="3.68322">
        <ele>60.269</ele>
        <time>2020-07-02T09:20:47Z</time>
      </trkpt>
      <trkpt lat="51.6082" lon="3.68324">
        <ele>60.211</ele>
        <time>2020-07-02T09:20:53Z</time>
      </trkpt>
      <trkpt lat="51.60844" lon="3.68328">
        <ele>59.456</ele>
        <time>2020-07-02T09:20:58Z</time>
      </trkpt>
      <trkpt lat="51.6087" lon="3.68332">
        <ele>59.099</ele>
        <time>2020-07-02T09:21:04Z</time>
      </trkpt>
      <trkpt lat="51.60901" lon="3.68337">
        <ele>59.449</ele>
        <time>2020-07-02T09:21:11Z</time>
      </trkpt>
      <trkpt lat="51.60924" lon="3.68341">
        <ele>59.769</ele>
        <time>2020-07-02T09:21:16Z</time>
      </trkpt>
      <trkpt lat="51.60946" lon="3.68343">
        <ele>60.421</ele>
        <time>2020-07-02T09:21:21Z</time>
      </trkpt>
      <trkpt lat="51.60978" lon="3.68347">
        <ele>60.905</ele>
        <time>2020-07-02T09:21:28Z</time>
      </trkpt>
      <trkpt lat="51.61006" lon="3.6835">
        <ele>60.866</ele>
        <time>2020-07-02T09:21:34Z</time>
      </trkpt>
      <trkpt lat="51.61033" lon="3.68354">
        <ele>60.497</ele>
        <time>2020-07-02T09:21:40Z</time>
      </trkpt>
      <trkpt lat="51.61061" lon="3.68358">
        <ele>59.706</ele>
        <time>2020-07-02T09:21:46Z</time>
      </trkpt>
      <trkpt lat="51.61089" lon="3.68361">
        <ele>59.355</ele>
        <time>2020-07-02T09:21:52Z</time>
      </trkpt>
      <trkpt lat="51.61111" lon="3.68365">
        <ele>58.091</ele>
        <time>2020-07-02T09:21:57Z</time>
      </trkpt>
      <trkpt lat="51.61143" lon="3.68369">
        <ele>56.711</ele>
        <time>2020-07-02T09:22:04Z</time>
      </trkpt>
      <trkpt lat="51.61173" lon="3.68374">
        <ele>56.142</ele>
        <time>2020-07-02T09:22:11Z</time>
      </trkpt>
      <trkpt lat="51.612" lon="3.68377">
        <ele>56.268</ele>
        <time>2020-07-02T09:22:17Z</time>
      </trkpt>
      <trkpt lat="51.61226" lon="3.6838">
        <ele>56.02</ele>
        <time>2020-07-02T09:22:23Z</time>
      </trkpt>
      <trkpt lat="51.61248" lon="3.68383">
        <ele>55.496</ele>
        <time>2020-07-02T09:22:28Z</time>
      </trkpt>
      <trkpt lat="51.61274" lon="3.68386">
        <ele>55.749</ele>
        <time>2020-07-02T09:22:34Z</time>
      </trkpt>
      <trkpt lat="51.61295" lon="3.68388">
        <ele>56.55</ele>
        <time>2020-07-02T09:22:39Z</time>
      </trkpt>
      <trkpt lat="51.61325" lon="3.68392">
        <ele>57.481</ele>
        <time>2020-07-02T09:22:46Z</time>
      </trkpt>
      <trkpt lat="51.61351" lon="3.68396">
        <ele>58.639</ele>
        <time>2020-07-02T09:22:52Z</time>
      </trkpt>
      <trkpt lat="51.61377" lon="3.684">
        <ele>59.063</ele>
        <time>2020-07-02T09:22:58Z</time>
      </trkpt>
      <trkpt lat="51.61404" lon="3.68404">
        <ele>59.358</ele>
        <time>2020-07-02T09:23:04Z</time>
      </trkpt>
      <trkpt lat="51.6143" lon="3.68406">
        <ele>58.734</ele>
        <time>2020-07-02T09:23:10Z</time>
      </trkpt>
      <trkpt lat="51.61454" lon="3.6841">
        <ele>58.338</ele>
        <time>2020-07-02T09:23:16Z</time>
      </trkpt>
      <trkpt lat="51.61478" lon="3.68413">
        <ele>57.85</ele>
        <time>2020-07-02T09:23:22Z</time>
      </trkpt>
      <trkpt lat="51.61502" lon="3.68414">
        <ele>58.447</ele>
        <time>2020-07-02T09:23:28Z</time>
      </trkpt>
      <trkpt lat="51.61524" lon="3.68416">
        <ele>58.672</ele>
        <time>2020-07-02T09:23:34Z</time>
      </trkpt>
      <trkpt lat="51.61549" lon="3.68414">
        <ele>59.164</ele>
        <time>2020-07-02T09:23:41Z</time>
      </trkpt>
      <trkpt lat="51.61573" lon="3.6841">
        <ele>59.305</ele>
        <time>2020-07-02T09:23:47Z</time>
      </trkpt>
      <trkpt lat="51.61601" lon="3.68402">
        <ele>58.587</ele>
        <time>2020-07-02T09:23:53Z</time>
      </trkpt>
      <trkpt lat="51.61624" lon="3.68392">
        <ele>57.652</ele>
        <time>2020-07-02T09:23:58Z</time>
      </trkpt>
      <trkpt lat="51.61645" lon="3.68377">
        <ele>56.39</ele>
        <time>2020-07-02T09:24:03Z</time>
      </trkpt>
      <trkpt lat="51.61671" lon="3.68362">
        <ele>55.052</ele>
        <time>2020-07-02T09:24:09Z</time>
      </trkpt>
      <trkpt lat="51.61697" lon="3.68351">
        <ele>54.339</ele>
        <time>2020-07-02T09:24:15Z</time>
      </trkpt>
      <trkpt lat="51.61719" lon="3.68347">
        <ele>53.159</ele>
        <time>2020-07-02T09:24:20Z</time>
      </trkpt>
      <trkpt lat="51.61746" lon="3.68348">
        <ele>51.791</ele>
        <time>2020-07-02T09:24:26Z</time>
      </trkpt>
      <trkpt lat="51.61771" lon="3.68354">
        <ele>50.775</ele>
        <time>2020-07-02T09:24:31Z</time>
      </trkpt>
      <trkpt lat="51.61797" lon="3.68367">
        <ele>49.971</ele>
        <time>2020-07-02T09:24:36Z</time>
      </trkpt>
      <trkpt lat="51.61831" lon="3.68387">
        <ele>48.473</ele>
        <time>2020-07-02T09:24:42Z</time>
      </trkpt>
      <trkpt lat="51.61857" lon="3.68392">
        <ele>47.393</ele>
        <time>2020-07-02T09:24:47Z</time>
      </trkpt>
      <trkpt lat="51.61878" lon="3.68397">
        <ele>46.474</ele>
        <time>2020-07-02T09:24:52Z</time>
      </trkpt>
      <trkpt lat="51.61892" lon="3.68424">
        <ele>46.846</ele>
        <time>2020-07-02T09:24:58Z</time>
      </trkpt>
      <trkpt lat="51.61893" lon="3.68454">
        <ele>47.144</ele>
        <time>2020-07-02T09:25:04Z</time>
      </trkpt>
      <trkpt lat="51.61891" lon="3.68488">
        <ele>46.538</ele>
        <time>2020-07-02T09:25:10Z</time>
      </trkpt>
      <trkpt lat="51.61895" lon="3.68527">
        <ele>45.537</ele>
        <time>2020-07-02T09:25:15Z</time>
      </trkpt>
      <trkpt lat="51.61912" lon="3.68571">
        <ele>43.205</ele>
        <time>2020-07-02T09:25:21Z</time>
      </trkpt>
      <trkpt lat="51.61945" lon="3.68583">
        <ele>43.623</ele>
        <time>2020-07-02T09:25:27Z</time>
      </trkpt>
      <trkpt lat="51.61975" lon="3.68587">
        <ele>44.525</ele>
        <time>2020-07-02T09:25:33Z</time>
      </trkpt>
      <trkpt lat="51.62007" lon="3.6861">
        <ele>43.868</ele>
        <time>2020-07-02T09:25:40Z</time>
      </trkpt>
      <trkpt lat="51.62032" lon="3.68635">
        <ele>42.425</ele>
        <time>2020-07-02T09:25:45Z</time>
      </trkpt>
      <trkpt lat="51.62036" lon="3.68639">
        <ele>41.697</ele>
        <time>2020-07-02T09:25:50Z</time>
      </trkpt>
      <trkpt lat="51.62035" lon="3.68639">
        <ele>41.77</ele>
        <time>2020-07-02T09:25:56Z</time>
      </trkpt>
      <trkpt lat="51.62035" lon="3.68639">
        <ele>41.77</ele>
        <time>2020-07-02T09:26:01Z</time>
      </trkpt>
      <trkpt lat="51.62035" lon="3.68639">
        <ele>41.77</ele>
        <time>2020-07-02T09:26:07Z</time>
      </trkpt>
      <trkpt lat="51.62035" lon="3.68639">
        <ele>41.77</ele>
        <time>2020-07-02T09:26:12Z</time>
      </trkpt>
      <trkpt lat="51.62035" lon="3.68639">
        <ele>41.77</ele>
        <time>2020-07-02T09:26:18Z</time>
      </trkpt>
      <trkpt lat="51.62035" lon="3.68639">
        <ele>41.77</ele>
        <time>2020-07-02T09:26:23Z</time>
      </trkpt>
      <trkpt lat="51.62035" lon="3.68639">
        <ele>41.77</ele>
        <time>2020-07-02T09:26:29Z</time>
      </trkpt>
      <trkpt lat="51.62035" lon="3.68639">
        <ele>41.77</ele>
        <time>2020-07-02T09:26:34Z</time>
      </trkpt>
      <trkpt lat="51.62035" lon="3.68639">
        <ele>41.77</ele>
        <time>2020-07-02T09:26:40Z</time>
      </trkpt>
      <trkpt lat="51.62035" lon="3.68639">
        <ele>41.77</ele>
        <time>2020-07-02T09:26:46Z</time>
      </trkpt>
      <trkpt lat="51.62037" lon="3.68639">
        <ele>42.512</ele>
        <time>2020-07-02T09:26:52Z</time>
      </trkpt>
      <trkpt lat="51.62047" lon="3.68633">
        <ele>44.805</ele>
        <time>2020-07-02T09:26:58Z</time>
      </trkpt>
      <trkpt lat="51.62033" lon="3.68621">
        <ele>46.197</ele>
        <time>2020-07-02T09:27:04Z</time>
      </trkpt>
      <trkpt lat="51.62016" lon="3.68613">
        <ele>46.381</ele>
        <time>2020-07-02T09:27:10Z</time>
      </trkpt>
      <trkpt lat="51.62003" lon="3.68601">
        <ele>47.239</ele>
        <time>2020-07-02T09:27:16Z</time>
      </trkpt>
      <trkpt lat="51.61995" lon="3.68593">
        <ele>47.644</ele>
        <time>2020-07-02T09:27:21Z</time>
      </trkpt>
      <trkpt lat="51.61984" lon="3.68583">
        <ele>48.027</ele>
        <time>2020-07-02T09:27:27Z</time>
      </trkpt>
      <trkpt lat="51.61972" lon="3.68578">
        <ele>48.495</ele>
        <time>2020-07-02T09:27:33Z</time>
      </trkpt>
      <trkpt lat="51.6196" lon="3.68576">
        <ele>48.792</ele>
        <time>2020-07-02T09:27:38Z</time>
      </trkpt>
      <trkpt lat="51.61943" lon="3.68575">
        <ele>49.101</ele>
        <time>2020-07-02T09:27:44Z</time>
      </trkpt>
      <trkpt lat="51.61928" lon="3.68572">
        <ele>49.43</ele>
        <time>2020-07-02T09:27:49Z</time>
      </trkpt>
      <trkpt lat="51.61915" lon="3.68564">
        <ele>50.084</ele>
        <time>2020-07-02T09:27:54Z</time>
      </trkpt>
      <trkpt lat="51.6191" lon="3.68547">
        <ele>50.717</ele>
        <time>2020-07-02T09:28:00Z</time>
      </trkpt>
      <trkpt lat="51.6191" lon="3.68547">
        <ele>50.717</ele>
        <time>2020-07-02T09:28:06Z</time>
      </trkpt>
      <trkpt lat="51.6191" lon="3.68547">
        <ele>50.717</ele>
        <time>2020-07-02T09:28:11Z</time>
      </trkpt>
      <trkpt lat="51.6191" lon="3.68547">
        <ele>50.717</ele>
        <time>2020-07-02T09:28:17Z</time>
      </trkpt>
      <trkpt lat="51.6191" lon="3.68547">
        <ele>50.717</ele>
        <time>2020-07-02T09:28:22Z</time>
      </trkpt>
      <trkpt lat="51.6191" lon="3.68547">
        <ele>50.717</ele>
        <time>2020-07-02T09:28:28Z</time>
      </trkpt>
      <trkpt lat="51.6191" lon="3.68547">
        <ele>50.717</ele>
        <time>2020-07-02T09:28:34Z</time>
      </trkpt>
      <trkpt lat="51.6191" lon="3.68547">
        <ele>50.717</ele>
        <time>2020-07-02T09:28:40Z</time>
      </trkpt>
      <trkpt lat="51.6191" lon="3.68547">
        <ele>50.717</ele>
        <time>2020-07-02T09:28:45Z</time>
      </trkpt>
      <trkpt lat="51.61904" lon="3.68532">
        <ele>50.87</ele>
        <time>2020-07-02T09:28:51Z</time>
      </trkpt>
      <trkpt lat="51.61899" lon="3.68515">
        <ele>51.687</ele>
        <time>2020-07-02T09:28:56Z</time>
      </trkpt>
      <trkpt lat="51.61897" lon="3.68495">
        <ele>53.398</ele>
        <time>2020-07-02T09:29:02Z</time>
      </trkpt>
      <trkpt lat="51.61897" lon="3.6848">
        <ele>54.014</ele>
        <time>2020-07-02T09:29:07Z</time>
      </trkpt>
      <trkpt lat="51.61897" lon="3.68459">
        <ele>52.924</ele>
        <time>2020-07-02T09:29:13Z</time>
      </trkpt>
      <trkpt lat="51.61899" lon="3.68435">
        <ele>51.427</ele>
        <time>2020-07-02T09:29:18Z</time>
      </trkpt>
      <trkpt lat="51.61907" lon="3.68415">
        <ele>52.216</ele>
        <time>2020-07-02T09:29:24Z</time>
      </trkpt>
      <trkpt lat="51.61915" lon="3.68393">
        <ele>52.727</ele>
        <time>2020-07-02T09:29:29Z</time>
      </trkpt>
      <trkpt lat="51.61927" lon="3.68366">
        <ele>52.368</ele>
        <time>2020-07-02T09:29:35Z</time>
      </trkpt>
      <trkpt lat="51.61935" lon="3.68342">
        <ele>51.716</ele>
        <time>2020-07-02T09:29:40Z</time>
      </trkpt>
      <trkpt lat="51.61951" lon="3.68325">
        <ele>51.113</ele>
        <time>2020-07-02T09:29:46Z</time>
      </trkpt>
      <trkpt lat="51.61969" lon="3.68327">
        <ele>50.954</ele>
        <time>2020-07-02T09:29:52Z</time>
      </trkpt>
      <trkpt lat="51.61983" lon="3.68334">
        <ele>50.925</ele>
        <time>2020-07-02T09:29:57Z</time>
      </trkpt>
      <trkpt lat="51.62" lon="3.68341">
        <ele>51.075</ele>
        <time>2020-07-02T09:30:02Z</time>
      </trkpt>
      <trkpt lat="51.62022" lon="3.68348">
        <ele>51.355</ele>
        <time>2020-07-02T09:30:08Z</time>
      </trkpt>
      <trkpt lat="51.62042" lon="3.68354">
        <ele>51.433</ele>
        <time>2020-07-02T09:30:13Z</time>
      </trkpt>
      <trkpt lat="51.62067" lon="3.68364">
        <ele>50.916</ele>
        <time>2020-07-02T09:30:19Z</time>
      </trkpt>
      <trkpt lat="51.62089" lon="3.68373">
        <ele>50.882</ele>
        <time>2020-07-02T09:30:24Z</time>
      </trkpt>
      <trkpt lat="51.62116" lon="3.68386">
        <ele>50.672</ele>
        <time>2020-07-02T09:30:30Z</time>
      </trkpt>
      <trkpt lat="51.62138" lon="3.68397">
        <ele>50.225</ele>
        <time>2020-07-02T09:30:35Z</time>
      </trkpt>
      <trkpt lat="51.62163" lon="3.68411">
        <ele>49.748</ele>
        <time>2020-07-02T09:30:41Z</time>
      </trkpt>
      <trkpt lat="51.62185" lon="3.68423">
        <ele>49.753</ele>
        <time>2020-07-02T09:30:46Z</time>
      </trkpt>
      <trkpt lat="51.6221" lon="3.68437">
        <ele>50.218</ele>
        <time>2020-07-02T09:30:52Z</time>
      </trkpt>
      <trkpt lat="51.62231" lon="3.6845">
        <ele>50.266</ele>
        <time>2020-07-02T09:30:57Z</time>
      </trkpt>
      <trkpt lat="51.62257" lon="3.68467">
        <ele>50.418</ele>
        <time>2020-07-02T09:31:03Z</time>
      </trkpt>
      <trkpt lat="51.62278" lon="3.68481">
        <ele>50.203</ele>
        <time>2020-07-02T09:31:08Z</time>
      </trkpt>
      <trkpt lat="51.62303" lon="3.68498">
        <ele>50.076</ele>
        <time>2020-07-02T09:31:14Z</time>
      </trkpt>
      <trkpt lat="51.62324" lon="3.68512">
        <ele>49.896</ele>
        <time>2020-07-02T09:31:19Z</time>
      </trkpt>
      <trkpt lat="51.62348" lon="3.6853">
        <ele>50.015</ele>
        <time>2020-07-02T09:31:25Z</time>
      </trkpt>
      <trkpt lat="51.62368" lon="3.68545">
        <ele>50.212</ele>
        <time>2020-07-02T09:31:30Z</time>
      </trkpt>
      <trkpt lat="51.65824" lon="3.72301">
        <ele>61.584</ele>
        <time>2020-07-02T09:47:09Z</time>
      </trkpt>
      <trkpt lat="51.65846" lon="3.72283">
        <ele>52.56</ele>
        <time>2020-07-02T09:47:15Z</time>
      </trkpt>
      <trkpt lat="51.65867" lon="3.72285">
        <ele>56.887</ele>
        <time>2020-07-02T09:47:20Z</time>
      </trkpt>
      <trkpt lat="51.65888" lon="3.72285">
        <ele>59.973</ele>
        <time>2020-07-02T09:47:25Z</time>
      </trkpt>
      <trkpt lat="51.65914" lon="3.72283">
        <ele>60.059</ele>
        <time>2020-07-02T09:47:31Z</time>
      </trkpt>
      <trkpt lat="51.65944" lon="3.72281">
        <ele>56.344</ele>
        <time>2020-07-02T09:47:38Z</time>
      </trkpt>
      <trkpt lat="51.65965" lon="3.72279">
        <ele>55.952</ele>
        <time>2020-07-02T09:47:43Z</time>
      </trkpt>
      <trkpt lat="51.65986" lon="3.72277">
        <ele>55.561</ele>
        <time>2020-07-02T09:47:48Z</time>
      </trkpt>
      <trkpt lat="51.66014" lon="3.72277">
        <ele>54.614</ele>
        <time>2020-07-02T09:47:54Z</time>
      </trkpt>
      <trkpt lat="51.66037" lon="3.72276">
        <ele>54.902</ele>
        <time>2020-07-02T09:47:59Z</time>
      </trkpt>
      <trkpt lat="51.66059" lon="3.72274">
        <ele>54.946</ele>
        <time>2020-07-02T09:48:04Z</time>
      </trkpt>
      <trkpt lat="51.66084" lon="3.72272">
        <ele>55.274</ele>
        <time>2020-07-02T09:48:10Z</time>
      </trkpt>
      <trkpt lat="51.66111" lon="3.7227">
        <ele>56.112</ele>
        <time>2020-07-02T09:48:16Z</time>
      </trkpt>
      <trkpt lat="51.66135" lon="3.72268">
        <ele>56.55</ele>
        <time>2020-07-02T09:48:21Z</time>
      </trkpt>
      <trkpt lat="51.66164" lon="3.72265">
        <ele>56.902</ele>
        <time>2020-07-02T09:48:27Z</time>
      </trkpt>
      <trkpt lat="51.66187" lon="3.72265">
        <ele>56.743</ele>
        <time>2020-07-02T09:48:32Z</time>
      </trkpt>
      <trkpt lat="51.66214" lon="3.72263">
        <ele>56.857</ele>
        <time>2020-07-02T09:48:38Z</time>
      </trkpt>
      <trkpt lat="51.66236" lon="3.72262">
        <ele>56.708</ele>
        <time>2020-07-02T09:48:43Z</time>
      </trkpt>
      <trkpt lat="51.6626" lon="3.72261">
        <ele>56.663</ele>
        <time>2020-07-02T09:48:48Z</time>
      </trkpt>
      <trkpt lat="51.66287" lon="3.72261">
        <ele>57.541</ele>
        <time>2020-07-02T09:48:54Z</time>
      </trkpt>
      <trkpt lat="51.6631" lon="3.72258">
        <ele>56.666</ele>
        <time>2020-07-02T09:48:59Z</time>
      </trkpt>
      <trkpt lat="51.66331" lon="3.72257">
        <ele>56.072</ele>
        <time>2020-07-02T09:49:04Z</time>
      </trkpt>
      <trkpt lat="51.66357" lon="3.72255">
        <ele>55.582</ele>
        <time>2020-07-02T09:49:10Z</time>
      </trkpt>
      <trkpt lat="51.66383" lon="3.72252">
        <ele>55.085</ele>
        <time>2020-07-02T09:49:16Z</time>
      </trkpt>
      <trkpt lat="51.66404" lon="3.72249">
        <ele>54.958</ele>
        <time>2020-07-02T09:49:21Z</time>
      </trkpt>
      <trkpt lat="51.66429" lon="3.72247">
        <ele>55.176</ele>
        <time>2020-07-02T09:49:27Z</time>
      </trkpt>
      <trkpt lat="51.66451" lon="3.72245">
        <ele>55.555</ele>
        <time>2020-07-02T09:49:32Z</time>
      </trkpt>
      <trkpt lat="51.66473" lon="3.72243">
        <ele>55.836</ele>
        <time>2020-07-02T09:49:37Z</time>
      </trkpt>
      <trkpt lat="51.66499" lon="3.72241">
        <ele>55.56</ele>
        <time>2020-07-02T09:49:43Z</time>
      </trkpt>
      <trkpt lat="51.66521" lon="3.72238">
        <ele>55.266</ele>
        <time>2020-07-02T09:49:48Z</time>
      </trkpt>
      <trkpt lat="51.66542" lon="3.72234">
        <ele>55.346</ele>
        <time>2020-07-02T09:49:53Z</time>
      </trkpt>
      <trkpt lat="51.66569" lon="3.72231">
        <ele>55.518</ele>
        <time>2020-07-02T09:49:59Z</time>
      </trkpt>
      <trkpt lat="51.66589" lon="3.72229">
        <ele>55.644</ele>
        <time>2020-07-02T09:50:04Z</time>
      </trkpt>
      <trkpt lat="51.66613" lon="3.72228">
        <ele>55.711</ele>
        <time>2020-07-02T09:50:10Z</time>
      </trkpt>
      <trkpt lat="51.66638" lon="3.72227">
        <ele>55.634</ele>
        <time>2020-07-02T09:50:16Z</time>
      </trkpt>
      <trkpt lat="51.66658" lon="3.72226">
        <ele>55.582</ele>
        <time>2020-07-02T09:50:21Z</time>
      </trkpt>
      <trkpt lat="51.66689" lon="3.72226">
        <ele>54.832</ele>
        <time>2020-07-02T09:50:28Z</time>
      </trkpt>
      <trkpt lat="51.66714" lon="3.72228">
        <ele>54.342</ele>
        <time>2020-07-02T09:50:33Z</time>
      </trkpt>
      <trkpt lat="51.66745" lon="3.72231">
        <ele>53.451</ele>
        <time>2020-07-02T09:50:39Z</time>
      </trkpt>
      <trkpt lat="51.66777" lon="3.72236">
        <ele>52.699</ele>
        <time>2020-07-02T09:50:45Z</time>
      </trkpt>
      <trkpt lat="51.66811" lon="3.72244">
        <ele>51.46</ele>
        <time>2020-07-02T09:50:51Z</time>
      </trkpt>
      <trkpt lat="51.66842" lon="3.72253">
        <ele>49.847</ele>
        <time>2020-07-02T09:50:56Z</time>
      </trkpt>
      <trkpt lat="51.66879" lon="3.72266">
        <ele>48.135</ele>
        <time>2020-07-02T09:51:02Z</time>
      </trkpt>
      <trkpt lat="51.66912" lon="3.72282">
        <ele>46.622</ele>
        <time>2020-07-02T09:51:08Z</time>
      </trkpt>
      <trkpt lat="51.66943" lon="3.72297">
        <ele>45.045</ele>
        <time>2020-07-02T09:51:14Z</time>
      </trkpt>
      <trkpt lat="51.66985" lon="3.72317">
        <ele>43.2</ele>
        <time>2020-07-02T09:51:21Z</time>
      </trkpt>
      <trkpt lat="51.67022" lon="3.72335">
        <ele>42.006</ele>
        <time>2020-07-02T09:51:27Z</time>
      </trkpt>
      <trkpt lat="51.67068" lon="3.72354">
        <ele>41</ele>
        <time>2020-07-02T09:51:34Z</time>
      </trkpt>
      <trkpt lat="51.67105" lon="3.72369">
        <ele>40.311</ele>
        <time>2020-07-02T09:51:39Z</time>
      </trkpt>
      <trkpt lat="51.67139" lon="3.72374">
        <ele>39.63</ele>
        <time>2020-07-02T09:51:44Z</time>
      </trkpt>
      <trkpt lat="51.6717" lon="3.72367">
        <ele>39.605</ele>
        <time>2020-07-02T09:51:50Z</time>
      </trkpt>
      <trkpt lat="51.67195" lon="3.72382">
        <ele>40.957</ele>
        <time>2020-07-02T09:51:56Z</time>
      </trkpt>
      <trkpt lat="51.67205" lon="3.72393">
        <ele>42.413</ele>
        <time>2020-07-02T09:52:01Z</time>
      </trkpt>
      <trkpt lat="51.672" lon="3.72381">
        <ele>42.566</ele>
        <time>2020-07-02T09:52:07Z</time>
      </trkpt>
      <trkpt lat="51.6719" lon="3.72373">
        <ele>43.208</ele>
        <time>2020-07-02T09:52:12Z</time>
      </trkpt>
      <trkpt lat="51.67179" lon="3.72364">
        <ele>43.726</ele>
        <time>2020-07-02T09:52:17Z</time>
      </trkpt>
      <trkpt lat="51.67163" lon="3.72363">
        <ele>43.814</ele>
        <time>2020-07-02T09:52:23Z</time>
      </trkpt>
      <trkpt lat="51.67152" lon="3.72388">
        <ele>44.152</ele>
        <time>2020-07-02T09:52:29Z</time>
      </trkpt>
      <trkpt lat="51.67155" lon="3.72417">
        <ele>44.308</ele>
        <time>2020-07-02T09:52:34Z</time>
      </trkpt>
      <trkpt lat="51.67158" lon="3.72453">
        <ele>45.208</ele>
        <time>2020-07-02T09:52:40Z</time>
      </trkpt>
      <trkpt lat="51.67159" lon="3.72489">
        <ele>46.079</ele>
        <time>2020-07-02T09:52:45Z</time>
      </trkpt>
      <trkpt lat="51.67155" lon="3.72525">
        <ele>46.662</ele>
        <time>2020-07-02T09:52:50Z</time>
      </trkpt>
      <trkpt lat="51.67149" lon="3.7256">
        <ele>47.043</ele>
        <time>2020-07-02T09:52:55Z</time>
      </trkpt>
      <trkpt lat="51.67149" lon="3.72605">
        <ele>46.719</ele>
        <time>2020-07-02T09:53:01Z</time>
      </trkpt>
      <trkpt lat="51.67155" lon="3.72651">
        <ele>47.082</ele>
        <time>2020-07-02T09:53:07Z</time>
      </trkpt>
      <trkpt lat="51.67162" lon="3.72697">
        <ele>46.887</ele>
        <time>2020-07-02T09:53:13Z</time>
      </trkpt>
      <trkpt lat="51.67167" lon="3.72734">
        <ele>46.857</ele>
        <time>2020-07-02T09:53:18Z</time>
      </trkpt>
      <trkpt lat="51.67171" lon="3.72773">
        <ele>46.715</ele>
        <time>2020-07-02T09:53:23Z</time>
      </trkpt>
      <trkpt lat="51.67177" lon="3.72822">
        <ele>46.456</ele>
        <time>2020-07-02T09:53:29Z</time>
      </trkpt>
      <trkpt lat="51.67183" lon="3.7287">
        <ele>45.681</ele>
        <time>2020-07-02T09:53:35Z</time>
      </trkpt>
      <trkpt lat="51.67189" lon="3.72924">
        <ele>44.705</ele>
        <time>2020-07-02T09:53:42Z</time>
      </trkpt>
      <trkpt lat="51.67198" lon="3.72969">
        <ele>43.956</ele>
        <time>2020-07-02T09:53:48Z</time>
      </trkpt>
      <trkpt lat="51.67207" lon="3.73002">
        <ele>43.533</ele>
        <time>2020-07-02T09:53:53Z</time>
      </trkpt>
      <trkpt lat="51.67222" lon="3.73043">
        <ele>43.585</ele>
        <time>2020-07-02T09:53:59Z</time>
      </trkpt>
      <trkpt lat="51.67238" lon="3.73083">
        <ele>44.632</ele>
        <time>2020-07-02T09:54:05Z</time>
      </trkpt>
      <trkpt lat="51.67254" lon="3.73124">
        <ele>45.712</ele>
        <time>2020-07-02T09:54:11Z</time>
      </trkpt>
      <trkpt lat="51.67266" lon="3.73158">
        <ele>45.61</ele>
        <time>2020-07-02T09:54:16Z</time>
      </trkpt>
      <trkpt lat="51.67281" lon="3.73199">
        <ele>45.694</ele>
        <time>2020-07-02T09:54:22Z</time>
      </trkpt>
      <trkpt lat="51.67297" lon="3.73241">
        <ele>45.362</ele>
        <time>2020-07-02T09:54:28Z</time>
      </trkpt>
      <trkpt lat="51.67312" lon="3.73281">
        <ele>45.396</ele>
        <time>2020-07-02T09:54:34Z</time>
      </trkpt>
      <trkpt lat="51.67323" lon="3.7332">
        <ele>45.169</ele>
        <time>2020-07-02T09:54:40Z</time>
      </trkpt>
      <trkpt lat="51.67301" lon="3.7335">
        <ele>46.226</ele>
        <time>2020-07-02T09:54:46Z</time>
      </trkpt>
      <trkpt lat="51.67281" lon="3.73379">
        <ele>46.564</ele>
        <time>2020-07-02T09:54:52Z</time>
      </trkpt>
      <trkpt lat="51.67266" lon="3.73404">
        <ele>46.069</ele>
        <time>2020-07-02T09:54:57Z</time>
      </trkpt>
      <trkpt lat="51.67246" lon="3.73405">
        <ele>45.94</ele>
        <time>2020-07-02T09:55:03Z</time>
      </trkpt>
      <trkpt lat="51.67234" lon="3.73377">
        <ele>45.778</ele>
        <time>2020-07-02T09:55:08Z</time>
      </trkpt>
      <trkpt lat="51.67223" lon="3.7335">
        <ele>46.049</ele>
        <time>2020-07-02T09:55:15Z</time>
      </trkpt>
      <trkpt lat="51.67216" lon="3.7333">
        <ele>45.891</ele>
        <time>2020-07-02T09:55:21Z</time>
      </trkpt>
      <trkpt lat="51.67212" lon="3.73314">
        <ele>45.854</ele>
        <time>2020-07-02T09:55:26Z</time>
      </trkpt>
      <trkpt lat="51.6721" lon="3.73298">
        <ele>46.042</ele>
        <time>2020-07-02T09:55:31Z</time>
      </trkpt>
      <trkpt lat="51.67204" lon="3.73285">
        <ele>46.252</ele>
        <time>2020-07-02T09:55:36Z</time>
      </trkpt>
      <trkpt lat="51.67195" lon="3.73293">
        <ele>47.125</ele>
        <time>2020-07-02T09:55:41Z</time>
      </trkpt>
      <trkpt lat="51.67188" lon="3.73314">
        <ele>46.885</ele>
        <time>2020-07-02T09:55:47Z</time>
      </trkpt>
      <trkpt lat="51.67176" lon="3.73346">
        <ele>47.018</ele>
        <time>2020-07-02T09:55:54Z</time>
      </trkpt>
      <trkpt lat="51.67165" lon="3.73375">
        <ele>47.079</ele>
        <time>2020-07-02T09:56:00Z</time>
      </trkpt>
      <trkpt lat="51.67158" lon="3.73392">
        <ele>47.864</ele>
        <time>2020-07-02T09:56:05Z</time>
      </trkpt>
      <trkpt lat="51.67153" lon="3.73403">
        <ele>48.913</ele>
        <time>2020-07-02T09:56:11Z</time>
      </trkpt>
      <trkpt lat="51.67148" lon="3.73419">
        <ele>48.673</ele>
        <time>2020-07-02T09:56:17Z</time>
      </trkpt>
      <trkpt lat="51.67147" lon="3.73435">
        <ele>48.965</ele>
        <time>2020-07-02T09:56:22Z</time>
      </trkpt>
      <trkpt lat="51.67151" lon="3.73477">
        <ele>49.255</ele>
        <time>2020-07-02T09:56:28Z</time>
      </trkpt>
      <trkpt lat="51.67163" lon="3.73535">
        <ele>48.937</ele>
        <time>2020-07-02T09:56:34Z</time>
      </trkpt>
      <trkpt lat="51.67175" lon="3.73588">
        <ele>49.285</ele>
        <time>2020-07-02T09:56:40Z</time>
      </trkpt>
      <trkpt lat="51.67185" lon="3.73641">
        <ele>49.394</ele>
        <time>2020-07-02T09:56:46Z</time>
      </trkpt>
      <trkpt lat="51.67195" lon="3.73694">
        <ele>49.204</ele>
        <time>2020-07-02T09:56:52Z</time>
      </trkpt>
      <trkpt lat="51.67203" lon="3.7374">
        <ele>49.518</ele>
        <time>2020-07-02T09:56:57Z</time>
      </trkpt>
      <trkpt lat="51.67212" lon="3.73786">
        <ele>50.514</ele>
        <time>2020-07-02T09:57:02Z</time>
      </trkpt>
      <trkpt lat="51.67223" lon="3.73839">
        <ele>50.814</ele>
        <time>2020-07-02T09:57:08Z</time>
      </trkpt>
      <trkpt lat="51.67234" lon="3.73903">
        <ele>51.607</ele>
        <time>2020-07-02T09:57:15Z</time>
      </trkpt>
      <trkpt lat="51.67242" lon="3.73948">
        <ele>52.15</ele>
        <time>2020-07-02T09:57:20Z</time>
      </trkpt>
      <trkpt lat="51.67252" lon="3.74003">
        <ele>52.277</ele>
        <time>2020-07-02T09:57:26Z</time>
      </trkpt>
      <trkpt lat="51.67263" lon="3.74058">
        <ele>52.173</ele>
        <time>2020-07-02T09:57:32Z</time>
      </trkpt>
      <trkpt lat="51.67273" lon="3.74113">
        <ele>51.732</ele>
        <time>2020-07-02T09:57:38Z</time>
      </trkpt>
      <trkpt lat="51.67284" lon="3.74169">
        <ele>52.029</ele>
        <time>2020-07-02T09:57:44Z</time>
      </trkpt>
      <trkpt lat="51.67294" lon="3.74224">
        <ele>52.017</ele>
        <time>2020-07-02T09:57:50Z</time>
      </trkpt>
      <trkpt lat="51.67303" lon="3.7427">
        <ele>51.918</ele>
        <time>2020-07-02T09:57:55Z</time>
      </trkpt>
      <trkpt lat="51.67314" lon="3.74325">
        <ele>51.885</ele>
        <time>2020-07-02T09:58:01Z</time>
      </trkpt>
      <trkpt lat="51.67324" lon="3.7438">
        <ele>51.518</ele>
        <time>2020-07-02T09:58:07Z</time>
      </trkpt>
      <trkpt lat="51.67332" lon="3.74426">
        <ele>51.108</ele>
        <time>2020-07-02T09:58:12Z</time>
      </trkpt>
      <trkpt lat="51.67343" lon="3.74482">
        <ele>50.931</ele>
        <time>2020-07-02T09:58:18Z</time>
      </trkpt>
      <trkpt lat="51.67351" lon="3.74527">
        <ele>50.566</ele>
        <time>2020-07-02T09:58:23Z</time>
      </trkpt>
      <trkpt lat="51.6736" lon="3.74583">
        <ele>50.902</ele>
        <time>2020-07-02T09:58:29Z</time>
      </trkpt>
      <trkpt lat="51.67355" lon="3.74631">
        <ele>50.545</ele>
        <time>2020-07-02T09:58:34Z</time>
      </trkpt>
      <trkpt lat="51.6734" lon="3.74694">
        <ele>49.767</ele>
        <time>2020-07-02T09:58:41Z</time>
      </trkpt>
      <trkpt lat="51.67324" lon="3.74756">
        <ele>49.009</ele>
        <time>2020-07-02T09:58:48Z</time>
      </trkpt>
      <trkpt lat="51.6731" lon="3.74809">
        <ele>47.916</ele>
        <time>2020-07-02T09:58:54Z</time>
      </trkpt>
      <trkpt lat="51.67297" lon="3.74861">
        <ele>47.593</ele>
        <time>2020-07-02T09:59:00Z</time>
      </trkpt>
      <trkpt lat="51.67283" lon="3.74914">
        <ele>47.769</ele>
        <time>2020-07-02T09:59:06Z</time>
      </trkpt>
      <trkpt lat="51.6727" lon="3.74967">
        <ele>47.84</ele>
        <time>2020-07-02T09:59:12Z</time>
      </trkpt>
      <trkpt lat="51.67265" lon="3.75011">
        <ele>47.958</ele>
        <time>2020-07-02T09:59:17Z</time>
      </trkpt>
      <trkpt lat="51.67273" lon="3.75066">
        <ele>48.637</ele>
        <time>2020-07-02T09:59:23Z</time>
      </trkpt>
      <trkpt lat="51.67286" lon="3.75119">
        <ele>49.312</ele>
        <time>2020-07-02T09:59:29Z</time>
      </trkpt>
      <trkpt lat="51.67298" lon="3.75172">
        <ele>49.314</ele>
        <time>2020-07-02T09:59:35Z</time>
      </trkpt>
      <trkpt lat="51.67312" lon="3.75232">
        <ele>49.488</ele>
        <time>2020-07-02T09:59:42Z</time>
      </trkpt>
      <trkpt lat="51.67329" lon="3.75279">
        <ele>49.242</ele>
        <time>2020-07-02T09:59:48Z</time>
      </trkpt>
      <trkpt lat="51.67355" lon="3.75314">
        <ele>49.041</ele>
        <time>2020-07-02T09:59:54Z</time>
      </trkpt>
      <trkpt lat="51.67379" lon="3.75342">
        <ele>49.328</ele>
        <time>2020-07-02T10:00:00Z</time>
      </trkpt>
      <trkpt lat="51.67378" lon="3.75374">
        <ele>48.379</ele>
        <time>2020-07-02T10:00:05Z</time>
      </trkpt>
      <trkpt lat="51.67374" lon="3.75418">
        <ele>46.689</ele>
        <time>2020-07-02T10:00:12Z</time>
      </trkpt>
      <trkpt lat="51.67386" lon="3.75453">
        <ele>46.618</ele>
        <time>2020-07-02T10:00:18Z</time>
      </trkpt>
      <trkpt lat="51.67401" lon="3.75465">
        <ele>46.674</ele>
        <time>2020-07-02T10:00:24Z</time>
      </trkpt>
      <trkpt lat="51.6742" lon="3.7546">
        <ele>47.132</ele>
        <time>2020-07-02T10:00:31Z</time>
      </trkpt>
      <trkpt lat="51.6743" lon="3.75462">
        <ele>47.02</ele>
        <time>2020-07-02T10:00:37Z</time>
      </trkpt>
      <trkpt lat="51.6743" lon="3.75462">
        <ele>47.02</ele>
        <time>2020-07-02T10:00:43Z</time>
      </trkpt>
      <trkpt lat="51.6743" lon="3.75462">
        <ele>47.02</ele>
        <time>2020-07-02T10:00:49Z</time>
      </trkpt>
      <trkpt lat="51.6743" lon="3.75462">
        <ele>47.02</ele>
        <time>2020-07-02T10:00:55Z</time>
      </trkpt>
      <trkpt lat="51.6743" lon="3.75462">
        <ele>47.02</ele>
        <time>2020-07-02T10:01:01Z</time>
      </trkpt>
      <trkpt lat="51.6743" lon="3.75462">
        <ele>47.02</ele>
        <time>2020-07-02T10:01:07Z</time>
      </trkpt>
      <trkpt lat="51.6743" lon="3.75462">
        <ele>47.02</ele>
        <time>2020-07-02T10:01:13Z</time>
      </trkpt>
      <trkpt lat="51.6743" lon="3.75462">
        <ele>47.02</ele>
        <time>2020-07-02T10:01:18Z</time>
      </trkpt>
      <trkpt lat="51.6743" lon="3.75462">
        <ele>47.02</ele>
        <time>2020-07-02T10:01:23Z</time>
      </trkpt>
      <trkpt lat="51.6743" lon="3.75462">
        <ele>47.02</ele>
        <time>2020-07-02T10:01:29Z</time>
      </trkpt>
      <trkpt lat="51.6743" lon="3.75462">
        <ele>47.02</ele>
        <time>2020-07-02T10:01:34Z</time>
      </trkpt>
      <trkpt lat="51.6743" lon="3.75462">
        <ele>47.02</ele>
        <time>2020-07-02T10:01:40Z</time>
      </trkpt>
      <trkpt lat="51.6743" lon="3.75462">
        <ele>47.02</ele>
        <time>2020-07-02T10:01:45Z</time>
      </trkpt>
      <trkpt lat="51.6743" lon="3.75462">
        <ele>47.02</ele>
        <time>2020-07-02T10:01:50Z</time>
      </trkpt>
      <trkpt lat="51.6743" lon="3.75462">
        <ele>47.02</ele>
        <time>2020-07-02T10:01:56Z</time>
      </trkpt>
      <trkpt lat="51.6743" lon="3.75462">
        <ele>47.02</ele>
        <time>2020-07-02T10:02:01Z</time>
      </trkpt>
      <trkpt lat="51.6743" lon="3.75462">
        <ele>47.02</ele>
        <time>2020-07-02T10:02:06Z</time>
      </trkpt>
      <trkpt lat="51.6743" lon="3.75462">
        <ele>47.02</ele>
        <time>2020-07-02T10:02:12Z</time>
      </trkpt>
      <trkpt lat="51.6743" lon="3.75462">
        <ele>47.02</ele>
        <time>2020-07-02T10:02:18Z</time>
      </trkpt>
      <trkpt lat="51.6743" lon="3.75462">
        <ele>47.02</ele>
        <time>2020-07-02T10:02:23Z</time>
      </trkpt>
      <trkpt lat="51.6743" lon="3.75462">
        <ele>47.02</ele>
        <time>2020-07-02T10:02:29Z</time>
      </trkpt>
      <trkpt lat="51.6743" lon="3.75462">
        <ele>47.02</ele>
        <time>2020-07-02T10:02:35Z</time>
      </trkpt>
      <trkpt lat="51.6743" lon="3.75462">
        <ele>47.02</ele>
        <time>2020-07-02T10:02:41Z</time>
      </trkpt>
      <trkpt lat="51.6743" lon="3.75462">
        <ele>47.02</ele>
        <time>2020-07-02T10:02:47Z</time>
      </trkpt>
      <trkpt lat="51.6743" lon="3.75462">
        <ele>47.02</ele>
        <time>2020-07-02T10:02:52Z</time>
      </trkpt>
      <trkpt lat="51.6743" lon="3.75462">
        <ele>47.02</ele>
        <time>2020-07-02T10:02:58Z</time>
      </trkpt>
      <trkpt lat="51.6743" lon="3.75462">
        <ele>47.02</ele>
        <time>2020-07-02T10:03:03Z</time>
      </trkpt>
      <trkpt lat="51.6743" lon="3.75462">
        <ele>47.02</ele>
        <time>2020-07-02T10:03:09Z</time>
      </trkpt>
      <trkpt lat="51.6743" lon="3.75462">
        <ele>47.02</ele>
        <time>2020-07-02T10:03:14Z</time>
      </trkpt>
      <trkpt lat="51.6743" lon="3.75462">
        <ele>47.02</ele>
        <time>2020-07-02T10:03:20Z</time>
      </trkpt>
      <trkpt lat="51.6743" lon="3.75462">
        <ele>47.02</ele>
        <time>2020-07-02T10:03:26Z</time>
      </trkpt>
      <trkpt lat="51.6743" lon="3.75462">
        <ele>47.02</ele>
        <time>2020-07-02T10:03:32Z</time>
      </trkpt>
      <trkpt lat="51.6743" lon="3.75462">
        <ele>47.02</ele>
        <time>2020-07-02T10:03:37Z</time>
      </trkpt>
      <trkpt lat="51.6743" lon="3.75462">
        <ele>47.06</ele>
        <time>2020-07-02T10:03:43Z</time>
      </trkpt>
      <trkpt lat="51.67431" lon="3.75462">
        <ele>47.101</ele>
        <time>2020-07-02T10:03:49Z</time>
      </trkpt>
      <trkpt lat="51.67436" lon="3.75458">
        <ele>47.318</ele>
        <time>2020-07-02T10:03:54Z</time>
      </trkpt>
      <trkpt lat="51.67447" lon="3.75449">
        <ele>47.4</ele>
        <time>2020-07-02T10:04:00Z</time>
      </trkpt>
      <trkpt lat="51.67465" lon="3.75437">
        <ele>47.327</ele>
        <time>2020-07-02T10:04:06Z</time>
      </trkpt>
      <trkpt lat="51.67483" lon="3.75425">
        <ele>47.684</ele>
        <time>2020-07-02T10:04:12Z</time>
      </trkpt>
      <trkpt lat="51.67501" lon="3.75413">
        <ele>47.94</ele>
        <time>2020-07-02T10:04:17Z</time>
      </trkpt>
      <trkpt lat="51.67522" lon="3.75398">
        <ele>48.278</ele>
        <time>2020-07-02T10:04:23Z</time>
      </trkpt>
      <trkpt lat="51.67535" lon="3.75378">
        <ele>49.13</ele>
        <time>2020-07-02T10:04:29Z</time>
      </trkpt>
      <trkpt lat="51.67529" lon="3.75346">
        <ele>49.315</ele>
        <time>2020-07-02T10:04:35Z</time>
      </trkpt>
      <trkpt lat="51.67522" lon="3.75322">
        <ele>49.7</ele>
        <time>2020-07-02T10:04:40Z</time>
      </trkpt>
      <trkpt lat="51.6751" lon="3.7528">
        <ele>49.716</ele>
        <time>2020-07-02T10:04:48Z</time>
      </trkpt>
      <trkpt lat="51.67511" lon="3.75246">
        <ele>48.974</ele>
        <time>2020-07-02T10:04:54Z</time>
      </trkpt>
      <trkpt lat="51.67533" lon="3.7523">
        <ele>49.021</ele>
        <time>2020-07-02T10:04:59Z</time>
      </trkpt>
      <trkpt lat="51.67558" lon="3.75209">
        <ele>47.587</ele>
        <time>2020-07-02T10:05:05Z</time>
      </trkpt>
      <trkpt lat="51.67582" lon="3.75191">
        <ele>46.887</ele>
        <time>2020-07-02T10:05:11Z</time>
      </trkpt>
      <trkpt lat="51.67606" lon="3.75175">
        <ele>46.973</ele>
        <time>2020-07-02T10:05:17Z</time>
      </trkpt>
      <trkpt lat="51.67628" lon="3.75158">
        <ele>46.931</ele>
        <time>2020-07-02T10:05:23Z</time>
      </trkpt>
      <trkpt lat="51.67648" lon="3.75137">
        <ele>46.403</ele>
        <time>2020-07-02T10:05:29Z</time>
      </trkpt>
      <trkpt lat="51.67668" lon="3.75117">
        <ele>46.455</ele>
        <time>2020-07-02T10:05:35Z</time>
      </trkpt>
      <trkpt lat="51.67686" lon="3.75099">
        <ele>46.669</ele>
        <time>2020-07-02T10:05:40Z</time>
      </trkpt>
      <trkpt lat="51.67707" lon="3.75078">
        <ele>46.818</ele>
        <time>2020-07-02T10:05:46Z</time>
      </trkpt>
      <trkpt lat="51.67725" lon="3.7506">
        <ele>47.032</ele>
        <time>2020-07-02T10:05:51Z</time>
      </trkpt>
      <trkpt lat="51.67742" lon="3.75042">
        <ele>47.512</ele>
        <time>2020-07-02T10:05:56Z</time>
      </trkpt>
      <trkpt lat="51.67763" lon="3.7502">
        <ele>49.075</ele>
        <time>2020-07-02T10:06:02Z</time>
      </trkpt>
      <trkpt lat="51.67782" lon="3.75002">
        <ele>50.274</ele>
        <time>2020-07-02T10:06:07Z</time>
      </trkpt>
      <trkpt lat="51.67801" lon="3.74986">
        <ele>50.48</ele>
        <time>2020-07-02T10:06:12Z</time>
      </trkpt>
      <trkpt lat="51.67822" lon="3.74967">
        <ele>49.819</ele>
        <time>2020-07-02T10:06:18Z</time>
      </trkpt>
      <trkpt lat="51.67844" lon="3.74948">
        <ele>49.239</ele>
        <time>2020-07-02T10:06:24Z</time>
      </trkpt>
      <trkpt lat="51.67866" lon="3.7493">
        <ele>48.573</ele>
        <time>2020-07-02T10:06:30Z</time>
      </trkpt>
      <trkpt lat="51.67885" lon="3.74914">
        <ele>47.997</ele>
        <time>2020-07-02T10:06:35Z</time>
      </trkpt>
      <trkpt lat="51.67904" lon="3.74898">
        <ele>47.296</ele>
        <time>2020-07-02T10:06:40Z</time>
      </trkpt>
      <trkpt lat="51.67927" lon="3.74879">
        <ele>47.889</ele>
        <time>2020-07-02T10:06:46Z</time>
      </trkpt>
      <trkpt lat="51.6795" lon="3.74861">
        <ele>48.563</ele>
        <time>2020-07-02T10:06:52Z</time>
      </trkpt>
      <trkpt lat="51.67969" lon="3.74845">
        <ele>48.505</ele>
        <time>2020-07-02T10:06:57Z</time>
      </trkpt>
      <trkpt lat="51.6799" lon="3.74828">
        <ele>47.998</ele>
        <time>2020-07-02T10:07:03Z</time>
      </trkpt>
      <trkpt lat="51.68008" lon="3.74813">
        <ele>48.039</ele>
        <time>2020-07-02T10:07:08Z</time>
      </trkpt>
      <trkpt lat="51.6803" lon="3.74795">
        <ele>47.99</ele>
        <time>2020-07-02T10:07:14Z</time>
      </trkpt>
      <trkpt lat="51.68051" lon="3.74777">
        <ele>47.624</ele>
        <time>2020-07-02T10:07:20Z</time>
      </trkpt>
      <trkpt lat="51.68068" lon="3.74763">
        <ele>47.297</ele>
        <time>2020-07-02T10:07:25Z</time>
      </trkpt>
      <trkpt lat="51.68087" lon="3.74745">
        <ele>47.061</ele>
        <time>2020-07-02T10:07:31Z</time>
      </trkpt>
      <trkpt lat="51.68103" lon="3.74729">
        <ele>47.078</ele>
        <time>2020-07-02T10:07:36Z</time>
      </trkpt>
      <trkpt lat="51.68121" lon="3.7471">
        <ele>46.856</ele>
        <time>2020-07-02T10:07:42Z</time>
      </trkpt>
      <trkpt lat="51.68141" lon="3.74695">
        <ele>47.001</ele>
        <time>2020-07-02T10:07:48Z</time>
      </trkpt>
      <trkpt lat="51.68163" lon="3.74679">
        <ele>46.529</ele>
        <time>2020-07-02T10:07:54Z</time>
      </trkpt>
      <trkpt lat="51.68181" lon="3.74665">
        <ele>46.003</ele>
        <time>2020-07-02T10:07:59Z</time>
      </trkpt>
      <trkpt lat="51.68203" lon="3.74648">
        <ele>46.133</ele>
        <time>2020-07-02T10:08:05Z</time>
      </trkpt>
      <trkpt lat="51.68222" lon="3.74633">
        <ele>46.491</ele>
        <time>2020-07-02T10:08:11Z</time>
      </trkpt>
      <trkpt lat="51.68239" lon="3.7462">
        <ele>46.995</ele>
        <time>2020-07-02T10:08:16Z</time>
      </trkpt>
      <trkpt lat="51.68256" lon="3.74609">
        <ele>46.896</ele>
        <time>2020-07-02T10:08:21Z</time>
      </trkpt>
      <trkpt lat="51.68276" lon="3.74594">
        <ele>47.087</ele>
        <time>2020-07-02T10:08:27Z</time>
      </trkpt>
      <trkpt lat="51.68292" lon="3.7458">
        <ele>46.612</ele>
        <time>2020-07-02T10:08:32Z</time>
      </trkpt>
      <trkpt lat="51.6831" lon="3.74562">
        <ele>46.348</ele>
        <time>2020-07-02T10:08:38Z</time>
      </trkpt>
      <trkpt lat="51.68325" lon="3.74549">
        <ele>46.629</ele>
        <time>2020-07-02T10:08:43Z</time>
      </trkpt>
      <trkpt lat="51.68343" lon="3.74533">
        <ele>46.757</ele>
        <time>2020-07-02T10:08:49Z</time>
      </trkpt>
      <trkpt lat="51.68359" lon="3.74521">
        <ele>46.665</ele>
        <time>2020-07-02T10:08:54Z</time>
      </trkpt>
      <trkpt lat="51.6838" lon="3.74508">
        <ele>46.124</ele>
        <time>2020-07-02T10:09:00Z</time>
      </trkpt>
      <trkpt lat="51.68397" lon="3.74497">
        <ele>46.716</ele>
        <time>2020-07-02T10:09:05Z</time>
      </trkpt>
      <trkpt lat="51.68418" lon="3.74483">
        <ele>47.221</ele>
        <time>2020-07-02T10:09:11Z</time>
      </trkpt>
      <trkpt lat="51.68437" lon="3.7447">
        <ele>46.893</ele>
        <time>2020-07-02T10:09:16Z</time>
      </trkpt>
      <trkpt lat="51.6846" lon="3.74454">
        <ele>46.62</ele>
        <time>2020-07-02T10:09:22Z</time>
      </trkpt>
      <trkpt lat="51.68484" lon="3.74438">
        <ele>46.682</ele>
        <time>2020-07-02T10:09:28Z</time>
      </trkpt>
      <trkpt lat="51.68504" lon="3.74427">
        <ele>47.096</ele>
        <time>2020-07-02T10:09:33Z</time>
      </trkpt>
      <trkpt lat="51.68528" lon="3.74416">
        <ele>47.241</ele>
        <time>2020-07-02T10:09:39Z</time>
      </trkpt>
      <trkpt lat="51.68548" lon="3.74402">
        <ele>46.783</ele>
        <time>2020-07-02T10:09:44Z</time>
      </trkpt>
      <trkpt lat="51.68569" lon="3.74384">
        <ele>46.716</ele>
        <time>2020-07-02T10:09:50Z</time>
      </trkpt>
      <trkpt lat="51.68585" lon="3.7436">
        <ele>46.768</ele>
        <time>2020-07-02T10:09:56Z</time>
      </trkpt>
      <trkpt lat="51.68598" lon="3.74338">
        <ele>45.951</ele>
        <time>2020-07-02T10:10:01Z</time>
      </trkpt>
      <trkpt lat="51.68612" lon="3.74313">
        <ele>45.225</ele>
        <time>2020-07-02T10:10:07Z</time>
      </trkpt>
      <trkpt lat="51.68626" lon="3.74287">
        <ele>45.144</ele>
        <time>2020-07-02T10:10:13Z</time>
      </trkpt>
      <trkpt lat="51.68641" lon="3.74261">
        <ele>44.261</ele>
        <time>2020-07-02T10:10:19Z</time>
      </trkpt>
      <trkpt lat="51.68795" lon="3.73592">
        <ele>1</ele>
        <time>2020-07-02T10:11:31Z</time>
      </trkpt>
      <trkpt lat="51.68799" lon="3.73834">
        <ele>38.195</ele>
        <time>2020-07-02T10:11:37Z</time>
      </trkpt>
      <trkpt lat="51.68816" lon="3.73852">
        <ele>43.554</ele>
        <time>2020-07-02T10:11:43Z</time>
      </trkpt>
      <trkpt lat="51.68822" lon="3.73888">
        <ele>45.055</ele>
        <time>2020-07-02T10:11:49Z</time>
      </trkpt>
      <trkpt lat="51.68834" lon="3.73912">
        <ele>45.73</ele>
        <time>2020-07-02T10:11:54Z</time>
      </trkpt>
      <trkpt lat="51.68851" lon="3.73952">
        <ele>45.792</ele>
        <time>2020-07-02T10:12:00Z</time>
      </trkpt>
      <trkpt lat="51.68871" lon="3.73997">
        <ele>46.947</ele>
        <time>2020-07-02T10:12:06Z</time>
      </trkpt>
      <trkpt lat="51.6889" lon="3.74039">
        <ele>48.208</ele>
        <time>2020-07-02T10:12:12Z</time>
      </trkpt>
      <trkpt lat="51.6891" lon="3.74079">
        <ele>48.388</ele>
        <time>2020-07-02T10:12:18Z</time>
      </trkpt>
      <trkpt lat="51.68926" lon="3.74114">
        <ele>49.015</ele>
        <time>2020-07-02T10:12:24Z</time>
      </trkpt>
      <trkpt lat="51.68941" lon="3.74146">
        <ele>48.423</ele>
        <time>2020-07-02T10:12:29Z</time>
      </trkpt>
      <trkpt lat="51.68958" lon="3.74184">
        <ele>47.05</ele>
        <time>2020-07-02T10:12:34Z</time>
      </trkpt>
      <trkpt lat="51.68942" lon="3.74222">
        <ele>46.092</ele>
        <time>2020-07-02T10:12:40Z</time>
      </trkpt>
      <trkpt lat="51.68912" lon="3.7422">
        <ele>45.467</ele>
        <time>2020-07-02T10:12:46Z</time>
      </trkpt>
      <trkpt lat="51.68906" lon="3.74177">
        <ele>43.871</ele>
        <time>2020-07-02T10:12:51Z</time>
      </trkpt>
      <trkpt lat="51.68933" lon="3.74137">
        <ele>42.237</ele>
        <time>2020-07-02T10:12:57Z</time>
      </trkpt>
      <trkpt lat="51.68958" lon="3.74116">
        <ele>41.47</ele>
        <time>2020-07-02T10:13:02Z</time>
      </trkpt>
      <trkpt lat="51.6898" lon="3.74091">
        <ele>39.56</ele>
        <time>2020-07-02T10:13:08Z</time>
      </trkpt>
      <trkpt lat="51.68992" lon="3.7407">
        <ele>41.039</ele>
        <time>2020-07-02T10:13:13Z</time>
      </trkpt>
      <trkpt lat="51.68998" lon="3.74042">
        <ele>42.48</ele>
        <time>2020-07-02T10:13:19Z</time>
      </trkpt>
      <trkpt lat="51.69005" lon="3.74017">
        <ele>43.499</ele>
        <time>2020-07-02T10:13:25Z</time>
      </trkpt>
      <trkpt lat="51.69012" lon="3.73995">
        <ele>43.706</ele>
        <time>2020-07-02T10:13:30Z</time>
      </trkpt>
      <trkpt lat="51.69019" lon="3.73967">
        <ele>43.053</ele>
        <time>2020-07-02T10:13:36Z</time>
      </trkpt>
      <trkpt lat="51.6902" lon="3.73938">
        <ele>43.024</ele>
        <time>2020-07-02T10:13:41Z</time>
      </trkpt>
      <trkpt lat="51.69008" lon="3.73905">
        <ele>43.252</ele>
        <time>2020-07-02T10:13:48Z</time>
      </trkpt>
      <trkpt lat="51.68995" lon="3.73867">
        <ele>44.24</ele>
        <time>2020-07-02T10:13:56Z</time>
      </trkpt>
      <trkpt lat="51.68978" lon="3.73837">
        <ele>43.211</ele>
        <time>2020-07-02T10:14:02Z</time>
      </trkpt>
      <trkpt lat="51.68966" lon="3.73809">
        <ele>42.536</ele>
        <time>2020-07-02T10:14:07Z</time>
      </trkpt>
      <trkpt lat="51.68948" lon="3.73783">
        <ele>44.113</ele>
        <time>2020-07-02T10:14:13Z</time>
      </trkpt>
      <trkpt lat="51.68929" lon="3.73757">
        <ele>47.149</ele>
        <time>2020-07-02T10:14:21Z</time>
      </trkpt>
      <trkpt lat="51.6892" lon="3.73743">
        <ele>48.149</ele>
        <time>2020-07-02T10:14:26Z</time>
      </trkpt>
      <trkpt lat="51.68906" lon="3.73725">
        <ele>49.706</ele>
        <time>2020-07-02T10:14:31Z</time>
      </trkpt>
      <trkpt lat="51.68896" lon="3.73681">
        <ele>49.399</ele>
        <time>2020-07-02T10:14:37Z</time>
      </trkpt>
      <trkpt lat="51.68888" lon="3.73641">
        <ele>50.136</ele>
        <time>2020-07-02T10:14:42Z</time>
      </trkpt>
      <trkpt lat="51.68883" lon="3.73605">
        <ele>50.755</ele>
        <time>2020-07-02T10:14:47Z</time>
      </trkpt>
      <trkpt lat="51.68883" lon="3.73562">
        <ele>52.089</ele>
        <time>2020-07-02T10:14:53Z</time>
      </trkpt>
      <trkpt lat="51.68884" lon="3.73523">
        <ele>53.241</ele>
        <time>2020-07-02T10:14:59Z</time>
      </trkpt>
      <trkpt lat="51.68889" lon="3.73486">
        <ele>52.771</ele>
        <time>2020-07-02T10:15:05Z</time>
      </trkpt>
      <trkpt lat="51.68896" lon="3.73456">
        <ele>52.16</ele>
        <time>2020-07-02T10:15:10Z</time>
      </trkpt>
      <trkpt lat="51.68908" lon="3.73421">
        <ele>52.64</ele>
        <time>2020-07-02T10:15:16Z</time>
      </trkpt>
      <trkpt lat="51.6892" lon="3.73393">
        <ele>52.948</ele>
        <time>2020-07-02T10:15:21Z</time>
      </trkpt>
      <trkpt lat="51.68935" lon="3.73372">
        <ele>52.928</ele>
        <time>2020-07-02T10:15:26Z</time>
      </trkpt>
      <trkpt lat="51.68956" lon="3.73354">
        <ele>53.182</ele>
        <time>2020-07-02T10:15:32Z</time>
      </trkpt>
      <trkpt lat="51.68974" lon="3.73341">
        <ele>53.43</ele>
        <time>2020-07-02T10:15:37Z</time>
      </trkpt>
      <trkpt lat="51.68996" lon="3.73331">
        <ele>52.904</ele>
        <time>2020-07-02T10:15:43Z</time>
      </trkpt>
      <trkpt lat="51.69016" lon="3.73325">
        <ele>52.808</ele>
        <time>2020-07-02T10:15:49Z</time>
      </trkpt>
      <trkpt lat="51.69037" lon="3.73329">
        <ele>53.032</ele>
        <time>2020-07-02T10:15:55Z</time>
      </trkpt>
      <trkpt lat="51.69058" lon="3.73333">
        <ele>53.736</ele>
        <time>2020-07-02T10:16:01Z</time>
      </trkpt>
      <trkpt lat="51.69075" lon="3.73336">
        <ele>53.607</ele>
        <time>2020-07-02T10:16:07Z</time>
      </trkpt>
      <trkpt lat="51.69087" lon="3.73346">
        <ele>53.572</ele>
        <time>2020-07-02T10:16:13Z</time>
      </trkpt>
      <trkpt lat="51.69107" lon="3.73363">
        <ele>53.386</ele>
        <time>2020-07-02T10:16:19Z</time>
      </trkpt>
      <trkpt lat="51.69123" lon="3.73376">
        <ele>53.523</ele>
        <time>2020-07-02T10:16:24Z</time>
      </trkpt>
      <trkpt lat="51.69135" lon="3.73396">
        <ele>53.664</ele>
        <time>2020-07-02T10:16:29Z</time>
      </trkpt>
      <trkpt lat="51.69149" lon="3.73427">
        <ele>54.115</ele>
        <time>2020-07-02T10:16:34Z</time>
      </trkpt>
      <trkpt lat="51.69164" lon="3.73468">
        <ele>54.114</ele>
        <time>2020-07-02T10:16:40Z</time>
      </trkpt>
      <trkpt lat="51.69176" lon="3.73498">
        <ele>54.397</ele>
        <time>2020-07-02T10:16:45Z</time>
      </trkpt>
      <trkpt lat="51.69194" lon="3.73524">
        <ele>54.387</ele>
        <time>2020-07-02T10:16:51Z</time>
      </trkpt>
      <trkpt lat="51.69214" lon="3.7355">
        <ele>52.455</ele>
        <time>2020-07-02T10:16:56Z</time>
      </trkpt>
      <trkpt lat="51.69238" lon="3.73575">
        <ele>51.057</ele>
        <time>2020-07-02T10:17:02Z</time>
      </trkpt>
      <trkpt lat="51.69263" lon="3.73595">
        <ele>52.575</ele>
        <time>2020-07-02T10:17:08Z</time>
      </trkpt>
      <trkpt lat="51.69289" lon="3.73612">
        <ele>53.808</ele>
        <time>2020-07-02T10:17:14Z</time>
      </trkpt>
      <trkpt lat="51.6931" lon="3.73624">
        <ele>54.489</ele>
        <time>2020-07-02T10:17:19Z</time>
      </trkpt>
      <trkpt lat="51.6934" lon="3.73643">
        <ele>53.587</ele>
        <time>2020-07-02T10:17:25Z</time>
      </trkpt>
      <trkpt lat="51.69366" lon="3.7366">
        <ele>52.467</ele>
        <time>2020-07-02T10:17:31Z</time>
      </trkpt>
      <trkpt lat="51.69387" lon="3.73674">
        <ele>51.42</ele>
        <time>2020-07-02T10:17:36Z</time>
      </trkpt>
      <trkpt lat="51.69407" lon="3.7369">
        <ele>49.485</ele>
        <time>2020-07-02T10:17:42Z</time>
      </trkpt>
      <trkpt lat="51.69425" lon="3.73714">
        <ele>48.922</ele>
        <time>2020-07-02T10:17:48Z</time>
      </trkpt>
      <trkpt lat="51.69439" lon="3.73734">
        <ele>48.318</ele>
        <time>2020-07-02T10:17:53Z</time>
      </trkpt>
      <trkpt lat="51.69455" lon="3.73756">
        <ele>49.265</ele>
        <time>2020-07-02T10:17:59Z</time>
      </trkpt>
      <trkpt lat="51.69469" lon="3.73772">
        <ele>50.249</ele>
        <time>2020-07-02T10:18:05Z</time>
      </trkpt>
      <trkpt lat="51.69483" lon="3.73775">
        <ele>51.302</ele>
        <time>2020-07-02T10:18:11Z</time>
      </trkpt>
      <trkpt lat="51.69479" lon="3.73775">
        <ele>50.395</ele>
        <time>2020-07-02T10:18:17Z</time>
      </trkpt>
      <trkpt lat="51.6947" lon="3.73763">
        <ele>50.144</ele>
        <time>2020-07-02T10:18:22Z</time>
      </trkpt>
      <trkpt lat="51.69454" lon="3.73741">
        <ele>50.264</ele>
        <time>2020-07-02T10:18:28Z</time>
      </trkpt>
      <trkpt lat="51.6944" lon="3.73722">
        <ele>50.445</ele>
        <time>2020-07-02T10:18:33Z</time>
      </trkpt>
      <trkpt lat="51.69426" lon="3.73694">
        <ele>50.028</ele>
        <time>2020-07-02T10:18:39Z</time>
      </trkpt>
      <trkpt lat="51.69441" lon="3.73674">
        <ele>48.918</ele>
        <time>2020-07-02T10:18:45Z</time>
      </trkpt>
      <trkpt lat="51.69462" lon="3.73665">
        <ele>48.411</ele>
        <time>2020-07-02T10:18:51Z</time>
      </trkpt>
      <trkpt lat="51.69488" lon="3.73656">
        <ele>49.381</ele>
        <time>2020-07-02T10:18:58Z</time>
      </trkpt>
      <trkpt lat="51.69505" lon="3.7365">
        <ele>50.113</ele>
        <time>2020-07-02T10:19:04Z</time>
      </trkpt>
      <trkpt lat="51.69522" lon="3.73641">
        <ele>49.861</ele>
        <time>2020-07-02T10:19:10Z</time>
      </trkpt>
      <trkpt lat="51.69538" lon="3.73637">
        <ele>49.311</ele>
        <time>2020-07-02T10:19:16Z</time>
      </trkpt>
      <trkpt lat="51.69555" lon="3.73634">
        <ele>49.452</ele>
        <time>2020-07-02T10:19:22Z</time>
      </trkpt>
      <trkpt lat="51.6958" lon="3.73627">
        <ele>47.943</ele>
        <time>2020-07-02T10:19:28Z</time>
      </trkpt>
      <trkpt lat="51.69599" lon="3.73615">
        <ele>48.009</ele>
        <time>2020-07-02T10:19:33Z</time>
      </trkpt>
      <trkpt lat="51.69619" lon="3.73598">
        <ele>48.436</ele>
        <time>2020-07-02T10:19:39Z</time>
      </trkpt>
      <trkpt lat="51.69637" lon="3.73585">
        <ele>48.459</ele>
        <time>2020-07-02T10:19:45Z</time>
      </trkpt>
      <trkpt lat="51.69653" lon="3.73573">
        <ele>48.824</ele>
        <time>2020-07-02T10:19:50Z</time>
      </trkpt>
      <trkpt lat="51.69673" lon="3.73552">
        <ele>50.043</ele>
        <time>2020-07-02T10:19:57Z</time>
      </trkpt>
      <trkpt lat="51.69689" lon="3.73538">
        <ele>50.066</ele>
        <time>2020-07-02T10:20:02Z</time>
      </trkpt>
      <trkpt lat="51.6971" lon="3.73513">
        <ele>49.209</ele>
        <time>2020-07-02T10:20:10Z</time>
      </trkpt>
      <trkpt lat="51.69724" lon="3.73492">
        <ele>50.081</ele>
        <time>2020-07-02T10:20:16Z</time>
      </trkpt>
      <trkpt lat="51.69734" lon="3.73475">
        <ele>50.151</ele>
        <time>2020-07-02T10:20:21Z</time>
      </trkpt>
      <trkpt lat="51.69745" lon="3.73455">
        <ele>51.082</ele>
        <time>2020-07-02T10:20:27Z</time>
      </trkpt>
      <trkpt lat="51.69756" lon="3.73442">
        <ele>52.941</ele>
        <time>2020-07-02T10:20:32Z</time>
      </trkpt>
      <trkpt lat="51.6977" lon="3.73427">
        <ele>54.64</ele>
        <time>2020-07-02T10:20:38Z</time>
      </trkpt>
      <trkpt lat="51.69785" lon="3.7342">
        <ele>56.161</ele>
        <time>2020-07-02T10:20:43Z</time>
      </trkpt>
      <trkpt lat="51.69801" lon="3.7341">
        <ele>58.057</ele>
        <time>2020-07-02T10:20:49Z</time>
      </trkpt>
      <trkpt lat="51.69823" lon="3.73396">
        <ele>59.466</ele>
        <time>2020-07-02T10:20:55Z</time>
      </trkpt>
      <trkpt lat="51.6984" lon="3.73391">
        <ele>62.995</ele>
        <time>2020-07-02T10:21:00Z</time>
      </trkpt>
      <trkpt lat="51.6986" lon="3.73388">
        <ele>65.139</ele>
        <time>2020-07-02T10:21:06Z</time>
      </trkpt>
      <trkpt lat="51.69876" lon="3.7338">
        <ele>65.865</ele>
        <time>2020-07-02T10:21:11Z</time>
      </trkpt>
      <trkpt lat="51.69894" lon="3.73371">
        <ele>66.223</ele>
        <time>2020-07-02T10:21:17Z</time>
      </trkpt>
      <trkpt lat="51.6991" lon="3.73365">
        <ele>66.695</ele>
        <time>2020-07-02T10:21:22Z</time>
      </trkpt>
      <trkpt lat="51.69916" lon="3.73362">
        <ele>67.14</ele>
        <time>2020-07-02T10:21:28Z</time>
      </trkpt>
      <trkpt lat="51.69916" lon="3.73362">
        <ele>67.14</ele>
        <time>2020-07-02T10:21:33Z</time>
      </trkpt>
      <trkpt lat="51.69916" lon="3.73362">
        <ele>67.14</ele>
        <time>2020-07-02T10:21:39Z</time>
      </trkpt>
      <trkpt lat="51.69916" lon="3.73362">
        <ele>67.14</ele>
        <time>2020-07-02T10:21:45Z</time>
      </trkpt>
      <trkpt lat="51.69916" lon="3.73362">
        <ele>67.14</ele>
        <time>2020-07-02T10:21:51Z</time>
      </trkpt>
      <trkpt lat="51.69916" lon="3.73362">
        <ele>67.14</ele>
        <time>2020-07-02T10:21:57Z</time>
      </trkpt>
      <trkpt lat="51.69916" lon="3.73362">
        <ele>67.14</ele>
        <time>2020-07-02T10:22:02Z</time>
      </trkpt>
      <trkpt lat="51.69916" lon="3.73362">
        <ele>67.14</ele>
        <time>2020-07-02T10:22:07Z</time>
      </trkpt>
      <trkpt lat="51.69916" lon="3.73362">
        <ele>67.14</ele>
        <time>2020-07-02T10:22:13Z</time>
      </trkpt>
      <trkpt lat="51.69916" lon="3.73362">
        <ele>67.14</ele>
        <time>2020-07-02T10:22:19Z</time>
      </trkpt>
      <trkpt lat="51.69916" lon="3.73362">
        <ele>67.14</ele>
        <time>2020-07-02T10:22:25Z</time>
      </trkpt>
      <trkpt lat="51.69916" lon="3.73362">
        <ele>67.14</ele>
        <time>2020-07-02T10:22:30Z</time>
      </trkpt>
      <trkpt lat="51.69916" lon="3.73362">
        <ele>67.14</ele>
        <time>2020-07-02T10:22:35Z</time>
      </trkpt>
      <trkpt lat="51.69916" lon="3.73362">
        <ele>67.14</ele>
        <time>2020-07-02T10:22:41Z</time>
      </trkpt>
      <trkpt lat="51.69916" lon="3.73362">
        <ele>67.14</ele>
        <time>2020-07-02T10:22:46Z</time>
      </trkpt>
      <trkpt lat="51.69916" lon="3.73362">
        <ele>67.14</ele>
        <time>2020-07-02T10:22:52Z</time>
      </trkpt>
      <trkpt lat="51.69916" lon="3.73362">
        <ele>67.14</ele>
        <time>2020-07-02T10:22:58Z</time>
      </trkpt>
      <trkpt lat="51.69916" lon="3.73362">
        <ele>67.14</ele>
        <time>2020-07-02T10:23:03Z</time>
      </trkpt>
      <trkpt lat="51.69916" lon="3.73363">
        <ele>66.049</ele>
        <time>2020-07-02T10:23:08Z</time>
      </trkpt>
      <trkpt lat="51.69917" lon="3.73364">
        <ele>65.817</ele>
        <time>2020-07-02T10:23:13Z</time>
      </trkpt>
      <trkpt lat="51.69917" lon="3.73364">
        <ele>65.817</ele>
        <time>2020-07-02T10:23:18Z</time>
      </trkpt>
      <trkpt lat="51.69917" lon="3.73364">
        <ele>65.817</ele>
        <time>2020-07-02T10:23:24Z</time>
      </trkpt>
      <trkpt lat="51.69917" lon="3.73364">
        <ele>65.817</ele>
        <time>2020-07-02T10:23:30Z</time>
      </trkpt>
      <trkpt lat="51.69917" lon="3.73364">
        <ele>65.817</ele>
        <time>2020-07-02T10:23:36Z</time>
      </trkpt>
      <trkpt lat="51.69917" lon="3.73364">
        <ele>65.817</ele>
        <time>2020-07-02T10:23:41Z</time>
      </trkpt>
      <trkpt lat="51.69917" lon="3.73364">
        <ele>65.817</ele>
        <time>2020-07-02T10:23:46Z</time>
      </trkpt>
      <trkpt lat="51.69917" lon="3.73364">
        <ele>65.817</ele>
        <time>2020-07-02T10:23:52Z</time>
      </trkpt>
      <trkpt lat="51.69917" lon="3.73364">
        <ele>65.817</ele>
        <time>2020-07-02T10:23:58Z</time>
      </trkpt>
      <trkpt lat="51.6992" lon="3.73362">
        <ele>65.729</ele>
        <time>2020-07-02T10:24:03Z</time>
      </trkpt>
      <trkpt lat="51.69927" lon="3.7336">
        <ele>65.327</ele>
        <time>2020-07-02T10:24:09Z</time>
      </trkpt>
      <trkpt lat="51.6994" lon="3.73358">
        <ele>66.191</ele>
        <time>2020-07-02T10:24:14Z</time>
      </trkpt>
      <trkpt lat="51.69955" lon="3.73354">
        <ele>66.932</ele>
        <time>2020-07-02T10:24:19Z</time>
      </trkpt>
      <trkpt lat="51.69972" lon="3.73348">
        <ele>66.132</ele>
        <time>2020-07-02T10:24:25Z</time>
      </trkpt>
      <trkpt lat="51.69986" lon="3.73343">
        <ele>65.96</ele>
        <time>2020-07-02T10:24:30Z</time>
      </trkpt>
      <trkpt lat="51.70006" lon="3.73334">
        <ele>65.633</ele>
        <time>2020-07-02T10:24:36Z</time>
      </trkpt>
      <trkpt lat="51.70031" lon="3.73322">
        <ele>65.952</ele>
        <time>2020-07-02T10:24:42Z</time>
      </trkpt>
      <trkpt lat="51.70059" lon="3.73312">
        <ele>67.391</ele>
        <time>2020-07-02T10:24:48Z</time>
      </trkpt>
      <trkpt lat="51.70082" lon="3.73289">
        <ele>69.38</ele>
        <time>2020-07-02T10:24:54Z</time>
      </trkpt>
      <trkpt lat="51.70102" lon="3.73263">
        <ele>70.687</ele>
        <time>2020-07-02T10:25:00Z</time>
      </trkpt>
      <trkpt lat="51.70117" lon="3.7324">
        <ele>71.819</ele>
        <time>2020-07-02T10:25:05Z</time>
      </trkpt>
      <trkpt lat="51.7013" lon="3.73216">
        <ele>73.281</ele>
        <time>2020-07-02T10:25:11Z</time>
      </trkpt>
      <trkpt lat="51.70147" lon="3.73189">
        <ele>72.033</ele>
        <time>2020-07-02T10:25:17Z</time>
      </trkpt>
      <trkpt lat="51.70172" lon="3.73178">
        <ele>69.033</ele>
        <time>2020-07-02T10:25:23Z</time>
      </trkpt>
      <trkpt lat="51.70199" lon="3.73166">
        <ele>65.952</ele>
        <time>2020-07-02T10:25:28Z</time>
      </trkpt>
      <trkpt lat="51.70232" lon="3.7316">
        <ele>62.967</ele>
        <time>2020-07-02T10:25:34Z</time>
      </trkpt>
      <trkpt lat="51.70262" lon="3.73157">
        <ele>61.762</ele>
        <time>2020-07-02T10:25:39Z</time>
      </trkpt>
      <trkpt lat="51.70301" lon="3.73161">
        <ele>59.839</ele>
        <time>2020-07-02T10:25:45Z</time>
      </trkpt>
      <trkpt lat="51.70331" lon="3.73165">
        <ele>59.338</ele>
        <time>2020-07-02T10:25:51Z</time>
      </trkpt>
      <trkpt lat="51.70359" lon="3.73171">
        <ele>58.199</ele>
        <time>2020-07-02T10:25:57Z</time>
      </trkpt>
      <trkpt lat="51.7039" lon="3.73173">
        <ele>57.232</ele>
        <time>2020-07-02T10:26:03Z</time>
      </trkpt>
      <trkpt lat="51.70417" lon="3.73177">
        <ele>56.082</ele>
        <time>2020-07-02T10:26:09Z</time>
      </trkpt>
      <trkpt lat="51.70443" lon="3.73178">
        <ele>55.598</ele>
        <time>2020-07-02T10:26:14Z</time>
      </trkpt>
      <trkpt lat="51.70475" lon="3.73185">
        <ele>56.397</ele>
        <time>2020-07-02T10:26:20Z</time>
      </trkpt>
      <trkpt lat="51.705" lon="3.73191">
        <ele>57.137</ele>
        <time>2020-07-02T10:26:25Z</time>
      </trkpt>
      <trkpt lat="51.70527" lon="3.73206">
        <ele>57.85</ele>
        <time>2020-07-02T10:26:31Z</time>
      </trkpt>
      <trkpt lat="51.70553" lon="3.73218">
        <ele>57.818</ele>
        <time>2020-07-02T10:26:37Z</time>
      </trkpt>
      <trkpt lat="51.70579" lon="3.73218">
        <ele>56.547</ele>
        <time>2020-07-02T10:26:43Z</time>
      </trkpt>
      <trkpt lat="51.70607" lon="3.73209">
        <ele>57.08</ele>
        <time>2020-07-02T10:26:49Z</time>
      </trkpt>
      <trkpt lat="51.70635" lon="3.732">
        <ele>56.567</ele>
        <time>2020-07-02T10:26:55Z</time>
      </trkpt>
      <trkpt lat="51.70655" lon="3.73197">
        <ele>56.026</ele>
        <time>2020-07-02T10:27:00Z</time>
      </trkpt>
      <trkpt lat="51.70677" lon="3.73189">
        <ele>56.234</ele>
        <time>2020-07-02T10:27:06Z</time>
      </trkpt>
      <trkpt lat="51.70693" lon="3.73193">
        <ele>57.201</ele>
        <time>2020-07-02T10:27:12Z</time>
      </trkpt>
      <trkpt lat="51.70709" lon="3.73181">
        <ele>58.469</ele>
        <time>2020-07-02T10:27:17Z</time>
      </trkpt>
      <trkpt lat="51.70719" lon="3.73157">
        <ele>59.643</ele>
        <time>2020-07-02T10:27:22Z</time>
      </trkpt>
      <trkpt lat="51.7073" lon="3.73131">
        <ele>60.868</ele>
        <time>2020-07-02T10:27:28Z</time>
      </trkpt>
      <trkpt lat="51.70739" lon="3.73114">
        <ele>62.073</ele>
        <time>2020-07-02T10:27:34Z</time>
      </trkpt>
      <trkpt lat="51.70752" lon="3.73089">
        <ele>62.315</ele>
        <time>2020-07-02T10:27:39Z</time>
      </trkpt>
      <trkpt lat="51.70768" lon="3.73051">
        <ele>63.373</ele>
        <time>2020-07-02T10:27:45Z</time>
      </trkpt>
      <trkpt lat="51.70785" lon="3.7302">
        <ele>65.506</ele>
        <time>2020-07-02T10:27:51Z</time>
      </trkpt>
      <trkpt lat="51.70796" lon="3.72998">
        <ele>64.756</ele>
        <time>2020-07-02T10:27:56Z</time>
      </trkpt>
      <trkpt lat="51.70809" lon="3.7297">
        <ele>64.823</ele>
        <time>2020-07-02T10:28:02Z</time>
      </trkpt>
      <trkpt lat="51.70823" lon="3.72936">
        <ele>61.904</ele>
        <time>2020-07-02T10:28:08Z</time>
      </trkpt>
      <trkpt lat="51.70837" lon="3.72898">
        <ele>57.74</ele>
        <time>2020-07-02T10:28:14Z</time>
      </trkpt>
      <trkpt lat="51.70848" lon="3.72871">
        <ele>56.132</ele>
        <time>2020-07-02T10:28:19Z</time>
      </trkpt>
      <trkpt lat="51.7086" lon="3.72847">
        <ele>54.562</ele>
        <time>2020-07-02T10:28:24Z</time>
      </trkpt>
      <trkpt lat="51.70876" lon="3.72821">
        <ele>55.019</ele>
        <time>2020-07-02T10:28:30Z</time>
      </trkpt>
      <trkpt lat="51.70887" lon="3.72799">
        <ele>55.241</ele>
        <time>2020-07-02T10:28:35Z</time>
      </trkpt>
      <trkpt lat="51.70898" lon="3.72776">
        <ele>55.855</ele>
        <time>2020-07-02T10:28:40Z</time>
      </trkpt>
      <trkpt lat="51.70912" lon="3.72756">
        <ele>57.211</ele>
        <time>2020-07-02T10:28:45Z</time>
      </trkpt>
      <trkpt lat="51.70931" lon="3.72724">
        <ele>57.847</ele>
        <time>2020-07-02T10:28:51Z</time>
      </trkpt>
      <trkpt lat="51.70951" lon="3.72699">
        <ele>57.767</ele>
        <time>2020-07-02T10:28:56Z</time>
      </trkpt>
      <trkpt lat="51.70974" lon="3.72665">
        <ele>58.093</ele>
        <time>2020-07-02T10:29:02Z</time>
      </trkpt>
      <trkpt lat="51.7099" lon="3.72648">
        <ele>58.392</ele>
        <time>2020-07-02T10:29:07Z</time>
      </trkpt>
      <trkpt lat="51.71007" lon="3.72622">
        <ele>58.52</ele>
        <time>2020-07-02T10:29:13Z</time>
      </trkpt>
      <trkpt lat="51.71019" lon="3.72603">
        <ele>58.569</ele>
        <time>2020-07-02T10:29:18Z</time>
      </trkpt>
      <trkpt lat="51.71034" lon="3.72572">
        <ele>57.961</ele>
        <time>2020-07-02T10:29:24Z</time>
      </trkpt>
      <trkpt lat="51.71048" lon="3.72552">
        <ele>57.985</ele>
        <time>2020-07-02T10:29:29Z</time>
      </trkpt>
      <trkpt lat="51.71061" lon="3.72535">
        <ele>57.306</ele>
        <time>2020-07-02T10:29:34Z</time>
      </trkpt>
      <trkpt lat="51.71074" lon="3.72509">
        <ele>57.847</ele>
        <time>2020-07-02T10:29:40Z</time>
      </trkpt>
      <trkpt lat="51.71093" lon="3.72477">
        <ele>57.354</ele>
        <time>2020-07-02T10:29:45Z</time>
      </trkpt>
      <trkpt lat="51.71117" lon="3.72451">
        <ele>58.97</ele>
        <time>2020-07-02T10:29:51Z</time>
      </trkpt>
      <trkpt lat="51.71135" lon="3.7243">
        <ele>59.045</ele>
        <time>2020-07-02T10:29:56Z</time>
      </trkpt>
      <trkpt lat="51.71157" lon="3.72406">
        <ele>57.454</ele>
        <time>2020-07-02T10:30:02Z</time>
      </trkpt>
      <trkpt lat="51.71177" lon="3.72385">
        <ele>55.947</ele>
        <time>2020-07-02T10:30:07Z</time>
      </trkpt>
      <trkpt lat="51.712" lon="3.7236">
        <ele>54.072</ele>
        <time>2020-07-02T10:30:13Z</time>
      </trkpt>
      <trkpt lat="51.71219" lon="3.72342">
        <ele>53.185</ele>
        <time>2020-07-02T10:30:19Z</time>
      </trkpt>
      <trkpt lat="51.71234" lon="3.72326">
        <ele>52.579</ele>
        <time>2020-07-02T10:30:24Z</time>
      </trkpt>
      <trkpt lat="51.71252" lon="3.723">
        <ele>52.644</ele>
        <time>2020-07-02T10:30:30Z</time>
      </trkpt>
      <trkpt lat="51.71269" lon="3.72304">
        <ele>53.327</ele>
        <time>2020-07-02T10:30:35Z</time>
      </trkpt>
      <trkpt lat="51.71292" lon="3.72328">
        <ele>52.618</ele>
        <time>2020-07-02T10:30:41Z</time>
      </trkpt>
      <trkpt lat="51.71316" lon="3.72334">
        <ele>52.758</ele>
        <time>2020-07-02T10:30:46Z</time>
      </trkpt>
      <trkpt lat="51.71342" lon="3.7232">
        <ele>51.829</ele>
        <time>2020-07-02T10:30:52Z</time>
      </trkpt>
      <trkpt lat="51.71365" lon="3.72304">
        <ele>50.43</ele>
        <time>2020-07-02T10:30:58Z</time>
      </trkpt>
      <trkpt lat="51.71388" lon="3.72289">
        <ele>50.583</ele>
        <time>2020-07-02T10:31:04Z</time>
      </trkpt>
      <trkpt lat="51.7141" lon="3.72275">
        <ele>50.95</ele>
        <time>2020-07-02T10:31:10Z</time>
      </trkpt>
      <trkpt lat="51.71428" lon="3.72262">
        <ele>51.967</ele>
        <time>2020-07-02T10:31:15Z</time>
      </trkpt>
      <trkpt lat="51.71808" lon="3.72793">
        <ele>50.17</ele>
        <time>2020-07-02T10:33:57Z</time>
      </trkpt>
      <trkpt lat="51.71792" lon="3.72803">
        <ele>56.555</ele>
        <time>2020-07-02T10:34:02Z</time>
      </trkpt>
      <trkpt lat="51.7178" lon="3.72815">
        <ele>56.377</ele>
        <time>2020-07-02T10:34:08Z</time>
      </trkpt>
      <trkpt lat="51.71776" lon="3.72825">
        <ele>56.377</ele>
        <time>2020-07-02T10:34:13Z</time>
      </trkpt>
      <trkpt lat="51.71786" lon="3.72818">
        <ele>55.554</ele>
        <time>2020-07-02T10:34:19Z</time>
      </trkpt>
      <trkpt lat="51.71796" lon="3.7281">
        <ele>55.846</ele>
        <time>2020-07-02T10:34:24Z</time>
      </trkpt>
      <trkpt lat="51.71813" lon="3.72797">
        <ele>54.376</ele>
        <time>2020-07-02T10:34:30Z</time>
      </trkpt>
      <trkpt lat="51.71832" lon="3.72779">
        <ele>53.765</ele>
        <time>2020-07-02T10:34:36Z</time>
      </trkpt>
      <trkpt lat="51.71848" lon="3.72764">
        <ele>53.53</ele>
        <time>2020-07-02T10:34:41Z</time>
      </trkpt>
      <trkpt lat="51.71866" lon="3.72754">
        <ele>53.879</ele>
        <time>2020-07-02T10:34:47Z</time>
      </trkpt>
      <trkpt lat="51.71884" lon="3.72744">
        <ele>53.975</ele>
        <time>2020-07-02T10:34:53Z</time>
      </trkpt>
      <trkpt lat="51.71899" lon="3.72743">
        <ele>54.462</ele>
        <time>2020-07-02T10:34:58Z</time>
      </trkpt>
      <trkpt lat="51.7192" lon="3.72753">
        <ele>54.388</ele>
        <time>2020-07-02T10:35:04Z</time>
      </trkpt>
      <trkpt lat="51.71939" lon="3.72743">
        <ele>53.878</ele>
        <time>2020-07-02T10:35:09Z</time>
      </trkpt>
      <trkpt lat="51.71957" lon="3.72736">
        <ele>53.602</ele>
        <time>2020-07-02T10:35:14Z</time>
      </trkpt>
      <trkpt lat="51.7198" lon="3.72731">
        <ele>53.938</ele>
        <time>2020-07-02T10:35:20Z</time>
      </trkpt>
      <trkpt lat="51.71999" lon="3.72725">
        <ele>54.371</ele>
        <time>2020-07-02T10:35:25Z</time>
      </trkpt>
      <trkpt lat="51.72021" lon="3.72697">
        <ele>54.693</ele>
        <time>2020-07-02T10:35:31Z</time>
      </trkpt>
      <trkpt lat="51.72036" lon="3.72673">
        <ele>55.081</ele>
        <time>2020-07-02T10:35:37Z</time>
      </trkpt>
      <trkpt lat="51.72055" lon="3.72649">
        <ele>54.421</ele>
        <time>2020-07-02T10:35:43Z</time>
      </trkpt>
      <trkpt lat="51.72076" lon="3.72638">
        <ele>54.064</ele>
        <time>2020-07-02T10:35:48Z</time>
      </trkpt>
      <trkpt lat="51.72104" lon="3.72642">
        <ele>53.911</ele>
        <time>2020-07-02T10:35:54Z</time>
      </trkpt>
      <trkpt lat="51.72133" lon="3.72623">
        <ele>51.864</ele>
        <time>2020-07-02T10:36:00Z</time>
      </trkpt>
      <trkpt lat="51.72156" lon="3.72608">
        <ele>50.866</ele>
        <time>2020-07-02T10:36:05Z</time>
      </trkpt>
      <trkpt lat="51.7218" lon="3.72591">
        <ele>50.368</ele>
        <time>2020-07-02T10:36:11Z</time>
      </trkpt>
      <trkpt lat="51.72203" lon="3.72574">
        <ele>50.089</ele>
        <time>2020-07-02T10:36:17Z</time>
      </trkpt>
      <trkpt lat="51.72223" lon="3.7256">
        <ele>49.496</ele>
        <time>2020-07-02T10:36:22Z</time>
      </trkpt>
      <trkpt lat="51.72246" lon="3.72542">
        <ele>48.935</ele>
        <time>2020-07-02T10:36:28Z</time>
      </trkpt>
      <trkpt lat="51.7226" lon="3.72533">
        <ele>49.878</ele>
        <time>2020-07-02T10:36:33Z</time>
      </trkpt>
      <trkpt lat="51.72274" lon="3.72523">
        <ele>50.507</ele>
        <time>2020-07-02T10:36:38Z</time>
      </trkpt>
      <trkpt lat="51.72297" lon="3.72508">
        <ele>50.337</ele>
        <time>2020-07-02T10:36:44Z</time>
      </trkpt>
      <trkpt lat="51.72319" lon="3.72492">
        <ele>49.792</ele>
        <time>2020-07-02T10:36:50Z</time>
      </trkpt>
      <trkpt lat="51.72335" lon="3.72479">
        <ele>49.435</ele>
        <time>2020-07-02T10:36:55Z</time>
      </trkpt>
      <trkpt lat="51.72356" lon="3.72464">
        <ele>49.093</ele>
        <time>2020-07-02T10:37:01Z</time>
      </trkpt>
      <trkpt lat="51.72378" lon="3.72449">
        <ele>48.944</ele>
        <time>2020-07-02T10:37:07Z</time>
      </trkpt>
      <trkpt lat="51.72395" lon="3.72437">
        <ele>49.698</ele>
        <time>2020-07-02T10:37:12Z</time>
      </trkpt>
      <trkpt lat="51.72411" lon="3.72426">
        <ele>50.233</ele>
        <time>2020-07-02T10:37:18Z</time>
      </trkpt>
      <trkpt lat="51.72429" lon="3.72412">
        <ele>49.811</ele>
        <time>2020-07-02T10:37:24Z</time>
      </trkpt>
      <trkpt lat="51.72444" lon="3.72401">
        <ele>50.335</ele>
        <time>2020-07-02T10:37:29Z</time>
      </trkpt>
      <trkpt lat="51.72456" lon="3.72392">
        <ele>51.01</ele>
        <time>2020-07-02T10:37:34Z</time>
      </trkpt>
      <trkpt lat="51.72474" lon="3.72379">
        <ele>50.471</ele>
        <time>2020-07-02T10:37:40Z</time>
      </trkpt>
      <trkpt lat="51.72498" lon="3.72361">
        <ele>50.453</ele>
        <time>2020-07-02T10:37:45Z</time>
      </trkpt>
      <trkpt lat="51.72524" lon="3.72343">
        <ele>50.276</ele>
        <time>2020-07-02T10:37:51Z</time>
      </trkpt>
      <trkpt lat="51.72547" lon="3.72326">
        <ele>49.442</ele>
        <time>2020-07-02T10:37:57Z</time>
      </trkpt>
      <trkpt lat="51.72564" lon="3.72316">
        <ele>50.639</ele>
        <time>2020-07-02T10:38:03Z</time>
      </trkpt>
      <trkpt lat="51.72573" lon="3.72311">
        <ele>52.882</ele>
        <time>2020-07-02T10:38:08Z</time>
      </trkpt>
      <trkpt lat="51.72584" lon="3.72304">
        <ele>54.196</ele>
        <time>2020-07-02T10:38:14Z</time>
      </trkpt>
      <trkpt lat="51.72593" lon="3.72298">
        <ele>55.76</ele>
        <time>2020-07-02T10:38:20Z</time>
      </trkpt>
      <trkpt lat="51.72601" lon="3.72293">
        <ele>57.09</ele>
        <time>2020-07-02T10:38:26Z</time>
      </trkpt>
      <trkpt lat="51.72608" lon="3.72287">
        <ele>57.048</ele>
        <time>2020-07-02T10:38:32Z</time>
      </trkpt>
      <trkpt lat="51.72616" lon="3.7228">
        <ele>57.176</ele>
        <time>2020-07-02T10:38:37Z</time>
      </trkpt>
      <trkpt lat="51.72627" lon="3.72271">
        <ele>57.566</ele>
        <time>2020-07-02T10:38:43Z</time>
      </trkpt>
      <trkpt lat="51.72638" lon="3.72263">
        <ele>58.037</ele>
        <time>2020-07-02T10:38:48Z</time>
      </trkpt>
      <trkpt lat="51.72654" lon="3.7225">
        <ele>58.205</ele>
        <time>2020-07-02T10:38:54Z</time>
      </trkpt>
      <trkpt lat="51.72682" lon="3.72231">
        <ele>57.008</ele>
        <time>2020-07-02T10:39:00Z</time>
      </trkpt>
      <trkpt lat="51.72716" lon="3.72207">
        <ele>55.581</ele>
        <time>2020-07-02T10:39:05Z</time>
      </trkpt>
      <trkpt lat="51.72749" lon="3.72184">
        <ele>54.495</ele>
        <time>2020-07-02T10:39:10Z</time>
      </trkpt>
      <trkpt lat="51.72767" lon="3.72173">
        <ele>53.362</ele>
        <time>2020-07-02T10:39:16Z</time>
      </trkpt>
      <trkpt lat="51.72767" lon="3.72172">
        <ele>53.332</ele>
        <time>2020-07-02T10:39:22Z</time>
      </trkpt>
      <trkpt lat="51.72767" lon="3.72172">
        <ele>53.332</ele>
        <time>2020-07-02T10:39:28Z</time>
      </trkpt>
      <trkpt lat="51.72769" lon="3.72171">
        <ele>53.924</ele>
        <time>2020-07-02T10:39:33Z</time>
      </trkpt>
      <trkpt lat="51.72772" lon="3.72162">
        <ele>55.767</ele>
        <time>2020-07-02T10:39:39Z</time>
      </trkpt>
      <trkpt lat="51.72774" lon="3.72154">
        <ele>56.638</ele>
        <time>2020-07-02T10:39:44Z</time>
      </trkpt>
      <trkpt lat="51.72776" lon="3.72147">
        <ele>56.925</ele>
        <time>2020-07-02T10:39:50Z</time>
      </trkpt>
      <trkpt lat="51.72777" lon="3.72142">
        <ele>57.328</ele>
        <time>2020-07-02T10:39:55Z</time>
      </trkpt>
      <trkpt lat="51.72779" lon="3.72134">
        <ele>57.598</ele>
        <time>2020-07-02T10:40:01Z</time>
      </trkpt>
      <trkpt lat="51.72781" lon="3.72126">
        <ele>58.614</ele>
        <time>2020-07-02T10:40:07Z</time>
      </trkpt>
      <trkpt lat="51.72783" lon="3.72118">
        <ele>58.418</ele>
        <time>2020-07-02T10:40:13Z</time>
      </trkpt>
      <trkpt lat="51.72783" lon="3.72117">
        <ele>58.243</ele>
        <time>2020-07-02T10:40:19Z</time>
      </trkpt>
      <trkpt lat="51.72783" lon="3.72117">
        <ele>58.312</ele>
        <time>2020-07-02T10:40:25Z</time>
      </trkpt>
      <trkpt lat="51.72785" lon="3.72104">
        <ele>58.677</ele>
        <time>2020-07-02T10:40:31Z</time>
      </trkpt>
      <trkpt lat="51.72791" lon="3.72073">
        <ele>58.943</ele>
        <time>2020-07-02T10:40:37Z</time>
      </trkpt>
      <trkpt lat="51.72794" lon="3.72037">
        <ele>59.71</ele>
        <time>2020-07-02T10:40:43Z</time>
      </trkpt>
      <trkpt lat="51.72795" lon="3.72012">
        <ele>60.39</ele>
        <time>2020-07-02T10:40:49Z</time>
      </trkpt>
      <trkpt lat="51.72795" lon="3.71999">
        <ele>60.649</ele>
        <time>2020-07-02T10:40:55Z</time>
      </trkpt>
      <trkpt lat="51.72796" lon="3.71989">
        <ele>61.463</ele>
        <time>2020-07-02T10:41:00Z</time>
      </trkpt>
      <trkpt lat="51.72797" lon="3.71976">
        <ele>62.803</ele>
        <time>2020-07-02T10:41:06Z</time>
      </trkpt>
      <trkpt lat="51.72799" lon="3.71965">
        <ele>63.859</ele>
        <time>2020-07-02T10:41:11Z</time>
      </trkpt>
      <trkpt lat="51.72803" lon="3.71953">
        <ele>65.529</ele>
        <time>2020-07-02T10:41:17Z</time>
      </trkpt>
      <trkpt lat="51.72806" lon="3.71944">
        <ele>66.504</ele>
        <time>2020-07-02T10:41:22Z</time>
      </trkpt>
      <trkpt lat="51.7281" lon="3.71933">
        <ele>66.458</ele>
        <time>2020-07-02T10:41:27Z</time>
      </trkpt>
      <trkpt lat="51.72819" lon="3.71922">
        <ele>66.173</ele>
        <time>2020-07-02T10:41:33Z</time>
      </trkpt>
      <trkpt lat="51.72834" lon="3.7191">
        <ele>65.022</ele>
        <time>2020-07-02T10:41:39Z</time>
      </trkpt>
      <trkpt lat="51.72852" lon="3.71894">
        <ele>62.846</ele>
        <time>2020-07-02T10:41:44Z</time>
      </trkpt>
      <trkpt lat="51.72883" lon="3.71881">
        <ele>59.692</ele>
        <time>2020-07-02T10:41:49Z</time>
      </trkpt>
      <trkpt lat="51.72903" lon="3.71883">
        <ele>57.672</ele>
        <time>2020-07-02T10:41:55Z</time>
      </trkpt>
      <trkpt lat="51.72918" lon="3.71871">
        <ele>56.31</ele>
        <time>2020-07-02T10:42:01Z</time>
      </trkpt>
      <trkpt lat="51.72944" lon="3.71844">
        <ele>51.768</ele>
        <time>2020-07-02T10:42:07Z</time>
      </trkpt>
      <trkpt lat="51.72966" lon="3.71828">
        <ele>50.107</ele>
        <time>2020-07-02T10:42:12Z</time>
      </trkpt>
      <trkpt lat="51.72982" lon="3.7184">
        <ele>48.594</ele>
        <time>2020-07-02T10:42:18Z</time>
      </trkpt>
      <trkpt lat="51.72995" lon="3.7187">
        <ele>48.128</ele>
        <time>2020-07-02T10:42:24Z</time>
      </trkpt>
      <trkpt lat="51.73006" lon="3.71904">
        <ele>48.285</ele>
        <time>2020-07-02T10:42:30Z</time>
      </trkpt>
      <trkpt lat="51.73013" lon="3.71929">
        <ele>48.566</ele>
        <time>2020-07-02T10:42:35Z</time>
      </trkpt>
      <trkpt lat="51.73022" lon="3.71956">
        <ele>48.8</ele>
        <time>2020-07-02T10:42:40Z</time>
      </trkpt>
      <trkpt lat="51.73032" lon="3.71989">
        <ele>49.383</ele>
        <time>2020-07-02T10:42:46Z</time>
      </trkpt>
      <trkpt lat="51.73041" lon="3.72023">
        <ele>49.713</ele>
        <time>2020-07-02T10:42:52Z</time>
      </trkpt>
      <trkpt lat="51.7305" lon="3.72055">
        <ele>49.924</ele>
        <time>2020-07-02T10:42:57Z</time>
      </trkpt>
      <trkpt lat="51.73062" lon="3.72098">
        <ele>50.38</ele>
        <time>2020-07-02T10:43:03Z</time>
      </trkpt>
      <trkpt lat="51.73074" lon="3.72133">
        <ele>50.195</ele>
        <time>2020-07-02T10:43:08Z</time>
      </trkpt>
      <trkpt lat="51.73089" lon="3.72178">
        <ele>50.149</ele>
        <time>2020-07-02T10:43:14Z</time>
      </trkpt>
      <trkpt lat="51.73104" lon="3.72221">
        <ele>50.488</ele>
        <time>2020-07-02T10:43:20Z</time>
      </trkpt>
      <trkpt lat="51.73115" lon="3.72256">
        <ele>50.484</ele>
        <time>2020-07-02T10:43:25Z</time>
      </trkpt>
      <trkpt lat="51.73424" lon="3.74243">
        <ele>51.051</ele>
        <time>2020-07-02T10:48:25Z</time>
      </trkpt>
      <trkpt lat="51.73434" lon="3.74272">
        <ele>43.599</ele>
        <time>2020-07-02T10:48:30Z</time>
      </trkpt>
      <trkpt lat="51.73432" lon="3.74306">
        <ele>46.078</ele>
        <time>2020-07-02T10:48:36Z</time>
      </trkpt>
      <trkpt lat="51.73434" lon="3.74338">
        <ele>45.947</ele>
        <time>2020-07-02T10:48:42Z</time>
      </trkpt>
      <trkpt lat="51.73443" lon="3.74367">
        <ele>47.147</ele>
        <time>2020-07-02T10:48:47Z</time>
      </trkpt>
      <trkpt lat="51.73453" lon="3.744">
        <ele>47.992</ele>
        <time>2020-07-02T10:48:53Z</time>
      </trkpt>
      <trkpt lat="51.73462" lon="3.74436">
        <ele>48.703</ele>
        <time>2020-07-02T10:48:59Z</time>
      </trkpt>
      <trkpt lat="51.73472" lon="3.74471">
        <ele>49.354</ele>
        <time>2020-07-02T10:49:05Z</time>
      </trkpt>
      <trkpt lat="51.73482" lon="3.74506">
        <ele>49.334</ele>
        <time>2020-07-02T10:49:10Z</time>
      </trkpt>
      <trkpt lat="51.73494" lon="3.74536">
        <ele>48.938</ele>
        <time>2020-07-02T10:49:17Z</time>
      </trkpt>
      <trkpt lat="51.73517" lon="3.74528">
        <ele>49.218</ele>
        <time>2020-07-02T10:49:22Z</time>
      </trkpt>
      <trkpt lat="51.73538" lon="3.74516">
        <ele>49.393</ele>
        <time>2020-07-02T10:49:27Z</time>
      </trkpt>
      <trkpt lat="51.73554" lon="3.74552">
        <ele>49.303</ele>
        <time>2020-07-02T10:49:33Z</time>
      </trkpt>
      <trkpt lat="51.73569" lon="3.74585">
        <ele>48.905</ele>
        <time>2020-07-02T10:49:39Z</time>
      </trkpt>
      <trkpt lat="51.73582" lon="3.74623">
        <ele>47.944</ele>
        <time>2020-07-02T10:49:45Z</time>
      </trkpt>
      <trkpt lat="51.73595" lon="3.74673">
        <ele>47.348</ele>
        <time>2020-07-02T10:49:52Z</time>
      </trkpt>
      <trkpt lat="51.73599" lon="3.74716">
        <ele>46.98</ele>
        <time>2020-07-02T10:49:58Z</time>
      </trkpt>
      <trkpt lat="51.73606" lon="3.74755">
        <ele>46.823</ele>
        <time>2020-07-02T10:50:03Z</time>
      </trkpt>
      <trkpt lat="51.73618" lon="3.74793">
        <ele>46.516</ele>
        <time>2020-07-02T10:50:08Z</time>
      </trkpt>
      <trkpt lat="51.73622" lon="3.74834">
        <ele>46.162</ele>
        <time>2020-07-02T10:50:13Z</time>
      </trkpt>
      <trkpt lat="51.73621" lon="3.74875">
        <ele>46.12</ele>
        <time>2020-07-02T10:50:18Z</time>
      </trkpt>
      <trkpt lat="51.73631" lon="3.74911">
        <ele>45.679</ele>
        <time>2020-07-02T10:50:23Z</time>
      </trkpt>
      <trkpt lat="51.73648" lon="3.74951">
        <ele>45.745</ele>
        <time>2020-07-02T10:50:29Z</time>
      </trkpt>
      <trkpt lat="51.73663" lon="3.74985">
        <ele>45.576</ele>
        <time>2020-07-02T10:50:34Z</time>
      </trkpt>
      <trkpt lat="51.73678" lon="3.75026">
        <ele>45.465</ele>
        <time>2020-07-02T10:50:40Z</time>
      </trkpt>
      <trkpt lat="51.73693" lon="3.75057">
        <ele>45.035</ele>
        <time>2020-07-02T10:50:45Z</time>
      </trkpt>
      <trkpt lat="51.73708" lon="3.75097">
        <ele>45.842</ele>
        <time>2020-07-02T10:50:51Z</time>
      </trkpt>
      <trkpt lat="51.73714" lon="3.75134">
        <ele>46.59</ele>
        <time>2020-07-02T10:50:56Z</time>
      </trkpt>
      <trkpt lat="51.73706" lon="3.75166">
        <ele>47.399</ele>
        <time>2020-07-02T10:51:01Z</time>
      </trkpt>
      <trkpt lat="51.73696" lon="3.7519">
        <ele>47.67</ele>
        <time>2020-07-02T10:51:07Z</time>
      </trkpt>
      <trkpt lat="51.73695" lon="3.75217">
        <ele>48.585</ele>
        <time>2020-07-02T10:51:14Z</time>
      </trkpt>
      <trkpt lat="51.73702" lon="3.75247">
        <ele>49.263</ele>
        <time>2020-07-02T10:51:19Z</time>
      </trkpt>
      <trkpt lat="51.7371" lon="3.75277">
        <ele>49.08</ele>
        <time>2020-07-02T10:51:24Z</time>
      </trkpt>
      <trkpt lat="51.73721" lon="3.75302">
        <ele>49.188</ele>
        <time>2020-07-02T10:51:29Z</time>
      </trkpt>
      <trkpt lat="51.73729" lon="3.75325">
        <ele>49.225</ele>
        <time>2020-07-02T10:51:35Z</time>
      </trkpt>
      <trkpt lat="51.73742" lon="3.75371">
        <ele>48.356</ele>
        <time>2020-07-02T10:51:41Z</time>
      </trkpt>
      <trkpt lat="51.73752" lon="3.75415">
        <ele>47.55</ele>
        <time>2020-07-02T10:51:46Z</time>
      </trkpt>
      <trkpt lat="51.73762" lon="3.75459">
        <ele>47.955</ele>
        <time>2020-07-02T10:51:52Z</time>
      </trkpt>
      <trkpt lat="51.73769" lon="3.75491">
        <ele>48.593</ele>
        <time>2020-07-02T10:51:57Z</time>
      </trkpt>
      <trkpt lat="51.73779" lon="3.75529">
        <ele>48.563</ele>
        <time>2020-07-02T10:52:03Z</time>
      </trkpt>
      <trkpt lat="51.7379" lon="3.75565">
        <ele>49.167</ele>
        <time>2020-07-02T10:52:09Z</time>
      </trkpt>
      <trkpt lat="51.73797" lon="3.75587">
        <ele>49.839</ele>
        <time>2020-07-02T10:52:14Z</time>
      </trkpt>
      <trkpt lat="51.73806" lon="3.75618">
        <ele>51.067</ele>
        <time>2020-07-02T10:52:20Z</time>
      </trkpt>
      <trkpt lat="51.73816" lon="3.75659">
        <ele>50.541</ele>
        <time>2020-07-02T10:52:26Z</time>
      </trkpt>
      <trkpt lat="51.73827" lon="3.75693">
        <ele>50.092</ele>
        <time>2020-07-02T10:52:31Z</time>
      </trkpt>
      <trkpt lat="51.73837" lon="3.75738">
        <ele>50.291</ele>
        <time>2020-07-02T10:52:37Z</time>
      </trkpt>
      <trkpt lat="51.73845" lon="3.75779">
        <ele>50.004</ele>
        <time>2020-07-02T10:52:43Z</time>
      </trkpt>
      <trkpt lat="51.73853" lon="3.75817">
        <ele>49.672</ele>
        <time>2020-07-02T10:52:48Z</time>
      </trkpt>
      <trkpt lat="51.73861" lon="3.75868">
        <ele>49.69</ele>
        <time>2020-07-02T10:52:54Z</time>
      </trkpt>
      <trkpt lat="51.73869" lon="3.75921">
        <ele>49.429</ele>
        <time>2020-07-02T10:53:00Z</time>
      </trkpt>
      <trkpt lat="51.73873" lon="3.75955">
        <ele>50.289</ele>
        <time>2020-07-02T10:53:05Z</time>
      </trkpt>
      <trkpt lat="51.73875" lon="3.75972">
        <ele>50.626</ele>
        <time>2020-07-02T10:53:10Z</time>
      </trkpt>
      <trkpt lat="51.73876" lon="3.75997">
        <ele>50.356</ele>
        <time>2020-07-02T10:53:15Z</time>
      </trkpt>
      <trkpt lat="51.73877" lon="3.76021">
        <ele>51.062</ele>
        <time>2020-07-02T10:53:20Z</time>
      </trkpt>
      <trkpt lat="51.73886" lon="3.76066">
        <ele>50.068</ele>
        <time>2020-07-02T10:53:26Z</time>
      </trkpt>
      <trkpt lat="51.73899" lon="3.76121">
        <ele>48.969</ele>
        <time>2020-07-02T10:53:32Z</time>
      </trkpt>
      <trkpt lat="51.73911" lon="3.76171">
        <ele>49.054</ele>
        <time>2020-07-02T10:53:38Z</time>
      </trkpt>
      <trkpt lat="51.73921" lon="3.7621">
        <ele>49.558</ele>
        <time>2020-07-02T10:53:43Z</time>
      </trkpt>
      <trkpt lat="51.73934" lon="3.76252">
        <ele>49.562</ele>
        <time>2020-07-02T10:53:49Z</time>
      </trkpt>
      <trkpt lat="51.73941" lon="3.76285">
        <ele>49.442</ele>
        <time>2020-07-02T10:53:54Z</time>
      </trkpt>
      <trkpt lat="51.73951" lon="3.76332">
        <ele>49.256</ele>
        <time>2020-07-02T10:54:00Z</time>
      </trkpt>
      <trkpt lat="51.7396" lon="3.76371">
        <ele>49.801</ele>
        <time>2020-07-02T10:54:06Z</time>
      </trkpt>
      <trkpt lat="51.73967" lon="3.76411">
        <ele>50.486</ele>
        <time>2020-07-02T10:54:12Z</time>
      </trkpt>
      <trkpt lat="51.73974" lon="3.76442">
        <ele>50.174</ele>
        <time>2020-07-02T10:54:18Z</time>
      </trkpt>
      <trkpt lat="51.73982" lon="3.76474">
        <ele>50.862</ele>
        <time>2020-07-02T10:54:23Z</time>
      </trkpt>
      <trkpt lat="51.73994" lon="3.76503">
        <ele>51.792</ele>
        <time>2020-07-02T10:54:29Z</time>
      </trkpt>
      <trkpt lat="51.74006" lon="3.76523">
        <ele>53.028</ele>
        <time>2020-07-02T10:54:35Z</time>
      </trkpt>
      <trkpt lat="51.74006" lon="3.7654">
        <ele>54.003</ele>
        <time>2020-07-02T10:54:40Z</time>
      </trkpt>
      <trkpt lat="51.73992" lon="3.76564">
        <ele>54.468</ele>
        <time>2020-07-02T10:54:45Z</time>
      </trkpt>
      <trkpt lat="51.7397" lon="3.76587">
        <ele>54.213</ele>
        <time>2020-07-02T10:54:51Z</time>
      </trkpt>
      <trkpt lat="51.73956" lon="3.76604">
        <ele>54.096</ele>
        <time>2020-07-02T10:54:56Z</time>
      </trkpt>
      <trkpt lat="51.73944" lon="3.7663">
        <ele>53.583</ele>
        <time>2020-07-02T10:55:02Z</time>
      </trkpt>
      <trkpt lat="51.73944" lon="3.76668">
        <ele>52.02</ele>
        <time>2020-07-02T10:55:08Z</time>
      </trkpt>
      <trkpt lat="51.73949" lon="3.76711">
        <ele>51.546</ele>
        <time>2020-07-02T10:55:14Z</time>
      </trkpt>
      <trkpt lat="51.73955" lon="3.76743">
        <ele>50.806</ele>
        <time>2020-07-02T10:55:19Z</time>
      </trkpt>
      <trkpt lat="51.73963" lon="3.76782">
        <ele>50.125</ele>
        <time>2020-07-02T10:55:24Z</time>
      </trkpt>
      <trkpt lat="51.73971" lon="3.76827">
        <ele>51.098</ele>
        <time>2020-07-02T10:55:29Z</time>
      </trkpt>
      <trkpt lat="51.7398" lon="3.76874">
        <ele>52.244</ele>
        <time>2020-07-02T10:55:35Z</time>
      </trkpt>
      <trkpt lat="51.73986" lon="3.76907">
        <ele>52.478</ele>
        <time>2020-07-02T10:55:41Z</time>
      </trkpt>
      <trkpt lat="51.73996" lon="3.76957">
        <ele>52.863</ele>
        <time>2020-07-02T10:55:47Z</time>
      </trkpt>
      <trkpt lat="51.74004" lon="3.76995">
        <ele>54.054</ele>
        <time>2020-07-02T10:55:52Z</time>
      </trkpt>
      <trkpt lat="51.74011" lon="3.7704">
        <ele>53.95</ele>
        <time>2020-07-02T10:55:58Z</time>
      </trkpt>
      <trkpt lat="51.7402" lon="3.77082">
        <ele>53.429</ele>
        <time>2020-07-02T10:56:03Z</time>
      </trkpt>
      <trkpt lat="51.74028" lon="3.77125">
        <ele>53.28</ele>
        <time>2020-07-02T10:56:08Z</time>
      </trkpt>
      <trkpt lat="51.74036" lon="3.77173">
        <ele>53.216</ele>
        <time>2020-07-02T10:56:14Z</time>
      </trkpt>
      <trkpt lat="51.7405" lon="3.77213">
        <ele>53.677</ele>
        <time>2020-07-02T10:56:20Z</time>
      </trkpt>
      <trkpt lat="51.74054" lon="3.77246">
        <ele>52.987</ele>
        <time>2020-07-02T10:56:25Z</time>
      </trkpt>
      <trkpt lat="51.74056" lon="3.77284">
        <ele>52.907</ele>
        <time>2020-07-02T10:56:30Z</time>
      </trkpt>
      <trkpt lat="51.74059" lon="3.77334">
        <ele>51.686</ele>
        <time>2020-07-02T10:56:36Z</time>
      </trkpt>
      <trkpt lat="51.74062" lon="3.77385">
        <ele>51.869</ele>
        <time>2020-07-02T10:56:42Z</time>
      </trkpt>
      <trkpt lat="51.74065" lon="3.7743">
        <ele>51.337</ele>
        <time>2020-07-02T10:56:48Z</time>
      </trkpt>
      <trkpt lat="51.74066" lon="3.77469">
        <ele>50.395</ele>
        <time>2020-07-02T10:56:53Z</time>
      </trkpt>
      <trkpt lat="51.74069" lon="3.77496">
        <ele>49.813</ele>
        <time>2020-07-02T10:56:58Z</time>
      </trkpt>
      <trkpt lat="51.74077" lon="3.77499">
        <ele>50.897</ele>
        <time>2020-07-02T10:57:04Z</time>
      </trkpt>
      <trkpt lat="51.74077" lon="3.775">
        <ele>50.901</ele>
        <time>2020-07-02T10:57:10Z</time>
      </trkpt>
      <trkpt lat="51.74077" lon="3.775">
        <ele>50.901</ele>
        <time>2020-07-02T10:57:15Z</time>
      </trkpt>
      <trkpt lat="51.74079" lon="3.77498">
        <ele>50.588</ele>
        <time>2020-07-02T10:57:20Z</time>
      </trkpt>
      <trkpt lat="51.74085" lon="3.77494">
        <ele>50.343</ele>
        <time>2020-07-02T10:57:25Z</time>
      </trkpt>
      <trkpt lat="51.74091" lon="3.77497">
        <ele>50.406</ele>
        <time>2020-07-02T10:57:30Z</time>
      </trkpt>
      <trkpt lat="51.74094" lon="3.77515">
        <ele>49.114</ele>
        <time>2020-07-02T10:57:35Z</time>
      </trkpt>
      <trkpt lat="51.74096" lon="3.77542">
        <ele>48.448</ele>
        <time>2020-07-02T10:57:41Z</time>
      </trkpt>
      <trkpt lat="51.74099" lon="3.77578">
        <ele>47.942</ele>
        <time>2020-07-02T10:57:47Z</time>
      </trkpt>
      <trkpt lat="51.74103" lon="3.77624">
        <ele>47.267</ele>
        <time>2020-07-02T10:57:53Z</time>
      </trkpt>
      <trkpt lat="51.74106" lon="3.77656">
        <ele>47.811</ele>
        <time>2020-07-02T10:57:58Z</time>
      </trkpt>
      <trkpt lat="51.74109" lon="3.77691">
        <ele>47.554</ele>
        <time>2020-07-02T10:58:04Z</time>
      </trkpt>
      <trkpt lat="51.74113" lon="3.77728">
        <ele>47.425</ele>
        <time>2020-07-02T10:58:10Z</time>
      </trkpt>
      <trkpt lat="51.74117" lon="3.77762">
        <ele>46.874</ele>
        <time>2020-07-02T10:58:15Z</time>
      </trkpt>
      <trkpt lat="51.74122" lon="3.778">
        <ele>47.451</ele>
        <time>2020-07-02T10:58:20Z</time>
      </trkpt>
      <trkpt lat="51.74126" lon="3.7783">
        <ele>47.192</ele>
        <time>2020-07-02T10:58:25Z</time>
      </trkpt>
      <trkpt lat="51.74129" lon="3.77879">
        <ele>46.915</ele>
        <time>2020-07-02T10:58:31Z</time>
      </trkpt>
      <trkpt lat="51.74135" lon="3.77921">
        <ele>48.111</ele>
        <time>2020-07-02T10:58:37Z</time>
      </trkpt>
      <trkpt lat="51.74139" lon="3.77952">
        <ele>47.869</ele>
        <time>2020-07-02T10:58:42Z</time>
      </trkpt>
      <trkpt lat="51.74145" lon="3.77995">
        <ele>48.135</ele>
        <time>2020-07-02T10:58:47Z</time>
      </trkpt>
      <trkpt lat="51.74151" lon="3.78043">
        <ele>48.77</ele>
        <time>2020-07-02T10:58:53Z</time>
      </trkpt>
      <trkpt lat="51.74155" lon="3.78085">
        <ele>49.268</ele>
        <time>2020-07-02T10:58:59Z</time>
      </trkpt>
      <trkpt lat="51.74152" lon="3.78118">
        <ele>50.109</ele>
        <time>2020-07-02T10:59:05Z</time>
      </trkpt>
      <trkpt lat="51.74157" lon="3.78153">
        <ele>51.418</ele>
        <time>2020-07-02T10:59:10Z</time>
      </trkpt>
      <trkpt lat="51.74161" lon="3.78184">
        <ele>52.618</ele>
        <time>2020-07-02T10:59:15Z</time>
      </trkpt>
      <trkpt lat="51.74162" lon="3.7822">
        <ele>53.765</ele>
        <time>2020-07-02T10:59:21Z</time>
      </trkpt>
      <trkpt lat="51.74165" lon="3.78258">
        <ele>54.355</ele>
        <time>2020-07-02T10:59:27Z</time>
      </trkpt>
      <trkpt lat="51.74173" lon="3.7831">
        <ele>54.544</ele>
        <time>2020-07-02T10:59:33Z</time>
      </trkpt>
      <trkpt lat="51.74176" lon="3.78349">
        <ele>54.974</ele>
        <time>2020-07-02T10:59:39Z</time>
      </trkpt>
      <trkpt lat="51.74169" lon="3.78391">
        <ele>56.671</ele>
        <time>2020-07-02T10:59:45Z</time>
      </trkpt>
      <trkpt lat="51.74171" lon="3.78422">
        <ele>56.475</ele>
        <time>2020-07-02T10:59:50Z</time>
      </trkpt>
      <trkpt lat="51.74174" lon="3.78457">
        <ele>56.537</ele>
        <time>2020-07-02T10:59:56Z</time>
      </trkpt>
      <trkpt lat="51.74174" lon="3.78486">
        <ele>57.31</ele>
        <time>2020-07-02T11:00:02Z</time>
      </trkpt>
      <trkpt lat="51.74175" lon="3.78512">
        <ele>56.843</ele>
        <time>2020-07-02T11:00:07Z</time>
      </trkpt>
      <trkpt lat="51.74177" lon="3.78549">
        <ele>55.983</ele>
        <time>2020-07-02T11:00:13Z</time>
      </trkpt>
      <trkpt lat="51.74182" lon="3.78591">
        <ele>54.385</ele>
        <time>2020-07-02T11:00:18Z</time>
      </trkpt>
      <trkpt lat="51.74187" lon="3.78645">
        <ele>52.767</ele>
        <time>2020-07-02T11:00:24Z</time>
      </trkpt>
      <trkpt lat="51.74188" lon="3.78696">
        <ele>53.751</ele>
        <time>2020-07-02T11:00:30Z</time>
      </trkpt>
      <trkpt lat="51.74186" lon="3.78734">
        <ele>55.997</ele>
        <time>2020-07-02T11:00:36Z</time>
      </trkpt>
      <trkpt lat="51.74181" lon="3.78784">
        <ele>56.115</ele>
        <time>2020-07-02T11:00:41Z</time>
      </trkpt>
      <trkpt lat="51.74173" lon="3.78834">
        <ele>50.612</ele>
        <time>2020-07-02T11:00:47Z</time>
      </trkpt>
      <trkpt lat="51.74166" lon="3.78888">
        <ele>49.216</ele>
        <time>2020-07-02T11:00:53Z</time>
      </trkpt>
      <trkpt lat="51.74161" lon="3.78929">
        <ele>48.72</ele>
        <time>2020-07-02T11:00:58Z</time>
      </trkpt>
      <trkpt lat="51.7415" lon="3.78975">
        <ele>50.067</ele>
        <time>2020-07-02T11:01:04Z</time>
      </trkpt>
      <trkpt lat="51.74143" lon="3.79013">
        <ele>49.938</ele>
        <time>2020-07-02T11:01:09Z</time>
      </trkpt>
      <trkpt lat="51.74135" lon="3.79056">
        <ele>49.363</ele>
        <time>2020-07-02T11:01:15Z</time>
      </trkpt>
      <trkpt lat="51.74127" lon="3.79088">
        <ele>49.442</ele>
        <time>2020-07-02T11:01:20Z</time>
      </trkpt>
      <trkpt lat="51.74119" lon="3.79126">
        <ele>49.055</ele>
        <time>2020-07-02T11:01:26Z</time>
      </trkpt>
      <trkpt lat="51.74113" lon="3.79159">
        <ele>48.774</ele>
        <time>2020-07-02T11:01:31Z</time>
      </trkpt>
      <trkpt lat="51.74104" lon="3.792">
        <ele>48.058</ele>
        <time>2020-07-02T11:01:37Z</time>
      </trkpt>
      <trkpt lat="51.74095" lon="3.7924">
        <ele>47.337</ele>
        <time>2020-07-02T11:01:43Z</time>
      </trkpt>
      <trkpt lat="51.74086" lon="3.79282">
        <ele>47.074</ele>
        <time>2020-07-02T11:01:49Z</time>
      </trkpt>
      <trkpt lat="51.74075" lon="3.79324">
        <ele>46.849</ele>
        <time>2020-07-02T11:01:55Z</time>
      </trkpt>
      <trkpt lat="51.74064" lon="3.79364">
        <ele>46.9</ele>
        <time>2020-07-02T11:02:01Z</time>
      </trkpt>
      <trkpt lat="51.74054" lon="3.79403">
        <ele>47.439</ele>
        <time>2020-07-02T11:02:07Z</time>
      </trkpt>
      <trkpt lat="51.74045" lon="3.79436">
        <ele>48.078</ele>
        <time>2020-07-02T11:02:12Z</time>
      </trkpt>
      <trkpt lat="51.74034" lon="3.79477">
        <ele>48.213</ele>
        <time>2020-07-02T11:02:18Z</time>
      </trkpt>
      <trkpt lat="51.74025" lon="3.7951">
        <ele>48.112</ele>
        <time>2020-07-02T11:02:23Z</time>
      </trkpt>
      <trkpt lat="51.74017" lon="3.79543">
        <ele>47.396</ele>
        <time>2020-07-02T11:02:28Z</time>
      </trkpt>
      <trkpt lat="51.74012" lon="3.79577">
        <ele>47.799</ele>
        <time>2020-07-02T11:02:33Z</time>
      </trkpt>
      <trkpt lat="51.74005" lon="3.79619">
        <ele>48.761</ele>
        <time>2020-07-02T11:02:39Z</time>
      </trkpt>
      <trkpt lat="51.73999" lon="3.79663">
        <ele>49.342</ele>
        <time>2020-07-02T11:02:45Z</time>
      </trkpt>
      <trkpt lat="51.73995" lon="3.79699">
        <ele>48.701</ele>
        <time>2020-07-02T11:02:50Z</time>
      </trkpt>
      <trkpt lat="51.73988" lon="3.79743">
        <ele>47.941</ele>
        <time>2020-07-02T11:02:56Z</time>
      </trkpt>
      <trkpt lat="51.73983" lon="3.79785">
        <ele>47.565</ele>
        <time>2020-07-02T11:03:02Z</time>
      </trkpt>
      <trkpt lat="51.73979" lon="3.79826">
        <ele>47.508</ele>
        <time>2020-07-02T11:03:08Z</time>
      </trkpt>
      <trkpt lat="51.73974" lon="3.79869">
        <ele>47.572</ele>
        <time>2020-07-02T11:03:14Z</time>
      </trkpt>
      <trkpt lat="51.7397" lon="3.79904">
        <ele>48.304</ele>
        <time>2020-07-02T11:03:19Z</time>
      </trkpt>
      <trkpt lat="51.73966" lon="3.7994">
        <ele>48.157</ele>
        <time>2020-07-02T11:03:24Z</time>
      </trkpt>
      <trkpt lat="51.73962" lon="3.79984">
        <ele>47.753</ele>
        <time>2020-07-02T11:03:30Z</time>
      </trkpt>
      <trkpt lat="51.73958" lon="3.8002">
        <ele>47.749</ele>
        <time>2020-07-02T11:03:35Z</time>
      </trkpt>
      <trkpt lat="51.73954" lon="3.80065">
        <ele>47.79</ele>
        <time>2020-07-02T11:03:41Z</time>
      </trkpt>
      <trkpt lat="51.73949" lon="3.80109">
        <ele>47.884</ele>
        <time>2020-07-02T11:03:47Z</time>
      </trkpt>
      <trkpt lat="51.73944" lon="3.80152">
        <ele>47.551</ele>
        <time>2020-07-02T11:03:53Z</time>
      </trkpt>
      <trkpt lat="51.7394" lon="3.80195">
        <ele>47.476</ele>
        <time>2020-07-02T11:03:59Z</time>
      </trkpt>
      <trkpt lat="51.73935" lon="3.8023">
        <ele>47.786</ele>
        <time>2020-07-02T11:04:04Z</time>
      </trkpt>
      <trkpt lat="51.73932" lon="3.80267">
        <ele>47.804</ele>
        <time>2020-07-02T11:04:09Z</time>
      </trkpt>
      <trkpt lat="51.73929" lon="3.80304">
        <ele>48.088</ele>
        <time>2020-07-02T11:04:14Z</time>
      </trkpt>
      <trkpt lat="51.73926" lon="3.8035">
        <ele>48.641</ele>
        <time>2020-07-02T11:04:20Z</time>
      </trkpt>
      <trkpt lat="51.73924" lon="3.8039">
        <ele>48.826</ele>
        <time>2020-07-02T11:04:25Z</time>
      </trkpt>
      <trkpt lat="51.73921" lon="3.80438">
        <ele>49.8</ele>
        <time>2020-07-02T11:04:31Z</time>
      </trkpt>
      <trkpt lat="51.73918" lon="3.80477">
        <ele>49.897</ele>
        <time>2020-07-02T11:04:36Z</time>
      </trkpt>
      <trkpt lat="51.73917" lon="3.80526">
        <ele>49.843</ele>
        <time>2020-07-02T11:04:42Z</time>
      </trkpt>
      <trkpt lat="51.73916" lon="3.80576">
        <ele>49.855</ele>
        <time>2020-07-02T11:04:48Z</time>
      </trkpt>
      <trkpt lat="51.73914" lon="3.80627">
        <ele>48.845</ele>
        <time>2020-07-02T11:04:54Z</time>
      </trkpt>
      <trkpt lat="51.73912" lon="3.80676">
        <ele>48.482</ele>
        <time>2020-07-02T11:05:00Z</time>
      </trkpt>
      <trkpt lat="51.73911" lon="3.80723">
        <ele>48.182</ele>
        <time>2020-07-02T11:05:06Z</time>
      </trkpt>
      <trkpt lat="51.7391" lon="3.80765">
        <ele>48.718</ele>
        <time>2020-07-02T11:05:12Z</time>
      </trkpt>
      <trkpt lat="51.7391" lon="3.80797">
        <ele>47.817</ele>
        <time>2020-07-02T11:05:17Z</time>
      </trkpt>
      <trkpt lat="51.73908" lon="3.80826">
        <ele>47.222</ele>
        <time>2020-07-02T11:05:22Z</time>
      </trkpt>
      <trkpt lat="51.73906" lon="3.80862">
        <ele>47.998</ele>
        <time>2020-07-02T11:05:28Z</time>
      </trkpt>
      <trkpt lat="51.73904" lon="3.80898">
        <ele>47.998</ele>
        <time>2020-07-02T11:05:34Z</time>
      </trkpt>
      <trkpt lat="51.73901" lon="3.80938">
        <ele>48.652</ele>
        <time>2020-07-02T11:05:40Z</time>
      </trkpt>
      <trkpt lat="51.73899" lon="3.8098">
        <ele>49.437</ele>
        <time>2020-07-02T11:05:46Z</time>
      </trkpt>
      <trkpt lat="51.73898" lon="3.81025">
        <ele>49.826</ele>
        <time>2020-07-02T11:05:52Z</time>
      </trkpt>
      <trkpt lat="51.73898" lon="3.81062">
        <ele>50.228</ele>
        <time>2020-07-02T11:05:57Z</time>
      </trkpt>
      <trkpt lat="51.739" lon="3.81105">
        <ele>50.087</ele>
        <time>2020-07-02T11:06:03Z</time>
      </trkpt>
      <trkpt lat="51.73912" lon="3.81145">
        <ele>49.968</ele>
        <time>2020-07-02T11:06:09Z</time>
      </trkpt>
      <trkpt lat="51.73912" lon="3.81194">
        <ele>49.324</ele>
        <time>2020-07-02T11:06:15Z</time>
      </trkpt>
      <trkpt lat="51.73914" lon="3.81236">
        <ele>49.387</ele>
        <time>2020-07-02T11:06:20Z</time>
      </trkpt>
      <trkpt lat="51.73916" lon="3.81284">
        <ele>49.037</ele>
        <time>2020-07-02T11:06:26Z</time>
      </trkpt>
      <trkpt lat="51.73916" lon="3.81321">
        <ele>48.722</ele>
        <time>2020-07-02T11:06:32Z</time>
      </trkpt>
      <trkpt lat="51.73915" lon="3.8135">
        <ele>49.259</ele>
        <time>2020-07-02T11:06:37Z</time>
      </trkpt>
      <trkpt lat="51.73913" lon="3.81387">
        <ele>49.805</ele>
        <time>2020-07-02T11:06:43Z</time>
      </trkpt>
      <trkpt lat="51.73911" lon="3.81428">
        <ele>50.366</ele>
        <time>2020-07-02T11:06:49Z</time>
      </trkpt>
      <trkpt lat="51.73909" lon="3.81462">
        <ele>50.14</ele>
        <time>2020-07-02T11:06:54Z</time>
      </trkpt>
      <trkpt lat="51.73904" lon="3.81502">
        <ele>50.159</ele>
        <time>2020-07-02T11:07:00Z</time>
      </trkpt>
      <trkpt lat="51.73901" lon="3.81543">
        <ele>51.17</ele>
        <time>2020-07-02T11:07:06Z</time>
      </trkpt>
      <trkpt lat="51.73897" lon="3.81578">
        <ele>51.266</ele>
        <time>2020-07-02T11:07:11Z</time>
      </trkpt>
      <trkpt lat="51.73893" lon="3.81615">
        <ele>51.19</ele>
        <time>2020-07-02T11:07:16Z</time>
      </trkpt>
      <trkpt lat="51.7389" lon="3.81663">
        <ele>51.26</ele>
        <time>2020-07-02T11:07:22Z</time>
      </trkpt>
      <trkpt lat="51.73891" lon="3.81704">
        <ele>51.698</ele>
        <time>2020-07-02T11:07:27Z</time>
      </trkpt>
      <trkpt lat="51.73888" lon="3.81752">
        <ele>51.7</ele>
        <time>2020-07-02T11:07:33Z</time>
      </trkpt>
      <trkpt lat="51.73888" lon="3.81801">
        <ele>51.368</ele>
        <time>2020-07-02T11:07:40Z</time>
      </trkpt>
      <trkpt lat="51.73889" lon="3.81846">
        <ele>51.242</ele>
        <time>2020-07-02T11:07:45Z</time>
      </trkpt>
      <trkpt lat="51.73888" lon="3.81893">
        <ele>51.537</ele>
        <time>2020-07-02T11:07:51Z</time>
      </trkpt>
      <trkpt lat="51.7389" lon="3.8194">
        <ele>52.262</ele>
        <time>2020-07-02T11:07:57Z</time>
      </trkpt>
      <trkpt lat="51.73892" lon="3.81989">
        <ele>53.128</ele>
        <time>2020-07-02T11:08:03Z</time>
      </trkpt>
      <trkpt lat="51.73896" lon="3.82037">
        <ele>52.665</ele>
        <time>2020-07-02T11:08:09Z</time>
      </trkpt>
      <trkpt lat="51.739" lon="3.82078">
        <ele>52.555</ele>
        <time>2020-07-02T11:08:14Z</time>
      </trkpt>
      <trkpt lat="51.73904" lon="3.82118">
        <ele>52.324</ele>
        <time>2020-07-02T11:08:19Z</time>
      </trkpt>
      <trkpt lat="51.73902" lon="3.82162">
        <ele>51.695</ele>
        <time>2020-07-02T11:08:25Z</time>
      </trkpt>
      <trkpt lat="51.73914" lon="3.82212">
        <ele>51.5</ele>
        <time>2020-07-02T11:08:31Z</time>
      </trkpt>
      <trkpt lat="51.73913" lon="3.82253">
        <ele>51.268</ele>
        <time>2020-07-02T11:08:36Z</time>
      </trkpt>
      <trkpt lat="51.73918" lon="3.82278">
        <ele>51.557</ele>
        <time>2020-07-02T11:08:43Z</time>
      </trkpt>
      <trkpt lat="51.73918" lon="3.82304">
        <ele>52.688</ele>
        <time>2020-07-02T11:08:48Z</time>
      </trkpt>
      <trkpt lat="51.7391" lon="3.82318">
        <ele>53.688</ele>
        <time>2020-07-02T11:08:53Z</time>
      </trkpt>
      <trkpt lat="51.7391" lon="3.82335">
        <ele>54.156</ele>
        <time>2020-07-02T11:08:59Z</time>
      </trkpt>
      <trkpt lat="51.7391" lon="3.82335">
        <ele>54.156</ele>
        <time>2020-07-02T11:09:04Z</time>
      </trkpt>
      <trkpt lat="51.7391" lon="3.82335">
        <ele>54.156</ele>
        <time>2020-07-02T11:09:10Z</time>
      </trkpt>
      <trkpt lat="51.7391" lon="3.82335">
        <ele>54.156</ele>
        <time>2020-07-02T11:09:16Z</time>
      </trkpt>
      <trkpt lat="51.73911" lon="3.82338">
        <ele>54.177</ele>
        <time>2020-07-02T11:09:21Z</time>
      </trkpt>
      <trkpt lat="51.73917" lon="3.82342">
        <ele>54.211</ele>
        <time>2020-07-02T11:09:26Z</time>
      </trkpt>
      <trkpt lat="51.73927" lon="3.82346">
        <ele>54.017</ele>
        <time>2020-07-02T11:09:33Z</time>
      </trkpt>
      <trkpt lat="51.73939" lon="3.8236">
        <ele>54.062</ele>
        <time>2020-07-02T11:09:38Z</time>
      </trkpt>
      <trkpt lat="51.73954" lon="3.82374">
        <ele>53.07</ele>
        <time>2020-07-02T11:09:44Z</time>
      </trkpt>
      <trkpt lat="51.73967" lon="3.82387">
        <ele>52.714</ele>
        <time>2020-07-02T11:09:49Z</time>
      </trkpt>
      <trkpt lat="51.7398" lon="3.824">
        <ele>52.202</ele>
        <time>2020-07-02T11:09:54Z</time>
      </trkpt>
      <trkpt lat="51.74" lon="3.82413">
        <ele>51.495</ele>
        <time>2020-07-02T11:10:00Z</time>
      </trkpt>
      <trkpt lat="51.74018" lon="3.82418">
        <ele>51.426</ele>
        <time>2020-07-02T11:10:06Z</time>
      </trkpt>
      <trkpt lat="51.74035" lon="3.82421">
        <ele>52.33</ele>
        <time>2020-07-02T11:10:13Z</time>
      </trkpt>
      <trkpt lat="51.7405" lon="3.82427">
        <ele>52.475</ele>
        <time>2020-07-02T11:10:18Z</time>
      </trkpt>
      <trkpt lat="51.74065" lon="3.82431">
        <ele>53.543</ele>
        <time>2020-07-02T11:10:24Z</time>
      </trkpt>
      <trkpt lat="51.74079" lon="3.82433">
        <ele>54.777</ele>
        <time>2020-07-02T11:10:30Z</time>
      </trkpt>
      <trkpt lat="51.74095" lon="3.82437">
        <ele>55.274</ele>
        <time>2020-07-02T11:10:36Z</time>
      </trkpt>
      <trkpt lat="51.74099" lon="3.82442">
        <ele>55.235</ele>
        <time>2020-07-02T11:10:41Z</time>
      </trkpt>
      <trkpt lat="51.74099" lon="3.82442">
        <ele>55.235</ele>
        <time>2020-07-02T11:10:47Z</time>
      </trkpt>
      <trkpt lat="51.74099" lon="3.82442">
        <ele>55.235</ele>
        <time>2020-07-02T11:10:52Z</time>
      </trkpt>
      <trkpt lat="51.74101" lon="3.82447">
        <ele>55.417</ele>
        <time>2020-07-02T11:10:57Z</time>
      </trkpt>
      <trkpt lat="51.74109" lon="3.82462">
        <ele>55.813</ele>
        <time>2020-07-02T11:11:03Z</time>
      </trkpt>
      <trkpt lat="51.74124" lon="3.82461">
        <ele>55.847</ele>
        <time>2020-07-02T11:11:08Z</time>
      </trkpt>
      <trkpt lat="51.74145" lon="3.82463">
        <ele>55.792</ele>
        <time>2020-07-02T11:11:14Z</time>
      </trkpt>
      <trkpt lat="51.74165" lon="3.82467">
        <ele>55.333</ele>
        <time>2020-07-02T11:11:20Z</time>
      </trkpt>
      <trkpt lat="51.74184" lon="3.82469">
        <ele>54.959</ele>
        <time>2020-07-02T11:11:25Z</time>
      </trkpt>
      <trkpt lat="51.74205" lon="3.82472">
        <ele>55.033</ele>
        <time>2020-07-02T11:11:31Z</time>
      </trkpt>
      <trkpt lat="51.74223" lon="3.82475">
        <ele>55.713</ele>
        <time>2020-07-02T11:11:36Z</time>
      </trkpt>
      <trkpt lat="51.74245" lon="3.82479">
        <ele>56.115</ele>
        <time>2020-07-02T11:11:42Z</time>
      </trkpt>
      <trkpt lat="51.74263" lon="3.82483">
        <ele>56.34</ele>
        <time>2020-07-02T11:11:47Z</time>
      </trkpt>
      <trkpt lat="51.74288" lon="3.82487">
        <ele>55.979</ele>
        <time>2020-07-02T11:11:53Z</time>
      </trkpt>
      <trkpt lat="51.74311" lon="3.8249">
        <ele>55.483</ele>
        <time>2020-07-02T11:11:59Z</time>
      </trkpt>
      <trkpt lat="51.74336" lon="3.82493">
        <ele>56.021</ele>
        <time>2020-07-02T11:12:05Z</time>
      </trkpt>
      <trkpt lat="51.74363" lon="3.82496">
        <ele>57.4</ele>
        <time>2020-07-02T11:12:11Z</time>
      </trkpt>
      <trkpt lat="51.74383" lon="3.82499">
        <ele>57.852</ele>
        <time>2020-07-02T11:12:16Z</time>
      </trkpt>
      <trkpt lat="51.74401" lon="3.82504">
        <ele>57.352</ele>
        <time>2020-07-02T11:12:21Z</time>
      </trkpt>
      <trkpt lat="51.74424" lon="3.82507">
        <ele>57.321</ele>
        <time>2020-07-02T11:12:27Z</time>
      </trkpt>
      <trkpt lat="51.74448" lon="3.82511">
        <ele>57.191</ele>
        <time>2020-07-02T11:12:33Z</time>
      </trkpt>
      <trkpt lat="51.74468" lon="3.82514">
        <ele>56.741</ele>
        <time>2020-07-02T11:12:38Z</time>
      </trkpt>
      <trkpt lat="51.74488" lon="3.82517">
        <ele>56.203</ele>
        <time>2020-07-02T11:12:43Z</time>
      </trkpt>
      <trkpt lat="51.7451" lon="3.82521">
        <ele>55.387</ele>
        <time>2020-07-02T11:12:49Z</time>
      </trkpt>
      <trkpt lat="51.74533" lon="3.82524">
        <ele>54.943</ele>
        <time>2020-07-02T11:12:55Z</time>
      </trkpt>
      <trkpt lat="51.74554" lon="3.82526">
        <ele>54.214</ele>
        <time>2020-07-02T11:13:01Z</time>
      </trkpt>
      <trkpt lat="51.75652" lon="3.8366">
        <ele>60.925</ele>
        <time>2020-07-02T11:18:22Z</time>
      </trkpt>
      <trkpt lat="51.75662" lon="3.83695">
        <ele>61.765</ele>
        <time>2020-07-02T11:18:28Z</time>
      </trkpt>
      <trkpt lat="51.75673" lon="3.8373">
        <ele>64.091</ele>
        <time>2020-07-02T11:18:34Z</time>
      </trkpt>
      <trkpt lat="51.75681" lon="3.83761">
        <ele>62.034</ele>
        <time>2020-07-02T11:18:39Z</time>
      </trkpt>
      <trkpt lat="51.7569" lon="3.83791">
        <ele>61.227</ele>
        <time>2020-07-02T11:18:44Z</time>
      </trkpt>
      <trkpt lat="51.75698" lon="3.83826">
        <ele>62.256</ele>
        <time>2020-07-02T11:18:50Z</time>
      </trkpt>
      <trkpt lat="51.75707" lon="3.83858">
        <ele>62.443</ele>
        <time>2020-07-02T11:18:55Z</time>
      </trkpt>
      <trkpt lat="51.75715" lon="3.83892">
        <ele>62.396</ele>
        <time>2020-07-02T11:19:00Z</time>
      </trkpt>
      <trkpt lat="51.75727" lon="3.83936">
        <ele>62.841</ele>
        <time>2020-07-02T11:19:06Z</time>
      </trkpt>
      <trkpt lat="51.75736" lon="3.83973">
        <ele>62.175</ele>
        <time>2020-07-02T11:19:11Z</time>
      </trkpt>
      <trkpt lat="51.75747" lon="3.84018">
        <ele>61.053</ele>
        <time>2020-07-02T11:19:17Z</time>
      </trkpt>
      <trkpt lat="51.75757" lon="3.84057">
        <ele>60.868</ele>
        <time>2020-07-02T11:19:22Z</time>
      </trkpt>
      <trkpt lat="51.7577" lon="3.84103">
        <ele>60.401</ele>
        <time>2020-07-02T11:19:28Z</time>
      </trkpt>
      <trkpt lat="51.75781" lon="3.8415">
        <ele>59.877</ele>
        <time>2020-07-02T11:19:34Z</time>
      </trkpt>
      <trkpt lat="51.75791" lon="3.84188">
        <ele>60.365</ele>
        <time>2020-07-02T11:19:39Z</time>
      </trkpt>
      <trkpt lat="51.75808" lon="3.8425">
        <ele>60.812</ele>
        <time>2020-07-02T11:19:47Z</time>
      </trkpt>
      <trkpt lat="51.75819" lon="3.84291">
        <ele>60.84</ele>
        <time>2020-07-02T11:19:52Z</time>
      </trkpt>
      <trkpt lat="51.75832" lon="3.84339">
        <ele>60.731</ele>
        <time>2020-07-02T11:19:58Z</time>
      </trkpt>
      <trkpt lat="51.75845" lon="3.84391">
        <ele>60.276</ele>
        <time>2020-07-02T11:20:04Z</time>
      </trkpt>
      <trkpt lat="51.75861" lon="3.8445">
        <ele>61.135</ele>
        <time>2020-07-02T11:20:11Z</time>
      </trkpt>
      <trkpt lat="51.75875" lon="3.845">
        <ele>61.205</ele>
        <time>2020-07-02T11:20:17Z</time>
      </trkpt>
      <trkpt lat="51.75887" lon="3.8454">
        <ele>60.336</ele>
        <time>2020-07-02T11:20:22Z</time>
      </trkpt>
      <trkpt lat="51.75899" lon="3.84579">
        <ele>59.666</ele>
        <time>2020-07-02T11:20:27Z</time>
      </trkpt>
      <trkpt lat="51.75913" lon="3.84626">
        <ele>58.672</ele>
        <time>2020-07-02T11:20:33Z</time>
      </trkpt>
      <trkpt lat="51.75926" lon="3.84673">
        <ele>57.197</ele>
        <time>2020-07-02T11:20:39Z</time>
      </trkpt>
      <trkpt lat="51.75938" lon="3.84711">
        <ele>57.157</ele>
        <time>2020-07-02T11:20:44Z</time>
      </trkpt>
      <trkpt lat="51.75954" lon="3.8476">
        <ele>57.43</ele>
        <time>2020-07-02T11:20:50Z</time>
      </trkpt>
      <trkpt lat="51.7597" lon="3.84811">
        <ele>57.98</ele>
        <time>2020-07-02T11:20:56Z</time>
      </trkpt>
      <trkpt lat="51.75983" lon="3.8485">
        <ele>57.101</ele>
        <time>2020-07-02T11:21:01Z</time>
      </trkpt>
      <trkpt lat="51.76001" lon="3.84896">
        <ele>56.084</ele>
        <time>2020-07-02T11:21:07Z</time>
      </trkpt>
      <trkpt lat="51.76021" lon="3.84951">
        <ele>56.529</ele>
        <time>2020-07-02T11:21:14Z</time>
      </trkpt>
      <trkpt lat="51.76037" lon="3.84991">
        <ele>56.945</ele>
        <time>2020-07-02T11:21:19Z</time>
      </trkpt>
      <trkpt lat="51.76056" lon="3.85039">
        <ele>56.672</ele>
        <time>2020-07-02T11:21:25Z</time>
      </trkpt>
      <trkpt lat="51.76075" lon="3.85085">
        <ele>57.008</ele>
        <time>2020-07-02T11:21:31Z</time>
      </trkpt>
      <trkpt lat="51.76094" lon="3.85129">
        <ele>57.319</ele>
        <time>2020-07-02T11:21:37Z</time>
      </trkpt>
      <trkpt lat="51.7611" lon="3.85169">
        <ele>57.312</ele>
        <time>2020-07-02T11:21:42Z</time>
      </trkpt>
      <trkpt lat="51.76127" lon="3.85209">
        <ele>56.809</ele>
        <time>2020-07-02T11:21:47Z</time>
      </trkpt>
      <trkpt lat="51.76143" lon="3.85245">
        <ele>56.24</ele>
        <time>2020-07-02T11:21:52Z</time>
      </trkpt>
      <trkpt lat="51.76161" lon="3.85285">
        <ele>55.878</ele>
        <time>2020-07-02T11:21:58Z</time>
      </trkpt>
      <trkpt lat="51.76183" lon="3.85329">
        <ele>55.824</ele>
        <time>2020-07-02T11:22:05Z</time>
      </trkpt>
      <trkpt lat="51.76203" lon="3.85364">
        <ele>56.322</ele>
        <time>2020-07-02T11:22:11Z</time>
      </trkpt>
      <trkpt lat="51.76224" lon="3.85396">
        <ele>56.148</ele>
        <time>2020-07-02T11:22:17Z</time>
      </trkpt>
      <trkpt lat="51.76246" lon="3.85432">
        <ele>56.591</ele>
        <time>2020-07-02T11:22:23Z</time>
      </trkpt>
      <trkpt lat="51.7627" lon="3.85465">
        <ele>56.439</ele>
        <time>2020-07-02T11:22:29Z</time>
      </trkpt>
      <trkpt lat="51.76295" lon="3.85501">
        <ele>56.335</ele>
        <time>2020-07-02T11:22:35Z</time>
      </trkpt>
      <trkpt lat="51.76317" lon="3.8553">
        <ele>56.434</ele>
        <time>2020-07-02T11:22:40Z</time>
      </trkpt>
      <trkpt lat="51.76343" lon="3.85563">
        <ele>56.395</ele>
        <time>2020-07-02T11:22:46Z</time>
      </trkpt>
      <trkpt lat="51.7637" lon="3.85596">
        <ele>57.113</ele>
        <time>2020-07-02T11:22:52Z</time>
      </trkpt>
      <trkpt lat="51.764" lon="3.85629">
        <ele>57.994</ele>
        <time>2020-07-02T11:22:58Z</time>
      </trkpt>
      <trkpt lat="51.76424" lon="3.85656">
        <ele>58.415</ele>
        <time>2020-07-02T11:23:03Z</time>
      </trkpt>
      <trkpt lat="51.76448" lon="3.85681">
        <ele>58.691</ele>
        <time>2020-07-02T11:23:08Z</time>
      </trkpt>
      <trkpt lat="51.76473" lon="3.85704">
        <ele>58.433</ele>
        <time>2020-07-02T11:23:13Z</time>
      </trkpt>
      <trkpt lat="51.76502" lon="3.85732">
        <ele>57.979</ele>
        <time>2020-07-02T11:23:19Z</time>
      </trkpt>
      <trkpt lat="51.76531" lon="3.85757">
        <ele>57.693</ele>
        <time>2020-07-02T11:23:25Z</time>
      </trkpt>
      <trkpt lat="51.7656" lon="3.85781">
        <ele>57.707</ele>
        <time>2020-07-02T11:23:31Z</time>
      </trkpt>
      <trkpt lat="51.7659" lon="3.85805">
        <ele>58.008</ele>
        <time>2020-07-02T11:23:37Z</time>
      </trkpt>
      <trkpt lat="51.76619" lon="3.85827">
        <ele>57.938</ele>
        <time>2020-07-02T11:23:43Z</time>
      </trkpt>
      <trkpt lat="51.76643" lon="3.85844">
        <ele>57.779</ele>
        <time>2020-07-02T11:23:48Z</time>
      </trkpt>
      <trkpt lat="51.76672" lon="3.85863">
        <ele>57.384</ele>
        <time>2020-07-02T11:23:54Z</time>
      </trkpt>
      <trkpt lat="51.76697" lon="3.8588">
        <ele>57.176</ele>
        <time>2020-07-02T11:23:59Z</time>
      </trkpt>
      <trkpt lat="51.76727" lon="3.85897">
        <ele>56.944</ele>
        <time>2020-07-02T11:24:05Z</time>
      </trkpt>
      <trkpt lat="51.76755" lon="3.85914">
        <ele>56.506</ele>
        <time>2020-07-02T11:24:11Z</time>
      </trkpt>
      <trkpt lat="51.76779" lon="3.85929">
        <ele>56.45</ele>
        <time>2020-07-02T11:24:16Z</time>
      </trkpt>
      <trkpt lat="51.76807" lon="3.85946">
        <ele>56.416</ele>
        <time>2020-07-02T11:24:22Z</time>
      </trkpt>
      <trkpt lat="51.76834" lon="3.85964">
        <ele>56.336</ele>
        <time>2020-07-02T11:24:28Z</time>
      </trkpt>
      <trkpt lat="51.76857" lon="3.85979">
        <ele>56.269</ele>
        <time>2020-07-02T11:24:33Z</time>
      </trkpt>
      <trkpt lat="51.7688" lon="3.85993">
        <ele>56.339</ele>
        <time>2020-07-02T11:24:38Z</time>
      </trkpt>
      <trkpt lat="51.76902" lon="3.86007">
        <ele>56.382</ele>
        <time>2020-07-02T11:24:43Z</time>
      </trkpt>
      <trkpt lat="51.76928" lon="3.86023">
        <ele>56.422</ele>
        <time>2020-07-02T11:24:49Z</time>
      </trkpt>
      <trkpt lat="51.76951" lon="3.86038">
        <ele>56.307</ele>
        <time>2020-07-02T11:24:54Z</time>
      </trkpt>
      <trkpt lat="51.76979" lon="3.86055">
        <ele>56.132</ele>
        <time>2020-07-02T11:25:00Z</time>
      </trkpt>
      <trkpt lat="51.77001" lon="3.86069">
        <ele>56.081</ele>
        <time>2020-07-02T11:25:05Z</time>
      </trkpt>
      <trkpt lat="51.77023" lon="3.86082">
        <ele>56.305</ele>
        <time>2020-07-02T11:25:10Z</time>
      </trkpt>
      <trkpt lat="51.7705" lon="3.86099">
        <ele>56.307</ele>
        <time>2020-07-02T11:25:16Z</time>
      </trkpt>
      <trkpt lat="51.77077" lon="3.86117">
        <ele>56.488</ele>
        <time>2020-07-02T11:25:22Z</time>
      </trkpt>
      <trkpt lat="51.77105" lon="3.86135">
        <ele>57.093</ele>
        <time>2020-07-02T11:25:28Z</time>
      </trkpt>
      <trkpt lat="51.77132" lon="3.86151">
        <ele>57.044</ele>
        <time>2020-07-02T11:25:34Z</time>
      </trkpt>
      <trkpt lat="51.77159" lon="3.86168">
        <ele>56.529</ele>
        <time>2020-07-02T11:25:40Z</time>
      </trkpt>
      <trkpt lat="51.77182" lon="3.86182">
        <ele>56.048</ele>
        <time>2020-07-02T11:25:45Z</time>
      </trkpt>
      <trkpt lat="51.77205" lon="3.86197">
        <ele>55.855</ele>
        <time>2020-07-02T11:25:50Z</time>
      </trkpt>
      <trkpt lat="51.77229" lon="3.86212">
        <ele>55.759</ele>
        <time>2020-07-02T11:25:55Z</time>
      </trkpt>
      <trkpt lat="51.77253" lon="3.86228">
        <ele>55.499</ele>
        <time>2020-07-02T11:26:00Z</time>
      </trkpt>
      <trkpt lat="51.77281" lon="3.86245">
        <ele>55.404</ele>
        <time>2020-07-02T11:26:06Z</time>
      </trkpt>
      <trkpt lat="51.77305" lon="3.86258">
        <ele>55.415</ele>
        <time>2020-07-02T11:26:11Z</time>
      </trkpt>
      <trkpt lat="51.77331" lon="3.86274">
        <ele>55.889</ele>
        <time>2020-07-02T11:26:17Z</time>
      </trkpt>
      <trkpt lat="51.77352" lon="3.86288">
        <ele>56.248</ele>
        <time>2020-07-02T11:26:22Z</time>
      </trkpt>
      <trkpt lat="51.77379" lon="3.86304">
        <ele>56.245</ele>
        <time>2020-07-02T11:26:28Z</time>
      </trkpt>
      <trkpt lat="51.77405" lon="3.86321">
        <ele>56.502</ele>
        <time>2020-07-02T11:26:34Z</time>
      </trkpt>
      <trkpt lat="51.77433" lon="3.86339">
        <ele>56.168</ele>
        <time>2020-07-02T11:26:40Z</time>
      </trkpt>
      <trkpt lat="51.77456" lon="3.86353">
        <ele>55.73</ele>
        <time>2020-07-02T11:26:45Z</time>
      </trkpt>
      <trkpt lat="51.77484" lon="3.8637">
        <ele>55.743</ele>
        <time>2020-07-02T11:26:51Z</time>
      </trkpt>
      <trkpt lat="51.77507" lon="3.86385">
        <ele>55.953</ele>
        <time>2020-07-02T11:26:56Z</time>
      </trkpt>
      <trkpt lat="51.77531" lon="3.864">
        <ele>56.089</ele>
        <time>2020-07-02T11:27:01Z</time>
      </trkpt>
      <trkpt lat="51.7756" lon="3.86417">
        <ele>56.061</ele>
        <time>2020-07-02T11:27:07Z</time>
      </trkpt>
      <trkpt lat="51.77588" lon="3.86436">
        <ele>56.492</ele>
        <time>2020-07-02T11:27:13Z</time>
      </trkpt>
      <trkpt lat="51.77613" lon="3.86451">
        <ele>57.262</ele>
        <time>2020-07-02T11:27:18Z</time>
      </trkpt>
      <trkpt lat="51.77637" lon="3.86466">
        <ele>57.156</ele>
        <time>2020-07-02T11:27:23Z</time>
      </trkpt>
      <trkpt lat="51.77661" lon="3.86481">
        <ele>56.752</ele>
        <time>2020-07-02T11:27:28Z</time>
      </trkpt>
      <trkpt lat="51.77691" lon="3.86499">
        <ele>56.469</ele>
        <time>2020-07-02T11:27:34Z</time>
      </trkpt>
      <trkpt lat="51.77716" lon="3.86515">
        <ele>56.44</ele>
        <time>2020-07-02T11:27:39Z</time>
      </trkpt>
      <trkpt lat="51.77747" lon="3.86534">
        <ele>56.313</ele>
        <time>2020-07-02T11:27:45Z</time>
      </trkpt>
      <trkpt lat="51.77773" lon="3.86551">
        <ele>56.436</ele>
        <time>2020-07-02T11:27:50Z</time>
      </trkpt>
      <trkpt lat="51.78409" lon="3.86954">
        <ele>41.505</ele>
        <time>2020-07-02T11:30:07Z</time>
      </trkpt>
      <trkpt lat="51.78423" lon="3.86964">
        <ele>50.008</ele>
        <time>2020-07-02T11:30:13Z</time>
      </trkpt>
      <trkpt lat="51.78442" lon="3.8698">
        <ele>50.02</ele>
        <time>2020-07-02T11:30:19Z</time>
      </trkpt>
      <trkpt lat="51.78462" lon="3.86992">
        <ele>50.232</ele>
        <time>2020-07-02T11:30:25Z</time>
      </trkpt>
      <trkpt lat="51.78472" lon="3.86969">
        <ele>51.996</ele>
        <time>2020-07-02T11:30:31Z</time>
      </trkpt>
      <trkpt lat="51.78472" lon="3.86941">
        <ele>51.691</ele>
        <time>2020-07-02T11:30:37Z</time>
      </trkpt>
      <trkpt lat="51.78481" lon="3.86915">
        <ele>50.54</ele>
        <time>2020-07-02T11:30:43Z</time>
      </trkpt>
      <trkpt lat="51.78487" lon="3.86898">
        <ele>49.937</ele>
        <time>2020-07-02T11:30:48Z</time>
      </trkpt>
      <trkpt lat="51.78491" lon="3.86881">
        <ele>49.931</ele>
        <time>2020-07-02T11:30:53Z</time>
      </trkpt>
      <trkpt lat="51.78502" lon="3.86869">
        <ele>50.598</ele>
        <time>2020-07-02T11:30:59Z</time>
      </trkpt>
      <trkpt lat="51.78511" lon="3.86882">
        <ele>51.282</ele>
        <time>2020-07-02T11:31:04Z</time>
      </trkpt>
      <trkpt lat="51.78508" lon="3.8691">
        <ele>52.497</ele>
        <time>2020-07-02T11:31:10Z</time>
      </trkpt>
      <trkpt lat="51.78507" lon="3.86934">
        <ele>52.965</ele>
        <time>2020-07-02T11:31:16Z</time>
      </trkpt>
      <trkpt lat="51.78506" lon="3.86954">
        <ele>53.778</ele>
        <time>2020-07-02T11:31:21Z</time>
      </trkpt>
      <trkpt lat="51.78512" lon="3.86974">
        <ele>54.83</ele>
        <time>2020-07-02T11:31:27Z</time>
      </trkpt>
      <trkpt lat="51.78528" lon="3.86987">
        <ele>54.326</ele>
        <time>2020-07-02T11:31:33Z</time>
      </trkpt>
      <trkpt lat="51.78544" lon="3.86995">
        <ele>54.232</ele>
        <time>2020-07-02T11:31:38Z</time>
      </trkpt>
      <trkpt lat="51.78559" lon="3.87005">
        <ele>53.736</ele>
        <time>2020-07-02T11:31:43Z</time>
      </trkpt>
      <trkpt lat="51.78581" lon="3.87015">
        <ele>53.384</ele>
        <time>2020-07-02T11:31:49Z</time>
      </trkpt>
      <trkpt lat="51.78603" lon="3.87027">
        <ele>53.451</ele>
        <time>2020-07-02T11:31:55Z</time>
      </trkpt>
      <trkpt lat="51.78623" lon="3.87036">
        <ele>52.785</ele>
        <time>2020-07-02T11:32:00Z</time>
      </trkpt>
      <trkpt lat="51.78651" lon="3.87046">
        <ele>52.375</ele>
        <time>2020-07-02T11:32:06Z</time>
      </trkpt>
      <trkpt lat="51.78683" lon="3.87052">
        <ele>52.118</ele>
        <time>2020-07-02T11:32:12Z</time>
      </trkpt>
      <trkpt lat="51.78717" lon="3.87057">
        <ele>51.353</ele>
        <time>2020-07-02T11:32:18Z</time>
      </trkpt>
      <trkpt lat="51.78741" lon="3.87061">
        <ele>51.589</ele>
        <time>2020-07-02T11:32:23Z</time>
      </trkpt>
      <trkpt lat="51.78768" lon="3.87066">
        <ele>53.103</ele>
        <time>2020-07-02T11:32:29Z</time>
      </trkpt>
      <trkpt lat="51.78791" lon="3.87073">
        <ele>53.252</ele>
        <time>2020-07-02T11:32:34Z</time>
      </trkpt>
      <trkpt lat="51.78819" lon="3.87085">
        <ele>52.913</ele>
        <time>2020-07-02T11:32:40Z</time>
      </trkpt>
      <trkpt lat="51.78842" lon="3.87095">
        <ele>52.588</ele>
        <time>2020-07-02T11:32:45Z</time>
      </trkpt>
      <trkpt lat="51.78868" lon="3.87108">
        <ele>53.459</ele>
        <time>2020-07-02T11:32:51Z</time>
      </trkpt>
      <trkpt lat="51.78886" lon="3.87125">
        <ele>53.536</ele>
        <time>2020-07-02T11:32:56Z</time>
      </trkpt>
      <trkpt lat="51.78906" lon="3.87144">
        <ele>53.636</ele>
        <time>2020-07-02T11:33:01Z</time>
      </trkpt>
      <trkpt lat="51.78928" lon="3.87173">
        <ele>52.258</ele>
        <time>2020-07-02T11:33:07Z</time>
      </trkpt>
      <trkpt lat="51.78948" lon="3.87203">
        <ele>50.59</ele>
        <time>2020-07-02T11:33:13Z</time>
      </trkpt>
      <trkpt lat="51.78965" lon="3.87234">
        <ele>50.961</ele>
        <time>2020-07-02T11:33:19Z</time>
      </trkpt>
      <trkpt lat="51.7898" lon="3.87268">
        <ele>51.37</ele>
        <time>2020-07-02T11:33:25Z</time>
      </trkpt>
      <trkpt lat="51.78994" lon="3.87309">
        <ele>51.532</ele>
        <time>2020-07-02T11:33:31Z</time>
      </trkpt>
      <trkpt lat="51.79005" lon="3.87347">
        <ele>51.279</ele>
        <time>2020-07-02T11:33:36Z</time>
      </trkpt>
      <trkpt lat="51.79014" lon="3.87399">
        <ele>51.17</ele>
        <time>2020-07-02T11:33:42Z</time>
      </trkpt>
      <trkpt lat="51.7902" lon="3.87445">
        <ele>52.092</ele>
        <time>2020-07-02T11:33:48Z</time>
      </trkpt>
      <trkpt lat="51.79026" lon="3.87462">
        <ele>54.466</ele>
        <time>2020-07-02T11:33:53Z</time>
      </trkpt>
      <trkpt lat="51.79029" lon="3.87484">
        <ele>55.072</ele>
        <time>2020-07-02T11:33:59Z</time>
      </trkpt>
      <trkpt lat="51.79029" lon="3.87486">
        <ele>54.696</ele>
        <time>2020-07-02T11:34:05Z</time>
      </trkpt>
      <trkpt lat="51.79029" lon="3.87486">
        <ele>54.696</ele>
        <time>2020-07-02T11:34:11Z</time>
      </trkpt>
      <trkpt lat="51.79029" lon="3.87486">
        <ele>54.696</ele>
        <time>2020-07-02T11:34:16Z</time>
      </trkpt>
      <trkpt lat="51.79029" lon="3.87486">
        <ele>54.696</ele>
        <time>2020-07-02T11:34:21Z</time>
      </trkpt>
      <trkpt lat="51.79029" lon="3.87486">
        <ele>54.696</ele>
        <time>2020-07-02T11:34:26Z</time>
      </trkpt>
      <trkpt lat="51.79029" lon="3.87486">
        <ele>54.696</ele>
        <time>2020-07-02T11:34:32Z</time>
      </trkpt>
      <trkpt lat="51.79029" lon="3.87486">
        <ele>54.696</ele>
        <time>2020-07-02T11:34:38Z</time>
      </trkpt>
      <trkpt lat="51.79029" lon="3.87486">
        <ele>54.696</ele>
        <time>2020-07-02T11:34:43Z</time>
      </trkpt>
      <trkpt lat="51.79029" lon="3.87486">
        <ele>54.696</ele>
        <time>2020-07-02T11:34:48Z</time>
      </trkpt>
      <trkpt lat="51.79029" lon="3.87486">
        <ele>54.696</ele>
        <time>2020-07-02T11:34:54Z</time>
      </trkpt>
      <trkpt lat="51.79029" lon="3.87486">
        <ele>54.696</ele>
        <time>2020-07-02T11:35:00Z</time>
      </trkpt>
      <trkpt lat="51.79029" lon="3.87486">
        <ele>54.696</ele>
        <time>2020-07-02T11:35:06Z</time>
      </trkpt>
      <trkpt lat="51.79029" lon="3.87486">
        <ele>54.696</ele>
        <time>2020-07-02T11:35:11Z</time>
      </trkpt>
      <trkpt lat="51.79029" lon="3.87486">
        <ele>54.696</ele>
        <time>2020-07-02T11:35:17Z</time>
      </trkpt>
      <trkpt lat="51.79029" lon="3.87486">
        <ele>54.696</ele>
        <time>2020-07-02T11:35:23Z</time>
      </trkpt>
      <trkpt lat="51.79029" lon="3.87486">
        <ele>54.696</ele>
        <time>2020-07-02T11:35:29Z</time>
      </trkpt>
      <trkpt lat="51.79029" lon="3.87486">
        <ele>54.696</ele>
        <time>2020-07-02T11:35:35Z</time>
      </trkpt>
      <trkpt lat="51.79029" lon="3.87486">
        <ele>54.696</ele>
        <time>2020-07-02T11:35:41Z</time>
      </trkpt>
      <trkpt lat="51.79029" lon="3.87486">
        <ele>54.696</ele>
        <time>2020-07-02T11:35:46Z</time>
      </trkpt>
      <trkpt lat="51.79029" lon="3.87486">
        <ele>54.696</ele>
        <time>2020-07-02T11:35:52Z</time>
      </trkpt>
      <trkpt lat="51.79029" lon="3.87486">
        <ele>54.696</ele>
        <time>2020-07-02T11:35:58Z</time>
      </trkpt>
      <trkpt lat="51.79029" lon="3.87486">
        <ele>54.696</ele>
        <time>2020-07-02T11:36:04Z</time>
      </trkpt>
      <trkpt lat="51.79029" lon="3.87486">
        <ele>54.696</ele>
        <time>2020-07-02T11:36:10Z</time>
      </trkpt>
      <trkpt lat="51.79029" lon="3.87486">
        <ele>54.696</ele>
        <time>2020-07-02T11:36:15Z</time>
      </trkpt>
      <trkpt lat="51.79029" lon="3.87486">
        <ele>54.696</ele>
        <time>2020-07-02T11:36:21Z</time>
      </trkpt>
      <trkpt lat="51.79029" lon="3.87486">
        <ele>54.696</ele>
        <time>2020-07-02T11:36:27Z</time>
      </trkpt>
      <trkpt lat="51.79029" lon="3.87486">
        <ele>54.696</ele>
        <time>2020-07-02T11:36:32Z</time>
      </trkpt>
      <trkpt lat="51.79029" lon="3.87486">
        <ele>54.696</ele>
        <time>2020-07-02T11:36:37Z</time>
      </trkpt>
      <trkpt lat="51.79029" lon="3.87486">
        <ele>54.696</ele>
        <time>2020-07-02T11:36:43Z</time>
      </trkpt>
      <trkpt lat="51.79029" lon="3.87486">
        <ele>54.696</ele>
        <time>2020-07-02T11:36:48Z</time>
      </trkpt>
      <trkpt lat="51.79029" lon="3.87486">
        <ele>54.696</ele>
        <time>2020-07-02T11:36:53Z</time>
      </trkpt>
      <trkpt lat="51.79029" lon="3.87486">
        <ele>54.696</ele>
        <time>2020-07-02T11:36:58Z</time>
      </trkpt>
      <trkpt lat="51.79029" lon="3.87486">
        <ele>54.696</ele>
        <time>2020-07-02T11:37:04Z</time>
      </trkpt>
      <trkpt lat="51.79029" lon="3.87485">
        <ele>54.057</ele>
        <time>2020-07-02T11:37:09Z</time>
      </trkpt>
      <trkpt lat="51.79029" lon="3.87485">
        <ele>54.057</ele>
        <time>2020-07-02T11:37:15Z</time>
      </trkpt>
      <trkpt lat="51.79029" lon="3.87485">
        <ele>54.057</ele>
        <time>2020-07-02T11:37:21Z</time>
      </trkpt>
      <trkpt lat="51.79029" lon="3.87485">
        <ele>54.057</ele>
        <time>2020-07-02T11:37:26Z</time>
      </trkpt>
      <trkpt lat="51.79029" lon="3.87485">
        <ele>54.057</ele>
        <time>2020-07-02T11:37:31Z</time>
      </trkpt>
      <trkpt lat="51.79029" lon="3.87485">
        <ele>54.057</ele>
        <time>2020-07-02T11:37:36Z</time>
      </trkpt>
      <trkpt lat="51.79029" lon="3.87485">
        <ele>54.057</ele>
        <time>2020-07-02T11:37:42Z</time>
      </trkpt>
      <trkpt lat="51.79029" lon="3.87485">
        <ele>54.057</ele>
        <time>2020-07-02T11:37:47Z</time>
      </trkpt>
      <trkpt lat="51.7903" lon="3.87489">
        <ele>53.241</ele>
        <time>2020-07-02T11:37:53Z</time>
      </trkpt>
      <trkpt lat="51.79035" lon="3.87503">
        <ele>51.575</ele>
        <time>2020-07-02T11:37:59Z</time>
      </trkpt>
      <trkpt lat="51.79037" lon="3.87523">
        <ele>50.846</ele>
        <time>2020-07-02T11:38:04Z</time>
      </trkpt>
      <trkpt lat="51.79049" lon="3.87525">
        <ele>49.9</ele>
        <time>2020-07-02T11:38:10Z</time>
      </trkpt>
      <trkpt lat="51.7904" lon="3.8751">
        <ele>49.649</ele>
        <time>2020-07-02T11:38:15Z</time>
      </trkpt>
      <trkpt lat="51.79036" lon="3.87483">
        <ele>49.384</ele>
        <time>2020-07-02T11:38:21Z</time>
      </trkpt>
      <trkpt lat="51.79036" lon="3.87459">
        <ele>48.973</ele>
        <time>2020-07-02T11:38:27Z</time>
      </trkpt>
      <trkpt lat="51.79052" lon="3.87447">
        <ele>49.089</ele>
        <time>2020-07-02T11:38:33Z</time>
      </trkpt>
      <trkpt lat="51.79066" lon="3.87435">
        <ele>49.826</ele>
        <time>2020-07-02T11:38:38Z</time>
      </trkpt>
      <trkpt lat="51.79086" lon="3.87419">
        <ele>50.396</ele>
        <time>2020-07-02T11:38:44Z</time>
      </trkpt>
      <trkpt lat="51.79104" lon="3.87402">
        <ele>51.725</ele>
        <time>2020-07-02T11:38:50Z</time>
      </trkpt>
      <trkpt lat="51.79117" lon="3.87388">
        <ele>53.02</ele>
        <time>2020-07-02T11:38:55Z</time>
      </trkpt>
      <trkpt lat="51.79133" lon="3.87371">
        <ele>54.809</ele>
        <time>2020-07-02T11:39:01Z</time>
      </trkpt>
      <trkpt lat="51.79145" lon="3.8735">
        <ele>57.388</ele>
        <time>2020-07-02T11:39:07Z</time>
      </trkpt>
      <trkpt lat="51.79163" lon="3.87334">
        <ele>58.757</ele>
        <time>2020-07-02T11:39:13Z</time>
      </trkpt>
      <trkpt lat="51.79178" lon="3.87323">
        <ele>59.154</ele>
        <time>2020-07-02T11:39:18Z</time>
      </trkpt>
      <trkpt lat="51.79195" lon="3.87315">
        <ele>58.997</ele>
        <time>2020-07-02T11:39:23Z</time>
      </trkpt>
      <trkpt lat="51.79215" lon="3.87305">
        <ele>59.381</ele>
        <time>2020-07-02T11:39:29Z</time>
      </trkpt>
      <trkpt lat="51.79238" lon="3.87289">
        <ele>59.58</ele>
        <time>2020-07-02T11:39:35Z</time>
      </trkpt>
      <trkpt lat="51.79266" lon="3.87266">
        <ele>59.329</ele>
        <time>2020-07-02T11:39:41Z</time>
      </trkpt>
      <trkpt lat="51.79284" lon="3.87252">
        <ele>58.426</ele>
        <time>2020-07-02T11:39:46Z</time>
      </trkpt>
      <trkpt lat="51.79303" lon="3.87237">
        <ele>58.719</ele>
        <time>2020-07-02T11:39:51Z</time>
      </trkpt>
      <trkpt lat="51.79322" lon="3.87221">
        <ele>57.992</ele>
        <time>2020-07-02T11:39:57Z</time>
      </trkpt>
      <trkpt lat="51.7934" lon="3.87206">
        <ele>57.227</ele>
        <time>2020-07-02T11:40:02Z</time>
      </trkpt>
      <trkpt lat="51.79357" lon="3.87192">
        <ele>57.515</ele>
        <time>2020-07-02T11:40:07Z</time>
      </trkpt>
      <trkpt lat="51.7938" lon="3.87173">
        <ele>56.275</ele>
        <time>2020-07-02T11:40:13Z</time>
      </trkpt>
      <trkpt lat="51.794" lon="3.87156">
        <ele>55.081</ele>
        <time>2020-07-02T11:40:18Z</time>
      </trkpt>
      <trkpt lat="51.79417" lon="3.87141">
        <ele>54.32</ele>
        <time>2020-07-02T11:40:23Z</time>
      </trkpt>
      <trkpt lat="51.79438" lon="3.87122">
        <ele>53.686</ele>
        <time>2020-07-02T11:40:29Z</time>
      </trkpt>
      <trkpt lat="51.79459" lon="3.87108">
        <ele>53.175</ele>
        <time>2020-07-02T11:40:35Z</time>
      </trkpt>
      <trkpt lat="51.79487" lon="3.87084">
        <ele>52.755</ele>
        <time>2020-07-02T11:40:41Z</time>
      </trkpt>
      <trkpt lat="51.79507" lon="3.87067">
        <ele>52.559</ele>
        <time>2020-07-02T11:40:46Z</time>
      </trkpt>
      <trkpt lat="51.79529" lon="3.87049">
        <ele>52.934</ele>
        <time>2020-07-02T11:40:51Z</time>
      </trkpt>
      <trkpt lat="51.79553" lon="3.87029">
        <ele>55.08</ele>
        <time>2020-07-02T11:40:57Z</time>
      </trkpt>
      <trkpt lat="51.79569" lon="3.87016">
        <ele>55.914</ele>
        <time>2020-07-02T11:41:02Z</time>
      </trkpt>
      <trkpt lat="51.79587" lon="3.87004">
        <ele>55.94</ele>
        <time>2020-07-02T11:41:08Z</time>
      </trkpt>
      <trkpt lat="51.79608" lon="3.86988">
        <ele>56.616</ele>
        <time>2020-07-02T11:41:13Z</time>
      </trkpt>
      <trkpt lat="51.79633" lon="3.86974">
        <ele>56.48</ele>
        <time>2020-07-02T11:41:18Z</time>
      </trkpt>
      <trkpt lat="51.79659" lon="3.86968">
        <ele>55.208</ele>
        <time>2020-07-02T11:41:23Z</time>
      </trkpt>
      <trkpt lat="51.79678" lon="3.86983">
        <ele>57.192</ele>
        <time>2020-07-02T11:41:28Z</time>
      </trkpt>
      <trkpt lat="51.79703" lon="3.87003">
        <ele>57.688</ele>
        <time>2020-07-02T11:41:34Z</time>
      </trkpt>
      <trkpt lat="51.79728" lon="3.87012">
        <ele>57.631</ele>
        <time>2020-07-02T11:41:39Z</time>
      </trkpt>
      <trkpt lat="51.7976" lon="3.87022">
        <ele>56.67</ele>
        <time>2020-07-02T11:41:45Z</time>
      </trkpt>
      <trkpt lat="51.7991" lon="3.87068">
        <ele>47.9</ele>
        <time>2020-07-02T11:42:28Z</time>
      </trkpt>
      <trkpt lat="51.7988" lon="3.87073">
        <ele>37.774</ele>
        <time>2020-07-02T11:42:33Z</time>
      </trkpt>
      <trkpt lat="51.79873" lon="3.87066">
        <ele>42.929</ele>
        <time>2020-07-02T11:42:39Z</time>
      </trkpt>
      <trkpt lat="51.79873" lon="3.87066">
        <ele>42.929</ele>
        <time>2020-07-02T11:42:45Z</time>
      </trkpt>
      <trkpt lat="51.79873" lon="3.87066">
        <ele>42.929</ele>
        <time>2020-07-02T11:42:51Z</time>
      </trkpt>
      <trkpt lat="51.79873" lon="3.87066">
        <ele>42.929</ele>
        <time>2020-07-02T11:42:56Z</time>
      </trkpt>
      <trkpt lat="51.79873" lon="3.87066">
        <ele>42.929</ele>
        <time>2020-07-02T11:43:01Z</time>
      </trkpt>
      <trkpt lat="51.79873" lon="3.87066">
        <ele>42.929</ele>
        <time>2020-07-02T11:43:06Z</time>
      </trkpt>
      <trkpt lat="51.79875" lon="3.87065">
        <ele>43.249</ele>
        <time>2020-07-02T11:43:12Z</time>
      </trkpt>
      <trkpt lat="51.79884" lon="3.87055">
        <ele>45.352</ele>
        <time>2020-07-02T11:43:17Z</time>
      </trkpt>
      <trkpt lat="51.7989" lon="3.87036">
        <ele>46.308</ele>
        <time>2020-07-02T11:43:23Z</time>
      </trkpt>
      <trkpt lat="51.79893" lon="3.8702">
        <ele>48.272</ele>
        <time>2020-07-02T11:43:28Z</time>
      </trkpt>
      <trkpt lat="51.79902" lon="3.86994">
        <ele>48.057</ele>
        <time>2020-07-02T11:43:34Z</time>
      </trkpt>
      <trkpt lat="51.79912" lon="3.86965">
        <ele>50.499</ele>
        <time>2020-07-02T11:43:39Z</time>
      </trkpt>
      <trkpt lat="51.79921" lon="3.8693">
        <ele>51.067</ele>
        <time>2020-07-02T11:43:45Z</time>
      </trkpt>
      <trkpt lat="51.79931" lon="3.86895">
        <ele>51.528</ele>
        <time>2020-07-02T11:43:50Z</time>
      </trkpt>
      <trkpt lat="51.7994" lon="3.86853">
        <ele>51.618</ele>
        <time>2020-07-02T11:43:56Z</time>
      </trkpt>
      <trkpt lat="51.79953" lon="3.86821">
        <ele>53.874</ele>
        <time>2020-07-02T11:44:02Z</time>
      </trkpt>
      <trkpt lat="51.79975" lon="3.86782">
        <ele>55.582</ele>
        <time>2020-07-02T11:44:08Z</time>
      </trkpt>
      <trkpt lat="51.79992" lon="3.86751">
        <ele>56.138</ele>
        <time>2020-07-02T11:44:13Z</time>
      </trkpt>
      <trkpt lat="51.80003" lon="3.86724">
        <ele>55.293</ele>
        <time>2020-07-02T11:44:18Z</time>
      </trkpt>
      <trkpt lat="51.8001" lon="3.86692">
        <ele>55.39</ele>
        <time>2020-07-02T11:44:24Z</time>
      </trkpt>
      <trkpt lat="51.80019" lon="3.86664">
        <ele>55.878</ele>
        <time>2020-07-02T11:44:29Z</time>
      </trkpt>
      <trkpt lat="51.80034" lon="3.86624">
        <ele>55.828</ele>
        <time>2020-07-02T11:44:35Z</time>
      </trkpt>
      <trkpt lat="51.80049" lon="3.86589">
        <ele>53.861</ele>
        <time>2020-07-02T11:44:40Z</time>
      </trkpt>
      <trkpt lat="51.80069" lon="3.86561">
        <ele>50.835</ele>
        <time>2020-07-02T11:44:46Z</time>
      </trkpt>
      <trkpt lat="51.80085" lon="3.86542">
        <ele>49.566</ele>
        <time>2020-07-02T11:44:51Z</time>
      </trkpt>
      <trkpt lat="51.80107" lon="3.86517">
        <ele>50.119</ele>
        <time>2020-07-02T11:44:57Z</time>
      </trkpt>
      <trkpt lat="51.80129" lon="3.86488">
        <ele>50.598</ele>
        <time>2020-07-02T11:45:03Z</time>
      </trkpt>
      <trkpt lat="51.80145" lon="3.8646">
        <ele>49.3</ele>
        <time>2020-07-02T11:45:09Z</time>
      </trkpt>
      <trkpt lat="51.80165" lon="3.86431">
        <ele>49.441</ele>
        <time>2020-07-02T11:45:15Z</time>
      </trkpt>
      <trkpt lat="51.80182" lon="3.86412">
        <ele>49.967</ele>
        <time>2020-07-02T11:45:20Z</time>
      </trkpt>
      <trkpt lat="51.80202" lon="3.86391">
        <ele>51.954</ele>
        <time>2020-07-02T11:45:26Z</time>
      </trkpt>
      <trkpt lat="51.80225" lon="3.86373">
        <ele>55.618</ele>
        <time>2020-07-02T11:45:31Z</time>
      </trkpt>
      <trkpt lat="51.80249" lon="3.86354">
        <ele>57.565</ele>
        <time>2020-07-02T11:45:37Z</time>
      </trkpt>
      <trkpt lat="51.80273" lon="3.86338">
        <ele>59.034</ele>
        <time>2020-07-02T11:45:43Z</time>
      </trkpt>
      <trkpt lat="51.80296" lon="3.86326">
        <ele>60.001</ele>
        <time>2020-07-02T11:45:49Z</time>
      </trkpt>
      <trkpt lat="51.80321" lon="3.8631">
        <ele>61.213</ele>
        <time>2020-07-02T11:45:55Z</time>
      </trkpt>
      <trkpt lat="51.80344" lon="3.86322">
        <ele>57.496</ele>
        <time>2020-07-02T11:46:01Z</time>
      </trkpt>
      <trkpt lat="51.80358" lon="3.86354">
        <ele>54.094</ele>
        <time>2020-07-02T11:46:06Z</time>
      </trkpt>
      <trkpt lat="51.80376" lon="3.86389">
        <ele>51.068</ele>
        <time>2020-07-02T11:46:12Z</time>
      </trkpt>
      <trkpt lat="51.8039" lon="3.8642">
        <ele>49.239</ele>
        <time>2020-07-02T11:46:17Z</time>
      </trkpt>
      <trkpt lat="51.80413" lon="3.86429">
        <ele>48.059</ele>
        <time>2020-07-02T11:46:22Z</time>
      </trkpt>
      <trkpt lat="51.80437" lon="3.86413">
        <ele>47.498</ele>
        <time>2020-07-02T11:46:28Z</time>
      </trkpt>
      <trkpt lat="51.80459" lon="3.86411">
        <ele>47.446</ele>
        <time>2020-07-02T11:46:33Z</time>
      </trkpt>
      <trkpt lat="51.80488" lon="3.86401">
        <ele>48.517</ele>
        <time>2020-07-02T11:46:39Z</time>
      </trkpt>
      <trkpt lat="51.80512" lon="3.86392">
        <ele>49.684</ele>
        <time>2020-07-02T11:46:44Z</time>
      </trkpt>
      <trkpt lat="51.80539" lon="3.8638">
        <ele>50.96</ele>
        <time>2020-07-02T11:46:50Z</time>
      </trkpt>
      <trkpt lat="51.80568" lon="3.86366">
        <ele>51.86</ele>
        <time>2020-07-02T11:46:56Z</time>
      </trkpt>
      <trkpt lat="51.80596" lon="3.86353">
        <ele>51.72</ele>
        <time>2020-07-02T11:47:02Z</time>
      </trkpt>
      <trkpt lat="51.80623" lon="3.86342">
        <ele>52.184</ele>
        <time>2020-07-02T11:47:08Z</time>
      </trkpt>
      <trkpt lat="51.80644" lon="3.86334">
        <ele>52.453</ele>
        <time>2020-07-02T11:47:14Z</time>
      </trkpt>
      <trkpt lat="51.80669" lon="3.86323">
        <ele>52.819</ele>
        <time>2020-07-02T11:47:19Z</time>
      </trkpt>
      <trkpt lat="51.80698" lon="3.8631">
        <ele>54.199</ele>
        <time>2020-07-02T11:47:25Z</time>
      </trkpt>
      <trkpt lat="51.8072" lon="3.863">
        <ele>54.979</ele>
        <time>2020-07-02T11:47:30Z</time>
      </trkpt>
      <trkpt lat="51.80738" lon="3.86293">
        <ele>55.248</ele>
        <time>2020-07-02T11:47:35Z</time>
      </trkpt>
      <trkpt lat="51.80751" lon="3.86283">
        <ele>55.822</ele>
        <time>2020-07-02T11:47:41Z</time>
      </trkpt>
      <trkpt lat="51.80764" lon="3.86267">
        <ele>56.672</ele>
        <time>2020-07-02T11:47:47Z</time>
      </trkpt>
      <trkpt lat="51.80777" lon="3.86248">
        <ele>57.987</ele>
        <time>2020-07-02T11:47:52Z</time>
      </trkpt>
      <trkpt lat="51.80797" lon="3.86216">
        <ele>55.776</ele>
        <time>2020-07-02T11:47:58Z</time>
      </trkpt>
      <trkpt lat="51.80818" lon="3.86204">
        <ele>53.601</ele>
        <time>2020-07-02T11:48:03Z</time>
      </trkpt>
      <trkpt lat="51.80847" lon="3.86205">
        <ele>52.177</ele>
        <time>2020-07-02T11:48:09Z</time>
      </trkpt>
      <trkpt lat="51.80873" lon="3.8623">
        <ele>51.005</ele>
        <time>2020-07-02T11:48:15Z</time>
      </trkpt>
      <trkpt lat="51.80899" lon="3.86256">
        <ele>49.926</ele>
        <time>2020-07-02T11:48:21Z</time>
      </trkpt>
      <trkpt lat="51.80921" lon="3.86277">
        <ele>49.281</ele>
        <time>2020-07-02T11:48:26Z</time>
      </trkpt>
      <trkpt lat="51.80947" lon="3.86303">
        <ele>48.356</ele>
        <time>2020-07-02T11:48:32Z</time>
      </trkpt>
      <trkpt lat="51.8097" lon="3.86325">
        <ele>48.252</ele>
        <time>2020-07-02T11:48:37Z</time>
      </trkpt>
      <trkpt lat="51.80991" lon="3.86346">
        <ele>48.302</ele>
        <time>2020-07-02T11:48:42Z</time>
      </trkpt>
      <trkpt lat="51.81017" lon="3.86371">
        <ele>48.266</ele>
        <time>2020-07-02T11:48:48Z</time>
      </trkpt>
      <trkpt lat="51.81038" lon="3.86392">
        <ele>47.992</ele>
        <time>2020-07-02T11:48:53Z</time>
      </trkpt>
      <trkpt lat="51.81063" lon="3.86416">
        <ele>47.635</ele>
        <time>2020-07-02T11:48:59Z</time>
      </trkpt>
      <trkpt lat="51.81085" lon="3.86437">
        <ele>47.36</ele>
        <time>2020-07-02T11:49:04Z</time>
      </trkpt>
      <trkpt lat="51.8111" lon="3.86463">
        <ele>47.724</ele>
        <time>2020-07-02T11:49:10Z</time>
      </trkpt>
      <trkpt lat="51.81124" lon="3.86494">
        <ele>47.809</ele>
        <time>2020-07-02T11:49:16Z</time>
      </trkpt>
      <trkpt lat="51.8113" lon="3.86522">
        <ele>48.206</ele>
        <time>2020-07-02T11:49:21Z</time>
      </trkpt>
      <trkpt lat="51.81137" lon="3.86551">
        <ele>48.277</ele>
        <time>2020-07-02T11:49:27Z</time>
      </trkpt>
      <trkpt lat="51.81142" lon="3.86575">
        <ele>48.776</ele>
        <time>2020-07-02T11:49:32Z</time>
      </trkpt>
      <trkpt lat="51.81151" lon="3.86605">
        <ele>49.225</ele>
        <time>2020-07-02T11:49:38Z</time>
      </trkpt>
      <trkpt lat="51.8116" lon="3.86632">
        <ele>50.144</ele>
        <time>2020-07-02T11:49:43Z</time>
      </trkpt>
      <trkpt lat="51.81176" lon="3.86667">
        <ele>51.627</ele>
        <time>2020-07-02T11:49:49Z</time>
      </trkpt>
      <trkpt lat="51.81198" lon="3.86699">
        <ele>54.137</ele>
        <time>2020-07-02T11:49:55Z</time>
      </trkpt>
      <trkpt lat="51.81213" lon="3.86716">
        <ele>54.338</ele>
        <time>2020-07-02T11:50:00Z</time>
      </trkpt>
      <trkpt lat="51.81231" lon="3.86735">
        <ele>54.982</ele>
        <time>2020-07-02T11:50:05Z</time>
      </trkpt>
      <trkpt lat="51.81257" lon="3.86766">
        <ele>56.601</ele>
        <time>2020-07-02T11:50:10Z</time>
      </trkpt>
      <trkpt lat="51.81888" lon="3.88334">
        <ele>56.104</ele>
        <time>2020-07-02T11:53:50Z</time>
      </trkpt>
      <trkpt lat="51.81899" lon="3.88375">
        <ele>40.815</ele>
        <time>2020-07-02T11:53:56Z</time>
      </trkpt>
      <trkpt lat="51.81904" lon="3.88404">
        <ele>42.958</ele>
        <time>2020-07-02T11:54:01Z</time>
      </trkpt>
      <trkpt lat="51.81906" lon="3.88445">
        <ele>45.917</ele>
        <time>2020-07-02T11:54:06Z</time>
      </trkpt>
      <trkpt lat="51.81925" lon="3.88504">
        <ele>47.302</ele>
        <time>2020-07-02T11:54:13Z</time>
      </trkpt>
      <trkpt lat="51.81942" lon="3.88551">
        <ele>46.311</ele>
        <time>2020-07-02T11:54:19Z</time>
      </trkpt>
      <trkpt lat="51.8196" lon="3.88597">
        <ele>44.293</ele>
        <time>2020-07-02T11:54:25Z</time>
      </trkpt>
      <trkpt lat="51.81975" lon="3.88637">
        <ele>43.532</ele>
        <time>2020-07-02T11:54:30Z</time>
      </trkpt>
      <trkpt lat="51.81989" lon="3.88676">
        <ele>44.067</ele>
        <time>2020-07-02T11:54:35Z</time>
      </trkpt>
      <trkpt lat="51.82006" lon="3.88724">
        <ele>45.268</ele>
        <time>2020-07-02T11:54:41Z</time>
      </trkpt>
      <trkpt lat="51.8202" lon="3.88763">
        <ele>45.762</ele>
        <time>2020-07-02T11:54:46Z</time>
      </trkpt>
      <trkpt lat="51.82035" lon="3.88802">
        <ele>46.03</ele>
        <time>2020-07-02T11:54:51Z</time>
      </trkpt>
      <trkpt lat="51.82052" lon="3.88849">
        <ele>45.459</ele>
        <time>2020-07-02T11:54:57Z</time>
      </trkpt>
      <trkpt lat="51.8207" lon="3.88895">
        <ele>45.766</ele>
        <time>2020-07-02T11:55:03Z</time>
      </trkpt>
      <trkpt lat="51.82083" lon="3.88935">
        <ele>46.23</ele>
        <time>2020-07-02T11:55:08Z</time>
      </trkpt>
      <trkpt lat="51.82101" lon="3.88979">
        <ele>47.462</ele>
        <time>2020-07-02T11:55:14Z</time>
      </trkpt>
      <trkpt lat="51.82113" lon="3.88996">
        <ele>46.063</ele>
        <time>2020-07-02T11:55:19Z</time>
      </trkpt>
      <trkpt lat="51.82128" lon="3.88996">
        <ele>46.971</ele>
        <time>2020-07-02T11:55:24Z</time>
      </trkpt>
      <trkpt lat="51.82152" lon="3.88992">
        <ele>47.186</ele>
        <time>2020-07-02T11:55:30Z</time>
      </trkpt>
      <trkpt lat="51.82172" lon="3.88992">
        <ele>47.398</ele>
        <time>2020-07-02T11:55:35Z</time>
      </trkpt>
      <trkpt lat="51.82193" lon="3.88991">
        <ele>48.604</ele>
        <time>2020-07-02T11:55:40Z</time>
      </trkpt>
      <trkpt lat="51.82214" lon="3.88988">
        <ele>49.675</ele>
        <time>2020-07-02T11:55:45Z</time>
      </trkpt>
      <trkpt lat="51.82239" lon="3.88989">
        <ele>49.58</ele>
        <time>2020-07-02T11:55:51Z</time>
      </trkpt>
      <trkpt lat="51.82249" lon="3.8902">
        <ele>48.79</ele>
        <time>2020-07-02T11:55:56Z</time>
      </trkpt>
      <trkpt lat="51.82257" lon="3.89052">
        <ele>48.451</ele>
        <time>2020-07-02T11:56:01Z</time>
      </trkpt>
      <trkpt lat="51.82269" lon="3.89092">
        <ele>47.699</ele>
        <time>2020-07-02T11:56:07Z</time>
      </trkpt>
      <trkpt lat="51.82278" lon="3.89129">
        <ele>48.203</ele>
        <time>2020-07-02T11:56:12Z</time>
      </trkpt>
      <trkpt lat="51.82285" lon="3.89168">
        <ele>48.386</ele>
        <time>2020-07-02T11:56:17Z</time>
      </trkpt>
      <trkpt lat="51.82292" lon="3.89217">
        <ele>47.508</ele>
        <time>2020-07-02T11:56:23Z</time>
      </trkpt>
      <trkpt lat="51.82299" lon="3.89265">
        <ele>46.548</ele>
        <time>2020-07-02T11:56:29Z</time>
      </trkpt>
      <trkpt lat="51.82306" lon="3.89305">
        <ele>45.795</ele>
        <time>2020-07-02T11:56:34Z</time>
      </trkpt>
      <trkpt lat="51.82315" lon="3.89352">
        <ele>45.788</ele>
        <time>2020-07-02T11:56:40Z</time>
      </trkpt>
      <trkpt lat="51.82322" lon="3.89393">
        <ele>45.863</ele>
        <time>2020-07-02T11:56:45Z</time>
      </trkpt>
      <trkpt lat="51.82333" lon="3.89444">
        <ele>46.069</ele>
        <time>2020-07-02T11:56:51Z</time>
      </trkpt>
      <trkpt lat="51.82341" lon="3.89487">
        <ele>46.445</ele>
        <time>2020-07-02T11:56:56Z</time>
      </trkpt>
      <trkpt lat="51.82351" lon="3.89542">
        <ele>46.56</ele>
        <time>2020-07-02T11:57:02Z</time>
      </trkpt>
      <trkpt lat="51.82356" lon="3.89589">
        <ele>46.252</ele>
        <time>2020-07-02T11:57:07Z</time>
      </trkpt>
      <trkpt lat="51.82353" lon="3.89645">
        <ele>47.257</ele>
        <time>2020-07-02T11:57:13Z</time>
      </trkpt>
      <trkpt lat="51.82352" lon="3.89693">
        <ele>47.307</ele>
        <time>2020-07-02T11:57:18Z</time>
      </trkpt>
      <trkpt lat="51.82351" lon="3.89746">
        <ele>47.395</ele>
        <time>2020-07-02T11:57:24Z</time>
      </trkpt>
      <trkpt lat="51.82352" lon="3.89786">
        <ele>48.09</ele>
        <time>2020-07-02T11:57:30Z</time>
      </trkpt>
      <trkpt lat="51.82358" lon="3.8981">
        <ele>49.393</ele>
        <time>2020-07-02T11:57:36Z</time>
      </trkpt>
      <trkpt lat="51.82371" lon="3.89816">
        <ele>50.729</ele>
        <time>2020-07-02T11:57:41Z</time>
      </trkpt>
      <trkpt lat="51.8238" lon="3.8982">
        <ele>51.985</ele>
        <time>2020-07-02T11:57:46Z</time>
      </trkpt>
      <trkpt lat="51.82387" lon="3.89826">
        <ele>53.11</ele>
        <time>2020-07-02T11:57:51Z</time>
      </trkpt>
      <trkpt lat="51.82397" lon="3.89832">
        <ele>54.06</ele>
        <time>2020-07-02T11:57:57Z</time>
      </trkpt>
      <trkpt lat="51.82406" lon="3.89838">
        <ele>54.913</ele>
        <time>2020-07-02T11:58:02Z</time>
      </trkpt>
      <trkpt lat="51.82416" lon="3.89845">
        <ele>55.639</ele>
        <time>2020-07-02T11:58:08Z</time>
      </trkpt>
      <trkpt lat="51.82424" lon="3.8985">
        <ele>56.784</ele>
        <time>2020-07-02T11:58:13Z</time>
      </trkpt>
      <trkpt lat="51.82432" lon="3.89856">
        <ele>57.634</ele>
        <time>2020-07-02T11:58:19Z</time>
      </trkpt>
      <trkpt lat="51.82439" lon="3.89861">
        <ele>58.361</ele>
        <time>2020-07-02T11:58:24Z</time>
      </trkpt>
      <trkpt lat="51.82448" lon="3.89865">
        <ele>59.435</ele>
        <time>2020-07-02T11:58:30Z</time>
      </trkpt>
      <trkpt lat="51.82454" lon="3.8987">
        <ele>59.517</ele>
        <time>2020-07-02T11:58:35Z</time>
      </trkpt>
      <trkpt lat="51.82456" lon="3.89888">
        <ele>59.34</ele>
        <time>2020-07-02T11:58:41Z</time>
      </trkpt>
      <trkpt lat="51.82456" lon="3.89907">
        <ele>59.229</ele>
        <time>2020-07-02T11:58:46Z</time>
      </trkpt>
      <trkpt lat="51.82457" lon="3.89937">
        <ele>58.728</ele>
        <time>2020-07-02T11:58:52Z</time>
      </trkpt>
      <trkpt lat="51.8246" lon="3.89969">
        <ele>57.901</ele>
        <time>2020-07-02T11:58:58Z</time>
      </trkpt>
      <trkpt lat="51.82461" lon="3.89997">
        <ele>57.422</ele>
        <time>2020-07-02T11:59:03Z</time>
      </trkpt>
      <trkpt lat="51.82463" lon="3.90029">
        <ele>57.082</ele>
        <time>2020-07-02T11:59:08Z</time>
      </trkpt>
      <trkpt lat="51.82465" lon="3.90068">
        <ele>56.999</ele>
        <time>2020-07-02T11:59:14Z</time>
      </trkpt>
      <trkpt lat="51.82467" lon="3.90111">
        <ele>56.987</ele>
        <time>2020-07-02T11:59:20Z</time>
      </trkpt>
      <trkpt lat="51.82468" lon="3.90134">
        <ele>8.5</ele>
        <time>2020-07-02T11:59:39Z</time>
      </trkpt>
      <trkpt lat="51.82474" lon="3.90304">
        <ele>53.063</ele>
        <time>2020-07-02T11:59:45Z</time>
      </trkpt>
      <trkpt lat="51.82472" lon="3.90347">
        <ele>52.437</ele>
        <time>2020-07-02T11:59:51Z</time>
      </trkpt>
      <trkpt lat="51.82472" lon="3.90397">
        <ele>52.939</ele>
        <time>2020-07-02T11:59:58Z</time>
      </trkpt>
      <trkpt lat="51.82473" lon="3.90448">
        <ele>52.809</ele>
        <time>2020-07-02T12:00:05Z</time>
      </trkpt>
      <trkpt lat="51.82473" lon="3.90489">
        <ele>52.717</ele>
        <time>2020-07-02T12:00:10Z</time>
      </trkpt>
      <trkpt lat="51.82472" lon="3.90533">
        <ele>52.283</ele>
        <time>2020-07-02T12:00:15Z</time>
      </trkpt>
      <trkpt lat="51.8247" lon="3.90575">
        <ele>52.374</ele>
        <time>2020-07-02T12:00:20Z</time>
      </trkpt>
      <trkpt lat="51.82469" lon="3.90619">
        <ele>53.149</ele>
        <time>2020-07-02T12:00:26Z</time>
      </trkpt>
      <trkpt lat="51.82468" lon="3.90634">
        <ele>53.337</ele>
        <time>2020-07-02T12:00:31Z</time>
      </trkpt>
      <trkpt lat="51.82466" lon="3.90668">
        <ele>53.718</ele>
        <time>2020-07-02T12:00:37Z</time>
      </trkpt>
      <trkpt lat="51.82466" lon="3.90706">
        <ele>54.281</ele>
        <time>2020-07-02T12:00:43Z</time>
      </trkpt>
      <trkpt lat="51.82463" lon="3.90738">
        <ele>55.408</ele>
        <time>2020-07-02T12:00:49Z</time>
      </trkpt>
      <trkpt lat="51.8246" lon="3.90773">
        <ele>55.528</ele>
        <time>2020-07-02T12:00:54Z</time>
      </trkpt>
      <trkpt lat="51.82458" lon="3.90812">
        <ele>55.508</ele>
        <time>2020-07-02T12:00:59Z</time>
      </trkpt>
      <trkpt lat="51.82456" lon="3.90858">
        <ele>55.496</ele>
        <time>2020-07-02T12:01:05Z</time>
      </trkpt>
      <trkpt lat="51.82454" lon="3.90898">
        <ele>55.486</ele>
        <time>2020-07-02T12:01:10Z</time>
      </trkpt>
      <trkpt lat="51.82452" lon="3.90944">
        <ele>54.717</ele>
        <time>2020-07-02T12:01:16Z</time>
      </trkpt>
      <trkpt lat="51.82451" lon="3.90985">
        <ele>55.3</ele>
        <time>2020-07-02T12:01:21Z</time>
      </trkpt>
      <trkpt lat="51.82451" lon="3.91042">
        <ele>55.292</ele>
        <time>2020-07-02T12:01:28Z</time>
      </trkpt>
      <trkpt lat="51.82451" lon="3.9109">
        <ele>54.137</ele>
        <time>2020-07-02T12:01:34Z</time>
      </trkpt>
      <trkpt lat="51.82453" lon="3.91133">
        <ele>53.99</ele>
        <time>2020-07-02T12:01:39Z</time>
      </trkpt>
      <trkpt lat="51.82456" lon="3.91175">
        <ele>54.037</ele>
        <time>2020-07-02T12:01:44Z</time>
      </trkpt>
      <trkpt lat="51.82459" lon="3.91217">
        <ele>54.535</ele>
        <time>2020-07-02T12:01:49Z</time>
      </trkpt>
      <trkpt lat="51.82463" lon="3.9126">
        <ele>54.572</ele>
        <time>2020-07-02T12:01:54Z</time>
      </trkpt>
      <trkpt lat="51.82467" lon="3.91304">
        <ele>54.389</ele>
        <time>2020-07-02T12:01:59Z</time>
      </trkpt>
      <trkpt lat="51.82472" lon="3.91357">
        <ele>54.199</ele>
        <time>2020-07-02T12:02:05Z</time>
      </trkpt>
      <trkpt lat="51.82477" lon="3.914">
        <ele>54.176</ele>
        <time>2020-07-02T12:02:10Z</time>
      </trkpt>
      <trkpt lat="51.82482" lon="3.91452">
        <ele>54.42</ele>
        <time>2020-07-02T12:02:16Z</time>
      </trkpt>
      <trkpt lat="51.82485" lon="3.91503">
        <ele>54.398</ele>
        <time>2020-07-02T12:02:22Z</time>
      </trkpt>
      <trkpt lat="51.82489" lon="3.91546">
        <ele>54.09</ele>
        <time>2020-07-02T12:02:27Z</time>
      </trkpt>
      <trkpt lat="51.82494" lon="3.91598">
        <ele>54.016</ele>
        <time>2020-07-02T12:02:33Z</time>
      </trkpt>
      <trkpt lat="51.82499" lon="3.91643">
        <ele>53.996</ele>
        <time>2020-07-02T12:02:38Z</time>
      </trkpt>
      <trkpt lat="51.82504" lon="3.91696">
        <ele>53.782</ele>
        <time>2020-07-02T12:02:44Z</time>
      </trkpt>
      <trkpt lat="51.82509" lon="3.91746">
        <ele>54.385</ele>
        <time>2020-07-02T12:02:50Z</time>
      </trkpt>
      <trkpt lat="51.82515" lon="3.91792">
        <ele>53.852</ele>
        <time>2020-07-02T12:02:56Z</time>
      </trkpt>
      <trkpt lat="51.82537" lon="3.91804">
        <ele>54.788</ele>
        <time>2020-07-02T12:03:01Z</time>
      </trkpt>
      <trkpt lat="51.82573" lon="3.91827">
        <ele>54.336</ele>
        <time>2020-07-02T12:03:07Z</time>
      </trkpt>
      <trkpt lat="51.82599" lon="3.91866">
        <ele>53.314</ele>
        <time>2020-07-02T12:03:12Z</time>
      </trkpt>
      <trkpt lat="51.82621" lon="3.91925">
        <ele>52.114</ele>
        <time>2020-07-02T12:03:18Z</time>
      </trkpt>
      <trkpt lat="51.82637" lon="3.91984">
        <ele>51.958</ele>
        <time>2020-07-02T12:03:24Z</time>
      </trkpt>
      <trkpt lat="51.82651" lon="3.92028">
        <ele>52.089</ele>
        <time>2020-07-02T12:03:29Z</time>
      </trkpt>
      <trkpt lat="51.82679" lon="3.92064">
        <ele>52.653</ele>
        <time>2020-07-02T12:03:35Z</time>
      </trkpt>
      <trkpt lat="51.82707" lon="3.92097">
        <ele>52.014</ele>
        <time>2020-07-02T12:03:41Z</time>
      </trkpt>
      <trkpt lat="51.82719" lon="3.92144">
        <ele>51.446</ele>
        <time>2020-07-02T12:03:47Z</time>
      </trkpt>
      <trkpt lat="51.82722" lon="3.92198">
        <ele>51.402</ele>
        <time>2020-07-02T12:03:53Z</time>
      </trkpt>
      <trkpt lat="51.82729" lon="3.92242">
        <ele>51.191</ele>
        <time>2020-07-02T12:03:58Z</time>
      </trkpt>
      <trkpt lat="51.82741" lon="3.92284">
        <ele>51.96</ele>
        <time>2020-07-02T12:04:03Z</time>
      </trkpt>
      <trkpt lat="51.82756" lon="3.92333">
        <ele>52.503</ele>
        <time>2020-07-02T12:04:09Z</time>
      </trkpt>
      <trkpt lat="51.82771" lon="3.92388">
        <ele>52.28</ele>
        <time>2020-07-02T12:04:15Z</time>
      </trkpt>
      <trkpt lat="51.82783" lon="3.92428">
        <ele>52.073</ele>
        <time>2020-07-02T12:04:20Z</time>
      </trkpt>
      <trkpt lat="51.82796" lon="3.92471">
        <ele>52.538</ele>
        <time>2020-07-02T12:04:26Z</time>
      </trkpt>
      <trkpt lat="51.82805" lon="3.92503">
        <ele>52.79</ele>
        <time>2020-07-02T12:04:31Z</time>
      </trkpt>
      <trkpt lat="51.82809" lon="3.92547">
        <ele>53.215</ele>
        <time>2020-07-02T12:04:37Z</time>
      </trkpt>
      <trkpt lat="51.82811" lon="3.92589">
        <ele>53.9</ele>
        <time>2020-07-02T12:04:43Z</time>
      </trkpt>
      <trkpt lat="51.82812" lon="3.92616">
        <ele>54.588</ele>
        <time>2020-07-02T12:04:48Z</time>
      </trkpt>
      <trkpt lat="51.82815" lon="3.92647">
        <ele>55.064</ele>
        <time>2020-07-02T12:04:54Z</time>
      </trkpt>
      <trkpt lat="51.82823" lon="3.92678">
        <ele>56.156</ele>
        <time>2020-07-02T12:05:00Z</time>
      </trkpt>
      <trkpt lat="51.82831" lon="3.92705">
        <ele>56.775</ele>
        <time>2020-07-02T12:05:05Z</time>
      </trkpt>
      <trkpt lat="51.82841" lon="3.92743">
        <ele>55.756</ele>
        <time>2020-07-02T12:05:11Z</time>
      </trkpt>
      <trkpt lat="51.82854" lon="3.92781">
        <ele>55.604</ele>
        <time>2020-07-02T12:05:17Z</time>
      </trkpt>
      <trkpt lat="51.82863" lon="3.92815">
        <ele>55.731</ele>
        <time>2020-07-02T12:05:22Z</time>
      </trkpt>
      <trkpt lat="51.82875" lon="3.92857">
        <ele>56.07</ele>
        <time>2020-07-02T12:05:28Z</time>
      </trkpt>
      <trkpt lat="51.82888" lon="3.929">
        <ele>56.986</ele>
        <time>2020-07-02T12:05:34Z</time>
      </trkpt>
      <trkpt lat="51.82898" lon="3.92937">
        <ele>57.789</ele>
        <time>2020-07-02T12:05:39Z</time>
      </trkpt>
      <trkpt lat="51.82908" lon="3.92985">
        <ele>57.475</ele>
        <time>2020-07-02T12:05:46Z</time>
      </trkpt>
      <trkpt lat="51.82911" lon="3.92996">
        <ele>56.393</ele>
        <time>2020-07-02T12:05:52Z</time>
      </trkpt>
      <trkpt lat="51.82911" lon="3.92995">
        <ele>56.184</ele>
        <time>2020-07-02T12:05:57Z</time>
      </trkpt>
      <trkpt lat="51.82911" lon="3.92995">
        <ele>56.184</ele>
        <time>2020-07-02T12:06:03Z</time>
      </trkpt>
      <trkpt lat="51.82911" lon="3.92995">
        <ele>56.184</ele>
        <time>2020-07-02T12:06:09Z</time>
      </trkpt>
      <trkpt lat="51.82911" lon="3.92995">
        <ele>56.184</ele>
        <time>2020-07-02T12:06:15Z</time>
      </trkpt>
      <trkpt lat="51.82911" lon="3.92995">
        <ele>56.184</ele>
        <time>2020-07-02T12:06:20Z</time>
      </trkpt>
      <trkpt lat="51.82911" lon="3.92998">
        <ele>55.904</ele>
        <time>2020-07-02T12:06:25Z</time>
      </trkpt>
      <trkpt lat="51.82912" lon="3.93008">
        <ele>56.089</ele>
        <time>2020-07-02T12:06:31Z</time>
      </trkpt>
      <trkpt lat="51.82915" lon="3.93023">
        <ele>56.903</ele>
        <time>2020-07-02T12:06:36Z</time>
      </trkpt>
      <trkpt lat="51.82924" lon="3.93049">
        <ele>56.71</ele>
        <time>2020-07-02T12:06:42Z</time>
      </trkpt>
      <trkpt lat="51.82934" lon="3.9309">
        <ele>56.724</ele>
        <time>2020-07-02T12:06:49Z</time>
      </trkpt>
      <trkpt lat="51.82944" lon="3.93125">
        <ele>56.539</ele>
        <time>2020-07-02T12:06:55Z</time>
      </trkpt>
      <trkpt lat="51.82954" lon="3.93162">
        <ele>56.946</ele>
        <time>2020-07-02T12:07:01Z</time>
      </trkpt>
      <trkpt lat="51.82965" lon="3.93195">
        <ele>57.101</ele>
        <time>2020-07-02T12:07:06Z</time>
      </trkpt>
      <trkpt lat="51.82985" lon="3.93222">
        <ele>55.864</ele>
        <time>2020-07-02T12:07:11Z</time>
      </trkpt>
      <trkpt lat="51.83024" lon="3.9326">
        <ele>53.609</ele>
        <time>2020-07-02T12:07:17Z</time>
      </trkpt>
      <trkpt lat="51.83049" lon="3.93301">
        <ele>53.671</ele>
        <time>2020-07-02T12:07:22Z</time>
      </trkpt>
      <trkpt lat="51.83076" lon="3.93348">
        <ele>53.325</ele>
        <time>2020-07-02T12:07:28Z</time>
      </trkpt>
      <trkpt lat="51.83096" lon="3.93386">
        <ele>53.351</ele>
        <time>2020-07-02T12:07:33Z</time>
      </trkpt>
      <trkpt lat="51.83114" lon="3.93421">
        <ele>53.097</ele>
        <time>2020-07-02T12:07:38Z</time>
      </trkpt>
      <trkpt lat="51.83133" lon="3.93466">
        <ele>52.399</ele>
        <time>2020-07-02T12:07:44Z</time>
      </trkpt>
      <trkpt lat="51.83149" lon="3.93508">
        <ele>52.461</ele>
        <time>2020-07-02T12:07:49Z</time>
      </trkpt>
      <trkpt lat="51.83165" lon="3.93549">
        <ele>52.588</ele>
        <time>2020-07-02T12:07:54Z</time>
      </trkpt>
      <trkpt lat="51.83181" lon="3.93592">
        <ele>53.497</ele>
        <time>2020-07-02T12:08:00Z</time>
      </trkpt>
      <trkpt lat="51.83195" lon="3.93629">
        <ele>54.252</ele>
        <time>2020-07-02T12:08:06Z</time>
      </trkpt>
      <trkpt lat="51.83205" lon="3.93658">
        <ele>55.714</ele>
        <time>2020-07-02T12:08:11Z</time>
      </trkpt>
      <trkpt lat="51.83216" lon="3.93693">
        <ele>56.33</ele>
        <time>2020-07-02T12:08:17Z</time>
      </trkpt>
      <trkpt lat="51.83225" lon="3.93722">
        <ele>56.7</ele>
        <time>2020-07-02T12:08:22Z</time>
      </trkpt>
      <trkpt lat="51.83234" lon="3.93753">
        <ele>57.41</ele>
        <time>2020-07-02T12:08:28Z</time>
      </trkpt>
      <trkpt lat="51.83243" lon="3.93776">
        <ele>57.292</ele>
        <time>2020-07-02T12:08:33Z</time>
      </trkpt>
      <trkpt lat="51.83254" lon="3.938">
        <ele>57.669</ele>
        <time>2020-07-02T12:08:39Z</time>
      </trkpt>
      <trkpt lat="51.83263" lon="3.9382">
        <ele>58.334</ele>
        <time>2020-07-02T12:08:44Z</time>
      </trkpt>
      <trkpt lat="51.83274" lon="3.93844">
        <ele>59.057</ele>
        <time>2020-07-02T12:08:50Z</time>
      </trkpt>
      <trkpt lat="51.83283" lon="3.93864">
        <ele>58.787</ele>
        <time>2020-07-02T12:08:55Z</time>
      </trkpt>
      <trkpt lat="51.83292" lon="3.93887">
        <ele>59.637</ele>
        <time>2020-07-02T12:09:01Z</time>
      </trkpt>
      <trkpt lat="51.833" lon="3.93906">
        <ele>60.462</ele>
        <time>2020-07-02T12:09:06Z</time>
      </trkpt>
      <trkpt lat="51.83308" lon="3.93931">
        <ele>60.962</ele>
        <time>2020-07-02T12:09:12Z</time>
      </trkpt>
      <trkpt lat="51.83314" lon="3.93957">
        <ele>62.017</ele>
        <time>2020-07-02T12:09:18Z</time>
      </trkpt>
      <trkpt lat="51.8332" lon="3.9398">
        <ele>62.334</ele>
        <time>2020-07-02T12:09:23Z</time>
      </trkpt>
      <trkpt lat="51.83327" lon="3.94012">
        <ele>62.635</ele>
        <time>2020-07-02T12:09:29Z</time>
      </trkpt>
      <trkpt lat="51.83334" lon="3.94045">
        <ele>62.523</ele>
        <time>2020-07-02T12:09:34Z</time>
      </trkpt>
      <trkpt lat="51.83345" lon="3.94088">
        <ele>62.369</ele>
        <time>2020-07-02T12:09:40Z</time>
      </trkpt>
      <trkpt lat="51.83353" lon="3.94125">
        <ele>61.981</ele>
        <time>2020-07-02T12:09:45Z</time>
      </trkpt>
      <trkpt lat="51.83364" lon="3.94166">
        <ele>60.918</ele>
        <time>2020-07-02T12:09:50Z</time>
      </trkpt>
      <trkpt lat="51.8338" lon="3.94227">
        <ele>59.565</ele>
        <time>2020-07-02T12:09:57Z</time>
      </trkpt>
      <trkpt lat="51.83399" lon="3.94294">
        <ele>58.378</ele>
        <time>2020-07-02T12:10:04Z</time>
      </trkpt>
      <trkpt lat="51.83412" lon="3.94343">
        <ele>57.175</ele>
        <time>2020-07-02T12:10:09Z</time>
      </trkpt>
      <trkpt lat="51.83427" lon="3.94405">
        <ele>56.607</ele>
        <time>2020-07-02T12:10:15Z</time>
      </trkpt>
      <trkpt lat="51.83443" lon="3.9447">
        <ele>55.632</ele>
        <time>2020-07-02T12:10:21Z</time>
      </trkpt>
      <trkpt lat="51.83455" lon="3.94524">
        <ele>55.375</ele>
        <time>2020-07-02T12:10:26Z</time>
      </trkpt>
      <trkpt lat="51.83467" lon="3.94588">
        <ele>55.335</ele>
        <time>2020-07-02T12:10:32Z</time>
      </trkpt>
      <trkpt lat="51.83476" lon="3.9464">
        <ele>55.513</ele>
        <time>2020-07-02T12:10:37Z</time>
      </trkpt>
      <trkpt lat="51.83486" lon="3.94688">
        <ele>55.472</ele>
        <time>2020-07-02T12:10:42Z</time>
      </trkpt>
      <trkpt lat="51.83498" lon="3.94747">
        <ele>55.094</ele>
        <time>2020-07-02T12:10:48Z</time>
      </trkpt>
      <trkpt lat="51.83509" lon="3.94797">
        <ele>54.474</ele>
        <time>2020-07-02T12:10:53Z</time>
      </trkpt>
      <trkpt lat="51.83519" lon="3.9486">
        <ele>53.813</ele>
        <time>2020-07-02T12:10:59Z</time>
      </trkpt>
      <trkpt lat="51.83527" lon="3.94911">
        <ele>53.002</ele>
        <time>2020-07-02T12:11:04Z</time>
      </trkpt>
      <trkpt lat="51.83536" lon="3.94971">
        <ele>52.719</ele>
        <time>2020-07-02T12:11:10Z</time>
      </trkpt>
      <trkpt lat="51.83545" lon="3.9503">
        <ele>52.638</ele>
        <time>2020-07-02T12:11:16Z</time>
      </trkpt>
      <trkpt lat="51.83554" lon="3.95089">
        <ele>52.253</ele>
        <time>2020-07-02T12:11:22Z</time>
      </trkpt>
      <trkpt lat="51.83561" lon="3.95138">
        <ele>52.331</ele>
        <time>2020-07-02T12:11:27Z</time>
      </trkpt>
      <trkpt lat="51.83568" lon="3.9519">
        <ele>52.317</ele>
        <time>2020-07-02T12:11:32Z</time>
      </trkpt>
      <trkpt lat="51.83578" lon="3.95252">
        <ele>52.776</ele>
        <time>2020-07-02T12:11:38Z</time>
      </trkpt>
      <trkpt lat="51.83585" lon="3.95302">
        <ele>52.747</ele>
        <time>2020-07-02T12:11:43Z</time>
      </trkpt>
      <trkpt lat="51.83594" lon="3.95358">
        <ele>52.936</ele>
        <time>2020-07-02T12:11:49Z</time>
      </trkpt>
      <trkpt lat="51.83601" lon="3.95407">
        <ele>52.575</ele>
        <time>2020-07-02T12:11:54Z</time>
      </trkpt>
      <trkpt lat="51.8361" lon="3.95468">
        <ele>52.465</ele>
        <time>2020-07-02T12:12:00Z</time>
      </trkpt>
      <trkpt lat="51.83619" lon="3.95534">
        <ele>52.395</ele>
        <time>2020-07-02T12:12:06Z</time>
      </trkpt>
      <trkpt lat="51.83627" lon="3.95599">
        <ele>51.946</ele>
        <time>2020-07-02T12:12:12Z</time>
      </trkpt>
      <trkpt lat="51.83633" lon="3.95656">
        <ele>51.944</ele>
        <time>2020-07-02T12:12:17Z</time>
      </trkpt>
      <trkpt lat="51.83638" lon="3.95709">
        <ele>51.78</ele>
        <time>2020-07-02T12:12:22Z</time>
      </trkpt>
      <trkpt lat="51.83643" lon="3.95761">
        <ele>51.732</ele>
        <time>2020-07-02T12:12:27Z</time>
      </trkpt>
      <trkpt lat="51.83649" lon="3.95821">
        <ele>51.273</ele>
        <time>2020-07-02T12:12:33Z</time>
      </trkpt>
      <trkpt lat="51.83656" lon="3.95883">
        <ele>50.673</ele>
        <time>2020-07-02T12:12:39Z</time>
      </trkpt>
      <trkpt lat="51.83662" lon="3.95934">
        <ele>49.908</ele>
        <time>2020-07-02T12:12:44Z</time>
      </trkpt>
      <trkpt lat="51.83666" lon="3.95986">
        <ele>49.808</ele>
        <time>2020-07-02T12:12:49Z</time>
      </trkpt>
      <trkpt lat="51.83672" lon="3.96045">
        <ele>49.697</ele>
        <time>2020-07-02T12:12:55Z</time>
      </trkpt>
      <trkpt lat="51.83678" lon="3.96101">
        <ele>49.306</ele>
        <time>2020-07-02T12:13:01Z</time>
      </trkpt>
      <trkpt lat="51.83683" lon="3.96148">
        <ele>48.761</ele>
        <time>2020-07-02T12:13:06Z</time>
      </trkpt>
      <trkpt lat="51.83689" lon="3.96207">
        <ele>48.419</ele>
        <time>2020-07-02T12:13:12Z</time>
      </trkpt>
      <trkpt lat="51.83694" lon="3.96254">
        <ele>48.729</ele>
        <time>2020-07-02T12:13:17Z</time>
      </trkpt>
      <trkpt lat="51.83699" lon="3.96309">
        <ele>48.711</ele>
        <time>2020-07-02T12:13:23Z</time>
      </trkpt>
      <trkpt lat="51.83704" lon="3.96357">
        <ele>48.763</ele>
        <time>2020-07-02T12:13:28Z</time>
      </trkpt>
      <trkpt lat="51.83709" lon="3.96412">
        <ele>48.785</ele>
        <time>2020-07-02T12:13:34Z</time>
      </trkpt>
      <trkpt lat="51.83713" lon="3.96458">
        <ele>48.613</ele>
        <time>2020-07-02T12:13:39Z</time>
      </trkpt>
      <trkpt lat="51.83719" lon="3.96512">
        <ele>48.578</ele>
        <time>2020-07-02T12:13:45Z</time>
      </trkpt>
      <trkpt lat="51.83723" lon="3.96559">
        <ele>49.025</ele>
        <time>2020-07-02T12:13:50Z</time>
      </trkpt>
      <trkpt lat="51.83726" lon="3.96613">
        <ele>49.611</ele>
        <time>2020-07-02T12:13:56Z</time>
      </trkpt>
      <trkpt lat="51.83726" lon="3.96656">
        <ele>49.856</ele>
        <time>2020-07-02T12:14:01Z</time>
      </trkpt>
      <trkpt lat="51.83726" lon="3.96703">
        <ele>49.952</ele>
        <time>2020-07-02T12:14:07Z</time>
      </trkpt>
      <trkpt lat="51.83726" lon="3.96737">
        <ele>49.961</ele>
        <time>2020-07-02T12:14:12Z</time>
      </trkpt>
      <trkpt lat="51.83726" lon="3.96779">
        <ele>50.041</ele>
        <time>2020-07-02T12:14:18Z</time>
      </trkpt>
      <trkpt lat="51.83727" lon="3.96816">
        <ele>49.989</ele>
        <time>2020-07-02T12:14:23Z</time>
      </trkpt>
      <trkpt lat="51.83715" lon="3.96854">
        <ele>51.085</ele>
        <time>2020-07-02T12:14:29Z</time>
      </trkpt>
      <trkpt lat="51.83704" lon="3.9687">
        <ele>51.792</ele>
        <time>2020-07-02T12:14:34Z</time>
      </trkpt>
      <trkpt lat="51.83696" lon="3.96884">
        <ele>52.603</ele>
        <time>2020-07-02T12:14:40Z</time>
      </trkpt>
      <trkpt lat="51.83687" lon="3.96893">
        <ele>53.786</ele>
        <time>2020-07-02T12:14:46Z</time>
      </trkpt>
      <trkpt lat="51.83679" lon="3.96902">
        <ele>54.245</ele>
        <time>2020-07-02T12:14:51Z</time>
      </trkpt>
      <trkpt lat="51.8367" lon="3.96916">
        <ele>55.425</ele>
        <time>2020-07-02T12:14:57Z</time>
      </trkpt>
      <trkpt lat="51.83662" lon="3.96937">
        <ele>55.868</ele>
        <time>2020-07-02T12:15:03Z</time>
      </trkpt>
      <trkpt lat="51.83659" lon="3.96957">
        <ele>56.446</ele>
        <time>2020-07-02T12:15:09Z</time>
      </trkpt>
      <trkpt lat="51.83661" lon="3.9698">
        <ele>56.785</ele>
        <time>2020-07-02T12:15:14Z</time>
      </trkpt>
      <trkpt lat="51.83662" lon="3.97013">
        <ele>56.982</ele>
        <time>2020-07-02T12:15:20Z</time>
      </trkpt>
      <trkpt lat="51.8366" lon="3.97042">
        <ele>57.42</ele>
        <time>2020-07-02T12:15:26Z</time>
      </trkpt>
      <trkpt lat="51.83661" lon="3.97066">
        <ele>57.379</ele>
        <time>2020-07-02T12:15:31Z</time>
      </trkpt>
      <trkpt lat="51.83662" lon="3.97096">
        <ele>57.419</ele>
        <time>2020-07-02T12:15:37Z</time>
      </trkpt>
      <trkpt lat="51.83664" lon="3.97119">
        <ele>57.027</ele>
        <time>2020-07-02T12:15:42Z</time>
      </trkpt>
      <trkpt lat="51.83664" lon="3.9715">
        <ele>57.006</ele>
        <time>2020-07-02T12:15:48Z</time>
      </trkpt>
      <trkpt lat="51.83662" lon="3.97183">
        <ele>56.893</ele>
        <time>2020-07-02T12:15:54Z</time>
      </trkpt>
      <trkpt lat="51.83659" lon="3.97221">
        <ele>57.152</ele>
        <time>2020-07-02T12:16:00Z</time>
      </trkpt>
      <trkpt lat="51.83656" lon="3.97256">
        <ele>57.472</ele>
        <time>2020-07-02T12:16:05Z</time>
      </trkpt>
      <trkpt lat="51.83656" lon="3.97291">
        <ele>58.081</ele>
        <time>2020-07-02T12:16:11Z</time>
      </trkpt>
      <trkpt lat="51.83661" lon="3.97322">
        <ele>58.344</ele>
        <time>2020-07-02T12:16:16Z</time>
      </trkpt>
      <trkpt lat="51.83661" lon="3.97353">
        <ele>59.035</ele>
        <time>2020-07-02T12:16:22Z</time>
      </trkpt>
      <trkpt lat="51.83657" lon="3.97378">
        <ele>58.757</ele>
        <time>2020-07-02T12:16:27Z</time>
      </trkpt>
      <trkpt lat="51.83658" lon="3.97425">
        <ele>57.387</ele>
        <time>2020-07-02T12:16:33Z</time>
      </trkpt>
      <trkpt lat="51.83658" lon="3.97471">
        <ele>57.425</ele>
        <time>2020-07-02T12:16:39Z</time>
      </trkpt>
      <trkpt lat="51.83665" lon="3.9751">
        <ele>57.265</ele>
        <time>2020-07-02T12:16:44Z</time>
      </trkpt>
      <trkpt lat="51.83664" lon="3.97551">
        <ele>55.748</ele>
        <time>2020-07-02T12:16:50Z</time>
      </trkpt>
      <trkpt lat="51.83663" lon="3.97591">
        <ele>53.637</ele>
        <time>2020-07-02T12:16:56Z</time>
      </trkpt>
      <trkpt lat="51.83668" lon="3.97635">
        <ele>53.714</ele>
        <time>2020-07-02T12:17:02Z</time>
      </trkpt>
      <trkpt lat="51.83673" lon="3.97681">
        <ele>54.069</ele>
        <time>2020-07-02T12:17:08Z</time>
      </trkpt>
      <trkpt lat="51.83678" lon="3.9772">
        <ele>55.284</ele>
        <time>2020-07-02T12:17:13Z</time>
      </trkpt>
      <trkpt lat="51.83673" lon="3.97757">
        <ele>55.675</ele>
        <time>2020-07-02T12:17:18Z</time>
      </trkpt>
      <trkpt lat="51.83671" lon="3.97801">
        <ele>55.774</ele>
        <time>2020-07-02T12:17:24Z</time>
      </trkpt>
      <trkpt lat="51.83607" lon="3.98264">
        <ele>56.558</ele>
        <time>2020-07-02T12:18:35Z</time>
      </trkpt>
      <trkpt lat="51.83583" lon="3.98278">
        <ele>44.688</ele>
        <time>2020-07-02T12:18:40Z</time>
      </trkpt>
      <trkpt lat="51.83575" lon="3.98307">
        <ele>55.752</ele>
        <time>2020-07-02T12:18:46Z</time>
      </trkpt>
      <trkpt lat="51.83572" lon="3.98339">
        <ele>55.634</ele>
        <time>2020-07-02T12:18:51Z</time>
      </trkpt>
      <trkpt lat="51.83564" lon="3.98368">
        <ele>55.712</ele>
        <time>2020-07-02T12:18:57Z</time>
      </trkpt>
      <trkpt lat="51.83554" lon="3.98392">
        <ele>53.858</ele>
        <time>2020-07-02T12:19:03Z</time>
      </trkpt>
      <trkpt lat="51.8354" lon="3.98426">
        <ele>53.164</ele>
        <time>2020-07-02T12:19:08Z</time>
      </trkpt>
      <trkpt lat="51.83518" lon="3.98449">
        <ele>55.759</ele>
        <time>2020-07-02T12:19:13Z</time>
      </trkpt>
      <trkpt lat="51.83496" lon="3.98447">
        <ele>56.814</ele>
        <time>2020-07-02T12:19:18Z</time>
      </trkpt>
      <trkpt lat="51.83476" lon="3.98436">
        <ele>55.073</ele>
        <time>2020-07-02T12:19:24Z</time>
      </trkpt>
      <trkpt lat="51.83457" lon="3.98444">
        <ele>55.467</ele>
        <time>2020-07-02T12:19:30Z</time>
      </trkpt>
      <trkpt lat="51.83443" lon="3.98464">
        <ele>55.185</ele>
        <time>2020-07-02T12:19:35Z</time>
      </trkpt>
      <trkpt lat="51.83444" lon="3.98497">
        <ele>54.293</ele>
        <time>2020-07-02T12:19:41Z</time>
      </trkpt>
      <trkpt lat="51.83443" lon="3.98515">
        <ele>54.1</ele>
        <time>2020-07-02T12:19:46Z</time>
      </trkpt>
      <trkpt lat="51.83439" lon="3.98539">
        <ele>54.888</ele>
        <time>2020-07-02T12:19:52Z</time>
      </trkpt>
      <trkpt lat="51.83446" lon="3.98586">
        <ele>54.591</ele>
        <time>2020-07-02T12:19:58Z</time>
      </trkpt>
      <trkpt lat="51.83452" lon="3.98627">
        <ele>54.103</ele>
        <time>2020-07-02T12:20:03Z</time>
      </trkpt>
      <trkpt lat="51.83462" lon="3.9867">
        <ele>54.463</ele>
        <time>2020-07-02T12:20:09Z</time>
      </trkpt>
      <trkpt lat="51.83474" lon="3.98725">
        <ele>54.067</ele>
        <time>2020-07-02T12:20:15Z</time>
      </trkpt>
      <trkpt lat="51.83483" lon="3.98766">
        <ele>54.134</ele>
        <time>2020-07-02T12:20:21Z</time>
      </trkpt>
      <trkpt lat="51.83493" lon="3.98805">
        <ele>55.032</ele>
        <time>2020-07-02T12:20:27Z</time>
      </trkpt>
      <trkpt lat="51.83502" lon="3.98844">
        <ele>55.393</ele>
        <time>2020-07-02T12:20:33Z</time>
      </trkpt>
      <trkpt lat="51.83509" lon="3.98897">
        <ele>54.891</ele>
        <time>2020-07-02T12:20:39Z</time>
      </trkpt>
      <trkpt lat="51.83511" lon="3.98936">
        <ele>53.846</ele>
        <time>2020-07-02T12:20:44Z</time>
      </trkpt>
      <trkpt lat="51.83512" lon="3.98985">
        <ele>54.945</ele>
        <time>2020-07-02T12:20:50Z</time>
      </trkpt>
      <trkpt lat="51.83512" lon="3.9902">
        <ele>56.561</ele>
        <time>2020-07-02T12:20:55Z</time>
      </trkpt>
      <trkpt lat="51.83505" lon="3.99055">
        <ele>58.091</ele>
        <time>2020-07-02T12:21:01Z</time>
      </trkpt>
      <trkpt lat="51.835" lon="3.99098">
        <ele>60.209</ele>
        <time>2020-07-02T12:21:07Z</time>
      </trkpt>
      <trkpt lat="51.83496" lon="3.9914">
        <ele>61.312</ele>
        <time>2020-07-02T12:21:12Z</time>
      </trkpt>
      <trkpt lat="51.83491" lon="3.99179">
        <ele>62.279</ele>
        <time>2020-07-02T12:21:17Z</time>
      </trkpt>
      <trkpt lat="51.83484" lon="3.99238">
        <ele>62.602</ele>
        <time>2020-07-02T12:21:23Z</time>
      </trkpt>
      <trkpt lat="51.83482" lon="3.99274">
        <ele>63.523</ele>
        <time>2020-07-02T12:21:28Z</time>
      </trkpt>
      <trkpt lat="51.83478" lon="3.99315">
        <ele>65.15</ele>
        <time>2020-07-02T12:21:33Z</time>
      </trkpt>
      <trkpt lat="51.83473" lon="3.99354">
        <ele>67.091</ele>
        <time>2020-07-02T12:21:39Z</time>
      </trkpt>
      <trkpt lat="51.83465" lon="3.99389">
        <ele>68.231</ele>
        <time>2020-07-02T12:21:45Z</time>
      </trkpt>
      <trkpt lat="51.83455" lon="3.99418">
        <ele>67.772</ele>
        <time>2020-07-02T12:21:50Z</time>
      </trkpt>
      <trkpt lat="51.83448" lon="3.99465">
        <ele>68.608</ele>
        <time>2020-07-02T12:21:56Z</time>
      </trkpt>
      <trkpt lat="51.83446" lon="3.99503">
        <ele>68.045</ele>
        <time>2020-07-02T12:22:01Z</time>
      </trkpt>
      <trkpt lat="51.83434" lon="3.99535">
        <ele>68.632</ele>
        <time>2020-07-02T12:22:07Z</time>
      </trkpt>
      <trkpt lat="51.83419" lon="3.99578">
        <ele>68.302</ele>
        <time>2020-07-02T12:22:12Z</time>
      </trkpt>
      <trkpt lat="51.83404" lon="3.99624">
        <ele>69.077</ele>
        <time>2020-07-02T12:22:18Z</time>
      </trkpt>
      <trkpt lat="51.83396" lon="3.99656">
        <ele>68.825</ele>
        <time>2020-07-02T12:22:23Z</time>
      </trkpt>
      <trkpt lat="51.83391" lon="3.9969">
        <ele>68.141</ele>
        <time>2020-07-02T12:22:28Z</time>
      </trkpt>
      <trkpt lat="51.83385" lon="3.99746">
        <ele>67.435</ele>
        <time>2020-07-02T12:22:34Z</time>
      </trkpt>
      <trkpt lat="51.83383" lon="3.99796">
        <ele>65.308</ele>
        <time>2020-07-02T12:22:40Z</time>
      </trkpt>
      <trkpt lat="51.83374" lon="3.99831">
        <ele>63.039</ele>
        <time>2020-07-02T12:22:46Z</time>
      </trkpt>
      <trkpt lat="51.83367" lon="3.9987">
        <ele>60.115</ele>
        <time>2020-07-02T12:22:52Z</time>
      </trkpt>
      <trkpt lat="51.83357" lon="3.99906">
        <ele>58.991</ele>
        <time>2020-07-02T12:22:58Z</time>
      </trkpt>
      <trkpt lat="51.83346" lon="3.99946">
        <ele>55.678</ele>
        <time>2020-07-02T12:23:04Z</time>
      </trkpt>
      <trkpt lat="51.83336" lon="3.99986">
        <ele>52.989</ele>
        <time>2020-07-02T12:23:10Z</time>
      </trkpt>
      <trkpt lat="51.83323" lon="4.00032">
        <ele>52.531</ele>
        <time>2020-07-02T12:23:15Z</time>
      </trkpt>
      <trkpt lat="51.83309" lon="4.00073">
        <ele>53.469</ele>
        <time>2020-07-02T12:23:21Z</time>
      </trkpt>
      <trkpt lat="51.83295" lon="4.00111">
        <ele>52.367</ele>
        <time>2020-07-02T12:23:27Z</time>
      </trkpt>
      <trkpt lat="51.83281" lon="4.00144">
        <ele>51.501</ele>
        <time>2020-07-02T12:23:33Z</time>
      </trkpt>
      <trkpt lat="51.83267" lon="4.00163">
        <ele>51.617</ele>
        <time>2020-07-02T12:23:39Z</time>
      </trkpt>
      <trkpt lat="51.83268" lon="4.00186">
        <ele>53.316</ele>
        <time>2020-07-02T12:23:45Z</time>
      </trkpt>
      <trkpt lat="51.8326" lon="4.00215">
        <ele>53.98</ele>
        <time>2020-07-02T12:23:51Z</time>
      </trkpt>
      <trkpt lat="51.83247" lon="4.00244">
        <ele>54.402</ele>
        <time>2020-07-02T12:23:56Z</time>
      </trkpt>
      <trkpt lat="51.83232" lon="4.00282">
        <ele>54.849</ele>
        <time>2020-07-02T12:24:02Z</time>
      </trkpt>
      <trkpt lat="51.83218" lon="4.00317">
        <ele>55.548</ele>
        <time>2020-07-02T12:24:08Z</time>
      </trkpt>
      <trkpt lat="51.83207" lon="4.00347">
        <ele>55.641</ele>
        <time>2020-07-02T12:24:13Z</time>
      </trkpt>
      <trkpt lat="51.83192" lon="4.00383">
        <ele>55.084</ele>
        <time>2020-07-02T12:24:19Z</time>
      </trkpt>
      <trkpt lat="51.83177" lon="4.00419">
        <ele>55.01</ele>
        <time>2020-07-02T12:24:25Z</time>
      </trkpt>
      <trkpt lat="51.83162" lon="4.00451">
        <ele>54.567</ele>
        <time>2020-07-02T12:24:31Z</time>
      </trkpt>
      <trkpt lat="51.83149" lon="4.00477">
        <ele>54.946</ele>
        <time>2020-07-02T12:24:36Z</time>
      </trkpt>
      <trkpt lat="51.83137" lon="4.00505">
        <ele>55.192</ele>
        <time>2020-07-02T12:24:41Z</time>
      </trkpt>
      <trkpt lat="51.83123" lon="4.00537">
        <ele>55.297</ele>
        <time>2020-07-02T12:24:47Z</time>
      </trkpt>
      <trkpt lat="51.83106" lon="4.00565">
        <ele>54.884</ele>
        <time>2020-07-02T12:24:53Z</time>
      </trkpt>
      <trkpt lat="51.83089" lon="4.00589">
        <ele>54.629</ele>
        <time>2020-07-02T12:24:59Z</time>
      </trkpt>
      <trkpt lat="51.8307" lon="4.00613">
        <ele>54.259</ele>
        <time>2020-07-02T12:25:05Z</time>
      </trkpt>
      <trkpt lat="51.83057" lon="4.00628">
        <ele>54.008</ele>
        <time>2020-07-02T12:25:10Z</time>
      </trkpt>
      <trkpt lat="51.83043" lon="4.00644">
        <ele>53.989</ele>
        <time>2020-07-02T12:25:16Z</time>
      </trkpt>
      <trkpt lat="51.8303" lon="4.00659">
        <ele>54.556</ele>
        <time>2020-07-02T12:25:21Z</time>
      </trkpt>
      <trkpt lat="51.83015" lon="4.00676">
        <ele>54.009</ele>
        <time>2020-07-02T12:25:27Z</time>
      </trkpt>
      <trkpt lat="51.83003" lon="4.00689">
        <ele>53.16</ele>
        <time>2020-07-02T12:25:32Z</time>
      </trkpt>
      <trkpt lat="51.82988" lon="4.00705">
        <ele>54.061</ele>
        <time>2020-07-02T12:25:38Z</time>
      </trkpt>
      <trkpt lat="51.8298" lon="4.00728">
        <ele>54.043</ele>
        <time>2020-07-02T12:25:44Z</time>
      </trkpt>
      <trkpt lat="51.8299" lon="4.00756">
        <ele>53.266</ele>
        <time>2020-07-02T12:25:50Z</time>
      </trkpt>
      <trkpt lat="51.83" lon="4.00778">
        <ele>52.34</ele>
        <time>2020-07-02T12:25:55Z</time>
      </trkpt>
      <trkpt lat="51.83012" lon="4.00799">
        <ele>52.287</ele>
        <time>2020-07-02T12:26:00Z</time>
      </trkpt>
      <trkpt lat="51.8303" lon="4.00831">
        <ele>51.931</ele>
        <time>2020-07-02T12:26:07Z</time>
      </trkpt>
      <trkpt lat="51.83044" lon="4.00857">
        <ele>52.031</ele>
        <time>2020-07-02T12:26:13Z</time>
      </trkpt>
      <trkpt lat="51.83056" lon="4.00878">
        <ele>52.903</ele>
        <time>2020-07-02T12:26:18Z</time>
      </trkpt>
      <trkpt lat="51.83073" lon="4.00904">
        <ele>53.438</ele>
        <time>2020-07-02T12:26:24Z</time>
      </trkpt>
      <trkpt lat="51.83079" lon="4.00919">
        <ele>54.066</ele>
        <time>2020-07-02T12:26:29Z</time>
      </trkpt>
      <trkpt lat="51.8308" lon="4.00919">
        <ele>54.086</ele>
        <time>2020-07-02T12:26:34Z</time>
      </trkpt>
      <trkpt lat="51.8308" lon="4.00919">
        <ele>54.086</ele>
        <time>2020-07-02T12:26:40Z</time>
      </trkpt>
      <trkpt lat="51.8308" lon="4.00919">
        <ele>54.086</ele>
        <time>2020-07-02T12:26:45Z</time>
      </trkpt>
      <trkpt lat="51.8308" lon="4.00919">
        <ele>54.086</ele>
        <time>2020-07-02T12:26:50Z</time>
      </trkpt>
      <trkpt lat="51.8308" lon="4.00919">
        <ele>54.086</ele>
        <time>2020-07-02T12:26:55Z</time>
      </trkpt>
      <trkpt lat="51.8308" lon="4.00919">
        <ele>54.086</ele>
        <time>2020-07-02T12:27:01Z</time>
      </trkpt>
      <trkpt lat="51.8308" lon="4.00919">
        <ele>54.086</ele>
        <time>2020-07-02T12:27:06Z</time>
      </trkpt>
      <trkpt lat="51.8308" lon="4.00919">
        <ele>54.086</ele>
        <time>2020-07-02T12:27:12Z</time>
      </trkpt>
      <trkpt lat="51.8308" lon="4.00919">
        <ele>54.086</ele>
        <time>2020-07-02T12:27:17Z</time>
      </trkpt>
      <trkpt lat="51.8308" lon="4.00919">
        <ele>54.086</ele>
        <time>2020-07-02T12:27:22Z</time>
      </trkpt>
      <trkpt lat="51.8308" lon="4.00919">
        <ele>54.086</ele>
        <time>2020-07-02T12:27:27Z</time>
      </trkpt>
      <trkpt lat="51.8308" lon="4.00919">
        <ele>54.086</ele>
        <time>2020-07-02T12:27:33Z</time>
      </trkpt>
      <trkpt lat="51.8308" lon="4.00919">
        <ele>54.086</ele>
        <time>2020-07-02T12:27:39Z</time>
      </trkpt>
      <trkpt lat="51.8308" lon="4.00919">
        <ele>54.086</ele>
        <time>2020-07-02T12:27:45Z</time>
      </trkpt>
      <trkpt lat="51.8308" lon="4.00919">
        <ele>54.086</ele>
        <time>2020-07-02T12:27:50Z</time>
      </trkpt>
      <trkpt lat="51.8308" lon="4.00919">
        <ele>54.086</ele>
        <time>2020-07-02T12:27:56Z</time>
      </trkpt>
      <trkpt lat="51.8308" lon="4.00919">
        <ele>54.086</ele>
        <time>2020-07-02T12:28:02Z</time>
      </trkpt>
      <trkpt lat="51.8308" lon="4.00919">
        <ele>54.086</ele>
        <time>2020-07-02T12:28:07Z</time>
      </trkpt>
      <trkpt lat="51.8308" lon="4.00919">
        <ele>54.086</ele>
        <time>2020-07-02T12:28:12Z</time>
      </trkpt>
      <trkpt lat="51.8308" lon="4.00919">
        <ele>54.086</ele>
        <time>2020-07-02T12:28:18Z</time>
      </trkpt>
      <trkpt lat="51.8308" lon="4.00919">
        <ele>54.086</ele>
        <time>2020-07-02T12:28:23Z</time>
      </trkpt>
      <trkpt lat="51.8308" lon="4.00919">
        <ele>54.086</ele>
        <time>2020-07-02T12:28:28Z</time>
      </trkpt>
      <trkpt lat="51.8308" lon="4.00919">
        <ele>54.086</ele>
        <time>2020-07-02T12:28:34Z</time>
      </trkpt>
      <trkpt lat="51.8308" lon="4.00919">
        <ele>54.086</ele>
        <time>2020-07-02T12:28:40Z</time>
      </trkpt>
      <trkpt lat="51.8308" lon="4.00919">
        <ele>54.086</ele>
        <time>2020-07-02T12:28:45Z</time>
      </trkpt>
      <trkpt lat="51.8308" lon="4.00919">
        <ele>54.086</ele>
        <time>2020-07-02T12:28:50Z</time>
      </trkpt>
      <trkpt lat="51.8308" lon="4.00919">
        <ele>54.086</ele>
        <time>2020-07-02T12:28:56Z</time>
      </trkpt>
      <trkpt lat="51.8308" lon="4.00919">
        <ele>54.086</ele>
        <time>2020-07-02T12:29:01Z</time>
      </trkpt>
      <trkpt lat="51.8308" lon="4.00919">
        <ele>54.086</ele>
        <time>2020-07-02T12:29:07Z</time>
      </trkpt>
      <trkpt lat="51.8308" lon="4.00919">
        <ele>54.086</ele>
        <time>2020-07-02T12:29:13Z</time>
      </trkpt>
      <trkpt lat="51.8308" lon="4.00919">
        <ele>54.086</ele>
        <time>2020-07-02T12:29:18Z</time>
      </trkpt>
      <trkpt lat="51.8308" lon="4.00919">
        <ele>54.086</ele>
        <time>2020-07-02T12:29:24Z</time>
      </trkpt>
      <trkpt lat="51.8308" lon="4.00919">
        <ele>54.086</ele>
        <time>2020-07-02T12:29:30Z</time>
      </trkpt>
      <trkpt lat="51.8308" lon="4.00919">
        <ele>54.086</ele>
        <time>2020-07-02T12:29:35Z</time>
      </trkpt>
      <trkpt lat="51.8308" lon="4.00919">
        <ele>54.086</ele>
        <time>2020-07-02T12:29:41Z</time>
      </trkpt>
      <trkpt lat="51.8308" lon="4.00919">
        <ele>54.086</ele>
        <time>2020-07-02T12:29:47Z</time>
      </trkpt>
      <trkpt lat="51.8308" lon="4.00919">
        <ele>54.086</ele>
        <time>2020-07-02T12:29:53Z</time>
      </trkpt>
      <trkpt lat="51.8308" lon="4.00919">
        <ele>54.086</ele>
        <time>2020-07-02T12:29:59Z</time>
      </trkpt>
      <trkpt lat="51.8308" lon="4.00919">
        <ele>54.086</ele>
        <time>2020-07-02T12:30:04Z</time>
      </trkpt>
      <trkpt lat="51.8308" lon="4.00919">
        <ele>54.086</ele>
        <time>2020-07-02T12:30:10Z</time>
      </trkpt>
      <trkpt lat="51.8308" lon="4.00919">
        <ele>54.086</ele>
        <time>2020-07-02T12:30:16Z</time>
      </trkpt>
      <trkpt lat="51.8308" lon="4.00919">
        <ele>54.086</ele>
        <time>2020-07-02T12:30:22Z</time>
      </trkpt>
      <trkpt lat="51.8308" lon="4.00919">
        <ele>54.086</ele>
        <time>2020-07-02T12:30:28Z</time>
      </trkpt>
      <trkpt lat="51.8308" lon="4.00919">
        <ele>54.086</ele>
        <time>2020-07-02T12:30:34Z</time>
      </trkpt>
      <trkpt lat="51.8308" lon="4.00919">
        <ele>54.086</ele>
        <time>2020-07-02T12:30:39Z</time>
      </trkpt>
      <trkpt lat="51.8308" lon="4.00919">
        <ele>54.086</ele>
        <time>2020-07-02T12:30:44Z</time>
      </trkpt>
      <trkpt lat="51.8308" lon="4.00919">
        <ele>54.086</ele>
        <time>2020-07-02T12:30:50Z</time>
      </trkpt>
      <trkpt lat="51.8308" lon="4.00919">
        <ele>54.086</ele>
        <time>2020-07-02T12:30:55Z</time>
      </trkpt>
      <trkpt lat="51.8308" lon="4.00919">
        <ele>54.086</ele>
        <time>2020-07-02T12:31:01Z</time>
      </trkpt>
      <trkpt lat="51.8308" lon="4.00919">
        <ele>54.086</ele>
        <time>2020-07-02T12:31:06Z</time>
      </trkpt>
      <trkpt lat="51.8308" lon="4.00919">
        <ele>54.086</ele>
        <time>2020-07-02T12:31:11Z</time>
      </trkpt>
      <trkpt lat="51.8308" lon="4.00919">
        <ele>54.086</ele>
        <time>2020-07-02T12:31:17Z</time>
      </trkpt>
      <trkpt lat="51.8308" lon="4.00919">
        <ele>54.086</ele>
        <time>2020-07-02T12:31:23Z</time>
      </trkpt>
      <trkpt lat="51.8308" lon="4.00919">
        <ele>54.086</ele>
        <time>2020-07-02T12:31:28Z</time>
      </trkpt>
      <trkpt lat="51.8308" lon="4.00919">
        <ele>54.086</ele>
        <time>2020-07-02T12:31:33Z</time>
      </trkpt>
      <trkpt lat="51.8308" lon="4.00919">
        <ele>54.086</ele>
        <time>2020-07-02T12:31:39Z</time>
      </trkpt>
      <trkpt lat="51.8308" lon="4.00919">
        <ele>54.086</ele>
        <time>2020-07-02T12:31:45Z</time>
      </trkpt>
      <trkpt lat="51.8308" lon="4.00919">
        <ele>54.086</ele>
        <time>2020-07-02T12:31:50Z</time>
      </trkpt>
      <trkpt lat="51.8308" lon="4.00919">
        <ele>54.086</ele>
        <time>2020-07-02T12:31:56Z</time>
      </trkpt>
      <trkpt lat="51.8308" lon="4.00919">
        <ele>54.086</ele>
        <time>2020-07-02T12:32:02Z</time>
      </trkpt>
      <trkpt lat="51.8308" lon="4.00919">
        <ele>54.086</ele>
        <time>2020-07-02T12:32:08Z</time>
      </trkpt>
      <trkpt lat="51.8308" lon="4.00919">
        <ele>54.086</ele>
        <time>2020-07-02T12:32:13Z</time>
      </trkpt>
      <trkpt lat="51.8308" lon="4.00919">
        <ele>54.086</ele>
        <time>2020-07-02T12:32:19Z</time>
      </trkpt>
      <trkpt lat="51.8308" lon="4.00919">
        <ele>54.086</ele>
        <time>2020-07-02T12:32:24Z</time>
      </trkpt>
      <trkpt lat="51.8308" lon="4.00919">
        <ele>54.086</ele>
        <time>2020-07-02T12:32:30Z</time>
      </trkpt>
      <trkpt lat="51.8308" lon="4.00919">
        <ele>54.086</ele>
        <time>2020-07-02T12:32:36Z</time>
      </trkpt>
      <trkpt lat="51.8308" lon="4.00919">
        <ele>54.086</ele>
        <time>2020-07-02T12:32:41Z</time>
      </trkpt>
      <trkpt lat="51.8308" lon="4.00919">
        <ele>54.086</ele>
        <time>2020-07-02T12:32:47Z</time>
      </trkpt>
      <trkpt lat="51.8308" lon="4.00919">
        <ele>54.086</ele>
        <time>2020-07-02T12:32:53Z</time>
      </trkpt>
      <trkpt lat="51.8308" lon="4.00919">
        <ele>54.086</ele>
        <time>2020-07-02T12:32:58Z</time>
      </trkpt>
      <trkpt lat="51.8308" lon="4.00919">
        <ele>54.086</ele>
        <time>2020-07-02T12:33:04Z</time>
      </trkpt>
      <trkpt lat="51.8308" lon="4.00919">
        <ele>54.086</ele>
        <time>2020-07-02T12:33:10Z</time>
      </trkpt>
      <trkpt lat="51.8308" lon="4.00919">
        <ele>54.086</ele>
        <time>2020-07-02T12:33:15Z</time>
      </trkpt>
      <trkpt lat="51.8308" lon="4.00919">
        <ele>54.086</ele>
        <time>2020-07-02T12:33:21Z</time>
      </trkpt>
      <trkpt lat="51.8308" lon="4.00919">
        <ele>54.086</ele>
        <time>2020-07-02T12:33:26Z</time>
      </trkpt>
      <trkpt lat="51.8308" lon="4.00919">
        <ele>54.086</ele>
        <time>2020-07-02T12:33:31Z</time>
      </trkpt>
      <trkpt lat="51.8308" lon="4.00919">
        <ele>54.086</ele>
        <time>2020-07-02T12:33:37Z</time>
      </trkpt>
      <trkpt lat="51.8308" lon="4.00919">
        <ele>54.086</ele>
        <time>2020-07-02T12:33:42Z</time>
      </trkpt>
      <trkpt lat="51.8308" lon="4.00919">
        <ele>54.086</ele>
        <time>2020-07-02T12:33:47Z</time>
      </trkpt>
      <trkpt lat="51.8308" lon="4.00919">
        <ele>54.086</ele>
        <time>2020-07-02T12:33:52Z</time>
      </trkpt>
      <trkpt lat="51.8308" lon="4.00919">
        <ele>54.086</ele>
        <time>2020-07-02T12:33:58Z</time>
      </trkpt>
      <trkpt lat="51.8308" lon="4.00919">
        <ele>54.086</ele>
        <time>2020-07-02T12:34:04Z</time>
      </trkpt>
      <trkpt lat="51.8308" lon="4.00919">
        <ele>54.086</ele>
        <time>2020-07-02T12:34:09Z</time>
      </trkpt>
      <trkpt lat="51.8308" lon="4.00919">
        <ele>54.086</ele>
        <time>2020-07-02T12:34:15Z</time>
      </trkpt>
      <trkpt lat="51.8308" lon="4.00919">
        <ele>54.086</ele>
        <time>2020-07-02T12:34:21Z</time>
      </trkpt>
      <trkpt lat="51.8308" lon="4.00919">
        <ele>54.086</ele>
        <time>2020-07-02T12:34:27Z</time>
      </trkpt>
      <trkpt lat="51.8308" lon="4.00919">
        <ele>54.086</ele>
        <time>2020-07-02T12:34:32Z</time>
      </trkpt>
      <trkpt lat="51.8308" lon="4.00919">
        <ele>54.086</ele>
        <time>2020-07-02T12:34:38Z</time>
      </trkpt>
      <trkpt lat="51.8308" lon="4.00919">
        <ele>54.086</ele>
        <time>2020-07-02T12:34:44Z</time>
      </trkpt>
      <trkpt lat="51.8308" lon="4.00919">
        <ele>54.086</ele>
        <time>2020-07-02T12:34:49Z</time>
      </trkpt>
      <trkpt lat="51.8308" lon="4.00919">
        <ele>54.086</ele>
        <time>2020-07-02T12:34:54Z</time>
      </trkpt>
      <trkpt lat="51.8308" lon="4.00919">
        <ele>54.086</ele>
        <time>2020-07-02T12:34:59Z</time>
      </trkpt>
      <trkpt lat="51.8308" lon="4.00919">
        <ele>54.086</ele>
        <time>2020-07-02T12:35:05Z</time>
      </trkpt>
      <trkpt lat="51.8308" lon="4.00919">
        <ele>54.086</ele>
        <time>2020-07-02T12:35:11Z</time>
      </trkpt>
      <trkpt lat="51.8308" lon="4.00919">
        <ele>54.086</ele>
        <time>2020-07-02T12:35:17Z</time>
      </trkpt>
      <trkpt lat="51.8308" lon="4.00919">
        <ele>54.086</ele>
        <time>2020-07-02T12:35:22Z</time>
      </trkpt>
      <trkpt lat="51.8308" lon="4.00919">
        <ele>54.086</ele>
        <time>2020-07-02T12:35:28Z</time>
      </trkpt>
      <trkpt lat="51.8308" lon="4.00919">
        <ele>54.086</ele>
        <time>2020-07-02T12:35:34Z</time>
      </trkpt>
      <trkpt lat="51.83085" lon="4.00924">
        <ele>53.832</ele>
        <time>2020-07-02T12:35:40Z</time>
      </trkpt>
      <trkpt lat="51.83092" lon="4.00936">
        <ele>53.551</ele>
        <time>2020-07-02T12:35:45Z</time>
      </trkpt>
      <trkpt lat="51.83105" lon="4.00955">
        <ele>52.912</ele>
        <time>2020-07-02T12:35:51Z</time>
      </trkpt>
      <trkpt lat="51.83116" lon="4.00974">
        <ele>53.04</ele>
        <time>2020-07-02T12:35:56Z</time>
      </trkpt>
      <trkpt lat="51.8313" lon="4.00998">
        <ele>52.6</ele>
        <time>2020-07-02T12:36:02Z</time>
      </trkpt>
      <trkpt lat="51.83141" lon="4.01023">
        <ele>51.841</ele>
        <time>2020-07-02T12:36:07Z</time>
      </trkpt>
      <trkpt lat="51.83158" lon="4.01047">
        <ele>51.101</ele>
        <time>2020-07-02T12:36:13Z</time>
      </trkpt>
      <trkpt lat="51.8317" lon="4.01068">
        <ele>50.75</ele>
        <time>2020-07-02T12:36:18Z</time>
      </trkpt>
      <trkpt lat="51.83185" lon="4.01094">
        <ele>50.357</ele>
        <time>2020-07-02T12:36:24Z</time>
      </trkpt>
      <trkpt lat="51.83196" lon="4.01116">
        <ele>49.98</ele>
        <time>2020-07-02T12:36:29Z</time>
      </trkpt>
      <trkpt lat="51.8321" lon="4.01141">
        <ele>51.018</ele>
        <time>2020-07-02T12:36:35Z</time>
      </trkpt>
      <trkpt lat="51.83217" lon="4.01164">
        <ele>50.797</ele>
        <time>2020-07-02T12:36:40Z</time>
      </trkpt>
      <trkpt lat="51.83218" lon="4.0119">
        <ele>50.737</ele>
        <time>2020-07-02T12:36:46Z</time>
      </trkpt>
      <trkpt lat="51.83216" lon="4.01216">
        <ele>51.189</ele>
        <time>2020-07-02T12:36:51Z</time>
      </trkpt>
      <trkpt lat="51.83208" lon="4.01254">
        <ele>52.984</ele>
        <time>2020-07-02T12:36:57Z</time>
      </trkpt>
      <trkpt lat="51.83201" lon="4.01286">
        <ele>54.723</ele>
        <time>2020-07-02T12:37:02Z</time>
      </trkpt>
      <trkpt lat="51.83192" lon="4.01322">
        <ele>56.522</ele>
        <time>2020-07-02T12:37:08Z</time>
      </trkpt>
      <trkpt lat="51.83183" lon="4.01351">
        <ele>57.912</ele>
        <time>2020-07-02T12:37:13Z</time>
      </trkpt>
      <trkpt lat="51.83173" lon="4.01389">
        <ele>58.957</ele>
        <time>2020-07-02T12:37:19Z</time>
      </trkpt>
      <trkpt lat="51.83164" lon="4.01424">
        <ele>59.56</ele>
        <time>2020-07-02T12:37:24Z</time>
      </trkpt>
      <trkpt lat="51.83152" lon="4.01465">
        <ele>59.275</ele>
        <time>2020-07-02T12:37:30Z</time>
      </trkpt>
      <trkpt lat="51.8314" lon="4.01499">
        <ele>58.851</ele>
        <time>2020-07-02T12:37:35Z</time>
      </trkpt>
      <trkpt lat="51.83129" lon="4.01541">
        <ele>57.074</ele>
        <time>2020-07-02T12:37:41Z</time>
      </trkpt>
      <trkpt lat="51.83116" lon="4.0158">
        <ele>54.858</ele>
        <time>2020-07-02T12:37:47Z</time>
      </trkpt>
      <trkpt lat="51.83101" lon="4.01616">
        <ele>54.223</ele>
        <time>2020-07-02T12:37:53Z</time>
      </trkpt>
      <trkpt lat="51.83085" lon="4.01652">
        <ele>53.756</ele>
        <time>2020-07-02T12:37:59Z</time>
      </trkpt>
      <trkpt lat="51.83069" lon="4.01687">
        <ele>53.082</ele>
        <time>2020-07-02T12:38:05Z</time>
      </trkpt>
      <trkpt lat="51.83055" lon="4.01718">
        <ele>50.738</ele>
        <time>2020-07-02T12:38:10Z</time>
      </trkpt>
      <trkpt lat="51.83035" lon="4.01754">
        <ele>49.465</ele>
        <time>2020-07-02T12:38:16Z</time>
      </trkpt>
      <trkpt lat="51.83017" lon="4.01785">
        <ele>49.099</ele>
        <time>2020-07-02T12:38:21Z</time>
      </trkpt>
      <trkpt lat="51.82997" lon="4.01821">
        <ele>48.801</ele>
        <time>2020-07-02T12:38:27Z</time>
      </trkpt>
      <trkpt lat="51.82981" lon="4.0185">
        <ele>48.523</ele>
        <time>2020-07-02T12:38:32Z</time>
      </trkpt>
      <trkpt lat="51.82962" lon="4.01887">
        <ele>48.367</ele>
        <time>2020-07-02T12:38:38Z</time>
      </trkpt>
      <trkpt lat="51.82943" lon="4.01925">
        <ele>47.96</ele>
        <time>2020-07-02T12:38:44Z</time>
      </trkpt>
      <trkpt lat="51.82926" lon="4.01965">
        <ele>47.97</ele>
        <time>2020-07-02T12:38:50Z</time>
      </trkpt>
      <trkpt lat="51.82912" lon="4.01999">
        <ele>48.195</ele>
        <time>2020-07-02T12:38:55Z</time>
      </trkpt>
      <trkpt lat="51.82898" lon="4.02039">
        <ele>48.117</ele>
        <time>2020-07-02T12:39:01Z</time>
      </trkpt>
      <trkpt lat="51.82885" lon="4.02079">
        <ele>47.998</ele>
        <time>2020-07-02T12:39:07Z</time>
      </trkpt>
      <trkpt lat="51.82874" lon="4.02119">
        <ele>47.971</ele>
        <time>2020-07-02T12:39:13Z</time>
      </trkpt>
      <trkpt lat="51.82865" lon="4.02153">
        <ele>47.811</ele>
        <time>2020-07-02T12:39:18Z</time>
      </trkpt>
      <trkpt lat="51.82856" lon="4.02187">
        <ele>47.584</ele>
        <time>2020-07-02T12:39:23Z</time>
      </trkpt>
      <trkpt lat="51.82847" lon="4.02229">
        <ele>47.808</ele>
        <time>2020-07-02T12:39:29Z</time>
      </trkpt>
      <trkpt lat="51.82839" lon="4.02263">
        <ele>47.967</ele>
        <time>2020-07-02T12:39:34Z</time>
      </trkpt>
      <trkpt lat="51.82829" lon="4.02303">
        <ele>47.982</ele>
        <time>2020-07-02T12:39:40Z</time>
      </trkpt>
      <trkpt lat="51.8282" lon="4.02336">
        <ele>48.293</ele>
        <time>2020-07-02T12:39:45Z</time>
      </trkpt>
      <trkpt lat="51.82811" lon="4.02375">
        <ele>48.616</ele>
        <time>2020-07-02T12:39:51Z</time>
      </trkpt>
      <trkpt lat="51.828" lon="4.02411">
        <ele>48.901</ele>
        <time>2020-07-02T12:39:57Z</time>
      </trkpt>
      <trkpt lat="51.8279" lon="4.02447">
        <ele>49.463</ele>
        <time>2020-07-02T12:40:03Z</time>
      </trkpt>
      <trkpt lat="51.82663" lon="4.02997">
        <ele>51.5</ele>
        <time>2020-07-02T12:42:05Z</time>
      </trkpt>
      <trkpt lat="51.82511" lon="4.03063">
        <ele>52.672</ele>
        <time>2020-07-02T12:42:10Z</time>
      </trkpt>
      <trkpt lat="51.82495" lon="4.03085">
        <ele>51.706</ele>
        <time>2020-07-02T12:42:16Z</time>
      </trkpt>
      <trkpt lat="51.82484" lon="4.03109">
        <ele>51.608</ele>
        <time>2020-07-02T12:42:22Z</time>
      </trkpt>
      <trkpt lat="51.82473" lon="4.03132">
        <ele>51.761</ele>
        <time>2020-07-02T12:42:27Z</time>
      </trkpt>
      <trkpt lat="51.82462" lon="4.03156">
        <ele>52.303</ele>
        <time>2020-07-02T12:42:32Z</time>
      </trkpt>
      <trkpt lat="51.82445" lon="4.03186">
        <ele>52.072</ele>
        <time>2020-07-02T12:42:38Z</time>
      </trkpt>
      <trkpt lat="51.82428" lon="4.03218">
        <ele>52.895</ele>
        <time>2020-07-02T12:42:44Z</time>
      </trkpt>
      <trkpt lat="51.82412" lon="4.0325">
        <ele>52.816</ele>
        <time>2020-07-02T12:42:50Z</time>
      </trkpt>
      <trkpt lat="51.82395" lon="4.03278">
        <ele>52.515</ele>
        <time>2020-07-02T12:42:56Z</time>
      </trkpt>
      <trkpt lat="51.82379" lon="4.03297">
        <ele>53.533</ele>
        <time>2020-07-02T12:43:01Z</time>
      </trkpt>
      <trkpt lat="51.82368" lon="4.03312">
        <ele>54.217</ele>
        <time>2020-07-02T12:43:06Z</time>
      </trkpt>
      <trkpt lat="51.82359" lon="4.03326">
        <ele>55.048</ele>
        <time>2020-07-02T12:43:11Z</time>
      </trkpt>
      <trkpt lat="51.82352" lon="4.03343">
        <ele>55.047</ele>
        <time>2020-07-02T12:43:16Z</time>
      </trkpt>
      <trkpt lat="51.82342" lon="4.0337">
        <ele>54.279</ele>
        <time>2020-07-02T12:43:22Z</time>
      </trkpt>
      <trkpt lat="51.82322" lon="4.03381">
        <ele>54.878</ele>
        <time>2020-07-02T12:43:28Z</time>
      </trkpt>
      <trkpt lat="51.82306" lon="4.03405">
        <ele>54.588</ele>
        <time>2020-07-02T12:43:34Z</time>
      </trkpt>
      <trkpt lat="51.82289" lon="4.03425">
        <ele>53.864</ele>
        <time>2020-07-02T12:43:39Z</time>
      </trkpt>
      <trkpt lat="51.8227" lon="4.03453">
        <ele>53.736</ele>
        <time>2020-07-02T12:43:45Z</time>
      </trkpt>
      <trkpt lat="51.82251" lon="4.0348">
        <ele>53.685</ele>
        <time>2020-07-02T12:43:51Z</time>
      </trkpt>
      <trkpt lat="51.82235" lon="4.03504">
        <ele>53.804</ele>
        <time>2020-07-02T12:43:57Z</time>
      </trkpt>
      <trkpt lat="51.8222" lon="4.03527">
        <ele>53.243</ele>
        <time>2020-07-02T12:44:03Z</time>
      </trkpt>
      <trkpt lat="51.82208" lon="4.0354">
        <ele>52.927</ele>
        <time>2020-07-02T12:44:08Z</time>
      </trkpt>
      <trkpt lat="51.82184" lon="4.03561">
        <ele>51.627</ele>
        <time>2020-07-02T12:44:14Z</time>
      </trkpt>
      <trkpt lat="51.82158" lon="4.03597">
        <ele>51.305</ele>
        <time>2020-07-02T12:44:20Z</time>
      </trkpt>
      <trkpt lat="51.82137" lon="4.03631">
        <ele>51.941</ele>
        <time>2020-07-02T12:44:26Z</time>
      </trkpt>
      <trkpt lat="51.82123" lon="4.03657">
        <ele>52.02</ele>
        <time>2020-07-02T12:44:31Z</time>
      </trkpt>
      <trkpt lat="51.82109" lon="4.03686">
        <ele>52.664</ele>
        <time>2020-07-02T12:44:37Z</time>
      </trkpt>
      <trkpt lat="51.82107" lon="4.03717">
        <ele>53.166</ele>
        <time>2020-07-02T12:44:43Z</time>
      </trkpt>
      <trkpt lat="51.82093" lon="4.03729">
        <ele>53.356</ele>
        <time>2020-07-02T12:44:48Z</time>
      </trkpt>
      <trkpt lat="51.8209" lon="4.03723">
        <ele>54.452</ele>
        <time>2020-07-02T12:44:54Z</time>
      </trkpt>
      <trkpt lat="51.8209" lon="4.03723">
        <ele>54.452</ele>
        <time>2020-07-02T12:45:00Z</time>
      </trkpt>
      <trkpt lat="51.8209" lon="4.03723">
        <ele>54.452</ele>
        <time>2020-07-02T12:45:05Z</time>
      </trkpt>
      <trkpt lat="51.8209" lon="4.03723">
        <ele>54.452</ele>
        <time>2020-07-02T12:45:11Z</time>
      </trkpt>
      <trkpt lat="51.8209" lon="4.03723">
        <ele>54.452</ele>
        <time>2020-07-02T12:45:17Z</time>
      </trkpt>
      <trkpt lat="51.8209" lon="4.03723">
        <ele>54.452</ele>
        <time>2020-07-02T12:45:23Z</time>
      </trkpt>
      <trkpt lat="51.8209" lon="4.03723">
        <ele>54.452</ele>
        <time>2020-07-02T12:45:29Z</time>
      </trkpt>
      <trkpt lat="51.82097" lon="4.03729">
        <ele>54.833</ele>
        <time>2020-07-02T12:45:35Z</time>
      </trkpt>
      <trkpt lat="51.82107" lon="4.03741">
        <ele>54.807</ele>
        <time>2020-07-02T12:45:40Z</time>
      </trkpt>
      <trkpt lat="51.82118" lon="4.03756">
        <ele>54.952</ele>
        <time>2020-07-02T12:45:45Z</time>
      </trkpt>
      <trkpt lat="51.8213" lon="4.03775">
        <ele>55.27</ele>
        <time>2020-07-02T12:45:51Z</time>
      </trkpt>
      <trkpt lat="51.82145" lon="4.03797">
        <ele>55.346</ele>
        <time>2020-07-02T12:45:57Z</time>
      </trkpt>
      <trkpt lat="51.82159" lon="4.03814">
        <ele>54.685</ele>
        <time>2020-07-02T12:46:02Z</time>
      </trkpt>
      <trkpt lat="51.82173" lon="4.03832">
        <ele>54.178</ele>
        <time>2020-07-02T12:46:07Z</time>
      </trkpt>
      <trkpt lat="51.82192" lon="4.03852">
        <ele>54.044</ele>
        <time>2020-07-02T12:46:13Z</time>
      </trkpt>
      <trkpt lat="51.82209" lon="4.03875">
        <ele>53.562</ele>
        <time>2020-07-02T12:46:19Z</time>
      </trkpt>
      <trkpt lat="51.82227" lon="4.03899">
        <ele>53.776</ele>
        <time>2020-07-02T12:46:25Z</time>
      </trkpt>
      <trkpt lat="51.82245" lon="4.03923">
        <ele>53.977</ele>
        <time>2020-07-02T12:46:31Z</time>
      </trkpt>
      <trkpt lat="51.82262" lon="4.03945">
        <ele>53.873</ele>
        <time>2020-07-02T12:46:36Z</time>
      </trkpt>
      <trkpt lat="51.82279" lon="4.03968">
        <ele>53.706</ele>
        <time>2020-07-02T12:46:41Z</time>
      </trkpt>
      <trkpt lat="51.823" lon="4.03996">
        <ele>54.089</ele>
        <time>2020-07-02T12:46:47Z</time>
      </trkpt>
      <trkpt lat="51.82316" lon="4.04017">
        <ele>54.228</ele>
        <time>2020-07-02T12:46:52Z</time>
      </trkpt>
      <trkpt lat="51.82337" lon="4.04043">
        <ele>54.829</ele>
        <time>2020-07-02T12:46:58Z</time>
      </trkpt>
      <trkpt lat="51.82357" lon="4.04071">
        <ele>55.888</ele>
        <time>2020-07-02T12:47:04Z</time>
      </trkpt>
      <trkpt lat="51.82373" lon="4.04094">
        <ele>54.859</ele>
        <time>2020-07-02T12:47:09Z</time>
      </trkpt>
      <trkpt lat="51.8239" lon="4.04119">
        <ele>54.877</ele>
        <time>2020-07-02T12:47:16Z</time>
      </trkpt>
      <trkpt lat="51.82407" lon="4.04144">
        <ele>56.115</ele>
        <time>2020-07-02T12:47:21Z</time>
      </trkpt>
      <trkpt lat="51.82425" lon="4.0416">
        <ele>56.356</ele>
        <time>2020-07-02T12:47:27Z</time>
      </trkpt>
      <trkpt lat="51.82438" lon="4.04178">
        <ele>56.179</ele>
        <time>2020-07-02T12:47:32Z</time>
      </trkpt>
      <trkpt lat="51.82451" lon="4.04191">
        <ele>56.118</ele>
        <time>2020-07-02T12:47:38Z</time>
      </trkpt>
      <trkpt lat="51.8246" lon="4.04196">
        <ele>56.298</ele>
        <time>2020-07-02T12:47:43Z</time>
      </trkpt>
      <trkpt lat="51.82469" lon="4.04187">
        <ele>56.094</ele>
        <time>2020-07-02T12:47:48Z</time>
      </trkpt>
      <trkpt lat="51.82484" lon="4.04191">
        <ele>56.715</ele>
        <time>2020-07-02T12:47:54Z</time>
      </trkpt>
      <trkpt lat="51.82502" lon="4.04201">
        <ele>57.44</ele>
        <time>2020-07-02T12:48:00Z</time>
      </trkpt>
      <trkpt lat="51.8252" lon="4.0421">
        <ele>57.722</ele>
        <time>2020-07-02T12:48:06Z</time>
      </trkpt>
      <trkpt lat="51.82537" lon="4.0422">
        <ele>58.218</ele>
        <time>2020-07-02T12:48:12Z</time>
      </trkpt>
      <trkpt lat="51.82551" lon="4.04228">
        <ele>59.053</ele>
        <time>2020-07-02T12:48:17Z</time>
      </trkpt>
      <trkpt lat="51.82569" lon="4.04237">
        <ele>59.888</ele>
        <time>2020-07-02T12:48:23Z</time>
      </trkpt>
      <trkpt lat="51.82587" lon="4.04246">
        <ele>60.015</ele>
        <time>2020-07-02T12:48:29Z</time>
      </trkpt>
      <trkpt lat="51.82602" lon="4.04255">
        <ele>60.073</ele>
        <time>2020-07-02T12:48:34Z</time>
      </trkpt>
      <trkpt lat="51.8262" lon="4.04264">
        <ele>60.461</ele>
        <time>2020-07-02T12:48:40Z</time>
      </trkpt>
      <trkpt lat="51.82635" lon="4.04273">
        <ele>60.713</ele>
        <time>2020-07-02T12:48:45Z</time>
      </trkpt>
      <trkpt lat="51.8265" lon="4.0428">
        <ele>60.856</ele>
        <time>2020-07-02T12:48:50Z</time>
      </trkpt>
      <trkpt lat="51.82667" lon="4.04289">
        <ele>61.083</ele>
        <time>2020-07-02T12:48:56Z</time>
      </trkpt>
      <trkpt lat="51.82682" lon="4.04297">
        <ele>61.577</ele>
        <time>2020-07-02T12:49:01Z</time>
      </trkpt>
      <trkpt lat="51.82699" lon="4.04306">
        <ele>62.548</ele>
        <time>2020-07-02T12:49:07Z</time>
      </trkpt>
      <trkpt lat="51.82715" lon="4.04315">
        <ele>62.987</ele>
        <time>2020-07-02T12:49:13Z</time>
      </trkpt>
      <trkpt lat="51.8273" lon="4.04322">
        <ele>63.458</ele>
        <time>2020-07-02T12:49:18Z</time>
      </trkpt>
      <trkpt lat="51.82745" lon="4.04332">
        <ele>63.68</ele>
        <time>2020-07-02T12:49:24Z</time>
      </trkpt>
      <trkpt lat="51.82761" lon="4.04343">
        <ele>64.125</ele>
        <time>2020-07-02T12:49:30Z</time>
      </trkpt>
      <trkpt lat="51.82774" lon="4.04354">
        <ele>63.718</ele>
        <time>2020-07-02T12:49:35Z</time>
      </trkpt>
      <trkpt lat="51.82791" lon="4.04368">
        <ele>64.006</ele>
        <time>2020-07-02T12:49:41Z</time>
      </trkpt>
      <trkpt lat="51.82806" lon="4.04381">
        <ele>64.543</ele>
        <time>2020-07-02T12:49:47Z</time>
      </trkpt>
      <trkpt lat="51.82821" lon="4.04395">
        <ele>65.314</ele>
        <time>2020-07-02T12:49:53Z</time>
      </trkpt>
      <trkpt lat="51.82834" lon="4.04407">
        <ele>66.11</ele>
        <time>2020-07-02T12:49:58Z</time>
      </trkpt>
      <trkpt lat="51.82849" lon="4.04424">
        <ele>66.555</ele>
        <time>2020-07-02T12:50:04Z</time>
      </trkpt>
      <trkpt lat="51.82865" lon="4.04442">
        <ele>66.618</ele>
        <time>2020-07-02T12:50:10Z</time>
      </trkpt>
      <trkpt lat="51.8288" lon="4.04462">
        <ele>66.601</ele>
        <time>2020-07-02T12:50:16Z</time>
      </trkpt>
      <trkpt lat="51.82896" lon="4.04479">
        <ele>66.59</ele>
        <time>2020-07-02T12:50:22Z</time>
      </trkpt>
      <trkpt lat="51.8291" lon="4.04499">
        <ele>66.218</ele>
        <time>2020-07-02T12:50:28Z</time>
      </trkpt>
      <trkpt lat="51.82927" lon="4.04522">
        <ele>66.182</ele>
        <time>2020-07-02T12:50:34Z</time>
      </trkpt>
      <trkpt lat="51.82941" lon="4.0454">
        <ele>65.888</ele>
        <time>2020-07-02T12:50:39Z</time>
      </trkpt>
      <trkpt lat="51.82958" lon="4.04563">
        <ele>65.723</ele>
        <time>2020-07-02T12:50:45Z</time>
      </trkpt>
      <trkpt lat="51.82974" lon="4.04584">
        <ele>65.396</ele>
        <time>2020-07-02T12:50:50Z</time>
      </trkpt>
      <trkpt lat="51.82989" lon="4.04604">
        <ele>65.011</ele>
        <time>2020-07-02T12:50:55Z</time>
      </trkpt>
      <trkpt lat="51.83005" lon="4.04625">
        <ele>64.787</ele>
        <time>2020-07-02T12:51:00Z</time>
      </trkpt>
      <trkpt lat="51.83025" lon="4.04652">
        <ele>65.254</ele>
        <time>2020-07-02T12:51:06Z</time>
      </trkpt>
      <trkpt lat="51.83041" lon="4.04674">
        <ele>64.864</ele>
        <time>2020-07-02T12:51:11Z</time>
      </trkpt>
      <trkpt lat="51.83059" lon="4.04701">
        <ele>64.286</ele>
        <time>2020-07-02T12:51:17Z</time>
      </trkpt>
      <trkpt lat="51.83076" lon="4.04723">
        <ele>64.094</ele>
        <time>2020-07-02T12:51:22Z</time>
      </trkpt>
      <trkpt lat="51.83096" lon="4.04749">
        <ele>64.2</ele>
        <time>2020-07-02T12:51:28Z</time>
      </trkpt>
      <trkpt lat="51.83112" lon="4.0477">
        <ele>64.08</ele>
        <time>2020-07-02T12:51:33Z</time>
      </trkpt>
      <trkpt lat="51.83132" lon="4.04797">
        <ele>64.708</ele>
        <time>2020-07-02T12:51:39Z</time>
      </trkpt>
      <trkpt lat="51.83153" lon="4.04824">
        <ele>65.092</ele>
        <time>2020-07-02T12:51:45Z</time>
      </trkpt>
      <trkpt lat="51.83172" lon="4.04852">
        <ele>64.856</ele>
        <time>2020-07-02T12:51:51Z</time>
      </trkpt>
      <trkpt lat="51.83191" lon="4.04878">
        <ele>64.373</ele>
        <time>2020-07-02T12:51:57Z</time>
      </trkpt>
      <trkpt lat="51.83207" lon="4.04901">
        <ele>63.898</ele>
        <time>2020-07-02T12:52:02Z</time>
      </trkpt>
      <trkpt lat="51.83227" lon="4.04927">
        <ele>64.036</ele>
        <time>2020-07-02T12:52:08Z</time>
      </trkpt>
      <trkpt lat="51.83245" lon="4.04951">
        <ele>64.193</ele>
        <time>2020-07-02T12:52:13Z</time>
      </trkpt>
      <trkpt lat="51.83267" lon="4.04979">
        <ele>64.363</ele>
        <time>2020-07-02T12:52:19Z</time>
      </trkpt>
      <trkpt lat="51.83289" lon="4.05006">
        <ele>64.265</ele>
        <time>2020-07-02T12:52:25Z</time>
      </trkpt>
      <trkpt lat="51.83306" lon="4.05031">
        <ele>64.022</ele>
        <time>2020-07-02T12:52:30Z</time>
      </trkpt>
      <trkpt lat="51.83324" lon="4.05055">
        <ele>63.661</ele>
        <time>2020-07-02T12:52:35Z</time>
      </trkpt>
      <trkpt lat="51.83341" lon="4.05078">
        <ele>63.51</ele>
        <time>2020-07-02T12:52:40Z</time>
      </trkpt>
      <trkpt lat="51.83363" lon="4.05107">
        <ele>63.521</ele>
        <time>2020-07-02T12:52:46Z</time>
      </trkpt>
      <trkpt lat="51.83382" lon="4.05132">
        <ele>63.78</ele>
        <time>2020-07-02T12:52:51Z</time>
      </trkpt>
      <trkpt lat="51.834" lon="4.05157">
        <ele>64.59</ele>
        <time>2020-07-02T12:52:56Z</time>
      </trkpt>
      <trkpt lat="51.83419" lon="4.05183">
        <ele>65.077</ele>
        <time>2020-07-02T12:53:01Z</time>
      </trkpt>
      <trkpt lat="51.83442" lon="4.05212">
        <ele>65.251</ele>
        <time>2020-07-02T12:53:07Z</time>
      </trkpt>
      <trkpt lat="51.83465" lon="4.05244">
        <ele>65.337</ele>
        <time>2020-07-02T12:53:13Z</time>
      </trkpt>
      <trkpt lat="51.83484" lon="4.05269">
        <ele>65.219</ele>
        <time>2020-07-02T12:53:18Z</time>
      </trkpt>
      <trkpt lat="51.83505" lon="4.05298">
        <ele>64.865</ele>
        <time>2020-07-02T12:53:24Z</time>
      </trkpt>
      <trkpt lat="51.83524" lon="4.05322">
        <ele>64.53</ele>
        <time>2020-07-02T12:53:29Z</time>
      </trkpt>
      <trkpt lat="51.83547" lon="4.05353">
        <ele>64.675</ele>
        <time>2020-07-02T12:53:35Z</time>
      </trkpt>
      <trkpt lat="51.82611" lon="4.0442">
        <ele>53.7</ele>
        <time>2020-07-02T13:00:25Z</time>
      </trkpt>
      <trkpt lat="51.84654" lon="4.08624">
        <ele>57.982</ele>
        <time>2020-07-02T13:00:30Z</time>
      </trkpt>
      <trkpt lat="51.84644" lon="4.0868">
        <ele>50.981</ele>
        <time>2020-07-02T13:00:36Z</time>
      </trkpt>
      <trkpt lat="51.84633" lon="4.08722">
        <ele>48.182</ele>
        <time>2020-07-02T13:00:42Z</time>
      </trkpt>
      <trkpt lat="51.84627" lon="4.08753">
        <ele>48.8</ele>
        <time>2020-07-02T13:00:47Z</time>
      </trkpt>
      <trkpt lat="51.84621" lon="4.08786">
        <ele>48.692</ele>
        <time>2020-07-02T13:00:53Z</time>
      </trkpt>
      <trkpt lat="51.84616" lon="4.08814">
        <ele>49.007</ele>
        <time>2020-07-02T13:00:58Z</time>
      </trkpt>
      <trkpt lat="51.84609" lon="4.08848">
        <ele>48.845</ele>
        <time>2020-07-02T13:01:04Z</time>
      </trkpt>
      <trkpt lat="51.84604" lon="4.08861">
        <ele>47.557</ele>
        <time>2020-07-02T13:01:09Z</time>
      </trkpt>
      <trkpt lat="51.84604" lon="4.08861">
        <ele>47.557</ele>
        <time>2020-07-02T13:01:15Z</time>
      </trkpt>
      <trkpt lat="51.84604" lon="4.08861">
        <ele>47.557</ele>
        <time>2020-07-02T13:01:20Z</time>
      </trkpt>
      <trkpt lat="51.84604" lon="4.08861">
        <ele>47.557</ele>
        <time>2020-07-02T13:01:25Z</time>
      </trkpt>
      <trkpt lat="51.84604" lon="4.08861">
        <ele>47.557</ele>
        <time>2020-07-02T13:01:31Z</time>
      </trkpt>
      <trkpt lat="51.84604" lon="4.08861">
        <ele>47.557</ele>
        <time>2020-07-02T13:01:37Z</time>
      </trkpt>
      <trkpt lat="51.84604" lon="4.08861">
        <ele>47.557</ele>
        <time>2020-07-02T13:01:43Z</time>
      </trkpt>
      <trkpt lat="51.84604" lon="4.08861">
        <ele>47.557</ele>
        <time>2020-07-02T13:01:49Z</time>
      </trkpt>
      <trkpt lat="51.84604" lon="4.08861">
        <ele>47.557</ele>
        <time>2020-07-02T13:01:54Z</time>
      </trkpt>
      <trkpt lat="51.84604" lon="4.08861">
        <ele>47.557</ele>
        <time>2020-07-02T13:02:00Z</time>
      </trkpt>
      <trkpt lat="51.84604" lon="4.08861">
        <ele>47.557</ele>
        <time>2020-07-02T13:02:05Z</time>
      </trkpt>
      <trkpt lat="51.84604" lon="4.08861">
        <ele>47.557</ele>
        <time>2020-07-02T13:02:10Z</time>
      </trkpt>
      <trkpt lat="51.84604" lon="4.08861">
        <ele>47.557</ele>
        <time>2020-07-02T13:02:16Z</time>
      </trkpt>
      <trkpt lat="51.84604" lon="4.08861">
        <ele>47.557</ele>
        <time>2020-07-02T13:02:22Z</time>
      </trkpt>
      <trkpt lat="51.84604" lon="4.08861">
        <ele>47.557</ele>
        <time>2020-07-02T13:02:28Z</time>
      </trkpt>
      <trkpt lat="51.84604" lon="4.08861">
        <ele>47.557</ele>
        <time>2020-07-02T13:02:34Z</time>
      </trkpt>
      <trkpt lat="51.84604" lon="4.08861">
        <ele>47.557</ele>
        <time>2020-07-02T13:02:39Z</time>
      </trkpt>
      <trkpt lat="51.84604" lon="4.08861">
        <ele>47.557</ele>
        <time>2020-07-02T13:02:45Z</time>
      </trkpt>
      <trkpt lat="51.84604" lon="4.08861">
        <ele>47.557</ele>
        <time>2020-07-02T13:02:51Z</time>
      </trkpt>
      <trkpt lat="51.84604" lon="4.08861">
        <ele>47.557</ele>
        <time>2020-07-02T13:02:57Z</time>
      </trkpt>
      <trkpt lat="51.84604" lon="4.08861">
        <ele>47.557</ele>
        <time>2020-07-02T13:03:03Z</time>
      </trkpt>
      <trkpt lat="51.84604" lon="4.08866">
        <ele>47.223</ele>
        <time>2020-07-02T13:03:09Z</time>
      </trkpt>
      <trkpt lat="51.84602" lon="4.08883">
        <ele>47.29</ele>
        <time>2020-07-02T13:03:15Z</time>
      </trkpt>
      <trkpt lat="51.84597" lon="4.08908">
        <ele>47.213</ele>
        <time>2020-07-02T13:03:21Z</time>
      </trkpt>
      <trkpt lat="51.8459" lon="4.08941">
        <ele>46.752</ele>
        <time>2020-07-02T13:03:27Z</time>
      </trkpt>
      <trkpt lat="51.84585" lon="4.08971">
        <ele>46.624</ele>
        <time>2020-07-02T13:03:32Z</time>
      </trkpt>
      <trkpt lat="51.84577" lon="4.09011">
        <ele>45.586</ele>
        <time>2020-07-02T13:03:38Z</time>
      </trkpt>
      <trkpt lat="51.84571" lon="4.09044">
        <ele>44.988</ele>
        <time>2020-07-02T13:03:43Z</time>
      </trkpt>
      <trkpt lat="51.84564" lon="4.09085">
        <ele>44.424</ele>
        <time>2020-07-02T13:03:49Z</time>
      </trkpt>
      <trkpt lat="51.84555" lon="4.09128">
        <ele>44.312</ele>
        <time>2020-07-02T13:03:55Z</time>
      </trkpt>
      <trkpt lat="51.84547" lon="4.09164">
        <ele>44.407</ele>
        <time>2020-07-02T13:04:00Z</time>
      </trkpt>
      <trkpt lat="51.84539" lon="4.09205">
        <ele>45.092</ele>
        <time>2020-07-02T13:04:06Z</time>
      </trkpt>
      <trkpt lat="51.84532" lon="4.09248">
        <ele>45.593</ele>
        <time>2020-07-02T13:04:12Z</time>
      </trkpt>
      <trkpt lat="51.84523" lon="4.09291">
        <ele>46.02</ele>
        <time>2020-07-02T13:04:18Z</time>
      </trkpt>
      <trkpt lat="51.84514" lon="4.09335">
        <ele>47.163</ele>
        <time>2020-07-02T13:04:24Z</time>
      </trkpt>
      <trkpt lat="51.84507" lon="4.09381">
        <ele>46.146</ele>
        <time>2020-07-02T13:04:30Z</time>
      </trkpt>
      <trkpt lat="51.84499" lon="4.09418">
        <ele>45.94</ele>
        <time>2020-07-02T13:04:35Z</time>
      </trkpt>
      <trkpt lat="51.84482" lon="4.09449">
        <ele>46.016</ele>
        <time>2020-07-02T13:04:40Z</time>
      </trkpt>
      <trkpt lat="51.84458" lon="4.09472">
        <ele>45.684</ele>
        <time>2020-07-02T13:04:46Z</time>
      </trkpt>
      <trkpt lat="51.84437" lon="4.09484">
        <ele>45.111</ele>
        <time>2020-07-02T13:04:51Z</time>
      </trkpt>
      <trkpt lat="51.84413" lon="4.09495">
        <ele>45.103</ele>
        <time>2020-07-02T13:04:57Z</time>
      </trkpt>
      <trkpt lat="51.84387" lon="4.09502">
        <ele>45.599</ele>
        <time>2020-07-02T13:05:03Z</time>
      </trkpt>
      <trkpt lat="51.84366" lon="4.09507">
        <ele>46.052</ele>
        <time>2020-07-02T13:05:08Z</time>
      </trkpt>
      <trkpt lat="51.84346" lon="4.09511">
        <ele>46.324</ele>
        <time>2020-07-02T13:05:13Z</time>
      </trkpt>
      <trkpt lat="51.84321" lon="4.09513">
        <ele>46.77</ele>
        <time>2020-07-02T13:05:19Z</time>
      </trkpt>
      <trkpt lat="51.84301" lon="4.09513">
        <ele>46.707</ele>
        <time>2020-07-02T13:05:24Z</time>
      </trkpt>
      <trkpt lat="51.84278" lon="4.0951">
        <ele>46.677</ele>
        <time>2020-07-02T13:05:30Z</time>
      </trkpt>
      <trkpt lat="51.84259" lon="4.09508">
        <ele>46.498</ele>
        <time>2020-07-02T13:05:35Z</time>
      </trkpt>
      <trkpt lat="51.84237" lon="4.09504">
        <ele>46.212</ele>
        <time>2020-07-02T13:05:41Z</time>
      </trkpt>
      <trkpt lat="51.84219" lon="4.09499">
        <ele>45.799</ele>
        <time>2020-07-02T13:05:46Z</time>
      </trkpt>
      <trkpt lat="51.84198" lon="4.09493">
        <ele>45.626</ele>
        <time>2020-07-02T13:05:52Z</time>
      </trkpt>
      <trkpt lat="51.84176" lon="4.09485">
        <ele>45.382</ele>
        <time>2020-07-02T13:05:58Z</time>
      </trkpt>
      <trkpt lat="51.84158" lon="4.09478">
        <ele>45.784</ele>
        <time>2020-07-02T13:06:03Z</time>
      </trkpt>
      <trkpt lat="51.84136" lon="4.0947">
        <ele>46.644</ele>
        <time>2020-07-02T13:06:09Z</time>
      </trkpt>
      <trkpt lat="51.84113" lon="4.09461">
        <ele>48.011</ele>
        <time>2020-07-02T13:06:15Z</time>
      </trkpt>
      <trkpt lat="51.84094" lon="4.09455">
        <ele>49.074</ele>
        <time>2020-07-02T13:06:20Z</time>
      </trkpt>
      <trkpt lat="51.84075" lon="4.09448">
        <ele>50.711</ele>
        <time>2020-07-02T13:06:25Z</time>
      </trkpt>
      <trkpt lat="51.84052" lon="4.0944">
        <ele>52.677</ele>
        <time>2020-07-02T13:06:31Z</time>
      </trkpt>
      <trkpt lat="51.84032" lon="4.09433">
        <ele>53.894</ele>
        <time>2020-07-02T13:06:36Z</time>
      </trkpt>
      <trkpt lat="51.84012" lon="4.09413">
        <ele>55.161</ele>
        <time>2020-07-02T13:06:42Z</time>
      </trkpt>
      <trkpt lat="51.83999" lon="4.09387">
        <ele>53.541</ele>
        <time>2020-07-02T13:06:47Z</time>
      </trkpt>
      <trkpt lat="51.83987" lon="4.09356">
        <ele>51.728</ele>
        <time>2020-07-02T13:06:53Z</time>
      </trkpt>
      <trkpt lat="51.83973" lon="4.09338">
        <ele>49.996</ele>
        <time>2020-07-02T13:06:58Z</time>
      </trkpt>
      <trkpt lat="51.83952" lon="4.09328">
        <ele>49.032</ele>
        <time>2020-07-02T13:07:04Z</time>
      </trkpt>
      <trkpt lat="51.83935" lon="4.09326">
        <ele>49.493</ele>
        <time>2020-07-02T13:07:09Z</time>
      </trkpt>
      <trkpt lat="51.83927" lon="4.09345">
        <ele>50.068</ele>
        <time>2020-07-02T13:07:15Z</time>
      </trkpt>
      <trkpt lat="51.83922" lon="4.0937">
        <ele>51.228</ele>
        <time>2020-07-02T13:07:21Z</time>
      </trkpt>
      <trkpt lat="51.83906" lon="4.09396">
        <ele>51.763</ele>
        <time>2020-07-02T13:07:27Z</time>
      </trkpt>
      <trkpt lat="51.83891" lon="4.09409">
        <ele>51.516</ele>
        <time>2020-07-02T13:07:33Z</time>
      </trkpt>
      <trkpt lat="51.83895" lon="4.09432">
        <ele>51.434</ele>
        <time>2020-07-02T13:07:38Z</time>
      </trkpt>
      <trkpt lat="51.839" lon="4.09463">
        <ele>51.187</ele>
        <time>2020-07-02T13:07:44Z</time>
      </trkpt>
      <trkpt lat="51.83899" lon="4.09493">
        <ele>50.616</ele>
        <time>2020-07-02T13:07:49Z</time>
      </trkpt>
      <trkpt lat="51.83887" lon="4.09527">
        <ele>50.5</ele>
        <time>2020-07-02T13:07:55Z</time>
      </trkpt>
      <trkpt lat="51.83873" lon="4.09552">
        <ele>49.718</ele>
        <time>2020-07-02T13:08:00Z</time>
      </trkpt>
      <trkpt lat="51.83857" lon="4.09586">
        <ele>49.193</ele>
        <time>2020-07-02T13:08:06Z</time>
      </trkpt>
      <trkpt lat="51.8386" lon="4.09625">
        <ele>49.705</ele>
        <time>2020-07-02T13:08:12Z</time>
      </trkpt>
      <trkpt lat="51.83878" lon="4.09646">
        <ele>49.447</ele>
        <time>2020-07-02T13:08:18Z</time>
      </trkpt>
      <trkpt lat="51.83894" lon="4.09659">
        <ele>51.395</ele>
        <time>2020-07-02T13:08:24Z</time>
      </trkpt>
      <trkpt lat="51.83903" lon="4.09669">
        <ele>52.22</ele>
        <time>2020-07-02T13:08:29Z</time>
      </trkpt>
      <trkpt lat="51.83919" lon="4.09679">
        <ele>52.545</ele>
        <time>2020-07-02T13:08:35Z</time>
      </trkpt>
      <trkpt lat="51.83938" lon="4.09692">
        <ele>52.221</ele>
        <time>2020-07-02T13:08:41Z</time>
      </trkpt>
      <trkpt lat="51.83958" lon="4.09703">
        <ele>52.502</ele>
        <time>2020-07-02T13:08:47Z</time>
      </trkpt>
      <trkpt lat="51.83975" lon="4.09715">
        <ele>53.121</ele>
        <time>2020-07-02T13:08:52Z</time>
      </trkpt>
      <trkpt lat="51.83994" lon="4.09731">
        <ele>53.945</ele>
        <time>2020-07-02T13:08:58Z</time>
      </trkpt>
      <trkpt lat="51.84012" lon="4.09746">
        <ele>53.847</ele>
        <time>2020-07-02T13:09:04Z</time>
      </trkpt>
      <trkpt lat="51.8403" lon="4.09763">
        <ele>53.686</ele>
        <time>2020-07-02T13:09:10Z</time>
      </trkpt>
      <trkpt lat="51.84044" lon="4.09779">
        <ele>53.723</ele>
        <time>2020-07-02T13:09:15Z</time>
      </trkpt>
      <trkpt lat="51.8406" lon="4.09802">
        <ele>53.982</ele>
        <time>2020-07-02T13:09:21Z</time>
      </trkpt>
      <trkpt lat="51.84085" lon="4.09829">
        <ele>53.453</ele>
        <time>2020-07-02T13:09:27Z</time>
      </trkpt>
      <trkpt lat="51.84111" lon="4.09856">
        <ele>53.6</ele>
        <time>2020-07-02T13:09:33Z</time>
      </trkpt>
      <trkpt lat="51.84134" lon="4.09882">
        <ele>52.634</ele>
        <time>2020-07-02T13:09:39Z</time>
      </trkpt>
      <trkpt lat="51.84155" lon="4.09908">
        <ele>52.625</ele>
        <time>2020-07-02T13:09:45Z</time>
      </trkpt>
      <trkpt lat="51.84173" lon="4.09928">
        <ele>52.588</ele>
        <time>2020-07-02T13:09:50Z</time>
      </trkpt>
      <trkpt lat="51.84192" lon="4.09946">
        <ele>51.892</ele>
        <time>2020-07-02T13:09:55Z</time>
      </trkpt>
      <trkpt lat="51.84209" lon="4.09966">
        <ele>51.845</ele>
        <time>2020-07-02T13:10:00Z</time>
      </trkpt>
      <trkpt lat="51.8423" lon="4.09989">
        <ele>51.28</ele>
        <time>2020-07-02T13:10:06Z</time>
      </trkpt>
      <trkpt lat="51.84252" lon="4.10013">
        <ele>50.519</ele>
        <time>2020-07-02T13:10:12Z</time>
      </trkpt>
      <trkpt lat="51.84274" lon="4.10037">
        <ele>49.849</ele>
        <time>2020-07-02T13:10:18Z</time>
      </trkpt>
      <trkpt lat="51.84292" lon="4.10058">
        <ele>49.219</ele>
        <time>2020-07-02T13:10:23Z</time>
      </trkpt>
      <trkpt lat="51.84316" lon="4.10083">
        <ele>48.459</ele>
        <time>2020-07-02T13:10:29Z</time>
      </trkpt>
      <trkpt lat="51.84337" lon="4.10104">
        <ele>48.291</ele>
        <time>2020-07-02T13:10:34Z</time>
      </trkpt>
      <trkpt lat="51.84361" lon="4.10131">
        <ele>48.855</ele>
        <time>2020-07-02T13:10:40Z</time>
      </trkpt>
      <trkpt lat="51.84386" lon="4.10156">
        <ele>49.147</ele>
        <time>2020-07-02T13:10:46Z</time>
      </trkpt>
      <trkpt lat="51.84406" lon="4.10175">
        <ele>49.118</ele>
        <time>2020-07-02T13:10:51Z</time>
      </trkpt>
      <trkpt lat="51.84425" lon="4.10195">
        <ele>49.205</ele>
        <time>2020-07-02T13:10:56Z</time>
      </trkpt>
      <trkpt lat="51.8445" lon="4.10218">
        <ele>48.584</ele>
        <time>2020-07-02T13:11:02Z</time>
      </trkpt>
      <trkpt lat="51.84474" lon="4.10243">
        <ele>48.54</ele>
        <time>2020-07-02T13:11:08Z</time>
      </trkpt>
      <trkpt lat="51.84496" lon="4.10267">
        <ele>48.753</ele>
        <time>2020-07-02T13:11:14Z</time>
      </trkpt>
      <trkpt lat="51.84517" lon="4.10289">
        <ele>48.651</ele>
        <time>2020-07-02T13:11:20Z</time>
      </trkpt>
      <trkpt lat="51.8454" lon="4.10313">
        <ele>48.593</ele>
        <time>2020-07-02T13:11:26Z</time>
      </trkpt>
      <trkpt lat="51.84558" lon="4.10333">
        <ele>48.792</ele>
        <time>2020-07-02T13:11:31Z</time>
      </trkpt>
      <trkpt lat="51.8458" lon="4.10359">
        <ele>47.862</ele>
        <time>2020-07-02T13:11:37Z</time>
      </trkpt>
      <trkpt lat="51.84598" lon="4.10381">
        <ele>47.833</ele>
        <time>2020-07-02T13:11:42Z</time>
      </trkpt>
      <trkpt lat="51.8462" lon="4.10409">
        <ele>47.449</ele>
        <time>2020-07-02T13:11:48Z</time>
      </trkpt>
      <trkpt lat="51.84638" lon="4.1043">
        <ele>48.22</ele>
        <time>2020-07-02T13:11:53Z</time>
      </trkpt>
      <trkpt lat="51.84659" lon="4.10452">
        <ele>48.552</ele>
        <time>2020-07-02T13:11:59Z</time>
      </trkpt>
      <trkpt lat="51.84675" lon="4.1047">
        <ele>48.988</ele>
        <time>2020-07-02T13:12:04Z</time>
      </trkpt>
      <trkpt lat="51.84695" lon="4.10491">
        <ele>49.421</ele>
        <time>2020-07-02T13:12:10Z</time>
      </trkpt>
      <trkpt lat="51.84712" lon="4.1051">
        <ele>50.213</ele>
        <time>2020-07-02T13:12:15Z</time>
      </trkpt>
      <trkpt lat="51.84735" lon="4.10533">
        <ele>50.105</ele>
        <time>2020-07-02T13:12:21Z</time>
      </trkpt>
      <trkpt lat="51.84756" lon="4.10557">
        <ele>50.19</ele>
        <time>2020-07-02T13:12:27Z</time>
      </trkpt>
      <trkpt lat="51.84773" lon="4.10576">
        <ele>50.952</ele>
        <time>2020-07-02T13:12:32Z</time>
      </trkpt>
      <trkpt lat="51.84789" lon="4.10595">
        <ele>51.077</ele>
        <time>2020-07-02T13:12:37Z</time>
      </trkpt>
      <trkpt lat="51.84805" lon="4.10615">
        <ele>51.584</ele>
        <time>2020-07-02T13:12:42Z</time>
      </trkpt>
      <trkpt lat="51.84825" lon="4.10639">
        <ele>51.435</ele>
        <time>2020-07-02T13:12:48Z</time>
      </trkpt>
      <trkpt lat="51.84846" lon="4.10662">
        <ele>51.348</ele>
        <time>2020-07-02T13:12:54Z</time>
      </trkpt>
      <trkpt lat="51.84868" lon="4.10686">
        <ele>51.375</ele>
        <time>2020-07-02T13:13:00Z</time>
      </trkpt>
      <trkpt lat="51.84887" lon="4.10707">
        <ele>50.988</ele>
        <time>2020-07-02T13:13:05Z</time>
      </trkpt>
      <trkpt lat="51.84905" lon="4.10727">
        <ele>50.388</ele>
        <time>2020-07-02T13:13:10Z</time>
      </trkpt>
      <trkpt lat="51.84923" lon="4.10746">
        <ele>49.825</ele>
        <time>2020-07-02T13:13:15Z</time>
      </trkpt>
      <trkpt lat="51.84945" lon="4.10771">
        <ele>49.024</ele>
        <time>2020-07-02T13:13:21Z</time>
      </trkpt>
      <trkpt lat="51.84962" lon="4.10792">
        <ele>48.717</ele>
        <time>2020-07-02T13:13:26Z</time>
      </trkpt>
      <trkpt lat="51.8498" lon="4.10813">
        <ele>48.527</ele>
        <time>2020-07-02T13:13:32Z</time>
      </trkpt>
      <trkpt lat="51.84996" lon="4.10832">
        <ele>48.54</ele>
        <time>2020-07-02T13:13:37Z</time>
      </trkpt>
      <trkpt lat="51.85015" lon="4.10854">
        <ele>48.179</ele>
        <time>2020-07-02T13:13:43Z</time>
      </trkpt>
      <trkpt lat="51.8503" lon="4.10874">
        <ele>47.934</ele>
        <time>2020-07-02T13:13:48Z</time>
      </trkpt>
      <trkpt lat="51.85049" lon="4.10901">
        <ele>48.063</ele>
        <time>2020-07-02T13:13:54Z</time>
      </trkpt>
      <trkpt lat="51.8527" lon="4.11355">
        <ele>44.2</ele>
        <time>2020-07-02T13:15:22Z</time>
      </trkpt>
      <trkpt lat="51.85368" lon="4.11361">
        <ele>42.704</ele>
        <time>2020-07-02T13:15:27Z</time>
      </trkpt>
      <trkpt lat="51.85383" lon="4.11386">
        <ele>44.502</ele>
        <time>2020-07-02T13:15:33Z</time>
      </trkpt>
      <trkpt lat="51.85393" lon="4.11404">
        <ele>46.285</ele>
        <time>2020-07-02T13:15:38Z</time>
      </trkpt>
      <trkpt lat="51.85405" lon="4.11427">
        <ele>47.174</ele>
        <time>2020-07-02T13:15:44Z</time>
      </trkpt>
      <trkpt lat="51.85417" lon="4.1145">
        <ele>48.049</ele>
        <time>2020-07-02T13:15:50Z</time>
      </trkpt>
      <trkpt lat="51.85427" lon="4.1147">
        <ele>47.64</ele>
        <time>2020-07-02T13:15:55Z</time>
      </trkpt>
      <trkpt lat="51.85443" lon="4.11501">
        <ele>46.994</ele>
        <time>2020-07-02T13:16:02Z</time>
      </trkpt>
      <trkpt lat="51.85455" lon="4.11524">
        <ele>46.504</ele>
        <time>2020-07-02T13:16:07Z</time>
      </trkpt>
      <trkpt lat="51.85471" lon="4.11554">
        <ele>46.249</ele>
        <time>2020-07-02T13:16:13Z</time>
      </trkpt>
      <trkpt lat="51.85485" lon="4.11588">
        <ele>46.766</ele>
        <time>2020-07-02T13:16:19Z</time>
      </trkpt>
      <trkpt lat="51.85496" lon="4.11627">
        <ele>46.777</ele>
        <time>2020-07-02T13:16:25Z</time>
      </trkpt>
      <trkpt lat="51.85503" lon="4.11665">
        <ele>46.999</ele>
        <time>2020-07-02T13:16:31Z</time>
      </trkpt>
      <trkpt lat="51.85509" lon="4.11702">
        <ele>47.264</ele>
        <time>2020-07-02T13:16:37Z</time>
      </trkpt>
      <trkpt lat="51.85517" lon="4.1174">
        <ele>48.701</ele>
        <time>2020-07-02T13:16:43Z</time>
      </trkpt>
      <trkpt lat="51.85523" lon="4.11783">
        <ele>49.591</ele>
        <time>2020-07-02T13:16:49Z</time>
      </trkpt>
      <trkpt lat="51.85529" lon="4.11822">
        <ele>49.424</ele>
        <time>2020-07-02T13:16:54Z</time>
      </trkpt>
      <trkpt lat="51.85527" lon="4.11872">
        <ele>49.634</ele>
        <time>2020-07-02T13:17:00Z</time>
      </trkpt>
      <trkpt lat="51.85521" lon="4.1191">
        <ele>49.979</ele>
        <time>2020-07-02T13:17:05Z</time>
      </trkpt>
      <trkpt lat="51.85512" lon="4.1196">
        <ele>49.473</ele>
        <time>2020-07-02T13:17:11Z</time>
      </trkpt>
      <trkpt lat="51.85513" lon="4.12002">
        <ele>49.358</ele>
        <time>2020-07-02T13:17:17Z</time>
      </trkpt>
      <trkpt lat="51.85524" lon="4.12027">
        <ele>50.27</ele>
        <time>2020-07-02T13:17:22Z</time>
      </trkpt>
      <trkpt lat="51.8551" lon="4.12055">
        <ele>50.292</ele>
        <time>2020-07-02T13:17:28Z</time>
      </trkpt>
      <trkpt lat="51.85498" lon="4.12088">
        <ele>49.537</ele>
        <time>2020-07-02T13:17:34Z</time>
      </trkpt>
      <trkpt lat="51.85493" lon="4.12121">
        <ele>48.615</ele>
        <time>2020-07-02T13:17:39Z</time>
      </trkpt>
      <trkpt lat="51.85488" lon="4.12183">
        <ele>47.061</ele>
        <time>2020-07-02T13:17:45Z</time>
      </trkpt>
      <trkpt lat="51.85481" lon="4.12233">
        <ele>46.627</ele>
        <time>2020-07-02T13:17:51Z</time>
      </trkpt>
      <trkpt lat="51.85474" lon="4.12276">
        <ele>46.065</ele>
        <time>2020-07-02T13:17:57Z</time>
      </trkpt>
      <trkpt lat="51.85468" lon="4.1232">
        <ele>45.96</ele>
        <time>2020-07-02T13:18:03Z</time>
      </trkpt>
      <trkpt lat="51.85461" lon="4.12364">
        <ele>45.818</ele>
        <time>2020-07-02T13:18:09Z</time>
      </trkpt>
      <trkpt lat="51.85455" lon="4.12402">
        <ele>46.129</ele>
        <time>2020-07-02T13:18:14Z</time>
      </trkpt>
      <trkpt lat="51.85447" lon="4.12457">
        <ele>46.069</ele>
        <time>2020-07-02T13:18:20Z</time>
      </trkpt>
      <trkpt lat="51.85441" lon="4.12498">
        <ele>45.84</ele>
        <time>2020-07-02T13:18:25Z</time>
      </trkpt>
      <trkpt lat="51.85433" lon="4.12544">
        <ele>46.087</ele>
        <time>2020-07-02T13:18:31Z</time>
      </trkpt>
      <trkpt lat="51.85426" lon="4.12591">
        <ele>46.215</ele>
        <time>2020-07-02T13:18:37Z</time>
      </trkpt>
      <trkpt lat="51.85417" lon="4.12645">
        <ele>46.595</ele>
        <time>2020-07-02T13:18:44Z</time>
      </trkpt>
      <trkpt lat="51.85411" lon="4.12689">
        <ele>47.011</ele>
        <time>2020-07-02T13:18:50Z</time>
      </trkpt>
      <trkpt lat="51.85405" lon="4.12732">
        <ele>47.282</ele>
        <time>2020-07-02T13:18:56Z</time>
      </trkpt>
      <trkpt lat="51.85398" lon="4.12775">
        <ele>46.627</ele>
        <time>2020-07-02T13:19:02Z</time>
      </trkpt>
      <trkpt lat="51.8539" lon="4.12827">
        <ele>46.081</ele>
        <time>2020-07-02T13:19:09Z</time>
      </trkpt>
      <trkpt lat="51.85385" lon="4.12865">
        <ele>45.482</ele>
        <time>2020-07-02T13:19:14Z</time>
      </trkpt>
      <trkpt lat="51.85379" lon="4.12904">
        <ele>45.629</ele>
        <time>2020-07-02T13:19:19Z</time>
      </trkpt>
      <trkpt lat="51.85372" lon="4.12947">
        <ele>45.492</ele>
        <time>2020-07-02T13:19:24Z</time>
      </trkpt>
      <trkpt lat="51.85364" lon="4.12998">
        <ele>45.654</ele>
        <time>2020-07-02T13:19:30Z</time>
      </trkpt>
      <trkpt lat="51.85356" lon="4.13049">
        <ele>45.684</ele>
        <time>2020-07-02T13:19:36Z</time>
      </trkpt>
      <trkpt lat="51.85348" lon="4.13098">
        <ele>45.401</ele>
        <time>2020-07-02T13:19:42Z</time>
      </trkpt>
      <trkpt lat="51.8534" lon="4.13146">
        <ele>45.305</ele>
        <time>2020-07-02T13:19:48Z</time>
      </trkpt>
      <trkpt lat="51.85331" lon="4.13183">
        <ele>46.114</ele>
        <time>2020-07-02T13:19:54Z</time>
      </trkpt>
      <trkpt lat="51.85326" lon="4.13207">
        <ele>46.701</ele>
        <time>2020-07-02T13:19:59Z</time>
      </trkpt>
      <trkpt lat="51.8532" lon="4.13233">
        <ele>47.694</ele>
        <time>2020-07-02T13:20:05Z</time>
      </trkpt>
      <trkpt lat="51.85315" lon="4.13257">
        <ele>47.245</ele>
        <time>2020-07-02T13:20:10Z</time>
      </trkpt>
      <trkpt lat="51.85309" lon="4.13279">
        <ele>46.786</ele>
        <time>2020-07-02T13:20:15Z</time>
      </trkpt>
      <trkpt lat="51.85304" lon="4.13306">
        <ele>46.63</ele>
        <time>2020-07-02T13:20:21Z</time>
      </trkpt>
      <trkpt lat="51.85301" lon="4.13329">
        <ele>46.771</ele>
        <time>2020-07-02T13:20:26Z</time>
      </trkpt>
      <trkpt lat="51.85297" lon="4.1335">
        <ele>46.174</ele>
        <time>2020-07-02T13:20:31Z</time>
      </trkpt>
      <trkpt lat="51.8529" lon="4.13381">
        <ele>46.851</ele>
        <time>2020-07-02T13:20:37Z</time>
      </trkpt>
      <trkpt lat="51.85273" lon="4.13395">
        <ele>47.69</ele>
        <time>2020-07-02T13:20:42Z</time>
      </trkpt>
      <trkpt lat="51.85249" lon="4.134">
        <ele>47.691</ele>
        <time>2020-07-02T13:20:48Z</time>
      </trkpt>
      <trkpt lat="51.85226" lon="4.13411">
        <ele>47.699</ele>
        <time>2020-07-02T13:20:54Z</time>
      </trkpt>
      <trkpt lat="51.85203" lon="4.13426">
        <ele>47.784</ele>
        <time>2020-07-02T13:21:00Z</time>
      </trkpt>
      <trkpt lat="51.85187" lon="4.1345">
        <ele>47.988</ele>
        <time>2020-07-02T13:21:05Z</time>
      </trkpt>
      <trkpt lat="51.85181" lon="4.13481">
        <ele>48.165</ele>
        <time>2020-07-02T13:21:10Z</time>
      </trkpt>
      <trkpt lat="51.85176" lon="4.13513">
        <ele>48.316</ele>
        <time>2020-07-02T13:21:15Z</time>
      </trkpt>
      <trkpt lat="51.8517" lon="4.13546">
        <ele>48.507</ele>
        <time>2020-07-02T13:21:20Z</time>
      </trkpt>
      <trkpt lat="51.85175" lon="4.13584">
        <ele>48.103</ele>
        <time>2020-07-02T13:21:26Z</time>
      </trkpt>
      <trkpt lat="51.85204" lon="4.13604">
        <ele>47.376</ele>
        <time>2020-07-02T13:21:33Z</time>
      </trkpt>
      <trkpt lat="51.85226" lon="4.13611">
        <ele>47.259</ele>
        <time>2020-07-02T13:21:39Z</time>
      </trkpt>
      <trkpt lat="51.85242" lon="4.13617">
        <ele>47.474</ele>
        <time>2020-07-02T13:21:44Z</time>
      </trkpt>
      <trkpt lat="51.85252" lon="4.13634">
        <ele>47.956</ele>
        <time>2020-07-02T13:21:50Z</time>
      </trkpt>
      <trkpt lat="51.85249" lon="4.13661">
        <ele>48.056</ele>
        <time>2020-07-02T13:21:56Z</time>
      </trkpt>
      <trkpt lat="51.85244" lon="4.13694">
        <ele>48.506</ele>
        <time>2020-07-02T13:22:02Z</time>
      </trkpt>
      <trkpt lat="51.8524" lon="4.1373">
        <ele>49.516</ele>
        <time>2020-07-02T13:22:08Z</time>
      </trkpt>
      <trkpt lat="51.85235" lon="4.13773">
        <ele>50.516</ele>
        <time>2020-07-02T13:22:15Z</time>
      </trkpt>
      <trkpt lat="51.85229" lon="4.13813">
        <ele>50.981</ele>
        <time>2020-07-02T13:22:21Z</time>
      </trkpt>
      <trkpt lat="51.85223" lon="4.13849">
        <ele>51.804</ele>
        <time>2020-07-02T13:22:27Z</time>
      </trkpt>
      <trkpt lat="51.85217" lon="4.13878">
        <ele>51</ele>
        <time>2020-07-02T13:22:32Z</time>
      </trkpt>
      <trkpt lat="51.85217" lon="4.13893">
        <ele>49.524</ele>
        <time>2020-07-02T13:22:38Z</time>
      </trkpt>
      <trkpt lat="51.85217" lon="4.13893">
        <ele>49.524</ele>
        <time>2020-07-02T13:22:43Z</time>
      </trkpt>
      <trkpt lat="51.85217" lon="4.13899">
        <ele>49.974</ele>
        <time>2020-07-02T13:22:48Z</time>
      </trkpt>
      <trkpt lat="51.8522" lon="4.13907">
        <ele>51.139</ele>
        <time>2020-07-02T13:22:53Z</time>
      </trkpt>
      <trkpt lat="51.85233" lon="4.13912">
        <ele>51.712</ele>
        <time>2020-07-02T13:22:58Z</time>
      </trkpt>
      <trkpt lat="51.85249" lon="4.13922">
        <ele>53.592</ele>
        <time>2020-07-02T13:23:04Z</time>
      </trkpt>
      <trkpt lat="51.85267" lon="4.1393">
        <ele>53.821</ele>
        <time>2020-07-02T13:23:10Z</time>
      </trkpt>
      <trkpt lat="51.8528" lon="4.13939">
        <ele>53.745</ele>
        <time>2020-07-02T13:23:15Z</time>
      </trkpt>
      <trkpt lat="51.85295" lon="4.1395">
        <ele>53.875</ele>
        <time>2020-07-02T13:23:20Z</time>
      </trkpt>
      <trkpt lat="51.85315" lon="4.13963">
        <ele>54.212</ele>
        <time>2020-07-02T13:23:26Z</time>
      </trkpt>
      <trkpt lat="51.85334" lon="4.13978">
        <ele>53.188</ele>
        <time>2020-07-02T13:23:32Z</time>
      </trkpt>
      <trkpt lat="51.85351" lon="4.13993">
        <ele>52.1</ele>
        <time>2020-07-02T13:23:37Z</time>
      </trkpt>
      <trkpt lat="51.85366" lon="4.14008">
        <ele>51.307</ele>
        <time>2020-07-02T13:23:42Z</time>
      </trkpt>
      <trkpt lat="51.85383" lon="4.14025">
        <ele>51.137</ele>
        <time>2020-07-02T13:23:48Z</time>
      </trkpt>
      <trkpt lat="51.85398" lon="4.14043">
        <ele>49.675</ele>
        <time>2020-07-02T13:23:53Z</time>
      </trkpt>
      <trkpt lat="51.8542" lon="4.14064">
        <ele>48.752</ele>
        <time>2020-07-02T13:23:59Z</time>
      </trkpt>
      <trkpt lat="51.85441" lon="4.14095">
        <ele>48.838</ele>
        <time>2020-07-02T13:24:06Z</time>
      </trkpt>
      <trkpt lat="51.85459" lon="4.14122">
        <ele>50.537</ele>
        <time>2020-07-02T13:24:12Z</time>
      </trkpt>
      <trkpt lat="51.85475" lon="4.14146">
        <ele>50.435</ele>
        <time>2020-07-02T13:24:17Z</time>
      </trkpt>
      <trkpt lat="51.85489" lon="4.14168">
        <ele>50.908</ele>
        <time>2020-07-02T13:24:22Z</time>
      </trkpt>
      <trkpt lat="51.85505" lon="4.14198">
        <ele>51.207</ele>
        <time>2020-07-02T13:24:28Z</time>
      </trkpt>
      <trkpt lat="51.85514" lon="4.14222">
        <ele>50.821</ele>
        <time>2020-07-02T13:24:33Z</time>
      </trkpt>
      <trkpt lat="51.8552" lon="4.14251">
        <ele>51.32</ele>
        <time>2020-07-02T13:24:39Z</time>
      </trkpt>
      <trkpt lat="51.85527" lon="4.14287">
        <ele>51.771</ele>
        <time>2020-07-02T13:24:46Z</time>
      </trkpt>
      <trkpt lat="51.85539" lon="4.14321">
        <ele>53.741</ele>
        <time>2020-07-02T13:24:53Z</time>
      </trkpt>
      <trkpt lat="51.85552" lon="4.14358">
        <ele>54.064</ele>
        <time>2020-07-02T13:24:59Z</time>
      </trkpt>
      <trkpt lat="51.85567" lon="4.14396">
        <ele>54.29</ele>
        <time>2020-07-02T13:25:04Z</time>
      </trkpt>
      <trkpt lat="51.85584" lon="4.14431">
        <ele>54.887</ele>
        <time>2020-07-02T13:25:10Z</time>
      </trkpt>
      <trkpt lat="51.85597" lon="4.14452">
        <ele>54.857</ele>
        <time>2020-07-02T13:25:15Z</time>
      </trkpt>
      <trkpt lat="51.85616" lon="4.14481">
        <ele>54.809</ele>
        <time>2020-07-02T13:25:21Z</time>
      </trkpt>
      <trkpt lat="51.85633" lon="4.14512">
        <ele>54.854</ele>
        <time>2020-07-02T13:25:27Z</time>
      </trkpt>
      <trkpt lat="51.85646" lon="4.1454">
        <ele>54.726</ele>
        <time>2020-07-02T13:25:32Z</time>
      </trkpt>
      <trkpt lat="51.85663" lon="4.14576">
        <ele>53.865</ele>
        <time>2020-07-02T13:25:38Z</time>
      </trkpt>
      <trkpt lat="51.85673" lon="4.14616">
        <ele>53.504</ele>
        <time>2020-07-02T13:25:44Z</time>
      </trkpt>
      <trkpt lat="51.85677" lon="4.14651">
        <ele>53.206</ele>
        <time>2020-07-02T13:25:49Z</time>
      </trkpt>
      <trkpt lat="51.85686" lon="4.14696">
        <ele>52.435</ele>
        <time>2020-07-02T13:25:55Z</time>
      </trkpt>
      <trkpt lat="51.85697" lon="4.14726">
        <ele>51.209</ele>
        <time>2020-07-02T13:26:00Z</time>
      </trkpt>
      <trkpt lat="51.8571" lon="4.1476">
        <ele>49.672</ele>
        <time>2020-07-02T13:26:05Z</time>
      </trkpt>
      <trkpt lat="51.85724" lon="4.14791">
        <ele>48.689</ele>
        <time>2020-07-02T13:26:10Z</time>
      </trkpt>
      <trkpt lat="51.85737" lon="4.14828">
        <ele>47.52</ele>
        <time>2020-07-02T13:26:16Z</time>
      </trkpt>
      <trkpt lat="51.85748" lon="4.14866">
        <ele>47.815</ele>
        <time>2020-07-02T13:26:22Z</time>
      </trkpt>
      <trkpt lat="51.8576" lon="4.1491">
        <ele>47.956</ele>
        <time>2020-07-02T13:26:29Z</time>
      </trkpt>
      <trkpt lat="51.8577" lon="4.14948">
        <ele>48.029</ele>
        <time>2020-07-02T13:26:35Z</time>
      </trkpt>
      <trkpt lat="51.85783" lon="4.14979">
        <ele>48.022</ele>
        <time>2020-07-02T13:26:40Z</time>
      </trkpt>
      <trkpt lat="51.858" lon="4.1501">
        <ele>49.488</ele>
        <time>2020-07-02T13:26:46Z</time>
      </trkpt>
      <trkpt lat="51.85814" lon="4.15032">
        <ele>49.911</ele>
        <time>2020-07-02T13:26:51Z</time>
      </trkpt>
      <trkpt lat="51.85829" lon="4.15059">
        <ele>50.436</ele>
        <time>2020-07-02T13:26:57Z</time>
      </trkpt>
      <trkpt lat="51.85841" lon="4.15083">
        <ele>49.737</ele>
        <time>2020-07-02T13:27:02Z</time>
      </trkpt>
      <trkpt lat="51.85853" lon="4.15105">
        <ele>49.726</ele>
        <time>2020-07-02T13:27:07Z</time>
      </trkpt>
      <trkpt lat="51.8587" lon="4.15135">
        <ele>49.725</ele>
        <time>2020-07-02T13:27:14Z</time>
      </trkpt>
      <trkpt lat="51.85886" lon="4.15161">
        <ele>49.307</ele>
        <time>2020-07-02T13:27:20Z</time>
      </trkpt>
      <trkpt lat="51.85901" lon="4.1519">
        <ele>49.772</ele>
        <time>2020-07-02T13:27:26Z</time>
      </trkpt>
      <trkpt lat="51.85914" lon="4.15214">
        <ele>49.439</ele>
        <time>2020-07-02T13:27:31Z</time>
      </trkpt>
      <trkpt lat="51.85928" lon="4.15242">
        <ele>49.681</ele>
        <time>2020-07-02T13:27:37Z</time>
      </trkpt>
      <trkpt lat="51.8594" lon="4.15271">
        <ele>50.197</ele>
        <time>2020-07-02T13:27:43Z</time>
      </trkpt>
      <trkpt lat="51.85953" lon="4.153">
        <ele>50.622</ele>
        <time>2020-07-02T13:27:49Z</time>
      </trkpt>
      <trkpt lat="51.85968" lon="4.15344">
        <ele>50.296</ele>
        <time>2020-07-02T13:27:58Z</time>
      </trkpt>
      <trkpt lat="51.85968" lon="4.15367">
        <ele>50.751</ele>
        <time>2020-07-02T13:28:04Z</time>
      </trkpt>
      <trkpt lat="51.85975" lon="4.15377">
        <ele>50.553</ele>
        <time>2020-07-02T13:28:09Z</time>
      </trkpt>
      <trkpt lat="51.85981" lon="4.15384">
        <ele>49.888</ele>
        <time>2020-07-02T13:28:14Z</time>
      </trkpt>
      <trkpt lat="51.85981" lon="4.15385">
        <ele>49.888</ele>
        <time>2020-07-02T13:28:20Z</time>
      </trkpt>
      <trkpt lat="51.85981" lon="4.15385">
        <ele>49.888</ele>
        <time>2020-07-02T13:28:26Z</time>
      </trkpt>
      <trkpt lat="51.85981" lon="4.15385">
        <ele>49.888</ele>
        <time>2020-07-02T13:28:32Z</time>
      </trkpt>
      <trkpt lat="51.85981" lon="4.15385">
        <ele>49.888</ele>
        <time>2020-07-02T13:28:38Z</time>
      </trkpt>
      <trkpt lat="51.85981" lon="4.15385">
        <ele>49.888</ele>
        <time>2020-07-02T13:28:44Z</time>
      </trkpt>
      <trkpt lat="51.85981" lon="4.15385">
        <ele>49.888</ele>
        <time>2020-07-02T13:28:49Z</time>
      </trkpt>
      <trkpt lat="51.85981" lon="4.15385">
        <ele>49.888</ele>
        <time>2020-07-02T13:28:54Z</time>
      </trkpt>
      <trkpt lat="51.85981" lon="4.15384">
        <ele>49.888</ele>
        <time>2020-07-02T13:29:00Z</time>
      </trkpt>
      <trkpt lat="51.85981" lon="4.15384">
        <ele>49.888</ele>
        <time>2020-07-02T13:29:05Z</time>
      </trkpt>
      <trkpt lat="51.85981" lon="4.15384">
        <ele>49.888</ele>
        <time>2020-07-02T13:29:11Z</time>
      </trkpt>
      <trkpt lat="51.85981" lon="4.15384">
        <ele>49.888</ele>
        <time>2020-07-02T13:29:17Z</time>
      </trkpt>
      <trkpt lat="51.85981" lon="4.15384">
        <ele>49.888</ele>
        <time>2020-07-02T13:29:23Z</time>
      </trkpt>
      <trkpt lat="51.85981" lon="4.15384">
        <ele>49.888</ele>
        <time>2020-07-02T13:29:29Z</time>
      </trkpt>
      <trkpt lat="51.85981" lon="4.15384">
        <ele>49.888</ele>
        <time>2020-07-02T13:29:35Z</time>
      </trkpt>
      <trkpt lat="51.85981" lon="4.15384">
        <ele>49.888</ele>
        <time>2020-07-02T13:29:40Z</time>
      </trkpt>
      <trkpt lat="51.85981" lon="4.15384">
        <ele>49.888</ele>
        <time>2020-07-02T13:29:46Z</time>
      </trkpt>
      <trkpt lat="51.85981" lon="4.15384">
        <ele>49.888</ele>
        <time>2020-07-02T13:29:52Z</time>
      </trkpt>
      <trkpt lat="51.85981" lon="4.15384">
        <ele>49.888</ele>
        <time>2020-07-02T13:29:58Z</time>
      </trkpt>
      <trkpt lat="51.85981" lon="4.15384">
        <ele>49.888</ele>
        <time>2020-07-02T13:30:04Z</time>
      </trkpt>
      <trkpt lat="51.85981" lon="4.15384">
        <ele>49.888</ele>
        <time>2020-07-02T13:30:10Z</time>
      </trkpt>
      <trkpt lat="51.85981" lon="4.15384">
        <ele>49.888</ele>
        <time>2020-07-02T13:30:16Z</time>
      </trkpt>
      <trkpt lat="51.85981" lon="4.15384">
        <ele>49.888</ele>
        <time>2020-07-02T13:30:21Z</time>
      </trkpt>
      <trkpt lat="51.85981" lon="4.15384">
        <ele>49.888</ele>
        <time>2020-07-02T13:30:27Z</time>
      </trkpt>
      <trkpt lat="51.85981" lon="4.15384">
        <ele>49.888</ele>
        <time>2020-07-02T13:30:33Z</time>
      </trkpt>
      <trkpt lat="51.85981" lon="4.15384">
        <ele>49.888</ele>
        <time>2020-07-02T13:30:38Z</time>
      </trkpt>
      <trkpt lat="51.85981" lon="4.15385">
        <ele>49.816</ele>
        <time>2020-07-02T13:30:44Z</time>
      </trkpt>
      <trkpt lat="51.85987" lon="4.15393">
        <ele>50.282</ele>
        <time>2020-07-02T13:30:49Z</time>
      </trkpt>
      <trkpt lat="51.85994" lon="4.15402">
        <ele>50.79</ele>
        <time>2020-07-02T13:30:54Z</time>
      </trkpt>
      <trkpt lat="51.86001" lon="4.15415">
        <ele>51.235</ele>
        <time>2020-07-02T13:31:00Z</time>
      </trkpt>
      <trkpt lat="51.86006" lon="4.15425">
        <ele>51.989</ele>
        <time>2020-07-02T13:31:05Z</time>
      </trkpt>
      <trkpt lat="51.86013" lon="4.15438">
        <ele>52.95</ele>
        <time>2020-07-02T13:31:11Z</time>
      </trkpt>
      <trkpt lat="51.86018" lon="4.15449">
        <ele>53.54</ele>
        <time>2020-07-02T13:31:16Z</time>
      </trkpt>
      <trkpt lat="51.86027" lon="4.15462">
        <ele>53.642</ele>
        <time>2020-07-02T13:31:22Z</time>
      </trkpt>
      <trkpt lat="51.86036" lon="4.15476">
        <ele>54.585</ele>
        <time>2020-07-02T13:31:28Z</time>
      </trkpt>
      <trkpt lat="51.86046" lon="4.15488">
        <ele>53.994</ele>
        <time>2020-07-02T13:31:34Z</time>
      </trkpt>
      <trkpt lat="51.86057" lon="4.15501">
        <ele>54.534</ele>
        <time>2020-07-02T13:31:40Z</time>
      </trkpt>
      <trkpt lat="51.86067" lon="4.15513">
        <ele>55.523</ele>
        <time>2020-07-02T13:31:46Z</time>
      </trkpt>
      <trkpt lat="51.86081" lon="4.1553">
        <ele>55.478</ele>
        <time>2020-07-02T13:31:54Z</time>
      </trkpt>
      <trkpt lat="51.86093" lon="4.15546">
        <ele>55.447</ele>
        <time>2020-07-02T13:32:00Z</time>
      </trkpt>
      <trkpt lat="51.86103" lon="4.15558">
        <ele>54.769</ele>
        <time>2020-07-02T13:32:05Z</time>
      </trkpt>
      <trkpt lat="51.86113" lon="4.1557">
        <ele>55.114</ele>
        <time>2020-07-02T13:32:10Z</time>
      </trkpt>
      <trkpt lat="51.86128" lon="4.15587">
        <ele>54.596</ele>
        <time>2020-07-02T13:32:16Z</time>
      </trkpt>
      <trkpt lat="51.86142" lon="4.15603">
        <ele>54.358</ele>
        <time>2020-07-02T13:32:21Z</time>
      </trkpt>
      <trkpt lat="51.8616" lon="4.15626">
        <ele>54.743</ele>
        <time>2020-07-02T13:32:27Z</time>
      </trkpt>
      <trkpt lat="51.86176" lon="4.15645">
        <ele>55.031</ele>
        <time>2020-07-02T13:32:32Z</time>
      </trkpt>
      <trkpt lat="51.86201" lon="4.15674">
        <ele>53.973</ele>
        <time>2020-07-02T13:32:38Z</time>
      </trkpt>
      <trkpt lat="51.86229" lon="4.15707">
        <ele>52.42</ele>
        <time>2020-07-02T13:32:43Z</time>
      </trkpt>
      <trkpt lat="51.8627" lon="4.15755">
        <ele>50.945</ele>
        <time>2020-07-02T13:32:50Z</time>
      </trkpt>
      <trkpt lat="51.86296" lon="4.15788">
        <ele>49.633</ele>
        <time>2020-07-02T13:32:55Z</time>
      </trkpt>
      <trkpt lat="51.8632" lon="4.15817">
        <ele>48.103</ele>
        <time>2020-07-02T13:33:00Z</time>
      </trkpt>
      <trkpt lat="51.86342" lon="4.15843">
        <ele>47.342</ele>
        <time>2020-07-02T13:33:05Z</time>
      </trkpt>
      <trkpt lat="51.86366" lon="4.1587">
        <ele>46.782</ele>
        <time>2020-07-02T13:33:11Z</time>
      </trkpt>
      <trkpt lat="51.86388" lon="4.15895">
        <ele>46.32</ele>
        <time>2020-07-02T13:33:17Z</time>
      </trkpt>
      <trkpt lat="51.8641" lon="4.15917">
        <ele>46.616</ele>
        <time>2020-07-02T13:33:23Z</time>
      </trkpt>
      <trkpt lat="51.86428" lon="4.15936">
        <ele>47.101</ele>
        <time>2020-07-02T13:33:28Z</time>
      </trkpt>
      <trkpt lat="51.86447" lon="4.15954">
        <ele>48.733</ele>
        <time>2020-07-02T13:33:34Z</time>
      </trkpt>
      <trkpt lat="51.86464" lon="4.15971">
        <ele>49.551</ele>
        <time>2020-07-02T13:33:39Z</time>
      </trkpt>
      <trkpt lat="51.86485" lon="4.1599">
        <ele>50.083</ele>
        <time>2020-07-02T13:33:45Z</time>
      </trkpt>
      <trkpt lat="51.8651" lon="4.16009">
        <ele>50.199</ele>
        <time>2020-07-02T13:33:51Z</time>
      </trkpt>
      <trkpt lat="51.86535" lon="4.16023">
        <ele>49.787</ele>
        <time>2020-07-02T13:33:57Z</time>
      </trkpt>
      <trkpt lat="51.86556" lon="4.16033">
        <ele>49.182</ele>
        <time>2020-07-02T13:34:02Z</time>
      </trkpt>
      <trkpt lat="51.86576" lon="4.16043">
        <ele>48.781</ele>
        <time>2020-07-02T13:34:07Z</time>
      </trkpt>
      <trkpt lat="51.866" lon="4.16054">
        <ele>48.455</ele>
        <time>2020-07-02T13:34:13Z</time>
      </trkpt>
      <trkpt lat="51.86621" lon="4.16062">
        <ele>48.301</ele>
        <time>2020-07-02T13:34:18Z</time>
      </trkpt>
      <trkpt lat="51.8664" lon="4.16074">
        <ele>47.784</ele>
        <time>2020-07-02T13:34:23Z</time>
      </trkpt>
      <trkpt lat="51.86656" lon="4.16123">
        <ele>46.294</ele>
        <time>2020-07-02T13:34:29Z</time>
      </trkpt>
      <trkpt lat="51.86672" lon="4.16162">
        <ele>45.333</ele>
        <time>2020-07-02T13:34:34Z</time>
      </trkpt>
      <trkpt lat="51.86696" lon="4.16172">
        <ele>45.331</ele>
        <time>2020-07-02T13:34:40Z</time>
      </trkpt>
      <trkpt lat="51.86708" lon="4.16194">
        <ele>45.394</ele>
        <time>2020-07-02T13:34:45Z</time>
      </trkpt>
      <trkpt lat="51.8672" lon="4.16238">
        <ele>45.074</ele>
        <time>2020-07-02T13:34:52Z</time>
      </trkpt>
      <trkpt lat="51.8673" lon="4.16276">
        <ele>44.956</ele>
        <time>2020-07-02T13:34:58Z</time>
      </trkpt>
      <trkpt lat="51.8674" lon="4.16311">
        <ele>45.078</ele>
        <time>2020-07-02T13:35:03Z</time>
      </trkpt>
      <trkpt lat="51.8675" lon="4.16352">
        <ele>45.566</ele>
        <time>2020-07-02T13:35:09Z</time>
      </trkpt>
      <trkpt lat="51.86759" lon="4.16396">
        <ele>46.447</ele>
        <time>2020-07-02T13:35:15Z</time>
      </trkpt>
      <trkpt lat="51.86767" lon="4.16437">
        <ele>47.509</ele>
        <time>2020-07-02T13:35:21Z</time>
      </trkpt>
      <trkpt lat="51.86778" lon="4.16479">
        <ele>47.634</ele>
        <time>2020-07-02T13:35:27Z</time>
      </trkpt>
      <trkpt lat="51.86791" lon="4.16513">
        <ele>47.343</ele>
        <time>2020-07-02T13:35:32Z</time>
      </trkpt>
      <trkpt lat="51.86808" lon="4.16544">
        <ele>46.048</ele>
        <time>2020-07-02T13:35:37Z</time>
      </trkpt>
      <trkpt lat="51.86827" lon="4.16569">
        <ele>45.886</ele>
        <time>2020-07-02T13:35:42Z</time>
      </trkpt>
      <trkpt lat="51.86843" lon="4.16592">
        <ele>44.647</ele>
        <time>2020-07-02T13:35:47Z</time>
      </trkpt>
      <trkpt lat="51.86863" lon="4.16622">
        <ele>45.099</ele>
        <time>2020-07-02T13:35:53Z</time>
      </trkpt>
      <trkpt lat="51.86882" lon="4.16651">
        <ele>44.933</ele>
        <time>2020-07-02T13:35:59Z</time>
      </trkpt>
      <trkpt lat="51.86898" lon="4.16675">
        <ele>44.506</ele>
        <time>2020-07-02T13:36:04Z</time>
      </trkpt>
      <trkpt lat="51.86918" lon="4.16704">
        <ele>44.97</ele>
        <time>2020-07-02T13:36:10Z</time>
      </trkpt>
      <trkpt lat="51.86936" lon="4.1673">
        <ele>45.499</ele>
        <time>2020-07-02T13:36:15Z</time>
      </trkpt>
      <trkpt lat="51.86955" lon="4.16763">
        <ele>46.544</ele>
        <time>2020-07-02T13:36:21Z</time>
      </trkpt>
      <trkpt lat="51.86971" lon="4.16792">
        <ele>48.127</ele>
        <time>2020-07-02T13:36:26Z</time>
      </trkpt>
      <trkpt lat="51.86987" lon="4.16824">
        <ele>49.061</ele>
        <time>2020-07-02T13:36:32Z</time>
      </trkpt>
      <trkpt lat="51.87" lon="4.16854">
        <ele>50.394</ele>
        <time>2020-07-02T13:36:38Z</time>
      </trkpt>
      <trkpt lat="51.87012" lon="4.1688">
        <ele>51.71</ele>
        <time>2020-07-02T13:36:43Z</time>
      </trkpt>
      <trkpt lat="51.87028" lon="4.1692">
        <ele>51.609</ele>
        <time>2020-07-02T13:36:50Z</time>
      </trkpt>
      <trkpt lat="51.87039" lon="4.16948">
        <ele>50.384</ele>
        <time>2020-07-02T13:36:55Z</time>
      </trkpt>
      <trkpt lat="51.87053" lon="4.16982">
        <ele>48.847</ele>
        <time>2020-07-02T13:37:01Z</time>
      </trkpt>
      <trkpt lat="51.87067" lon="4.17008">
        <ele>48.81</ele>
        <time>2020-07-02T13:37:06Z</time>
      </trkpt>
      <trkpt lat="51.87085" lon="4.17035">
        <ele>49.096</ele>
        <time>2020-07-02T13:37:12Z</time>
      </trkpt>
      <trkpt lat="51.87104" lon="4.17062">
        <ele>49.121</ele>
        <time>2020-07-02T13:37:18Z</time>
      </trkpt>
      <trkpt lat="51.87121" lon="4.17083">
        <ele>48.987</ele>
        <time>2020-07-02T13:37:23Z</time>
      </trkpt>
      <trkpt lat="51.8714" lon="4.17108">
        <ele>48.551</ele>
        <time>2020-07-02T13:37:29Z</time>
      </trkpt>
      <trkpt lat="51.87157" lon="4.17131">
        <ele>48.276</ele>
        <time>2020-07-02T13:37:34Z</time>
      </trkpt>
      <trkpt lat="51.87173" lon="4.17155">
        <ele>47.959</ele>
        <time>2020-07-02T13:37:39Z</time>
      </trkpt>
      <trkpt lat="51.87191" lon="4.17182">
        <ele>48.05</ele>
        <time>2020-07-02T13:37:45Z</time>
      </trkpt>
      <trkpt lat="51.8721" lon="4.17213">
        <ele>49.473</ele>
        <time>2020-07-02T13:37:52Z</time>
      </trkpt>
      <trkpt lat="51.87228" lon="4.17241">
        <ele>49.195</ele>
        <time>2020-07-02T13:37:57Z</time>
      </trkpt>
      <trkpt lat="51.8725" lon="4.17275">
        <ele>48.476</ele>
        <time>2020-07-02T13:38:03Z</time>
      </trkpt>
      <trkpt lat="51.87272" lon="4.17306">
        <ele>48.201</ele>
        <time>2020-07-02T13:38:09Z</time>
      </trkpt>
      <trkpt lat="51.87296" lon="4.17336">
        <ele>48.816</ele>
        <time>2020-07-02T13:38:16Z</time>
      </trkpt>
      <trkpt lat="51.87315" lon="4.17362">
        <ele>48.365</ele>
        <time>2020-07-02T13:38:22Z</time>
      </trkpt>
      <trkpt lat="51.87338" lon="4.17391">
        <ele>48.598</ele>
        <time>2020-07-02T13:38:28Z</time>
      </trkpt>
      <trkpt lat="51.8736" lon="4.17416">
        <ele>48.446</ele>
        <time>2020-07-02T13:38:33Z</time>
      </trkpt>
      <trkpt lat="51.87382" lon="4.17438">
        <ele>48.833</ele>
        <time>2020-07-02T13:38:38Z</time>
      </trkpt>
      <trkpt lat="51.87401" lon="4.17457">
        <ele>48.66</ele>
        <time>2020-07-02T13:38:43Z</time>
      </trkpt>
      <trkpt lat="51.87422" lon="4.17474">
        <ele>48.638</ele>
        <time>2020-07-02T13:38:49Z</time>
      </trkpt>
      <trkpt lat="51.87438" lon="4.17486">
        <ele>48.776</ele>
        <time>2020-07-02T13:38:54Z</time>
      </trkpt>
      <trkpt lat="51.87454" lon="4.17499">
        <ele>49.275</ele>
        <time>2020-07-02T13:38:59Z</time>
      </trkpt>
      <trkpt lat="51.87473" lon="4.17513">
        <ele>48.769</ele>
        <time>2020-07-02T13:39:05Z</time>
      </trkpt>
      <trkpt lat="51.87492" lon="4.17528">
        <ele>47.149</ele>
        <time>2020-07-02T13:39:11Z</time>
      </trkpt>
      <trkpt lat="51.87508" lon="4.17539">
        <ele>46.828</ele>
        <time>2020-07-02T13:39:16Z</time>
      </trkpt>
      <trkpt lat="51.87529" lon="4.17551">
        <ele>45.891</ele>
        <time>2020-07-02T13:39:22Z</time>
      </trkpt>
      <trkpt lat="51.87544" lon="4.17559">
        <ele>45.362</ele>
        <time>2020-07-02T13:39:27Z</time>
      </trkpt>
      <trkpt lat="51.87559" lon="4.17566">
        <ele>45.217</ele>
        <time>2020-07-02T13:39:33Z</time>
      </trkpt>
      <trkpt lat="51.87578" lon="4.17573">
        <ele>45.157</ele>
        <time>2020-07-02T13:39:39Z</time>
      </trkpt>
      <trkpt lat="51.87598" lon="4.17581">
        <ele>45.461</ele>
        <time>2020-07-02T13:39:44Z</time>
      </trkpt>
      <trkpt lat="51.87618" lon="4.17588">
        <ele>45.478</ele>
        <time>2020-07-02T13:39:49Z</time>
      </trkpt>
      <trkpt lat="51.87641" lon="4.17595">
        <ele>45.401</ele>
        <time>2020-07-02T13:39:55Z</time>
      </trkpt>
      <trkpt lat="51.87667" lon="4.176">
        <ele>45.005</ele>
        <time>2020-07-02T13:40:01Z</time>
      </trkpt>
      <trkpt lat="51.87685" lon="4.17629">
        <ele>45.077</ele>
        <time>2020-07-02T13:40:07Z</time>
      </trkpt>
      <trkpt lat="51.87701" lon="4.17644">
        <ele>45.874</ele>
        <time>2020-07-02T13:40:12Z</time>
      </trkpt>
      <trkpt lat="51.87721" lon="4.1767">
        <ele>46.35</ele>
        <time>2020-07-02T13:40:18Z</time>
      </trkpt>
      <trkpt lat="51.87738" lon="4.17696">
        <ele>46.606</ele>
        <time>2020-07-02T13:40:23Z</time>
      </trkpt>
      <trkpt lat="51.87756" lon="4.17729">
        <ele>46.2</ele>
        <time>2020-07-02T13:40:29Z</time>
      </trkpt>
      <trkpt lat="51.87771" lon="4.17759">
        <ele>45.9</ele>
        <time>2020-07-02T13:40:34Z</time>
      </trkpt>
      <trkpt lat="51.8779" lon="4.17795">
        <ele>46.728</ele>
        <time>2020-07-02T13:40:40Z</time>
      </trkpt>
      <trkpt lat="51.87807" lon="4.17825">
        <ele>47.669</ele>
        <time>2020-07-02T13:40:45Z</time>
      </trkpt>
      <trkpt lat="51.87826" lon="4.17854">
        <ele>48.334</ele>
        <time>2020-07-02T13:40:50Z</time>
      </trkpt>
      <trkpt lat="51.87848" lon="4.17883">
        <ele>48.157</ele>
        <time>2020-07-02T13:40:56Z</time>
      </trkpt>
      <trkpt lat="51.87863" lon="4.17904">
        <ele>50.576</ele>
        <time>2020-07-02T13:41:01Z</time>
      </trkpt>
      <trkpt lat="51.87883" lon="4.17926">
        <ele>52.946</ele>
        <time>2020-07-02T13:41:07Z</time>
      </trkpt>
      <trkpt lat="51.87904" lon="4.17942">
        <ele>54.39</ele>
        <time>2020-07-02T13:41:13Z</time>
      </trkpt>
      <trkpt lat="51.87926" lon="4.17957">
        <ele>54.63</ele>
        <time>2020-07-02T13:41:19Z</time>
      </trkpt>
      <trkpt lat="51.87947" lon="4.17973">
        <ele>53.688</ele>
        <time>2020-07-02T13:41:25Z</time>
      </trkpt>
      <trkpt lat="51.87968" lon="4.1799">
        <ele>51.619</ele>
        <time>2020-07-02T13:41:31Z</time>
      </trkpt>
      <trkpt lat="51.87984" lon="4.18014">
        <ele>48.717</ele>
        <time>2020-07-02T13:41:38Z</time>
      </trkpt>
      <trkpt lat="51.87996" lon="4.18037">
        <ele>46.298</ele>
        <time>2020-07-02T13:41:44Z</time>
      </trkpt>
      <trkpt lat="51.88006" lon="4.18059">
        <ele>46.988</ele>
        <time>2020-07-02T13:41:50Z</time>
      </trkpt>
      <trkpt lat="51.88017" lon="4.18069">
        <ele>48.33</ele>
        <time>2020-07-02T13:41:57Z</time>
      </trkpt>
      <trkpt lat="51.88032" lon="4.18057">
        <ele>48.57</ele>
        <time>2020-07-02T13:42:03Z</time>
      </trkpt>
      <trkpt lat="51.88055" lon="4.18085">
        <ele>48.488</ele>
        <time>2020-07-02T13:42:09Z</time>
      </trkpt>
      <trkpt lat="51.88075" lon="4.1811">
        <ele>48.301</ele>
        <time>2020-07-02T13:42:14Z</time>
      </trkpt>
      <trkpt lat="51.88097" lon="4.18139">
        <ele>45.922</ele>
        <time>2020-07-02T13:42:20Z</time>
      </trkpt>
      <trkpt lat="51.88119" lon="4.18167">
        <ele>45.317</ele>
        <time>2020-07-02T13:42:26Z</time>
      </trkpt>
      <trkpt lat="51.88139" lon="4.18194">
        <ele>44.924</ele>
        <time>2020-07-02T13:42:32Z</time>
      </trkpt>
      <trkpt lat="51.88156" lon="4.18221">
        <ele>44.922</ele>
        <time>2020-07-02T13:42:37Z</time>
      </trkpt>
      <trkpt lat="51.88173" lon="4.18247">
        <ele>44.585</ele>
        <time>2020-07-02T13:42:42Z</time>
      </trkpt>
      <trkpt lat="51.88193" lon="4.18276">
        <ele>44.149</ele>
        <time>2020-07-02T13:42:48Z</time>
      </trkpt>
      <trkpt lat="51.88213" lon="4.18304">
        <ele>44.09</ele>
        <time>2020-07-02T13:42:54Z</time>
      </trkpt>
      <trkpt lat="51.88231" lon="4.18326">
        <ele>43.911</ele>
        <time>2020-07-02T13:42:59Z</time>
      </trkpt>
      <trkpt lat="51.88249" lon="4.1835">
        <ele>43.456</ele>
        <time>2020-07-02T13:43:04Z</time>
      </trkpt>
      <trkpt lat="51.88266" lon="4.18374">
        <ele>43.49</ele>
        <time>2020-07-02T13:43:09Z</time>
      </trkpt>
      <trkpt lat="51.88288" lon="4.18403">
        <ele>43.488</ele>
        <time>2020-07-02T13:43:15Z</time>
      </trkpt>
      <trkpt lat="51.88309" lon="4.18432">
        <ele>43.43</ele>
        <time>2020-07-02T13:43:21Z</time>
      </trkpt>
      <trkpt lat="51.8833" lon="4.18459">
        <ele>43.619</ele>
        <time>2020-07-02T13:43:27Z</time>
      </trkpt>
      <trkpt lat="51.88348" lon="4.18483">
        <ele>43.42</ele>
        <time>2020-07-02T13:43:32Z</time>
      </trkpt>
      <trkpt lat="51.88366" lon="4.18505">
        <ele>43.401</ele>
        <time>2020-07-02T13:43:37Z</time>
      </trkpt>
      <trkpt lat="51.88394" lon="4.18535">
        <ele>42.923</ele>
        <time>2020-07-02T13:43:44Z</time>
      </trkpt>
      <trkpt lat="51.88418" lon="4.1856">
        <ele>42.82</ele>
        <time>2020-07-02T13:43:50Z</time>
      </trkpt>
      <trkpt lat="51.88438" lon="4.18581">
        <ele>42.553</ele>
        <time>2020-07-02T13:43:55Z</time>
      </trkpt>
      <trkpt lat="51.88462" lon="4.18602">
        <ele>42.497</ele>
        <time>2020-07-02T13:44:01Z</time>
      </trkpt>
      <trkpt lat="51.8848" lon="4.18623">
        <ele>43.066</ele>
        <time>2020-07-02T13:44:06Z</time>
      </trkpt>
      <trkpt lat="51.88496" lon="4.18651">
        <ele>43.83</ele>
        <time>2020-07-02T13:44:11Z</time>
      </trkpt>
      <trkpt lat="51.8851" lon="4.18682">
        <ele>44.11</ele>
        <time>2020-07-02T13:44:16Z</time>
      </trkpt>
      <trkpt lat="51.88524" lon="4.18712">
        <ele>44.255</ele>
        <time>2020-07-02T13:44:21Z</time>
      </trkpt>
      <trkpt lat="51.88543" lon="4.18748">
        <ele>44.262</ele>
        <time>2020-07-02T13:44:27Z</time>
      </trkpt>
      <trkpt lat="51.88561" lon="4.18772">
        <ele>44.58</ele>
        <time>2020-07-02T13:44:32Z</time>
      </trkpt>
      <trkpt lat="51.88583" lon="4.18795">
        <ele>45.171</ele>
        <time>2020-07-02T13:44:38Z</time>
      </trkpt>
      <trkpt lat="51.88609" lon="4.18816">
        <ele>47.169</ele>
        <time>2020-07-02T13:44:44Z</time>
      </trkpt>
      <trkpt lat="51.88635" lon="4.18834">
        <ele>48.398</ele>
        <time>2020-07-02T13:44:50Z</time>
      </trkpt>
      <trkpt lat="51.88653" lon="4.18847">
        <ele>48.13</ele>
        <time>2020-07-02T13:44:55Z</time>
      </trkpt>
      <trkpt lat="51.8867" lon="4.18859">
        <ele>46.365</ele>
        <time>2020-07-02T13:45:00Z</time>
      </trkpt>
      <trkpt lat="51.88687" lon="4.1887">
        <ele>43.78</ele>
        <time>2020-07-02T13:45:06Z</time>
      </trkpt>
      <trkpt lat="51.88701" lon="4.18879">
        <ele>42.957</ele>
        <time>2020-07-02T13:45:11Z</time>
      </trkpt>
      <trkpt lat="51.88721" lon="4.18892">
        <ele>43.262</ele>
        <time>2020-07-02T13:45:17Z</time>
      </trkpt>
      <trkpt lat="51.88744" lon="4.18905">
        <ele>43.055</ele>
        <time>2020-07-02T13:45:23Z</time>
      </trkpt>
      <trkpt lat="51.88767" lon="4.18918">
        <ele>43.219</ele>
        <time>2020-07-02T13:45:29Z</time>
      </trkpt>
      <trkpt lat="51.88787" lon="4.1893">
        <ele>43.564</ele>
        <time>2020-07-02T13:45:34Z</time>
      </trkpt>
      <trkpt lat="51.88807" lon="4.1894">
        <ele>43.584</ele>
        <time>2020-07-02T13:45:39Z</time>
      </trkpt>
      <trkpt lat="51.88831" lon="4.1895">
        <ele>43.572</ele>
        <time>2020-07-02T13:45:45Z</time>
      </trkpt>
      <trkpt lat="51.88854" lon="4.18961">
        <ele>43.557</ele>
        <time>2020-07-02T13:45:51Z</time>
      </trkpt>
      <trkpt lat="51.88873" lon="4.18969">
        <ele>43.283</ele>
        <time>2020-07-02T13:45:56Z</time>
      </trkpt>
      <trkpt lat="51.88892" lon="4.18978">
        <ele>43.931</ele>
        <time>2020-07-02T13:46:01Z</time>
      </trkpt>
      <trkpt lat="51.88912" lon="4.18991">
        <ele>44.244</ele>
        <time>2020-07-02T13:46:07Z</time>
      </trkpt>
      <trkpt lat="51.8893" lon="4.19003">
        <ele>44.304</ele>
        <time>2020-07-02T13:46:12Z</time>
      </trkpt>
      <trkpt lat="51.88952" lon="4.19017">
        <ele>44.518</ele>
        <time>2020-07-02T13:46:18Z</time>
      </trkpt>
      <trkpt lat="51.88976" lon="4.19032">
        <ele>44.731</ele>
        <time>2020-07-02T13:46:24Z</time>
      </trkpt>
      <trkpt lat="51.88998" lon="4.19045">
        <ele>44.443</ele>
        <time>2020-07-02T13:46:30Z</time>
      </trkpt>
      <trkpt lat="51.89017" lon="4.19057">
        <ele>44.27</ele>
        <time>2020-07-02T13:46:35Z</time>
      </trkpt>
      <trkpt lat="51.89035" lon="4.19069">
        <ele>43.914</ele>
        <time>2020-07-02T13:46:40Z</time>
      </trkpt>
      <trkpt lat="51.89056" lon="4.19085">
        <ele>43.993</ele>
        <time>2020-07-02T13:46:46Z</time>
      </trkpt>
      <trkpt lat="51.89075" lon="4.19107">
        <ele>44.139</ele>
        <time>2020-07-02T13:46:52Z</time>
      </trkpt>
      <trkpt lat="51.89093" lon="4.19132">
        <ele>44.386</ele>
        <time>2020-07-02T13:46:58Z</time>
      </trkpt>
      <trkpt lat="51.89106" lon="4.19157">
        <ele>44.12</ele>
        <time>2020-07-02T13:47:03Z</time>
      </trkpt>
      <trkpt lat="51.89121" lon="4.19186">
        <ele>43.508</ele>
        <time>2020-07-02T13:47:09Z</time>
      </trkpt>
      <trkpt lat="51.89137" lon="4.19217">
        <ele>43.706</ele>
        <time>2020-07-02T13:47:15Z</time>
      </trkpt>
      <trkpt lat="51.89152" lon="4.19247">
        <ele>43.926</ele>
        <time>2020-07-02T13:47:21Z</time>
      </trkpt>
      <trkpt lat="51.89162" lon="4.19267">
        <ele>43.886</ele>
        <time>2020-07-02T13:47:26Z</time>
      </trkpt>
      <trkpt lat="51.89176" lon="4.19273">
        <ele>42.676</ele>
        <time>2020-07-02T13:47:31Z</time>
      </trkpt>
      <trkpt lat="51.89184" lon="4.1925">
        <ele>43.507</ele>
        <time>2020-07-02T13:47:36Z</time>
      </trkpt>
      <trkpt lat="51.89192" lon="4.1922">
        <ele>43.982</ele>
        <time>2020-07-02T13:47:43Z</time>
      </trkpt>
      <trkpt lat="51.892" lon="4.19191">
        <ele>43.235</ele>
        <time>2020-07-02T13:47:49Z</time>
      </trkpt>
      <trkpt lat="51.89207" lon="4.19162">
        <ele>42.482</ele>
        <time>2020-07-02T13:47:55Z</time>
      </trkpt>
      <trkpt lat="51.89215" lon="4.19133">
        <ele>42.553</ele>
        <time>2020-07-02T13:48:01Z</time>
      </trkpt>
      <trkpt lat="51.89221" lon="4.19105">
        <ele>42.245</ele>
        <time>2020-07-02T13:48:07Z</time>
      </trkpt>
      <trkpt lat="51.89231" lon="4.19063">
        <ele>42.433</ele>
        <time>2020-07-02T13:48:15Z</time>
      </trkpt>
      <trkpt lat="51.89239" lon="4.1903">
        <ele>42.746</ele>
        <time>2020-07-02T13:48:21Z</time>
      </trkpt>
      <trkpt lat="51.89246" lon="4.18996">
        <ele>42.801</ele>
        <time>2020-07-02T13:48:27Z</time>
      </trkpt>
      <trkpt lat="51.89252" lon="4.18963">
        <ele>43.196</ele>
        <time>2020-07-02T13:48:33Z</time>
      </trkpt>
      <trkpt lat="51.89259" lon="4.18931">
        <ele>43.802</ele>
        <time>2020-07-02T13:48:39Z</time>
      </trkpt>
      <trkpt lat="51.89264" lon="4.18901">
        <ele>44.49</ele>
        <time>2020-07-02T13:48:45Z</time>
      </trkpt>
      <trkpt lat="51.89269" lon="4.1887">
        <ele>44.736</ele>
        <time>2020-07-02T13:48:51Z</time>
      </trkpt>
      <trkpt lat="51.89273" lon="4.18844">
        <ele>44.854</ele>
        <time>2020-07-02T13:48:56Z</time>
      </trkpt>
      <trkpt lat="51.89275" lon="4.18821">
        <ele>45.216</ele>
        <time>2020-07-02T13:49:01Z</time>
      </trkpt>
      <trkpt lat="51.89278" lon="4.18786">
        <ele>45.814</ele>
        <time>2020-07-02T13:49:08Z</time>
      </trkpt>
      <trkpt lat="51.8928" lon="4.18757">
        <ele>45.85</ele>
        <time>2020-07-02T13:49:14Z</time>
      </trkpt>
      <trkpt lat="51.89283" lon="4.18727">
        <ele>46.056</ele>
        <time>2020-07-02T13:49:20Z</time>
      </trkpt>
      <trkpt lat="51.89287" lon="4.18699">
        <ele>46.207</ele>
        <time>2020-07-02T13:49:26Z</time>
      </trkpt>
      <trkpt lat="51.89291" lon="4.18676">
        <ele>45.806</ele>
        <time>2020-07-02T13:49:31Z</time>
      </trkpt>
      <trkpt lat="51.89296" lon="4.18649">
        <ele>45.095</ele>
        <time>2020-07-02T13:49:37Z</time>
      </trkpt>
      <trkpt lat="51.89299" lon="4.18626">
        <ele>44.983</ele>
        <time>2020-07-02T13:49:42Z</time>
      </trkpt>
      <trkpt lat="51.89294" lon="4.18603">
        <ele>44.593</ele>
        <time>2020-07-02T13:49:48Z</time>
      </trkpt>
      <trkpt lat="51.89292" lon="4.18596">
        <ele>44.11</ele>
        <time>2020-07-02T13:49:53Z</time>
      </trkpt>
      <trkpt lat="51.89293" lon="4.18591">
        <ele>44.511</ele>
        <time>2020-07-02T13:49:59Z</time>
      </trkpt>
      <trkpt lat="51.89298" lon="4.18568">
        <ele>44.25</ele>
        <time>2020-07-02T13:50:05Z</time>
      </trkpt>
      <trkpt lat="51.8931" lon="4.18557">
        <ele>44.628</ele>
        <time>2020-07-02T13:50:10Z</time>
      </trkpt>
      <trkpt lat="51.89317" lon="4.18536">
        <ele>44.61</ele>
        <time>2020-07-02T13:50:15Z</time>
      </trkpt>
      <trkpt lat="51.89333" lon="4.18541">
        <ele>45.069</ele>
        <time>2020-07-02T13:50:21Z</time>
      </trkpt>
      <trkpt lat="51.89351" lon="4.18538">
        <ele>45.574</ele>
        <time>2020-07-02T13:50:27Z</time>
      </trkpt>
      <trkpt lat="51.89365" lon="4.1856">
        <ele>45.7</ele>
        <time>2020-07-02T13:50:33Z</time>
      </trkpt>
      <trkpt lat="51.89369" lon="4.18588">
        <ele>46.582</ele>
        <time>2020-07-02T13:50:38Z</time>
      </trkpt>
      <trkpt lat="51.89364" lon="4.18611">
        <ele>47.129</ele>
        <time>2020-07-02T13:50:44Z</time>
      </trkpt>
      <trkpt lat="51.89363" lon="4.18615">
        <ele>46.747</ele>
        <time>2020-07-02T13:50:50Z</time>
      </trkpt>
      <trkpt lat="51.89365" lon="4.18629">
        <ele>46.62</ele>
        <time>2020-07-02T13:50:55Z</time>
      </trkpt>
      <trkpt lat="51.89376" lon="4.18641">
        <ele>45.942</ele>
        <time>2020-07-02T13:51:00Z</time>
      </trkpt>
      <trkpt lat="51.89395" lon="4.18657">
        <ele>45.86</ele>
        <time>2020-07-02T13:51:06Z</time>
      </trkpt>
      <trkpt lat="51.89415" lon="4.18674">
        <ele>46.717</ele>
        <time>2020-07-02T13:51:12Z</time>
      </trkpt>
      <trkpt lat="51.89435" lon="4.18691">
        <ele>48.007</ele>
        <time>2020-07-02T13:51:18Z</time>
      </trkpt>
      <trkpt lat="51.89454" lon="4.18706">
        <ele>48.135</ele>
        <time>2020-07-02T13:51:24Z</time>
      </trkpt>
      <trkpt lat="51.89464" lon="4.18733">
        <ele>49.108</ele>
        <time>2020-07-02T13:51:30Z</time>
      </trkpt>
      <trkpt lat="51.89459" lon="4.18761">
        <ele>50.337</ele>
        <time>2020-07-02T13:51:35Z</time>
      </trkpt>
      <trkpt lat="51.89453" lon="4.18793">
        <ele>48.84</ele>
        <time>2020-07-02T13:51:41Z</time>
      </trkpt>
      <trkpt lat="51.89449" lon="4.18823">
        <ele>47.672</ele>
        <time>2020-07-02T13:51:47Z</time>
      </trkpt>
      <trkpt lat="51.89442" lon="4.18861">
        <ele>46.561</ele>
        <time>2020-07-02T13:51:54Z</time>
      </trkpt>
      <trkpt lat="51.89438" lon="4.18888">
        <ele>46.765</ele>
        <time>2020-07-02T13:51:59Z</time>
      </trkpt>
      <trkpt lat="51.89433" lon="4.18921">
        <ele>48.752</ele>
        <time>2020-07-02T13:52:05Z</time>
      </trkpt>
      <trkpt lat="51.8943" lon="4.18946">
        <ele>50.453</ele>
        <time>2020-07-02T13:52:10Z</time>
      </trkpt>
      <trkpt lat="51.89426" lon="4.18971">
        <ele>52.038</ele>
        <time>2020-07-02T13:52:15Z</time>
      </trkpt>
      <trkpt lat="51.89422" lon="4.19003">
        <ele>52.984</ele>
        <time>2020-07-02T13:52:21Z</time>
      </trkpt>
      <trkpt lat="51.89416" lon="4.19043">
        <ele>52.795</ele>
        <time>2020-07-02T13:52:27Z</time>
      </trkpt>
      <trkpt lat="51.89406" lon="4.1909">
        <ele>52.016</ele>
        <time>2020-07-02T13:52:34Z</time>
      </trkpt>
      <trkpt lat="51.89398" lon="4.1912">
        <ele>51.383</ele>
        <time>2020-07-02T13:52:39Z</time>
      </trkpt>
      <trkpt lat="51.89386" lon="4.19153">
        <ele>50.329</ele>
        <time>2020-07-02T13:52:45Z</time>
      </trkpt>
      <trkpt lat="51.89373" lon="4.19182">
        <ele>50.174</ele>
        <time>2020-07-02T13:52:51Z</time>
      </trkpt>
      <trkpt lat="51.89363" lon="4.19206">
        <ele>49.57</ele>
        <time>2020-07-02T13:52:57Z</time>
      </trkpt>
      <trkpt lat="51.89352" lon="4.19234">
        <ele>48.02</ele>
        <time>2020-07-02T13:53:03Z</time>
      </trkpt>
      <trkpt lat="51.8934" lon="4.19267">
        <ele>48.087</ele>
        <time>2020-07-02T13:53:10Z</time>
      </trkpt>
      <trkpt lat="51.8933" lon="4.19297">
        <ele>49.771</ele>
        <time>2020-07-02T13:53:16Z</time>
      </trkpt>
      <trkpt lat="51.89318" lon="4.19331">
        <ele>52.185</ele>
        <time>2020-07-02T13:53:22Z</time>
      </trkpt>
      <trkpt lat="51.89306" lon="4.19359">
        <ele>52.096</ele>
        <time>2020-07-02T13:53:27Z</time>
      </trkpt>
      <trkpt lat="51.89293" lon="4.19391">
        <ele>51.563</ele>
        <time>2020-07-02T13:53:33Z</time>
      </trkpt>
      <trkpt lat="51.89282" lon="4.19416">
        <ele>49.497</ele>
        <time>2020-07-02T13:53:38Z</time>
      </trkpt>
      <trkpt lat="51.89267" lon="4.19445">
        <ele>47.575</ele>
        <time>2020-07-02T13:53:44Z</time>
      </trkpt>
      <trkpt lat="51.89257" lon="4.19467">
        <ele>46.94</ele>
        <time>2020-07-02T13:53:49Z</time>
      </trkpt>
      <trkpt lat="51.89252" lon="4.19494">
        <ele>48.026</ele>
        <time>2020-07-02T13:53:54Z</time>
      </trkpt>
      <trkpt lat="51.89253" lon="4.19529">
        <ele>49.49</ele>
        <time>2020-07-02T13:54:00Z</time>
      </trkpt>
      <trkpt lat="51.89261" lon="4.19553">
        <ele>49.05</ele>
        <time>2020-07-02T13:54:05Z</time>
      </trkpt>
      <trkpt lat="51.89275" lon="4.19581">
        <ele>48.566</ele>
        <time>2020-07-02T13:54:11Z</time>
      </trkpt>
      <trkpt lat="51.89287" lon="4.19602">
        <ele>49.372</ele>
        <time>2020-07-02T13:54:16Z</time>
      </trkpt>
      <trkpt lat="51.89299" lon="4.19624">
        <ele>50.07</ele>
        <time>2020-07-02T13:54:21Z</time>
      </trkpt>
      <trkpt lat="51.89293" lon="4.19647">
        <ele>49.072</ele>
        <time>2020-07-02T13:54:27Z</time>
      </trkpt>
      <trkpt lat="51.89283" lon="4.19665">
        <ele>49.474</ele>
        <time>2020-07-02T13:54:33Z</time>
      </trkpt>
      <trkpt lat="51.89275" lon="4.19678">
        <ele>51.041</ele>
        <time>2020-07-02T13:54:38Z</time>
      </trkpt>
      <trkpt lat="51.89265" lon="4.19697">
        <ele>52.829</ele>
        <time>2020-07-02T13:54:44Z</time>
      </trkpt>
      <trkpt lat="51.8926" lon="4.19716">
        <ele>52.085</ele>
        <time>2020-07-02T13:54:49Z</time>
      </trkpt>
      <trkpt lat="51.89261" lon="4.1974">
        <ele>50.322</ele>
        <time>2020-07-02T13:54:55Z</time>
      </trkpt>
      <trkpt lat="51.89269" lon="4.19757">
        <ele>49.398</ele>
        <time>2020-07-02T13:55:00Z</time>
      </trkpt>
      <trkpt lat="51.89281" lon="4.19774">
        <ele>49.469</ele>
        <time>2020-07-02T13:55:06Z</time>
      </trkpt>
      <trkpt lat="51.89292" lon="4.19788">
        <ele>49.611</ele>
        <time>2020-07-02T13:55:12Z</time>
      </trkpt>
      <trkpt lat="51.89304" lon="4.19802">
        <ele>50.264</ele>
        <time>2020-07-02T13:55:18Z</time>
      </trkpt>
      <trkpt lat="51.89314" lon="4.19814">
        <ele>50.402</ele>
        <time>2020-07-02T13:55:23Z</time>
      </trkpt>
      <trkpt lat="51.89326" lon="4.19826">
        <ele>49.937</ele>
        <time>2020-07-02T13:55:29Z</time>
      </trkpt>
      <trkpt lat="51.89338" lon="4.19838">
        <ele>50.246</ele>
        <time>2020-07-02T13:55:35Z</time>
      </trkpt>
      <trkpt lat="51.89347" lon="4.19847">
        <ele>51.129</ele>
        <time>2020-07-02T13:55:40Z</time>
      </trkpt>
      <trkpt lat="51.89359" lon="4.1986">
        <ele>52.502</ele>
        <time>2020-07-02T13:55:46Z</time>
      </trkpt>
      <trkpt lat="51.89371" lon="4.19872">
        <ele>52.465</ele>
        <time>2020-07-02T13:55:51Z</time>
      </trkpt>
      <trkpt lat="51.89385" lon="4.19887">
        <ele>52.861</ele>
        <time>2020-07-02T13:55:57Z</time>
      </trkpt>
      <trkpt lat="51.89398" lon="4.19901">
        <ele>52.447</ele>
        <time>2020-07-02T13:56:02Z</time>
      </trkpt>
      <trkpt lat="51.89412" lon="4.19917">
        <ele>52.462</ele>
        <time>2020-07-02T13:56:08Z</time>
      </trkpt>
      <trkpt lat="51.89427" lon="4.19933">
        <ele>52.179</ele>
        <time>2020-07-02T13:56:14Z</time>
      </trkpt>
      <trkpt lat="51.89438" lon="4.19946">
        <ele>51.405</ele>
        <time>2020-07-02T13:56:19Z</time>
      </trkpt>
      <trkpt lat="51.89453" lon="4.19962">
        <ele>50.64</ele>
        <time>2020-07-02T13:56:25Z</time>
      </trkpt>
      <trkpt lat="51.89468" lon="4.19978">
        <ele>50.672</ele>
        <time>2020-07-02T13:56:31Z</time>
      </trkpt>
      <trkpt lat="51.89483" lon="4.19993">
        <ele>51.113</ele>
        <time>2020-07-02T13:56:37Z</time>
      </trkpt>
      <trkpt lat="51.89497" lon="4.20008">
        <ele>51.046</ele>
        <time>2020-07-02T13:56:43Z</time>
      </trkpt>
      <trkpt lat="51.89511" lon="4.20024">
        <ele>51.034</ele>
        <time>2020-07-02T13:56:49Z</time>
      </trkpt>
      <trkpt lat="51.89524" lon="4.20039">
        <ele>51.899</ele>
        <time>2020-07-02T13:56:55Z</time>
      </trkpt>
      <trkpt lat="51.89535" lon="4.20052">
        <ele>52.541</ele>
        <time>2020-07-02T13:57:00Z</time>
      </trkpt>
      <trkpt lat="51.89546" lon="4.20067">
        <ele>53.451</ele>
        <time>2020-07-02T13:57:05Z</time>
      </trkpt>
      <trkpt lat="51.89559" lon="4.20082">
        <ele>53.882</ele>
        <time>2020-07-02T13:57:11Z</time>
      </trkpt>
      <trkpt lat="51.89574" lon="4.20102">
        <ele>54.367</ele>
        <time>2020-07-02T13:57:18Z</time>
      </trkpt>
      <trkpt lat="51.89589" lon="4.20121">
        <ele>55.736</ele>
        <time>2020-07-02T13:57:24Z</time>
      </trkpt>
      <trkpt lat="51.89603" lon="4.20138">
        <ele>56.049</ele>
        <time>2020-07-02T13:57:30Z</time>
      </trkpt>
      <trkpt lat="51.89613" lon="4.20152">
        <ele>56.41</ele>
        <time>2020-07-02T13:57:35Z</time>
      </trkpt>
      <trkpt lat="51.89624" lon="4.20166">
        <ele>56.715</ele>
        <time>2020-07-02T13:57:41Z</time>
      </trkpt>
      <trkpt lat="51.8963" lon="4.20178">
        <ele>56.49</ele>
        <time>2020-07-02T13:57:46Z</time>
      </trkpt>
      <trkpt lat="51.89629" lon="4.20183">
        <ele>55.261</ele>
        <time>2020-07-02T13:57:52Z</time>
      </trkpt>
      <trkpt lat="51.89629" lon="4.20183">
        <ele>55.261</ele>
        <time>2020-07-02T13:57:57Z</time>
      </trkpt>
      <trkpt lat="51.89629" lon="4.20183">
        <ele>55.261</ele>
        <time>2020-07-02T13:58:02Z</time>
      </trkpt>
      <trkpt lat="51.89629" lon="4.20183">
        <ele>55.261</ele>
        <time>2020-07-02T13:58:07Z</time>
      </trkpt>
      <trkpt lat="51.89629" lon="4.20183">
        <ele>55.261</ele>
        <time>2020-07-02T13:58:13Z</time>
      </trkpt>
      <trkpt lat="51.89629" lon="4.20183">
        <ele>55.261</ele>
        <time>2020-07-02T13:58:18Z</time>
      </trkpt>
      <trkpt lat="51.89629" lon="4.20183">
        <ele>55.261</ele>
        <time>2020-07-02T13:58:24Z</time>
      </trkpt>
      <trkpt lat="51.89629" lon="4.20183">
        <ele>55.261</ele>
        <time>2020-07-02T13:58:29Z</time>
      </trkpt>
      <trkpt lat="51.89629" lon="4.20183">
        <ele>55.261</ele>
        <time>2020-07-02T13:58:35Z</time>
      </trkpt>
      <trkpt lat="51.89629" lon="4.20183">
        <ele>55.261</ele>
        <time>2020-07-02T13:58:41Z</time>
      </trkpt>
      <trkpt lat="51.89629" lon="4.20183">
        <ele>55.261</ele>
        <time>2020-07-02T13:58:47Z</time>
      </trkpt>
      <trkpt lat="51.89629" lon="4.20183">
        <ele>55.261</ele>
        <time>2020-07-02T13:58:53Z</time>
      </trkpt>
      <trkpt lat="51.89629" lon="4.20183">
        <ele>55.261</ele>
        <time>2020-07-02T13:58:58Z</time>
      </trkpt>
      <trkpt lat="51.89629" lon="4.20183">
        <ele>55.261</ele>
        <time>2020-07-02T13:59:04Z</time>
      </trkpt>
      <trkpt lat="51.89629" lon="4.20183">
        <ele>55.261</ele>
        <time>2020-07-02T13:59:09Z</time>
      </trkpt>
      <trkpt lat="51.89629" lon="4.20183">
        <ele>55.261</ele>
        <time>2020-07-02T13:59:15Z</time>
      </trkpt>
      <trkpt lat="51.89629" lon="4.20183">
        <ele>55.261</ele>
        <time>2020-07-02T13:59:21Z</time>
      </trkpt>
      <trkpt lat="51.89629" lon="4.20183">
        <ele>55.261</ele>
        <time>2020-07-02T13:59:27Z</time>
      </trkpt>
      <trkpt lat="51.89629" lon="4.20183">
        <ele>55.261</ele>
        <time>2020-07-02T13:59:33Z</time>
      </trkpt>
      <trkpt lat="51.89629" lon="4.20183">
        <ele>55.261</ele>
        <time>2020-07-02T13:59:38Z</time>
      </trkpt>
      <trkpt lat="51.89629" lon="4.20183">
        <ele>54.953</ele>
        <time>2020-07-02T13:59:44Z</time>
      </trkpt>
      <trkpt lat="51.89629" lon="4.20183">
        <ele>54.953</ele>
        <time>2020-07-02T13:59:50Z</time>
      </trkpt>
      <trkpt lat="51.89629" lon="4.20183">
        <ele>54.953</ele>
        <time>2020-07-02T13:59:56Z</time>
      </trkpt>
      <trkpt lat="51.89629" lon="4.20183">
        <ele>54.953</ele>
        <time>2020-07-02T14:00:02Z</time>
      </trkpt>
      <trkpt lat="51.89629" lon="4.20183">
        <ele>54.953</ele>
        <time>2020-07-02T14:00:08Z</time>
      </trkpt>
      <trkpt lat="51.89629" lon="4.20183">
        <ele>54.953</ele>
        <time>2020-07-02T14:00:13Z</time>
      </trkpt>
      <trkpt lat="51.89629" lon="4.20183">
        <ele>54.953</ele>
        <time>2020-07-02T14:00:18Z</time>
      </trkpt>
      <trkpt lat="51.89629" lon="4.20183">
        <ele>54.953</ele>
        <time>2020-07-02T14:00:24Z</time>
      </trkpt>
      <trkpt lat="51.89629" lon="4.20183">
        <ele>54.953</ele>
        <time>2020-07-02T14:00:30Z</time>
      </trkpt>
      <trkpt lat="51.89629" lon="4.20183">
        <ele>54.953</ele>
        <time>2020-07-02T14:00:36Z</time>
      </trkpt>
      <trkpt lat="51.89629" lon="4.20183">
        <ele>54.953</ele>
        <time>2020-07-02T14:00:42Z</time>
      </trkpt>
      <trkpt lat="51.89629" lon="4.20183">
        <ele>54.953</ele>
        <time>2020-07-02T14:00:47Z</time>
      </trkpt>
      <trkpt lat="51.89629" lon="4.20183">
        <ele>54.953</ele>
        <time>2020-07-02T14:00:52Z</time>
      </trkpt>
      <trkpt lat="51.89629" lon="4.20183">
        <ele>54.953</ele>
        <time>2020-07-02T14:00:58Z</time>
      </trkpt>
      <trkpt lat="51.89629" lon="4.20183">
        <ele>54.953</ele>
        <time>2020-07-02T14:01:03Z</time>
      </trkpt>
      <trkpt lat="51.89629" lon="4.20183">
        <ele>54.953</ele>
        <time>2020-07-02T14:01:09Z</time>
      </trkpt>
      <trkpt lat="51.89629" lon="4.20183">
        <ele>54.953</ele>
        <time>2020-07-02T14:01:14Z</time>
      </trkpt>
      <trkpt lat="51.89629" lon="4.20183">
        <ele>54.953</ele>
        <time>2020-07-02T14:01:19Z</time>
      </trkpt>
      <trkpt lat="51.89629" lon="4.20183">
        <ele>54.953</ele>
        <time>2020-07-02T14:01:25Z</time>
      </trkpt>
      <trkpt lat="51.89629" lon="4.20183">
        <ele>54.953</ele>
        <time>2020-07-02T14:01:31Z</time>
      </trkpt>
      <trkpt lat="51.89629" lon="4.20183">
        <ele>54.953</ele>
        <time>2020-07-02T14:01:36Z</time>
      </trkpt>
      <trkpt lat="51.89629" lon="4.20183">
        <ele>54.953</ele>
        <time>2020-07-02T14:01:41Z</time>
      </trkpt>
      <trkpt lat="51.89629" lon="4.20183">
        <ele>54.953</ele>
        <time>2020-07-02T14:01:47Z</time>
      </trkpt>
      <trkpt lat="51.89629" lon="4.20183">
        <ele>54.953</ele>
        <time>2020-07-02T14:01:53Z</time>
      </trkpt>
      <trkpt lat="51.89629" lon="4.20183">
        <ele>54.953</ele>
        <time>2020-07-02T14:01:59Z</time>
      </trkpt>
      <trkpt lat="51.89629" lon="4.20183">
        <ele>54.953</ele>
        <time>2020-07-02T14:02:05Z</time>
      </trkpt>
      <trkpt lat="51.89629" lon="4.20183">
        <ele>54.953</ele>
        <time>2020-07-02T14:02:10Z</time>
      </trkpt>
      <trkpt lat="51.89629" lon="4.20183">
        <ele>54.953</ele>
        <time>2020-07-02T14:02:16Z</time>
      </trkpt>
      <trkpt lat="51.89629" lon="4.20183">
        <ele>54.953</ele>
        <time>2020-07-02T14:02:22Z</time>
      </trkpt>
      <trkpt lat="51.89629" lon="4.20183">
        <ele>54.953</ele>
        <time>2020-07-02T14:02:28Z</time>
      </trkpt>
      <trkpt lat="51.89629" lon="4.20183">
        <ele>54.953</ele>
        <time>2020-07-02T14:02:33Z</time>
      </trkpt>
      <trkpt lat="51.89629" lon="4.20183">
        <ele>54.953</ele>
        <time>2020-07-02T14:02:38Z</time>
      </trkpt>
      <trkpt lat="51.89629" lon="4.20183">
        <ele>54.953</ele>
        <time>2020-07-02T14:02:44Z</time>
      </trkpt>
      <trkpt lat="51.89629" lon="4.20183">
        <ele>54.953</ele>
        <time>2020-07-02T14:02:49Z</time>
      </trkpt>
      <trkpt lat="51.89629" lon="4.20183">
        <ele>54.953</ele>
        <time>2020-07-02T14:02:55Z</time>
      </trkpt>
      <trkpt lat="51.89629" lon="4.20183">
        <ele>54.953</ele>
        <time>2020-07-02T14:03:00Z</time>
      </trkpt>
      <trkpt lat="51.89629" lon="4.20183">
        <ele>54.953</ele>
        <time>2020-07-02T14:03:06Z</time>
      </trkpt>
      <trkpt lat="51.89629" lon="4.20183">
        <ele>54.953</ele>
        <time>2020-07-02T14:03:11Z</time>
      </trkpt>
      <trkpt lat="51.89629" lon="4.20183">
        <ele>54.953</ele>
        <time>2020-07-02T14:03:17Z</time>
      </trkpt>
      <trkpt lat="51.89629" lon="4.20183">
        <ele>54.953</ele>
        <time>2020-07-02T14:03:23Z</time>
      </trkpt>
      <trkpt lat="51.89623" lon="4.20188">
        <ele>53.697</ele>
        <time>2020-07-02T14:06:37Z</time>
      </trkpt>
      <trkpt lat="51.89637" lon="4.20174">
        <ele>51.547</ele>
        <time>2020-07-02T14:06:42Z</time>
      </trkpt>
      <trkpt lat="51.89637" lon="4.20174">
        <ele>51.547</ele>
        <time>2020-07-02T14:06:47Z</time>
      </trkpt>
      <trkpt lat="51.89637" lon="4.20174">
        <ele>51.547</ele>
        <time>2020-07-02T14:06:53Z</time>
      </trkpt>
      <trkpt lat="51.89637" lon="4.20174">
        <ele>51.547</ele>
        <time>2020-07-02T14:06:58Z</time>
      </trkpt>
      <trkpt lat="51.89637" lon="4.20174">
        <ele>51.547</ele>
        <time>2020-07-02T14:07:03Z</time>
      </trkpt>
      <trkpt lat="51.89637" lon="4.20174">
        <ele>51.547</ele>
        <time>2020-07-02T14:07:09Z</time>
      </trkpt>
      <trkpt lat="51.89637" lon="4.20174">
        <ele>51.547</ele>
        <time>2020-07-02T14:07:15Z</time>
      </trkpt>
      <trkpt lat="51.89637" lon="4.20174">
        <ele>51.547</ele>
        <time>2020-07-02T14:07:20Z</time>
      </trkpt>
      <trkpt lat="51.89637" lon="4.20174">
        <ele>51.547</ele>
        <time>2020-07-02T14:07:26Z</time>
      </trkpt>
      <trkpt lat="51.89637" lon="4.20174">
        <ele>51.547</ele>
        <time>2020-07-02T14:07:32Z</time>
      </trkpt>
      <trkpt lat="51.89637" lon="4.20174">
        <ele>51.547</ele>
        <time>2020-07-02T14:07:38Z</time>
      </trkpt>
      <trkpt lat="51.89637" lon="4.20174">
        <ele>51.547</ele>
        <time>2020-07-02T14:07:44Z</time>
      </trkpt>
      <trkpt lat="51.89637" lon="4.20174">
        <ele>51.547</ele>
        <time>2020-07-02T14:07:50Z</time>
      </trkpt>
      <trkpt lat="51.89637" lon="4.20174">
        <ele>51.547</ele>
        <time>2020-07-02T14:07:56Z</time>
      </trkpt>
      <trkpt lat="51.89637" lon="4.20174">
        <ele>51.547</ele>
        <time>2020-07-02T14:08:02Z</time>
      </trkpt>
      <trkpt lat="51.89644" lon="4.20182">
        <ele>51.302</ele>
        <time>2020-07-02T14:08:07Z</time>
      </trkpt>
      <trkpt lat="51.89652" lon="4.20199">
        <ele>51.493</ele>
        <time>2020-07-02T14:08:13Z</time>
      </trkpt>
      <trkpt lat="51.89663" lon="4.20217">
        <ele>51.197</ele>
        <time>2020-07-02T14:08:18Z</time>
      </trkpt>
      <trkpt lat="51.8968" lon="4.20244">
        <ele>51.624</ele>
        <time>2020-07-02T14:08:24Z</time>
      </trkpt>
      <trkpt lat="51.89697" lon="4.20267">
        <ele>51.53</ele>
        <time>2020-07-02T14:08:29Z</time>
      </trkpt>
      <trkpt lat="51.89718" lon="4.20299">
        <ele>51.139</ele>
        <time>2020-07-02T14:08:35Z</time>
      </trkpt>
      <trkpt lat="51.89737" lon="4.20327">
        <ele>49.928</ele>
        <time>2020-07-02T14:08:40Z</time>
      </trkpt>
      <trkpt lat="51.89761" lon="4.2036">
        <ele>47.914</ele>
        <time>2020-07-02T14:08:46Z</time>
      </trkpt>
      <trkpt lat="51.89783" lon="4.20389">
        <ele>46.38</ele>
        <time>2020-07-02T14:08:52Z</time>
      </trkpt>
      <trkpt lat="51.89797" lon="4.20412">
        <ele>45.62</ele>
        <time>2020-07-02T14:08:57Z</time>
      </trkpt>
      <trkpt lat="51.89814" lon="4.20438">
        <ele>44.228</ele>
        <time>2020-07-02T14:09:03Z</time>
      </trkpt>
      <trkpt lat="51.89825" lon="4.20462">
        <ele>43.144</ele>
        <time>2020-07-02T14:09:08Z</time>
      </trkpt>
      <trkpt lat="51.89837" lon="4.2048">
        <ele>41.88</ele>
        <time>2020-07-02T14:09:13Z</time>
      </trkpt>
      <trkpt lat="51.89853" lon="4.20514">
        <ele>40.322</ele>
        <time>2020-07-02T14:09:20Z</time>
      </trkpt>
      <trkpt lat="51.89864" lon="4.20548">
        <ele>38.85</ele>
        <time>2020-07-02T14:09:26Z</time>
      </trkpt>
      <trkpt lat="51.89866" lon="4.20579">
        <ele>41.793</ele>
        <time>2020-07-02T14:09:32Z</time>
      </trkpt>
      <trkpt lat="51.89856" lon="4.20599">
        <ele>43.488</ele>
        <time>2020-07-02T14:09:38Z</time>
      </trkpt>
      <trkpt lat="51.89838" lon="4.20618">
        <ele>40.538</ele>
        <time>2020-07-02T14:09:44Z</time>
      </trkpt>
      <trkpt lat="51.89824" lon="4.20629">
        <ele>40.208</ele>
        <time>2020-07-02T14:09:49Z</time>
      </trkpt>
      <trkpt lat="51.89811" lon="4.20628">
        <ele>42.398</ele>
        <time>2020-07-02T14:09:55Z</time>
      </trkpt>
      <trkpt lat="51.89803" lon="4.206">
        <ele>42.89</ele>
        <time>2020-07-02T14:10:01Z</time>
      </trkpt>
      <trkpt lat="51.89793" lon="4.20583">
        <ele>43.638</ele>
        <time>2020-07-02T14:10:06Z</time>
      </trkpt>
      <trkpt lat="51.89783" lon="4.20565">
        <ele>44.895</ele>
        <time>2020-07-02T14:10:11Z</time>
      </trkpt>
      <trkpt lat="51.89772" lon="4.20547">
        <ele>45.867</ele>
        <time>2020-07-02T14:10:16Z</time>
      </trkpt>
      <trkpt lat="51.8976" lon="4.20528">
        <ele>46.774</ele>
        <time>2020-07-02T14:10:22Z</time>
      </trkpt>
      <trkpt lat="51.8975" lon="4.20506">
        <ele>47.347</ele>
        <time>2020-07-02T14:10:28Z</time>
      </trkpt>
      <trkpt lat="51.89739" lon="4.20486">
        <ele>48.541</ele>
        <time>2020-07-02T14:10:34Z</time>
      </trkpt>
      <trkpt lat="51.89729" lon="4.20464">
        <ele>49.061</ele>
        <time>2020-07-02T14:10:40Z</time>
      </trkpt>
      <trkpt lat="51.89716" lon="4.2044">
        <ele>49.332</ele>
        <time>2020-07-02T14:10:46Z</time>
      </trkpt>
      <trkpt lat="51.89702" lon="4.20414">
        <ele>49.672</ele>
        <time>2020-07-02T14:10:52Z</time>
      </trkpt>
      <trkpt lat="51.89691" lon="4.20394">
        <ele>47.63</ele>
        <time>2020-07-02T14:10:57Z</time>
      </trkpt>
      <trkpt lat="51.89677" lon="4.20371">
        <ele>45.729</ele>
        <time>2020-07-02T14:11:03Z</time>
      </trkpt>
      <trkpt lat="51.89667" lon="4.20354">
        <ele>45.199</ele>
        <time>2020-07-02T14:11:08Z</time>
      </trkpt>
      <trkpt lat="51.89656" lon="4.20337">
        <ele>44.888</ele>
        <time>2020-07-02T14:11:14Z</time>
      </trkpt>
      <trkpt lat="51.89645" lon="4.20319">
        <ele>43.904</ele>
        <time>2020-07-02T14:11:20Z</time>
      </trkpt>
      <trkpt lat="51.89642" lon="4.20297">
        <ele>44.439</ele>
        <time>2020-07-02T14:11:26Z</time>
      </trkpt>
      <trkpt lat="51.89655" lon="4.20309">
        <ele>45.689</ele>
        <time>2020-07-02T14:11:32Z</time>
      </trkpt>
      <trkpt lat="51.89666" lon="4.20323">
        <ele>46.623</ele>
        <time>2020-07-02T14:11:37Z</time>
      </trkpt>
      <trkpt lat="51.89675" lon="4.20336">
        <ele>47.105</ele>
        <time>2020-07-02T14:11:42Z</time>
      </trkpt>
      <trkpt lat="51.89686" lon="4.20353">
        <ele>47.887</ele>
        <time>2020-07-02T14:11:47Z</time>
      </trkpt>
      <trkpt lat="51.89698" lon="4.20372">
        <ele>49.251</ele>
        <time>2020-07-02T14:11:53Z</time>
      </trkpt>
      <trkpt lat="51.89707" lon="4.20388">
        <ele>51.555</ele>
        <time>2020-07-02T14:11:59Z</time>
      </trkpt>
      <trkpt lat="51.89714" lon="4.20401">
        <ele>53.19</ele>
        <time>2020-07-02T14:12:04Z</time>
      </trkpt>
      <trkpt lat="51.89723" lon="4.20415">
        <ele>53.901</ele>
        <time>2020-07-02T14:12:09Z</time>
      </trkpt>
      <trkpt lat="51.89733" lon="4.20432">
        <ele>54.232</ele>
        <time>2020-07-02T14:12:15Z</time>
      </trkpt>
      <trkpt lat="51.89744" lon="4.20448">
        <ele>54.17</ele>
        <time>2020-07-02T14:12:21Z</time>
      </trkpt>
      <trkpt lat="51.89751" lon="4.20461">
        <ele>54.666</ele>
        <time>2020-07-02T14:12:26Z</time>
      </trkpt>
      <trkpt lat="51.89759" lon="4.20473">
        <ele>55.29</ele>
        <time>2020-07-02T14:12:31Z</time>
      </trkpt>
      <trkpt lat="51.89767" lon="4.20486">
        <ele>54.889</ele>
        <time>2020-07-02T14:12:36Z</time>
      </trkpt>
      <trkpt lat="51.89777" lon="4.20502">
        <ele>55.565</ele>
        <time>2020-07-02T14:12:42Z</time>
      </trkpt>
      <trkpt lat="51.89786" lon="4.20519">
        <ele>55.587</ele>
        <time>2020-07-02T14:12:48Z</time>
      </trkpt>
      <trkpt lat="51.89795" lon="4.20535">
        <ele>56.193</ele>
        <time>2020-07-02T14:12:54Z</time>
      </trkpt>
      <trkpt lat="51.89805" lon="4.2055">
        <ele>58.094</ele>
        <time>2020-07-02T14:12:59Z</time>
      </trkpt>
      <trkpt lat="51.89816" lon="4.20568">
        <ele>58.614</ele>
        <time>2020-07-02T14:13:05Z</time>
      </trkpt>
      <trkpt lat="51.89831" lon="4.20592">
        <ele>59.971</ele>
        <time>2020-07-02T14:13:11Z</time>
      </trkpt>
      <trkpt lat="51.89847" lon="4.20619">
        <ele>59.432</ele>
        <time>2020-07-02T14:13:18Z</time>
      </trkpt>
      <trkpt lat="51.89858" lon="4.20638">
        <ele>59.183</ele>
        <time>2020-07-02T14:13:23Z</time>
      </trkpt>
      <trkpt lat="51.89872" lon="4.2066">
        <ele>59.473</ele>
        <time>2020-07-02T14:13:29Z</time>
      </trkpt>
      <trkpt lat="51.89884" lon="4.20677">
        <ele>58.405</ele>
        <time>2020-07-02T14:13:34Z</time>
      </trkpt>
      <trkpt lat="51.89894" lon="4.20695">
        <ele>57.614</ele>
        <time>2020-07-02T14:13:39Z</time>
      </trkpt>
      <trkpt lat="51.89905" lon="4.20713">
        <ele>57.356</ele>
        <time>2020-07-02T14:13:44Z</time>
      </trkpt>
      <trkpt lat="51.89918" lon="4.20735">
        <ele>57.591</ele>
        <time>2020-07-02T14:13:50Z</time>
      </trkpt>
      <trkpt lat="51.89931" lon="4.2076">
        <ele>57.909</ele>
        <time>2020-07-02T14:13:56Z</time>
      </trkpt>
      <trkpt lat="51.89944" lon="4.20781">
        <ele>58.578</ele>
        <time>2020-07-02T14:14:01Z</time>
      </trkpt>
      <trkpt lat="51.89956" lon="4.20801">
        <ele>59.612</ele>
        <time>2020-07-02T14:14:06Z</time>
      </trkpt>
      <trkpt lat="51.8997" lon="4.20825">
        <ele>58.279</ele>
        <time>2020-07-02T14:14:12Z</time>
      </trkpt>
      <trkpt lat="51.89983" lon="4.20846">
        <ele>57.523</ele>
        <time>2020-07-02T14:14:17Z</time>
      </trkpt>
    </trkseg>
  </trk>
</gpx>